<?xml version="1.0" encoding="utf-8"?>
<gpx xmlns:xsi="http://www.w3.org/2001/XMLSchema-instance" xmlns:xsd="http://www.w3.org/2001/XMLSchema" version="1.1" creator="Shapelink.com" xmlns="http://www.topografix.com/GPX/1/1" xmlns:gpxtpx="http://www.garmin.com/xmlschemas/TrackPointExtension/v1">
  <metadata>
    <name>Längdskidåkning - Klassisk 45.64 km, 2013-03-09</name>
    <desc></desc>
    <author><name>Alexander Engvall</name></author> 
    <time>2013-03-09T10:22:12Z</time>
  </metadata>
  <trk>
    <name>Längdskidåkning - Klassisk 45.64 km, 2013-03-09</name>
    <trkseg>
      <trkpt lat="59.1921368" lon="17.9016293">
        <ele>70.6</ele>
        <time>2013-03-09T10:22:12Z</time>
      </trkpt>
      <trkpt lat="59.1919425" lon="17.9017963">
        <ele>67.4</ele>
        <time>2013-03-09T10:22:17Z</time>
      </trkpt>
      <trkpt lat="59.1917772" lon="17.9019728">
        <ele>64.4</ele>
        <time>2013-03-09T10:22:21Z</time>
      </trkpt>
      <trkpt lat="59.1916055" lon="17.9021535">
        <ele>61.4</ele>
        <time>2013-03-09T10:22:25Z</time>
      </trkpt>
      <trkpt lat="59.1915723" lon="17.9021976">
        <ele>61</ele>
        <time>2013-03-09T10:22:26Z</time>
      </trkpt>
      <trkpt lat="59.1914998" lon="17.9024853">
        <ele>61.4</ele>
        <time>2013-03-09T10:22:29Z</time>
      </trkpt>
      <trkpt lat="59.1915003" lon="17.9026626">
        <ele>61.4</ele>
        <time>2013-03-09T10:22:31Z</time>
      </trkpt>
      <trkpt lat="59.1915065" lon="17.9027408">
        <ele>61.4</ele>
        <time>2013-03-09T10:22:32Z</time>
      </trkpt>
      <trkpt lat="59.1915284" lon="17.9029135">
        <ele>62.8</ele>
        <time>2013-03-09T10:22:34Z</time>
      </trkpt>
      <trkpt lat="59.191556" lon="17.9032439">
        <ele>61.6</ele>
        <time>2013-03-09T10:22:38Z</time>
      </trkpt>
      <trkpt lat="59.1915267" lon="17.9032901">
        <ele>61.6</ele>
        <time>2013-03-09T10:22:39Z</time>
      </trkpt>
      <trkpt lat="59.1913419" lon="17.9034402">
        <ele>63.8</ele>
        <time>2013-03-09T10:22:44Z</time>
      </trkpt>
      <trkpt lat="59.1912469" lon="17.9034505">
        <ele>63.4</ele>
        <time>2013-03-09T10:22:46Z</time>
      </trkpt>
      <trkpt lat="59.1912055" lon="17.9034491">
        <ele>63.2</ele>
        <time>2013-03-09T10:22:47Z</time>
      </trkpt>
      <trkpt lat="59.1911567" lon="17.9034564">
        <ele>63.8</ele>
        <time>2013-03-09T10:22:48Z</time>
      </trkpt>
      <trkpt lat="59.1909895" lon="17.903426">
        <ele>62.2</ele>
        <time>2013-03-09T10:22:52Z</time>
      </trkpt>
      <trkpt lat="59.1909551" lon="17.9034178">
        <ele>61.2</ele>
        <time>2013-03-09T10:22:53Z</time>
      </trkpt>
      <trkpt lat="59.1907585" lon="17.9033381">
        <ele>63.8</ele>
        <time>2013-03-09T10:22:58Z</time>
      </trkpt>
      <trkpt lat="59.1905885" lon="17.903281">
        <ele>63.8</ele>
        <time>2013-03-09T10:23:02Z</time>
      </trkpt>
      <trkpt lat="59.190539" lon="17.9032738">
        <ele>63.6</ele>
        <time>2013-03-09T10:23:03Z</time>
      </trkpt>
      <trkpt lat="59.1904902" lon="17.9032516">
        <ele>63.6</ele>
        <time>2013-03-09T10:23:04Z</time>
      </trkpt>
      <trkpt lat="59.1903634" lon="17.9031549">
        <ele>65</ele>
        <time>2013-03-09T10:23:07Z</time>
      </trkpt>
      <trkpt lat="59.190304" lon="17.903065">
        <ele>65</ele>
        <time>2013-03-09T10:23:09Z</time>
      </trkpt>
      <trkpt lat="59.1902365" lon="17.9028626">
        <ele>65.6</ele>
        <time>2013-03-09T10:23:12Z</time>
      </trkpt>
      <trkpt lat="59.1902222" lon="17.9027917">
        <ele>65.4</ele>
        <time>2013-03-09T10:23:13Z</time>
      </trkpt>
      <trkpt lat="59.1901624" lon="17.902504">
        <ele>66.8</ele>
        <time>2013-03-09T10:23:17Z</time>
      </trkpt>
      <trkpt lat="59.1900952" lon="17.9022848">
        <ele>66.4</ele>
        <time>2013-03-09T10:23:20Z</time>
      </trkpt>
      <trkpt lat="59.19004" lon="17.9021391">
        <ele>66.4</ele>
        <time>2013-03-09T10:23:22Z</time>
      </trkpt>
      <trkpt lat="59.1900125" lon="17.9020643">
        <ele>66.2</ele>
        <time>2013-03-09T10:23:23Z</time>
      </trkpt>
      <trkpt lat="59.1899362" lon="17.9018401">
        <ele>66</ele>
        <time>2013-03-09T10:23:26Z</time>
      </trkpt>
      <trkpt lat="59.1898593" lon="17.9016332">
        <ele>65.8</ele>
        <time>2013-03-09T10:23:29Z</time>
      </trkpt>
      <trkpt lat="59.1897893" lon="17.9015122">
        <ele>66.2</ele>
        <time>2013-03-09T10:23:31Z</time>
      </trkpt>
      <trkpt lat="59.1896618" lon="17.9012775">
        <ele>65</ele>
        <time>2013-03-09T10:23:35Z</time>
      </trkpt>
      <trkpt lat="59.1896246" lon="17.9012226">
        <ele>65.2</ele>
        <time>2013-03-09T10:23:36Z</time>
      </trkpt>
      <trkpt lat="59.1895317" lon="17.9010383">
        <ele>64.6</ele>
        <time>2013-03-09T10:23:39Z</time>
      </trkpt>
      <trkpt lat="59.1894991" lon="17.9009718">
        <ele>64.8</ele>
        <time>2013-03-09T10:23:40Z</time>
      </trkpt>
      <trkpt lat="59.1894064" lon="17.9008137">
        <ele>65.4</ele>
        <time>2013-03-09T10:23:43Z</time>
      </trkpt>
      <trkpt lat="59.189336" lon="17.9006946">
        <ele>65.6</ele>
        <time>2013-03-09T10:23:45Z</time>
      </trkpt>
      <trkpt lat="59.1892462" lon="17.9005278">
        <ele>65.6</ele>
        <time>2013-03-09T10:23:48Z</time>
      </trkpt>
      <trkpt lat="59.1891729" lon="17.9003917">
        <ele>65.8</ele>
        <time>2013-03-09T10:23:50Z</time>
      </trkpt>
      <trkpt lat="59.1890987" lon="17.900243">
        <ele>65.8</ele>
        <time>2013-03-09T10:23:52Z</time>
      </trkpt>
      <trkpt lat="59.1890304" lon="17.9000855">
        <ele>66</ele>
        <time>2013-03-09T10:23:54Z</time>
      </trkpt>
      <trkpt lat="59.1889185" lon="17.8997814">
        <ele>65.6</ele>
        <time>2013-03-09T10:23:58Z</time>
      </trkpt>
      <trkpt lat="59.188889" lon="17.8997124">
        <ele>65.8</ele>
        <time>2013-03-09T10:23:59Z</time>
      </trkpt>
      <trkpt lat="59.1888157" lon="17.8994755">
        <ele>65.8</ele>
        <time>2013-03-09T10:24:02Z</time>
      </trkpt>
      <trkpt lat="59.1887589" lon="17.8992267">
        <ele>66.2</ele>
        <time>2013-03-09T10:24:05Z</time>
      </trkpt>
      <trkpt lat="59.1887487" lon="17.8991354">
        <ele>66.8</ele>
        <time>2013-03-09T10:24:06Z</time>
      </trkpt>
      <trkpt lat="59.1887355" lon="17.8988552">
        <ele>67.4</ele>
        <time>2013-03-09T10:24:09Z</time>
      </trkpt>
      <trkpt lat="59.1887388" lon="17.8987641">
        <ele>67.6</ele>
        <time>2013-03-09T10:24:10Z</time>
      </trkpt>
      <trkpt lat="59.1887726" lon="17.8984357">
        <ele>67.6</ele>
        <time>2013-03-09T10:24:14Z</time>
      </trkpt>
      <trkpt lat="59.1887807" lon="17.8983534">
        <ele>68.6</ele>
        <time>2013-03-09T10:24:15Z</time>
      </trkpt>
      <trkpt lat="59.1887584" lon="17.8981068">
        <ele>70</ele>
        <time>2013-03-09T10:24:18Z</time>
      </trkpt>
      <trkpt lat="59.1887335" lon="17.8979717">
        <ele>70.4</ele>
        <time>2013-03-09T10:24:20Z</time>
      </trkpt>
      <trkpt lat="59.1887077" lon="17.8976181">
        <ele>70.8</ele>
        <time>2013-03-09T10:24:26Z</time>
      </trkpt>
      <trkpt lat="59.1887174" lon="17.8972319">
        <ele>72.4</ele>
        <time>2013-03-09T10:24:31Z</time>
      </trkpt>
      <trkpt lat="59.1886588" lon="17.8968371">
        <ele>76.6</ele>
        <time>2013-03-09T10:24:36Z</time>
      </trkpt>
      <trkpt lat="59.1886196" lon="17.8966888">
        <ele>77.4</ele>
        <time>2013-03-09T10:24:38Z</time>
      </trkpt>
      <trkpt lat="59.1885693" lon="17.8964902">
        <ele>78</ele>
        <time>2013-03-09T10:24:41Z</time>
      </trkpt>
      <trkpt lat="59.1885496" lon="17.8964206">
        <ele>78.2</ele>
        <time>2013-03-09T10:24:42Z</time>
      </trkpt>
      <trkpt lat="59.1884575" lon="17.8961974">
        <ele>78.2</ele>
        <time>2013-03-09T10:24:46Z</time>
      </trkpt>
      <trkpt lat="59.1883667" lon="17.8960071">
        <ele>77</ele>
        <time>2013-03-09T10:24:49Z</time>
      </trkpt>
      <trkpt lat="59.1882866" lon="17.8959257">
        <ele>75.6</ele>
        <time>2013-03-09T10:24:51Z</time>
      </trkpt>
      <trkpt lat="59.1882017" lon="17.8958735">
        <ele>75.8</ele>
        <time>2013-03-09T10:24:53Z</time>
      </trkpt>
      <trkpt lat="59.1880892" lon="17.8958944">
        <ele>75.4</ele>
        <time>2013-03-09T10:24:56Z</time>
      </trkpt>
      <trkpt lat="59.188012" lon="17.8958957">
        <ele>74.2</ele>
        <time>2013-03-09T10:24:58Z</time>
      </trkpt>
      <trkpt lat="59.1878772" lon="17.8958845">
        <ele>73.6</ele>
        <time>2013-03-09T10:25:01Z</time>
      </trkpt>
      <trkpt lat="59.1876814" lon="17.8958644">
        <ele>71</ele>
        <time>2013-03-09T10:25:06Z</time>
      </trkpt>
      <trkpt lat="59.1876399" lon="17.8958779">
        <ele>71.2</ele>
        <time>2013-03-09T10:25:07Z</time>
      </trkpt>
      <trkpt lat="59.1874716" lon="17.8959439">
        <ele>68.2</ele>
        <time>2013-03-09T10:25:11Z</time>
      </trkpt>
      <trkpt lat="59.187313" lon="17.895954">
        <ele>67.4</ele>
        <time>2013-03-09T10:25:15Z</time>
      </trkpt>
      <trkpt lat="59.1872724" lon="17.895949">
        <ele>67.8</ele>
        <time>2013-03-09T10:25:16Z</time>
      </trkpt>
      <trkpt lat="59.1871827" lon="17.8959633">
        <ele>67.4</ele>
        <time>2013-03-09T10:25:18Z</time>
      </trkpt>
      <trkpt lat="59.1870662" lon="17.8960009">
        <ele>68</ele>
        <time>2013-03-09T10:25:21Z</time>
      </trkpt>
      <trkpt lat="59.1868843" lon="17.8958486">
        <ele>70.2</ele>
        <time>2013-03-09T10:25:25Z</time>
      </trkpt>
      <trkpt lat="59.1867057" lon="17.8955512">
        <ele>71.4</ele>
        <time>2013-03-09T10:25:29Z</time>
      </trkpt>
      <trkpt lat="59.18666" lon="17.8954769">
        <ele>70.4</ele>
        <time>2013-03-09T10:25:30Z</time>
      </trkpt>
      <trkpt lat="59.1865153" lon="17.8952634">
        <ele>68</ele>
        <time>2013-03-09T10:25:33Z</time>
      </trkpt>
      <trkpt lat="59.1863684" lon="17.8950494">
        <ele>66.6</ele>
        <time>2013-03-09T10:25:36Z</time>
      </trkpt>
      <trkpt lat="59.1862061" lon="17.8948134">
        <ele>66</ele>
        <time>2013-03-09T10:25:40Z</time>
      </trkpt>
      <trkpt lat="59.1861307" lon="17.8946983">
        <ele>65.4</ele>
        <time>2013-03-09T10:25:42Z</time>
      </trkpt>
      <trkpt lat="59.1860594" lon="17.8945707">
        <ele>66</ele>
        <time>2013-03-09T10:25:44Z</time>
      </trkpt>
      <trkpt lat="59.1859664" lon="17.8944398">
        <ele>66.2</ele>
        <time>2013-03-09T10:25:46Z</time>
      </trkpt>
      <trkpt lat="59.1858914" lon="17.8943872">
        <ele>66.8</ele>
        <time>2013-03-09T10:25:48Z</time>
      </trkpt>
      <trkpt lat="59.1857199" lon="17.894516">
        <ele>67.4</ele>
        <time>2013-03-09T10:25:53Z</time>
      </trkpt>
      <trkpt lat="59.1856872" lon="17.894565">
        <ele>66.8</ele>
        <time>2013-03-09T10:25:54Z</time>
      </trkpt>
      <trkpt lat="59.1855093" lon="17.8946366">
        <ele>68.2</ele>
        <time>2013-03-09T10:25:58Z</time>
      </trkpt>
      <trkpt lat="59.1853588" lon="17.8943955">
        <ele>67.4</ele>
        <time>2013-03-09T10:26:02Z</time>
      </trkpt>
      <trkpt lat="59.1853163" lon="17.8942125">
        <ele>68.2</ele>
        <time>2013-03-09T10:26:04Z</time>
      </trkpt>
      <trkpt lat="59.1852975" lon="17.8941155">
        <ele>67.8</ele>
        <time>2013-03-09T10:26:05Z</time>
      </trkpt>
      <trkpt lat="59.1852824" lon="17.8940088">
        <ele>67.8</ele>
        <time>2013-03-09T10:26:06Z</time>
      </trkpt>
      <trkpt lat="59.1851907" lon="17.8936717">
        <ele>65.4</ele>
        <time>2013-03-09T10:26:10Z</time>
      </trkpt>
      <trkpt lat="59.1851708" lon="17.8936123">
        <ele>65.6</ele>
        <time>2013-03-09T10:26:11Z</time>
      </trkpt>
      <trkpt lat="59.1850122" lon="17.8935601">
        <ele>65.6</ele>
        <time>2013-03-09T10:26:15Z</time>
      </trkpt>
      <trkpt lat="59.184833" lon="17.8934904">
        <ele>63.2</ele>
        <time>2013-03-09T10:26:18Z</time>
      </trkpt>
      <trkpt lat="59.1847189" lon="17.8934702">
        <ele>64.6</ele>
        <time>2013-03-09T10:26:20Z</time>
      </trkpt>
      <trkpt lat="59.1846157" lon="17.8934017">
        <ele>64.4</ele>
        <time>2013-03-09T10:26:22Z</time>
      </trkpt>
      <trkpt lat="59.1845652" lon="17.8933623">
        <ele>63.8</ele>
        <time>2013-03-09T10:26:23Z</time>
      </trkpt>
      <trkpt lat="59.1844036" lon="17.8931876">
        <ele>64.4</ele>
        <time>2013-03-09T10:26:26Z</time>
      </trkpt>
      <trkpt lat="59.1842388" lon="17.893024">
        <ele>66.6</ele>
        <time>2013-03-09T10:26:29Z</time>
      </trkpt>
      <trkpt lat="59.1841258" lon="17.8929268">
        <ele>67</ele>
        <time>2013-03-09T10:26:31Z</time>
      </trkpt>
      <trkpt lat="59.184028" lon="17.8928658">
        <ele>66.2</ele>
        <time>2013-03-09T10:26:33Z</time>
      </trkpt>
      <trkpt lat="59.1839063" lon="17.8927814">
        <ele>66.2</ele>
        <time>2013-03-09T10:26:36Z</time>
      </trkpt>
      <trkpt lat="59.1838421" lon="17.8926584">
        <ele>68.2</ele>
        <time>2013-03-09T10:26:38Z</time>
      </trkpt>
      <trkpt lat="59.1838079" lon="17.8922476">
        <ele>70.2</ele>
        <time>2013-03-09T10:26:43Z</time>
      </trkpt>
      <trkpt lat="59.1838009" lon="17.8921616">
        <ele>69.8</ele>
        <time>2013-03-09T10:26:44Z</time>
      </trkpt>
      <trkpt lat="59.1837933" lon="17.8919906">
        <ele>69.6</ele>
        <time>2013-03-09T10:26:46Z</time>
      </trkpt>
      <trkpt lat="59.1837944" lon="17.8918861">
        <ele>70.4</ele>
        <time>2013-03-09T10:26:47Z</time>
      </trkpt>
      <trkpt lat="59.1838053" lon="17.8915357">
        <ele>69.4</ele>
        <time>2013-03-09T10:26:51Z</time>
      </trkpt>
      <trkpt lat="59.1838125" lon="17.8914457">
        <ele>70.2</ele>
        <time>2013-03-09T10:26:52Z</time>
      </trkpt>
      <trkpt lat="59.183827" lon="17.8911785">
        <ele>69</ele>
        <time>2013-03-09T10:26:55Z</time>
      </trkpt>
      <trkpt lat="59.1838259" lon="17.891095">
        <ele>68</ele>
        <time>2013-03-09T10:26:56Z</time>
      </trkpt>
      <trkpt lat="59.1838244" lon="17.8910083">
        <ele>68</ele>
        <time>2013-03-09T10:26:57Z</time>
      </trkpt>
      <trkpt lat="59.1838157" lon="17.8909281">
        <ele>67.8</ele>
        <time>2013-03-09T10:26:58Z</time>
      </trkpt>
      <trkpt lat="59.1837783" lon="17.8906607">
        <ele>68</ele>
        <time>2013-03-09T10:27:02Z</time>
      </trkpt>
      <trkpt lat="59.1837602" lon="17.8902802">
        <ele>71.2</ele>
        <time>2013-03-09T10:27:10Z</time>
      </trkpt>
      <trkpt lat="59.1837906" lon="17.8899056">
        <ele>74</ele>
        <time>2013-03-09T10:27:16Z</time>
      </trkpt>
      <trkpt lat="59.1837663" lon="17.8895601">
        <ele>75.6</ele>
        <time>2013-03-09T10:27:23Z</time>
      </trkpt>
      <trkpt lat="59.1837063" lon="17.8892401">
        <ele>75.4</ele>
        <time>2013-03-09T10:27:28Z</time>
      </trkpt>
      <trkpt lat="59.1836155" lon="17.8889054">
        <ele>73.2</ele>
        <time>2013-03-09T10:27:35Z</time>
      </trkpt>
      <trkpt lat="59.1835451" lon="17.8885852">
        <ele>75.2</ele>
        <time>2013-03-09T10:27:41Z</time>
      </trkpt>
      <trkpt lat="59.1835084" lon="17.8881929">
        <ele>77.6</ele>
        <time>2013-03-09T10:27:46Z</time>
      </trkpt>
      <trkpt lat="59.183525" lon="17.8878251">
        <ele>78.4</ele>
        <time>2013-03-09T10:27:50Z</time>
      </trkpt>
      <trkpt lat="59.1835118" lon="17.8875923">
        <ele>78.6</ele>
        <time>2013-03-09T10:27:52Z</time>
      </trkpt>
      <trkpt lat="59.1834754" lon="17.8873965">
        <ele>78.6</ele>
        <time>2013-03-09T10:27:54Z</time>
      </trkpt>
      <trkpt lat="59.1834566" lon="17.8872834">
        <ele>78.2</ele>
        <time>2013-03-09T10:27:55Z</time>
      </trkpt>
      <trkpt lat="59.1834104" lon="17.8869991">
        <ele>77</ele>
        <time>2013-03-09T10:27:57Z</time>
      </trkpt>
      <trkpt lat="59.1833328" lon="17.8866385">
        <ele>75</ele>
        <time>2013-03-09T10:27:59Z</time>
      </trkpt>
      <trkpt lat="59.1832611" lon="17.8862935">
        <ele>73.2</ele>
        <time>2013-03-09T10:28:01Z</time>
      </trkpt>
      <trkpt lat="59.1831659" lon="17.8858268">
        <ele>71.2</ele>
        <time>2013-03-09T10:28:05Z</time>
      </trkpt>
      <trkpt lat="59.1830695" lon="17.8854005">
        <ele>71</ele>
        <time>2013-03-09T10:28:07Z</time>
      </trkpt>
      <trkpt lat="59.1830531" lon="17.8852633">
        <ele>70.4</ele>
        <time>2013-03-09T10:28:08Z</time>
      </trkpt>
      <trkpt lat="59.1830452" lon="17.8850015">
        <ele>70</ele>
        <time>2013-03-09T10:28:10Z</time>
      </trkpt>
      <trkpt lat="59.1830982" lon="17.8846642">
        <ele>68.6</ele>
        <time>2013-03-09T10:28:13Z</time>
      </trkpt>
      <trkpt lat="59.1831145" lon="17.8844546">
        <ele>66.2</ele>
        <time>2013-03-09T10:28:15Z</time>
      </trkpt>
      <trkpt lat="59.1831378" lon="17.884238">
        <ele>66</ele>
        <time>2013-03-09T10:28:17Z</time>
      </trkpt>
      <trkpt lat="59.1831567" lon="17.8841447">
        <ele>66.4</ele>
        <time>2013-03-09T10:28:18Z</time>
      </trkpt>
      <trkpt lat="59.1832483" lon="17.8839273">
        <ele>65</ele>
        <time>2013-03-09T10:28:21Z</time>
      </trkpt>
      <trkpt lat="59.183355" lon="17.8836995">
        <ele>63.8</ele>
        <time>2013-03-09T10:28:24Z</time>
      </trkpt>
      <trkpt lat="59.1833888" lon="17.883628">
        <ele>63.6</ele>
        <time>2013-03-09T10:28:25Z</time>
      </trkpt>
      <trkpt lat="59.1835385" lon="17.8833444">
        <ele>62.4</ele>
        <time>2013-03-09T10:28:29Z</time>
      </trkpt>
      <trkpt lat="59.1835716" lon="17.8832688">
        <ele>61.8</ele>
        <time>2013-03-09T10:28:31Z</time>
      </trkpt>
      <trkpt lat="59.1836613" lon="17.883073">
        <ele>60.6</ele>
        <time>2013-03-09T10:28:33Z</time>
      </trkpt>
      <trkpt lat="59.1838068" lon="17.8828052">
        <ele>60.2</ele>
        <time>2013-03-09T10:28:37Z</time>
      </trkpt>
      <trkpt lat="59.1838461" lon="17.8827391">
        <ele>60.2</ele>
        <time>2013-03-09T10:28:38Z</time>
      </trkpt>
      <trkpt lat="59.1839555" lon="17.882536">
        <ele>59.8</ele>
        <time>2013-03-09T10:28:42Z</time>
      </trkpt>
      <trkpt lat="59.1840162" lon="17.8823814">
        <ele>59.8</ele>
        <time>2013-03-09T10:28:43Z</time>
      </trkpt>
      <trkpt lat="59.1840621" lon="17.8821878">
        <ele>60</ele>
        <time>2013-03-09T10:28:45Z</time>
      </trkpt>
      <trkpt lat="59.1840744" lon="17.8820909">
        <ele>61.2</ele>
        <time>2013-03-09T10:28:46Z</time>
      </trkpt>
      <trkpt lat="59.184044" lon="17.8817951">
        <ele>62.2</ele>
        <time>2013-03-09T10:28:50Z</time>
      </trkpt>
      <trkpt lat="59.1839445" lon="17.8815413">
        <ele>61.8</ele>
        <time>2013-03-09T10:28:53Z</time>
      </trkpt>
      <trkpt lat="59.1839017" lon="17.8814425">
        <ele>61.6</ele>
        <time>2013-03-09T10:28:54Z</time>
      </trkpt>
      <trkpt lat="59.1837555" lon="17.8810884">
        <ele>61.2</ele>
        <time>2013-03-09T10:28:56Z</time>
      </trkpt>
      <trkpt lat="59.1836339" lon="17.8807332">
        <ele>60.4</ele>
        <time>2013-03-09T10:28:59Z</time>
      </trkpt>
      <trkpt lat="59.1835997" lon="17.8806163">
        <ele>60</ele>
        <time>2013-03-09T10:29:00Z</time>
      </trkpt>
      <trkpt lat="59.1835395" lon="17.8803878">
        <ele>59.4</ele>
        <time>2013-03-09T10:29:02Z</time>
      </trkpt>
      <trkpt lat="59.1834157" lon="17.8800786">
        <ele>59.4</ele>
        <time>2013-03-09T10:29:05Z</time>
      </trkpt>
      <trkpt lat="59.1832018" lon="17.8799189">
        <ele>59.8</ele>
        <time>2013-03-09T10:29:10Z</time>
      </trkpt>
      <trkpt lat="59.1831515" lon="17.8798744">
        <ele>59.4</ele>
        <time>2013-03-09T10:29:11Z</time>
      </trkpt>
      <trkpt lat="59.1830018" lon="17.8797475">
        <ele>59.6</ele>
        <time>2013-03-09T10:29:14Z</time>
      </trkpt>
      <trkpt lat="59.1828261" lon="17.8795993">
        <ele>58.4</ele>
        <time>2013-03-09T10:29:17Z</time>
      </trkpt>
      <trkpt lat="59.182653" lon="17.8793647">
        <ele>58.2</ele>
        <time>2013-03-09T10:29:20Z</time>
      </trkpt>
      <trkpt lat="59.1826066" lon="17.8792594">
        <ele>58</ele>
        <time>2013-03-09T10:29:21Z</time>
      </trkpt>
      <trkpt lat="59.1825281" lon="17.8790457">
        <ele>58.8</ele>
        <time>2013-03-09T10:29:23Z</time>
      </trkpt>
      <trkpt lat="59.182473" lon="17.8788497">
        <ele>57.4</ele>
        <time>2013-03-09T10:29:25Z</time>
      </trkpt>
      <trkpt lat="59.1824361" lon="17.878628">
        <ele>57.6</ele>
        <time>2013-03-09T10:29:27Z</time>
      </trkpt>
      <trkpt lat="59.1823823" lon="17.8782333">
        <ele>58</ele>
        <time>2013-03-09T10:29:31Z</time>
      </trkpt>
      <trkpt lat="59.1823707" lon="17.8781401">
        <ele>58.4</ele>
        <time>2013-03-09T10:29:32Z</time>
      </trkpt>
      <trkpt lat="59.1823499" lon="17.8779594">
        <ele>57.8</ele>
        <time>2013-03-09T10:29:34Z</time>
      </trkpt>
      <trkpt lat="59.1823432" lon="17.8778627">
        <ele>58.6</ele>
        <time>2013-03-09T10:29:35Z</time>
      </trkpt>
      <trkpt lat="59.1823376" lon="17.8773297">
        <ele>63.8</ele>
        <time>2013-03-09T10:30:52Z</time>
      </trkpt>
      <trkpt lat="59.1823114" lon="17.8771038">
        <ele>64</ele>
        <time>2013-03-09T10:30:55Z</time>
      </trkpt>
      <trkpt lat="59.1822615" lon="17.8767293">
        <ele>64</ele>
        <time>2013-03-09T10:30:59Z</time>
      </trkpt>
      <trkpt lat="59.1821868" lon="17.8763157">
        <ele>64.2</ele>
        <time>2013-03-09T10:31:02Z</time>
      </trkpt>
      <trkpt lat="59.1821366" lon="17.8760141">
        <ele>64</ele>
        <time>2013-03-09T10:31:06Z</time>
      </trkpt>
      <trkpt lat="59.1821212" lon="17.875887">
        <ele>63.4</ele>
        <time>2013-03-09T10:31:07Z</time>
      </trkpt>
      <trkpt lat="59.1821093" lon="17.8757472">
        <ele>63.6</ele>
        <time>2013-03-09T10:31:08Z</time>
      </trkpt>
      <trkpt lat="59.1821013" lon="17.8754975">
        <ele>62.4</ele>
        <time>2013-03-09T10:31:10Z</time>
      </trkpt>
      <trkpt lat="59.1821103" lon="17.8752533">
        <ele>61.6</ele>
        <time>2013-03-09T10:31:12Z</time>
      </trkpt>
      <trkpt lat="59.1821225" lon="17.8751362">
        <ele>61</ele>
        <time>2013-03-09T10:31:13Z</time>
      </trkpt>
      <trkpt lat="59.1821357" lon="17.8750243">
        <ele>60.4</ele>
        <time>2013-03-09T10:31:14Z</time>
      </trkpt>
      <trkpt lat="59.1821771" lon="17.8747984">
        <ele>59.6</ele>
        <time>2013-03-09T10:31:16Z</time>
      </trkpt>
      <trkpt lat="59.1822512" lon="17.8744181">
        <ele>60.2</ele>
        <time>2013-03-09T10:31:19Z</time>
      </trkpt>
      <trkpt lat="59.1822707" lon="17.8742959">
        <ele>60.2</ele>
        <time>2013-03-09T10:31:20Z</time>
      </trkpt>
      <trkpt lat="59.1822808" lon="17.874008">
        <ele>58.6</ele>
        <time>2013-03-09T10:31:22Z</time>
      </trkpt>
      <trkpt lat="59.1822559" lon="17.87368">
        <ele>56.4</ele>
        <time>2013-03-09T10:31:24Z</time>
      </trkpt>
      <trkpt lat="59.1822415" lon="17.8735037">
        <ele>55.6</ele>
        <time>2013-03-09T10:31:25Z</time>
      </trkpt>
      <trkpt lat="59.1822129" lon="17.8731392">
        <ele>54.4</ele>
        <time>2013-03-09T10:31:27Z</time>
      </trkpt>
      <trkpt lat="59.1821839" lon="17.8727707">
        <ele>54.2</ele>
        <time>2013-03-09T10:31:29Z</time>
      </trkpt>
      <trkpt lat="59.182149" lon="17.8724201">
        <ele>54.2</ele>
        <time>2013-03-09T10:31:31Z</time>
      </trkpt>
      <trkpt lat="59.1821299" lon="17.8722649">
        <ele>53.6</ele>
        <time>2013-03-09T10:31:32Z</time>
      </trkpt>
      <trkpt lat="59.182055" lon="17.8720141">
        <ele>53.2</ele>
        <time>2013-03-09T10:31:34Z</time>
      </trkpt>
      <trkpt lat="59.181943" lon="17.8716792">
        <ele>51.4</ele>
        <time>2013-03-09T10:31:37Z</time>
      </trkpt>
      <trkpt lat="59.1818311" lon="17.8713428">
        <ele>51</ele>
        <time>2013-03-09T10:31:40Z</time>
      </trkpt>
      <trkpt lat="59.1817318" lon="17.8709965">
        <ele>49.8</ele>
        <time>2013-03-09T10:31:43Z</time>
      </trkpt>
      <trkpt lat="59.1816363" lon="17.8706527">
        <ele>49</ele>
        <time>2013-03-09T10:31:46Z</time>
      </trkpt>
      <trkpt lat="59.1815415" lon="17.8703305">
        <ele>47.6</ele>
        <time>2013-03-09T10:31:49Z</time>
      </trkpt>
      <trkpt lat="59.1814866" lon="17.8701128">
        <ele>45.8</ele>
        <time>2013-03-09T10:31:51Z</time>
      </trkpt>
      <trkpt lat="59.1814613" lon="17.8700021">
        <ele>45.8</ele>
        <time>2013-03-09T10:31:52Z</time>
      </trkpt>
      <trkpt lat="59.1813627" lon="17.8696686">
        <ele>44</ele>
        <time>2013-03-09T10:31:55Z</time>
      </trkpt>
      <trkpt lat="59.1812655" lon="17.869354">
        <ele>41.8</ele>
        <time>2013-03-09T10:31:58Z</time>
      </trkpt>
      <trkpt lat="59.1811511" lon="17.868995">
        <ele>41</ele>
        <time>2013-03-09T10:32:02Z</time>
      </trkpt>
      <trkpt lat="59.1809784" lon="17.8690542">
        <ele>40.6</ele>
        <time>2013-03-09T10:32:06Z</time>
      </trkpt>
      <trkpt lat="59.1809377" lon="17.8690749">
        <ele>40.6</ele>
        <time>2013-03-09T10:32:07Z</time>
      </trkpt>
      <trkpt lat="59.1807676" lon="17.8691747">
        <ele>38.2</ele>
        <time>2013-03-09T10:32:11Z</time>
      </trkpt>
      <trkpt lat="59.1806414" lon="17.8692606">
        <ele>37.8</ele>
        <time>2013-03-09T10:32:14Z</time>
      </trkpt>
      <trkpt lat="59.1805552" lon="17.8693037">
        <ele>38.2</ele>
        <time>2013-03-09T10:32:16Z</time>
      </trkpt>
      <trkpt lat="59.1803523" lon="17.8694883">
        <ele>39.4</ele>
        <time>2013-03-09T10:32:21Z</time>
      </trkpt>
      <trkpt lat="59.18031" lon="17.8695148">
        <ele>40</ele>
        <time>2013-03-09T10:32:22Z</time>
      </trkpt>
      <trkpt lat="59.1801482" lon="17.8696277">
        <ele>41.6</ele>
        <time>2013-03-09T10:32:26Z</time>
      </trkpt>
      <trkpt lat="59.1801051" lon="17.8696571">
        <ele>41.6</ele>
        <time>2013-03-09T10:32:27Z</time>
      </trkpt>
      <trkpt lat="59.1799501" lon="17.8697296">
        <ele>42.8</ele>
        <time>2013-03-09T10:32:30Z</time>
      </trkpt>
      <trkpt lat="59.179768" lon="17.8695788">
        <ele>43.6</ele>
        <time>2013-03-09T10:32:36Z</time>
      </trkpt>
      <trkpt lat="59.1796782" lon="17.8694677">
        <ele>44.2</ele>
        <time>2013-03-09T10:32:39Z</time>
      </trkpt>
      <trkpt lat="59.1795969" lon="17.869424">
        <ele>46</ele>
        <time>2013-03-09T10:32:41Z</time>
      </trkpt>
      <trkpt lat="59.1794123" lon="17.8692687">
        <ele>46.4</ele>
        <time>2013-03-09T10:32:46Z</time>
      </trkpt>
      <trkpt lat="59.1793248" lon="17.8691924">
        <ele>46.6</ele>
        <time>2013-03-09T10:32:48Z</time>
      </trkpt>
      <trkpt lat="59.1792431" lon="17.8691117">
        <ele>46</ele>
        <time>2013-03-09T10:32:50Z</time>
      </trkpt>
      <trkpt lat="59.1791582" lon="17.8690314">
        <ele>44.6</ele>
        <time>2013-03-09T10:32:52Z</time>
      </trkpt>
      <trkpt lat="59.1790653" lon="17.868954">
        <ele>44.4</ele>
        <time>2013-03-09T10:32:54Z</time>
      </trkpt>
      <trkpt lat="59.1790226" lon="17.8689253">
        <ele>44.4</ele>
        <time>2013-03-09T10:32:55Z</time>
      </trkpt>
      <trkpt lat="59.1788899" lon="17.8688217">
        <ele>44</ele>
        <time>2013-03-09T10:32:58Z</time>
      </trkpt>
      <trkpt lat="59.1787707" lon="17.8687641">
        <ele>46</ele>
        <time>2013-03-09T10:33:01Z</time>
      </trkpt>
      <trkpt lat="59.1787083" lon="17.8687137">
        <ele>47.2</ele>
        <time>2013-03-09T10:33:03Z</time>
      </trkpt>
      <trkpt lat="59.1785227" lon="17.868563">
        <ele>49.2</ele>
        <time>2013-03-09T10:33:08Z</time>
      </trkpt>
      <trkpt lat="59.1783505" lon="17.8683889">
        <ele>52.6</ele>
        <time>2013-03-09T10:33:13Z</time>
      </trkpt>
      <trkpt lat="59.1781636" lon="17.8682109">
        <ele>54.4</ele>
        <time>2013-03-09T10:33:18Z</time>
      </trkpt>
      <trkpt lat="59.1780936" lon="17.8681459">
        <ele>55.8</ele>
        <time>2013-03-09T10:33:20Z</time>
      </trkpt>
      <trkpt lat="59.1779912" lon="17.8680605">
        <ele>56.4</ele>
        <time>2013-03-09T10:33:23Z</time>
      </trkpt>
      <trkpt lat="59.1778997" lon="17.868001">
        <ele>57.6</ele>
        <time>2013-03-09T10:33:27Z</time>
      </trkpt>
      <trkpt lat="59.1777915" lon="17.8680871">
        <ele>61</ele>
        <time>2013-03-09T10:33:31Z</time>
      </trkpt>
      <trkpt lat="59.1776005" lon="17.8682311">
        <ele>61</ele>
        <time>2013-03-09T10:33:36Z</time>
      </trkpt>
      <trkpt lat="59.1774092" lon="17.8683771">
        <ele>60.2</ele>
        <time>2013-03-09T10:33:42Z</time>
      </trkpt>
      <trkpt lat="59.1772193" lon="17.8685651">
        <ele>61.2</ele>
        <time>2013-03-09T10:33:46Z</time>
      </trkpt>
      <trkpt lat="59.1770856" lon="17.8687173">
        <ele>62</ele>
        <time>2013-03-09T10:33:49Z</time>
      </trkpt>
      <trkpt lat="59.1770447" lon="17.8687719">
        <ele>62.2</ele>
        <time>2013-03-09T10:33:50Z</time>
      </trkpt>
      <trkpt lat="59.1770015" lon="17.8688375">
        <ele>62.4</ele>
        <time>2013-03-09T10:33:51Z</time>
      </trkpt>
      <trkpt lat="59.1769292" lon="17.8689676">
        <ele>61.4</ele>
        <time>2013-03-09T10:33:53Z</time>
      </trkpt>
      <trkpt lat="59.1768914" lon="17.8690309">
        <ele>62.2</ele>
        <time>2013-03-09T10:33:54Z</time>
      </trkpt>
      <trkpt lat="59.1768142" lon="17.8691488">
        <ele>61.6</ele>
        <time>2013-03-09T10:33:57Z</time>
      </trkpt>
      <trkpt lat="59.176734" lon="17.8692677">
        <ele>60.4</ele>
        <time>2013-03-09T10:34:01Z</time>
      </trkpt>
      <trkpt lat="59.1765473" lon="17.8693871">
        <ele>62.2</ele>
        <time>2013-03-09T10:34:07Z</time>
      </trkpt>
      <trkpt lat="59.1763623" lon="17.8694225">
        <ele>62.2</ele>
        <time>2013-03-09T10:34:11Z</time>
      </trkpt>
      <trkpt lat="59.1761799" lon="17.8693411">
        <ele>62.4</ele>
        <time>2013-03-09T10:34:15Z</time>
      </trkpt>
      <trkpt lat="59.1761318" lon="17.8693216">
        <ele>62.8</ele>
        <time>2013-03-09T10:34:16Z</time>
      </trkpt>
      <trkpt lat="59.1759637" lon="17.8691903">
        <ele>62.4</ele>
        <time>2013-03-09T10:34:20Z</time>
      </trkpt>
      <trkpt lat="59.1758232" lon="17.8690975">
        <ele>60.8</ele>
        <time>2013-03-09T10:34:23Z</time>
      </trkpt>
      <trkpt lat="59.1757739" lon="17.8690558">
        <ele>60.4</ele>
        <time>2013-03-09T10:34:24Z</time>
      </trkpt>
      <trkpt lat="59.175602" lon="17.8688708">
        <ele>58.6</ele>
        <time>2013-03-09T10:34:28Z</time>
      </trkpt>
      <trkpt lat="59.1754228" lon="17.8686925">
        <ele>58.8</ele>
        <time>2013-03-09T10:34:32Z</time>
      </trkpt>
      <trkpt lat="59.1753353" lon="17.8686352">
        <ele>58.2</ele>
        <time>2013-03-09T10:34:34Z</time>
      </trkpt>
      <trkpt lat="59.175242" lon="17.8686051">
        <ele>58</ele>
        <time>2013-03-09T10:34:36Z</time>
      </trkpt>
      <trkpt lat="59.1751451" lon="17.868594">
        <ele>57</ele>
        <time>2013-03-09T10:34:38Z</time>
      </trkpt>
      <trkpt lat="59.175055" lon="17.8685963">
        <ele>57.4</ele>
        <time>2013-03-09T10:34:40Z</time>
      </trkpt>
      <trkpt lat="59.1748495" lon="17.8686185">
        <ele>62.4</ele>
        <time>2013-03-09T10:34:46Z</time>
      </trkpt>
      <trkpt lat="59.1746417" lon="17.8686253">
        <ele>62.4</ele>
        <time>2013-03-09T10:34:52Z</time>
      </trkpt>
      <trkpt lat="59.174601" lon="17.8686326">
        <ele>62.6</ele>
        <time>2013-03-09T10:34:53Z</time>
      </trkpt>
      <trkpt lat="59.1744329" lon="17.8686745">
        <ele>62.4</ele>
        <time>2013-03-09T10:34:57Z</time>
      </trkpt>
      <trkpt lat="59.1742417" lon="17.8687636">
        <ele>60.2</ele>
        <time>2013-03-09T10:35:01Z</time>
      </trkpt>
      <trkpt lat="59.1740457" lon="17.8688317">
        <ele>58.8</ele>
        <time>2013-03-09T10:35:05Z</time>
      </trkpt>
      <trkpt lat="59.1738404" lon="17.8689592">
        <ele>62.4</ele>
        <time>2013-03-09T10:35:09Z</time>
      </trkpt>
      <trkpt lat="59.1737301" lon="17.8690671">
        <ele>62.2</ele>
        <time>2013-03-09T10:35:12Z</time>
      </trkpt>
      <trkpt lat="59.173658" lon="17.8691314">
        <ele>61.8</ele>
        <time>2013-03-09T10:35:14Z</time>
      </trkpt>
      <trkpt lat="59.1736112" lon="17.8691618">
        <ele>61.8</ele>
        <time>2013-03-09T10:35:15Z</time>
      </trkpt>
      <trkpt lat="59.1734788" lon="17.8692408">
        <ele>61.8</ele>
        <time>2013-03-09T10:35:18Z</time>
      </trkpt>
      <trkpt lat="59.1732742" lon="17.8692976">
        <ele>63.6</ele>
        <time>2013-03-09T10:35:22Z</time>
      </trkpt>
      <trkpt lat="59.173182" lon="17.8693378">
        <ele>64</ele>
        <time>2013-03-09T10:35:24Z</time>
      </trkpt>
      <trkpt lat="59.1731183" lon="17.8694996">
        <ele>62.4</ele>
        <time>2013-03-09T10:35:27Z</time>
      </trkpt>
      <trkpt lat="59.1731042" lon="17.8695644">
        <ele>62.4</ele>
        <time>2013-03-09T10:35:28Z</time>
      </trkpt>
      <trkpt lat="59.1730862" lon="17.8696111">
        <ele>62.2</ele>
        <time>2013-03-09T10:35:29Z</time>
      </trkpt>
      <trkpt lat="59.172997" lon="17.8698115">
        <ele>62.6</ele>
        <time>2013-03-09T10:35:34Z</time>
      </trkpt>
      <trkpt lat="59.1728663" lon="17.8701145">
        <ele>58.8</ele>
        <time>2013-03-09T10:35:39Z</time>
      </trkpt>
      <trkpt lat="59.1727331" lon="17.870379">
        <ele>59.6</ele>
        <time>2013-03-09T10:35:46Z</time>
      </trkpt>
      <trkpt lat="59.1725587" lon="17.8705828">
        <ele>62</ele>
        <time>2013-03-09T10:35:52Z</time>
      </trkpt>
      <trkpt lat="59.1723676" lon="17.8707245">
        <ele>61.4</ele>
        <time>2013-03-09T10:35:56Z</time>
      </trkpt>
      <trkpt lat="59.172318" lon="17.8707688">
        <ele>61.6</ele>
        <time>2013-03-09T10:35:57Z</time>
      </trkpt>
      <trkpt lat="59.1721797" lon="17.8709712">
        <ele>61.4</ele>
        <time>2013-03-09T10:36:00Z</time>
      </trkpt>
      <trkpt lat="59.1720921" lon="17.871146">
        <ele>60.2</ele>
        <time>2013-03-09T10:36:02Z</time>
      </trkpt>
      <trkpt lat="59.1720551" lon="17.8712369">
        <ele>60.6</ele>
        <time>2013-03-09T10:36:03Z</time>
      </trkpt>
      <trkpt lat="59.1719496" lon="17.8715616">
        <ele>59.4</ele>
        <time>2013-03-09T10:36:07Z</time>
      </trkpt>
      <trkpt lat="59.1719159" lon="17.8716225">
        <ele>59.4</ele>
        <time>2013-03-09T10:36:08Z</time>
      </trkpt>
      <trkpt lat="59.1717724" lon="17.8718523">
        <ele>56.4</ele>
        <time>2013-03-09T10:36:12Z</time>
      </trkpt>
      <trkpt lat="59.1716407" lon="17.8721161">
        <ele>54</ele>
        <time>2013-03-09T10:36:15Z</time>
      </trkpt>
      <trkpt lat="59.171466" lon="17.8723581">
        <ele>53.2</ele>
        <time>2013-03-09T10:36:19Z</time>
      </trkpt>
      <trkpt lat="59.1714288" lon="17.8724237">
        <ele>53.2</ele>
        <time>2013-03-09T10:36:20Z</time>
      </trkpt>
      <trkpt lat="59.1713926" lon="17.8724808">
        <ele>53</ele>
        <time>2013-03-09T10:36:21Z</time>
      </trkpt>
      <trkpt lat="59.1713129" lon="17.8726139">
        <ele>55.4</ele>
        <time>2013-03-09T10:36:23Z</time>
      </trkpt>
      <trkpt lat="59.1712098" lon="17.8728104">
        <ele>57.2</ele>
        <time>2013-03-09T10:36:26Z</time>
      </trkpt>
      <trkpt lat="59.1711714" lon="17.8728671">
        <ele>57.8</ele>
        <time>2013-03-09T10:36:27Z</time>
      </trkpt>
      <trkpt lat="59.1711335" lon="17.8729145">
        <ele>58</ele>
        <time>2013-03-09T10:36:28Z</time>
      </trkpt>
      <trkpt lat="59.1709845" lon="17.8731212">
        <ele>59</ele>
        <time>2013-03-09T10:36:32Z</time>
      </trkpt>
      <trkpt lat="59.1709586" lon="17.8731588">
        <ele>59.8</ele>
        <time>2013-03-09T10:36:33Z</time>
      </trkpt>
      <trkpt lat="59.1708747" lon="17.8733198">
        <ele>61.8</ele>
        <time>2013-03-09T10:36:36Z</time>
      </trkpt>
      <trkpt lat="59.1708497" lon="17.8733924">
        <ele>61.8</ele>
        <time>2013-03-09T10:36:37Z</time>
      </trkpt>
      <trkpt lat="59.1708004" lon="17.8735033">
        <ele>61.6</ele>
        <time>2013-03-09T10:36:39Z</time>
      </trkpt>
      <trkpt lat="59.1707009" lon="17.8735185">
        <ele>63.2</ele>
        <time>2013-03-09T10:36:42Z</time>
      </trkpt>
      <trkpt lat="59.1705779" lon="17.8734049">
        <ele>64</ele>
        <time>2013-03-09T10:36:45Z</time>
      </trkpt>
      <trkpt lat="59.1705354" lon="17.8733749">
        <ele>63</ele>
        <time>2013-03-09T10:36:46Z</time>
      </trkpt>
      <trkpt lat="59.1705021" lon="17.8733531">
        <ele>63.2</ele>
        <time>2013-03-09T10:36:47Z</time>
      </trkpt>
      <trkpt lat="59.1703556" lon="17.8732576">
        <ele>64.6</ele>
        <time>2013-03-09T10:36:51Z</time>
      </trkpt>
      <trkpt lat="59.1703179" lon="17.8732371">
        <ele>64.6</ele>
        <time>2013-03-09T10:36:52Z</time>
      </trkpt>
      <trkpt lat="59.1701532" lon="17.8731112">
        <ele>65</ele>
        <time>2013-03-09T10:36:56Z</time>
      </trkpt>
      <trkpt lat="59.1700702" lon="17.8730418">
        <ele>65.6</ele>
        <time>2013-03-09T10:36:58Z</time>
      </trkpt>
      <trkpt lat="59.1699649" lon="17.8729577">
        <ele>65.8</ele>
        <time>2013-03-09T10:37:00Z</time>
      </trkpt>
      <trkpt lat="59.1697624" lon="17.8728163">
        <ele>65.8</ele>
        <time>2013-03-09T10:37:05Z</time>
      </trkpt>
      <trkpt lat="59.1697281" lon="17.8727813">
        <ele>65.6</ele>
        <time>2013-03-09T10:37:06Z</time>
      </trkpt>
      <trkpt lat="59.1695973" lon="17.8725786">
        <ele>65.8</ele>
        <time>2013-03-09T10:37:10Z</time>
      </trkpt>
      <trkpt lat="59.169473" lon="17.8724305">
        <ele>66.2</ele>
        <time>2013-03-09T10:37:14Z</time>
      </trkpt>
      <trkpt lat="59.1694377" lon="17.8724058">
        <ele>66</ele>
        <time>2013-03-09T10:37:15Z</time>
      </trkpt>
      <trkpt lat="59.1693325" lon="17.8723596">
        <ele>65.6</ele>
        <time>2013-03-09T10:37:19Z</time>
      </trkpt>
      <trkpt lat="59.1692612" lon="17.872418">
        <ele>65.6</ele>
        <time>2013-03-09T10:37:23Z</time>
      </trkpt>
      <trkpt lat="59.1690922" lon="17.8725397">
        <ele>66</ele>
        <time>2013-03-09T10:37:31Z</time>
      </trkpt>
      <trkpt lat="59.1689436" lon="17.8724459">
        <ele>68.4</ele>
        <time>2013-03-09T10:37:37Z</time>
      </trkpt>
      <trkpt lat="59.1689146" lon="17.872415">
        <ele>69.2</ele>
        <time>2013-03-09T10:37:38Z</time>
      </trkpt>
      <trkpt lat="59.1687584" lon="17.8721726">
        <ele>71</ele>
        <time>2013-03-09T10:37:43Z</time>
      </trkpt>
      <trkpt lat="59.16859" lon="17.8720627">
        <ele>70.8</ele>
        <time>2013-03-09T10:37:47Z</time>
      </trkpt>
      <trkpt lat="59.1684997" lon="17.872009">
        <ele>71.2</ele>
        <time>2013-03-09T10:37:49Z</time>
      </trkpt>
      <trkpt lat="59.1684098" lon="17.8719229">
        <ele>71</ele>
        <time>2013-03-09T10:37:51Z</time>
      </trkpt>
      <trkpt lat="59.1683717" lon="17.8718719">
        <ele>71.8</ele>
        <time>2013-03-09T10:37:52Z</time>
      </trkpt>
      <trkpt lat="59.1682852" lon="17.871667">
        <ele>72.6</ele>
        <time>2013-03-09T10:37:55Z</time>
      </trkpt>
      <trkpt lat="59.168227" lon="17.8715256">
        <ele>72</ele>
        <time>2013-03-09T10:37:57Z</time>
      </trkpt>
      <trkpt lat="59.1681475" lon="17.8713767">
        <ele>71.6</ele>
        <time>2013-03-09T10:38:00Z</time>
      </trkpt>
      <trkpt lat="59.1679583" lon="17.871341">
        <ele>70.6</ele>
        <time>2013-03-09T10:38:06Z</time>
      </trkpt>
      <trkpt lat="59.1678376" lon="17.8713739">
        <ele>70.2</ele>
        <time>2013-03-09T10:38:10Z</time>
      </trkpt>
      <trkpt lat="59.1677707" lon="17.8714247">
        <ele>69.4</ele>
        <time>2013-03-09T10:38:13Z</time>
      </trkpt>
      <trkpt lat="59.1676103" lon="17.8716064">
        <ele>72.2</ele>
        <time>2013-03-09T10:38:21Z</time>
      </trkpt>
      <trkpt lat="59.1675587" lon="17.8717017">
        <ele>73</ele>
        <time>2013-03-09T10:38:24Z</time>
      </trkpt>
      <trkpt lat="59.1674442" lon="17.8718636">
        <ele>74.2</ele>
        <time>2013-03-09T10:38:29Z</time>
      </trkpt>
      <trkpt lat="59.167423" lon="17.8718664">
        <ele>75.6</ele>
        <time>2013-03-09T10:38:30Z</time>
      </trkpt>
      <trkpt lat="59.167258" lon="17.8717706">
        <ele>77.6</ele>
        <time>2013-03-09T10:38:36Z</time>
      </trkpt>
      <trkpt lat="59.1672277" lon="17.87174">
        <ele>78.4</ele>
        <time>2013-03-09T10:38:37Z</time>
      </trkpt>
      <trkpt lat="59.1671926" lon="17.8717307">
        <ele>78.2</ele>
        <time>2013-03-09T10:38:38Z</time>
      </trkpt>
      <trkpt lat="59.1670678" lon="17.8716932">
        <ele>79.2</ele>
        <time>2013-03-09T10:38:42Z</time>
      </trkpt>
      <trkpt lat="59.1668835" lon="17.8716378">
        <ele>76.2</ele>
        <time>2013-03-09T10:38:47Z</time>
      </trkpt>
      <trkpt lat="59.1668519" lon="17.871639">
        <ele>75</ele>
        <time>2013-03-09T10:38:48Z</time>
      </trkpt>
      <trkpt lat="59.1666978" lon="17.8717608">
        <ele>77</ele>
        <time>2013-03-09T10:38:54Z</time>
      </trkpt>
      <trkpt lat="59.166547" lon="17.8719281">
        <ele>77.6</ele>
        <time>2013-03-09T10:39:00Z</time>
      </trkpt>
      <trkpt lat="59.1663724" lon="17.87207">
        <ele>77.6</ele>
        <time>2013-03-09T10:39:05Z</time>
      </trkpt>
      <trkpt lat="59.1661718" lon="17.8720852">
        <ele>77.6</ele>
        <time>2013-03-09T10:39:12Z</time>
      </trkpt>
      <trkpt lat="59.1659909" lon="17.8721907">
        <ele>77.8</ele>
        <time>2013-03-09T10:39:20Z</time>
      </trkpt>
      <trkpt lat="59.165794" lon="17.8723259">
        <ele>80.8</ele>
        <time>2013-03-09T10:39:27Z</time>
      </trkpt>
      <trkpt lat="59.1656068" lon="17.872397">
        <ele>81.4</ele>
        <time>2013-03-09T10:39:32Z</time>
      </trkpt>
      <trkpt lat="59.16539" lon="17.8724176">
        <ele>83</ele>
        <time>2013-03-09T10:39:38Z</time>
      </trkpt>
      <trkpt lat="59.1651916" lon="17.8724188">
        <ele>84</ele>
        <time>2013-03-09T10:39:43Z</time>
      </trkpt>
      <trkpt lat="59.1650756" lon="17.8723727">
        <ele>84.4</ele>
        <time>2013-03-09T10:39:45Z</time>
      </trkpt>
      <trkpt lat="59.1650082" lon="17.872354">
        <ele>84.6</ele>
        <time>2013-03-09T10:39:46Z</time>
      </trkpt>
      <trkpt lat="59.1648223" lon="17.8722965">
        <ele>82.8</ele>
        <time>2013-03-09T10:39:49Z</time>
      </trkpt>
      <trkpt lat="59.1647668" lon="17.8723112">
        <ele>82.4</ele>
        <time>2013-03-09T10:39:50Z</time>
      </trkpt>
      <trkpt lat="59.164613" lon="17.8724285">
        <ele>81.4</ele>
        <time>2013-03-09T10:39:53Z</time>
      </trkpt>
      <trkpt lat="59.1644998" lon="17.8726171">
        <ele>80</ele>
        <time>2013-03-09T10:39:56Z</time>
      </trkpt>
      <trkpt lat="59.1644665" lon="17.8726961">
        <ele>79.4</ele>
        <time>2013-03-09T10:39:57Z</time>
      </trkpt>
      <trkpt lat="59.1643208" lon="17.8729947">
        <ele>78.2</ele>
        <time>2013-03-09T10:40:01Z</time>
      </trkpt>
      <trkpt lat="59.1641787" lon="17.8733298">
        <ele>77.6</ele>
        <time>2013-03-09T10:40:05Z</time>
      </trkpt>
      <trkpt lat="59.1641103" lon="17.8735426">
        <ele>77.4</ele>
        <time>2013-03-09T10:40:07Z</time>
      </trkpt>
      <trkpt lat="59.1640742" lon="17.8736681">
        <ele>75.8</ele>
        <time>2013-03-09T10:40:08Z</time>
      </trkpt>
      <trkpt lat="59.1639598" lon="17.8741025">
        <ele>74.8</ele>
        <time>2013-03-09T10:40:11Z</time>
      </trkpt>
      <trkpt lat="59.1638339" lon="17.8744478">
        <ele>73.6</ele>
        <time>2013-03-09T10:40:13Z</time>
      </trkpt>
      <trkpt lat="59.1637215" lon="17.8747502">
        <ele>74</ele>
        <time>2013-03-09T10:40:15Z</time>
      </trkpt>
      <trkpt lat="59.1636412" lon="17.8750843">
        <ele>74.4</ele>
        <time>2013-03-09T10:40:17Z</time>
      </trkpt>
      <trkpt lat="59.1635973" lon="17.8755495">
        <ele>76.8</ele>
        <time>2013-03-09T10:40:20Z</time>
      </trkpt>
      <trkpt lat="59.1635474" lon="17.8759235">
        <ele>77.4</ele>
        <time>2013-03-09T10:40:23Z</time>
      </trkpt>
      <trkpt lat="59.1635346" lon="17.8760363">
        <ele>78.6</ele>
        <time>2013-03-09T10:40:24Z</time>
      </trkpt>
      <trkpt lat="59.1635579" lon="17.8763587">
        <ele>78.6</ele>
        <time>2013-03-09T10:40:27Z</time>
      </trkpt>
      <trkpt lat="59.163555" lon="17.8767648">
        <ele>79.8</ele>
        <time>2013-03-09T10:40:31Z</time>
      </trkpt>
      <trkpt lat="59.1633962" lon="17.876776">
        <ele>80</ele>
        <time>2013-03-09T10:40:35Z</time>
      </trkpt>
      <trkpt lat="59.1632899" lon="17.8765918">
        <ele>81.2</ele>
        <time>2013-03-09T10:40:38Z</time>
      </trkpt>
      <trkpt lat="59.1632618" lon="17.8765301">
        <ele>81.4</ele>
        <time>2013-03-09T10:40:39Z</time>
      </trkpt>
      <trkpt lat="59.163175" lon="17.8762276">
        <ele>80</ele>
        <time>2013-03-09T10:40:44Z</time>
      </trkpt>
      <trkpt lat="59.1631864" lon="17.8757966">
        <ele>79</ele>
        <time>2013-03-09T10:40:49Z</time>
      </trkpt>
      <trkpt lat="59.1631891" lon="17.8756924">
        <ele>78.6</ele>
        <time>2013-03-09T10:40:50Z</time>
      </trkpt>
      <trkpt lat="59.1631906" lon="17.8755845">
        <ele>78.2</ele>
        <time>2013-03-09T10:40:51Z</time>
      </trkpt>
      <trkpt lat="59.1631828" lon="17.8753608">
        <ele>77</ele>
        <time>2013-03-09T10:40:53Z</time>
      </trkpt>
      <trkpt lat="59.1631424" lon="17.8749579">
        <ele>75.6</ele>
        <time>2013-03-09T10:40:57Z</time>
      </trkpt>
      <trkpt lat="59.1631375" lon="17.8747901">
        <ele>75</ele>
        <time>2013-03-09T10:40:59Z</time>
      </trkpt>
      <trkpt lat="59.1631393" lon="17.8746076">
        <ele>75.2</ele>
        <time>2013-03-09T10:41:01Z</time>
      </trkpt>
      <trkpt lat="59.1631444" lon="17.8744213">
        <ele>74</ele>
        <time>2013-03-09T10:41:03Z</time>
      </trkpt>
      <trkpt lat="59.1631561" lon="17.8742311">
        <ele>73.2</ele>
        <time>2013-03-09T10:41:05Z</time>
      </trkpt>
      <trkpt lat="59.1631642" lon="17.8741457">
        <ele>72.4</ele>
        <time>2013-03-09T10:41:06Z</time>
      </trkpt>
      <trkpt lat="59.1631748" lon="17.8740058">
        <ele>71.4</ele>
        <time>2013-03-09T10:41:08Z</time>
      </trkpt>
      <trkpt lat="59.1631655" lon="17.8738586">
        <ele>72.2</ele>
        <time>2013-03-09T10:41:10Z</time>
      </trkpt>
      <trkpt lat="59.1630948" lon="17.873537">
        <ele>71.6</ele>
        <time>2013-03-09T10:41:15Z</time>
      </trkpt>
      <trkpt lat="59.1630489" lon="17.8731913">
        <ele>73.4</ele>
        <time>2013-03-09T10:41:20Z</time>
      </trkpt>
      <trkpt lat="59.163066" lon="17.8728269">
        <ele>75.4</ele>
        <time>2013-03-09T10:41:24Z</time>
      </trkpt>
      <trkpt lat="59.1630688" lon="17.8727315">
        <ele>75.4</ele>
        <time>2013-03-09T10:41:25Z</time>
      </trkpt>
      <trkpt lat="59.1630753" lon="17.8726352">
        <ele>75.8</ele>
        <time>2013-03-09T10:41:26Z</time>
      </trkpt>
      <trkpt lat="59.1630935" lon="17.8724367">
        <ele>76.6</ele>
        <time>2013-03-09T10:41:28Z</time>
      </trkpt>
      <trkpt lat="59.1631025" lon="17.8721608">
        <ele>75.2</ele>
        <time>2013-03-09T10:41:31Z</time>
      </trkpt>
      <trkpt lat="59.1631216" lon="17.8720136">
        <ele>74.6</ele>
        <time>2013-03-09T10:41:33Z</time>
      </trkpt>
      <trkpt lat="59.1632131" lon="17.8716995">
        <ele>72.4</ele>
        <time>2013-03-09T10:41:37Z</time>
      </trkpt>
      <trkpt lat="59.1633154" lon="17.8713107">
        <ele>71.2</ele>
        <time>2013-03-09T10:41:42Z</time>
      </trkpt>
      <trkpt lat="59.1633526" lon="17.8710532">
        <ele>72.8</ele>
        <time>2013-03-09T10:41:45Z</time>
      </trkpt>
      <trkpt lat="59.1633647" lon="17.8709077">
        <ele>73</ele>
        <time>2013-03-09T10:41:47Z</time>
      </trkpt>
      <trkpt lat="59.1634004" lon="17.8706712">
        <ele>74.6</ele>
        <time>2013-03-09T10:41:50Z</time>
      </trkpt>
      <trkpt lat="59.1634525" lon="17.8705715">
        <ele>74.8</ele>
        <time>2013-03-09T10:41:52Z</time>
      </trkpt>
      <trkpt lat="59.1635543" lon="17.8704694">
        <ele>73.6</ele>
        <time>2013-03-09T10:41:55Z</time>
      </trkpt>
      <trkpt lat="59.1636071" lon="17.870373">
        <ele>72.8</ele>
        <time>2013-03-09T10:41:57Z</time>
      </trkpt>
      <trkpt lat="59.1636254" lon="17.8703132">
        <ele>74</ele>
        <time>2013-03-09T10:41:58Z</time>
      </trkpt>
      <trkpt lat="59.1636197" lon="17.8700116">
        <ele>75.8</ele>
        <time>2013-03-09T10:42:02Z</time>
      </trkpt>
      <trkpt lat="59.1635907" lon="17.8698352">
        <ele>77.4</ele>
        <time>2013-03-09T10:42:04Z</time>
      </trkpt>
      <trkpt lat="59.1635736" lon="17.8696663">
        <ele>78</ele>
        <time>2013-03-09T10:42:06Z</time>
      </trkpt>
      <trkpt lat="59.1635683" lon="17.8694861">
        <ele>78.4</ele>
        <time>2013-03-09T10:42:08Z</time>
      </trkpt>
      <trkpt lat="59.163569" lon="17.8692608">
        <ele>78.2</ele>
        <time>2013-03-09T10:42:11Z</time>
      </trkpt>
      <trkpt lat="59.1635744" lon="17.8690986">
        <ele>78.6</ele>
        <time>2013-03-09T10:42:13Z</time>
      </trkpt>
      <trkpt lat="59.1635784" lon="17.8690168">
        <ele>79.2</ele>
        <time>2013-03-09T10:42:14Z</time>
      </trkpt>
      <trkpt lat="59.1635935" lon="17.8688412">
        <ele>80.4</ele>
        <time>2013-03-09T10:42:16Z</time>
      </trkpt>
      <trkpt lat="59.1635975" lon="17.8686883">
        <ele>81.2</ele>
        <time>2013-03-09T10:42:18Z</time>
      </trkpt>
      <trkpt lat="59.1636065" lon="17.8685268">
        <ele>83.4</ele>
        <time>2013-03-09T10:42:20Z</time>
      </trkpt>
      <trkpt lat="59.1636148" lon="17.8684506">
        <ele>83.6</ele>
        <time>2013-03-09T10:42:21Z</time>
      </trkpt>
      <trkpt lat="59.1636314" lon="17.868272">
        <ele>85.4</ele>
        <time>2013-03-09T10:42:23Z</time>
      </trkpt>
      <trkpt lat="59.163646" lon="17.8680807">
        <ele>85.4</ele>
        <time>2013-03-09T10:42:25Z</time>
      </trkpt>
      <trkpt lat="59.163651" lon="17.8679943">
        <ele>86</ele>
        <time>2013-03-09T10:42:26Z</time>
      </trkpt>
      <trkpt lat="59.163634" lon="17.8676611">
        <ele>87.2</ele>
        <time>2013-03-09T10:42:30Z</time>
      </trkpt>
      <trkpt lat="59.1636144" lon="17.8672686">
        <ele>85</ele>
        <time>2013-03-09T10:42:35Z</time>
      </trkpt>
      <trkpt lat="59.1636182" lon="17.8671313">
        <ele>84.4</ele>
        <time>2013-03-09T10:42:37Z</time>
      </trkpt>
      <trkpt lat="59.1636648" lon="17.8668812">
        <ele>85.2</ele>
        <time>2013-03-09T10:42:42Z</time>
      </trkpt>
      <trkpt lat="59.1637715" lon="17.8665853">
        <ele>88.2</ele>
        <time>2013-03-09T10:42:49Z</time>
      </trkpt>
      <trkpt lat="59.163935" lon="17.8663444">
        <ele>93.6</ele>
        <time>2013-03-09T10:42:55Z</time>
      </trkpt>
      <trkpt lat="59.1640942" lon="17.8661446">
        <ele>98</ele>
        <time>2013-03-09T10:43:00Z</time>
      </trkpt>
      <trkpt lat="59.1642667" lon="17.8659414">
        <ele>100.2</ele>
        <time>2013-03-09T10:43:05Z</time>
      </trkpt>
      <trkpt lat="59.1644539" lon="17.8657218">
        <ele>98</ele>
        <time>2013-03-09T10:43:10Z</time>
      </trkpt>
      <trkpt lat="59.1645203" lon="17.8656167">
        <ele>97</ele>
        <time>2013-03-09T10:43:12Z</time>
      </trkpt>
      <trkpt lat="59.1646068" lon="17.8655178">
        <ele>96.8</ele>
        <time>2013-03-09T10:43:14Z</time>
      </trkpt>
      <trkpt lat="59.1647642" lon="17.8653079">
        <ele>97</ele>
        <time>2013-03-09T10:43:18Z</time>
      </trkpt>
      <trkpt lat="59.1648964" lon="17.8650417">
        <ele>94.4</ele>
        <time>2013-03-09T10:43:22Z</time>
      </trkpt>
      <trkpt lat="59.1650093" lon="17.8648341">
        <ele>91.2</ele>
        <time>2013-03-09T10:43:25Z</time>
      </trkpt>
      <trkpt lat="59.1650517" lon="17.8647676">
        <ele>90</ele>
        <time>2013-03-09T10:43:26Z</time>
      </trkpt>
      <trkpt lat="59.1652256" lon="17.8645059">
        <ele>87</ele>
        <time>2013-03-09T10:43:30Z</time>
      </trkpt>
      <trkpt lat="59.1653992" lon="17.8642761">
        <ele>85</ele>
        <time>2013-03-09T10:43:34Z</time>
      </trkpt>
      <trkpt lat="59.1654387" lon="17.8642012">
        <ele>85.6</ele>
        <time>2013-03-09T10:43:35Z</time>
      </trkpt>
      <trkpt lat="59.1655527" lon="17.8639897">
        <ele>85.8</ele>
        <time>2013-03-09T10:43:38Z</time>
      </trkpt>
      <trkpt lat="59.1656967" lon="17.8636898">
        <ele>85.4</ele>
        <time>2013-03-09T10:43:42Z</time>
      </trkpt>
      <trkpt lat="59.1658438" lon="17.8634162">
        <ele>86.4</ele>
        <time>2013-03-09T10:43:46Z</time>
      </trkpt>
      <trkpt lat="59.1659692" lon="17.8631312">
        <ele>88.2</ele>
        <time>2013-03-09T10:43:50Z</time>
      </trkpt>
      <trkpt lat="59.166105" lon="17.8628104">
        <ele>87.8</ele>
        <time>2013-03-09T10:43:54Z</time>
      </trkpt>
      <trkpt lat="59.1661463" lon="17.8627431">
        <ele>87</ele>
        <time>2013-03-09T10:43:55Z</time>
      </trkpt>
      <trkpt lat="59.1662768" lon="17.8625869">
        <ele>85</ele>
        <time>2013-03-09T10:43:58Z</time>
      </trkpt>
      <trkpt lat="59.1663624" lon="17.8624854">
        <ele>84</ele>
        <time>2013-03-09T10:44:00Z</time>
      </trkpt>
      <trkpt lat="59.1664349" lon="17.8623727">
        <ele>83.2</ele>
        <time>2013-03-09T10:44:02Z</time>
      </trkpt>
      <trkpt lat="59.1664726" lon="17.8623005">
        <ele>82.2</ele>
        <time>2013-03-09T10:44:03Z</time>
      </trkpt>
      <trkpt lat="59.1665758" lon="17.8620703">
        <ele>79</ele>
        <time>2013-03-09T10:44:06Z</time>
      </trkpt>
      <trkpt lat="59.1667606" lon="17.861894">
        <ele>77.6</ele>
        <time>2013-03-09T10:44:10Z</time>
      </trkpt>
      <trkpt lat="59.1668026" lon="17.8618606">
        <ele>78.4</ele>
        <time>2013-03-09T10:44:11Z</time>
      </trkpt>
      <trkpt lat="59.1668772" lon="17.861768">
        <ele>77.6</ele>
        <time>2013-03-09T10:44:13Z</time>
      </trkpt>
      <trkpt lat="59.1668946" lon="17.8616884">
        <ele>76.6</ele>
        <time>2013-03-09T10:44:14Z</time>
      </trkpt>
      <trkpt lat="59.1669228" lon="17.861384">
        <ele>77</ele>
        <time>2013-03-09T10:44:17Z</time>
      </trkpt>
      <trkpt lat="59.1669229" lon="17.8612779">
        <ele>76.8</ele>
        <time>2013-03-09T10:44:18Z</time>
      </trkpt>
      <trkpt lat="59.1668808" lon="17.8608617">
        <ele>75.2</ele>
        <time>2013-03-09T10:44:22Z</time>
      </trkpt>
      <trkpt lat="59.166844" lon="17.8605889">
        <ele>74.8</ele>
        <time>2013-03-09T10:44:25Z</time>
      </trkpt>
      <trkpt lat="59.1668244" lon="17.8605052">
        <ele>73.8</ele>
        <time>2013-03-09T10:44:26Z</time>
      </trkpt>
      <trkpt lat="59.1667894" lon="17.8600802">
        <ele>75.6</ele>
        <time>2013-03-09T10:44:30Z</time>
      </trkpt>
      <trkpt lat="59.1667892" lon="17.8598292">
        <ele>76.4</ele>
        <time>2013-03-09T10:44:32Z</time>
      </trkpt>
      <trkpt lat="59.16679" lon="17.8597208">
        <ele>75.6</ele>
        <time>2013-03-09T10:44:33Z</time>
      </trkpt>
      <trkpt lat="59.1667938" lon="17.8596025">
        <ele>75</ele>
        <time>2013-03-09T10:44:34Z</time>
      </trkpt>
      <trkpt lat="59.1668016" lon="17.8593318">
        <ele>76.2</ele>
        <time>2013-03-09T10:44:36Z</time>
      </trkpt>
      <trkpt lat="59.1668097" lon="17.8590924">
        <ele>76.6</ele>
        <time>2013-03-09T10:44:38Z</time>
      </trkpt>
      <trkpt lat="59.166811" lon="17.8589597">
        <ele>77.6</ele>
        <time>2013-03-09T10:44:39Z</time>
      </trkpt>
      <trkpt lat="59.1668029" lon="17.8588347">
        <ele>77.4</ele>
        <time>2013-03-09T10:44:40Z</time>
      </trkpt>
      <trkpt lat="59.1667786" lon="17.8585618">
        <ele>77.8</ele>
        <time>2013-03-09T10:44:42Z</time>
      </trkpt>
      <trkpt lat="59.1668319" lon="17.8581243">
        <ele>78.8</ele>
        <time>2013-03-09T10:44:45Z</time>
      </trkpt>
      <trkpt lat="59.1669544" lon="17.8577303">
        <ele>78.4</ele>
        <time>2013-03-09T10:44:48Z</time>
      </trkpt>
      <trkpt lat="59.1670778" lon="17.8573697">
        <ele>77.2</ele>
        <time>2013-03-09T10:44:51Z</time>
      </trkpt>
      <trkpt lat="59.1671037" lon="17.8572481">
        <ele>77.2</ele>
        <time>2013-03-09T10:44:52Z</time>
      </trkpt>
      <trkpt lat="59.1671275" lon="17.8569881">
        <ele>78</ele>
        <time>2013-03-09T10:44:54Z</time>
      </trkpt>
      <trkpt lat="59.167132" lon="17.8567446">
        <ele>77.4</ele>
        <time>2013-03-09T10:44:56Z</time>
      </trkpt>
      <trkpt lat="59.1671436" lon="17.8566131">
        <ele>78.6</ele>
        <time>2013-03-09T10:44:57Z</time>
      </trkpt>
      <trkpt lat="59.1671821" lon="17.8563717">
        <ele>78.6</ele>
        <time>2013-03-09T10:44:59Z</time>
      </trkpt>
      <trkpt lat="59.1672078" lon="17.8562499">
        <ele>78.2</ele>
        <time>2013-03-09T10:45:00Z</time>
      </trkpt>
      <trkpt lat="59.1672802" lon="17.8559019">
        <ele>76.8</ele>
        <time>2013-03-09T10:45:03Z</time>
      </trkpt>
      <trkpt lat="59.1673491" lon="17.8555828">
        <ele>75.4</ele>
        <time>2013-03-09T10:45:06Z</time>
      </trkpt>
      <trkpt lat="59.1673761" lon="17.8554911">
        <ele>74.2</ele>
        <time>2013-03-09T10:45:07Z</time>
      </trkpt>
      <trkpt lat="59.1674543" lon="17.8553446">
        <ele>72.8</ele>
        <time>2013-03-09T10:45:09Z</time>
      </trkpt>
      <trkpt lat="59.1675615" lon="17.8552614">
        <ele>70.4</ele>
        <time>2013-03-09T10:45:11Z</time>
      </trkpt>
      <trkpt lat="59.1676403" lon="17.8551813">
        <ele>67.8</ele>
        <time>2013-03-09T10:45:13Z</time>
      </trkpt>
      <trkpt lat="59.1675951" lon="17.8549804">
        <ele>64.2</ele>
        <time>2013-03-09T10:45:16Z</time>
      </trkpt>
      <trkpt lat="59.1674885" lon="17.8547005">
        <ele>61.6</ele>
        <time>2013-03-09T10:45:19Z</time>
      </trkpt>
      <trkpt lat="59.1674635" lon="17.8546074">
        <ele>60.2</ele>
        <time>2013-03-09T10:45:20Z</time>
      </trkpt>
      <trkpt lat="59.1674004" lon="17.8542862">
        <ele>60.2</ele>
        <time>2013-03-09T10:45:23Z</time>
      </trkpt>
      <trkpt lat="59.1673506" lon="17.8540024">
        <ele>59.8</ele>
        <time>2013-03-09T10:45:26Z</time>
      </trkpt>
      <trkpt lat="59.1673326" lon="17.8539103">
        <ele>60.8</ele>
        <time>2013-03-09T10:45:27Z</time>
      </trkpt>
      <trkpt lat="59.1673061" lon="17.8536416">
        <ele>61.8</ele>
        <time>2013-03-09T10:45:30Z</time>
      </trkpt>
      <trkpt lat="59.16731" lon="17.8535388">
        <ele>62</ele>
        <time>2013-03-09T10:45:31Z</time>
      </trkpt>
      <trkpt lat="59.1672817" lon="17.8531414">
        <ele>61.4</ele>
        <time>2013-03-09T10:45:36Z</time>
      </trkpt>
      <trkpt lat="59.1672455" lon="17.8530136">
        <ele>61</ele>
        <time>2013-03-09T10:45:38Z</time>
      </trkpt>
      <trkpt lat="59.1672051" lon="17.852882">
        <ele>61.6</ele>
        <time>2013-03-09T10:45:40Z</time>
      </trkpt>
      <trkpt lat="59.1671855" lon="17.8528349">
        <ele>62.4</ele>
        <time>2013-03-09T10:45:41Z</time>
      </trkpt>
      <trkpt lat="59.1671852" lon="17.852446">
        <ele>62.6</ele>
        <time>2013-03-09T10:45:48Z</time>
      </trkpt>
      <trkpt lat="59.1672541" lon="17.8520634">
        <ele>68.2</ele>
        <time>2013-03-09T10:45:54Z</time>
      </trkpt>
      <trkpt lat="59.1672648" lon="17.8519612">
        <ele>69.6</ele>
        <time>2013-03-09T10:45:56Z</time>
      </trkpt>
      <trkpt lat="59.1672586" lon="17.8516853">
        <ele>73.4</ele>
        <time>2013-03-09T10:46:00Z</time>
      </trkpt>
      <trkpt lat="59.1673145" lon="17.851309">
        <ele>78</ele>
        <time>2013-03-09T10:46:06Z</time>
      </trkpt>
      <trkpt lat="59.1673754" lon="17.8509447">
        <ele>78.2</ele>
        <time>2013-03-09T10:46:10Z</time>
      </trkpt>
      <trkpt lat="59.1674136" lon="17.8508694">
        <ele>77.6</ele>
        <time>2013-03-09T10:46:11Z</time>
      </trkpt>
      <trkpt lat="59.1675312" lon="17.8508107">
        <ele>76</ele>
        <time>2013-03-09T10:46:13Z</time>
      </trkpt>
      <trkpt lat="59.1677144" lon="17.8507684">
        <ele>73.8</ele>
        <time>2013-03-09T10:46:16Z</time>
      </trkpt>
      <trkpt lat="59.1677858" lon="17.8507633">
        <ele>73.2</ele>
        <time>2013-03-09T10:46:17Z</time>
      </trkpt>
      <trkpt lat="59.1679318" lon="17.850805">
        <ele>72.2</ele>
        <time>2013-03-09T10:46:19Z</time>
      </trkpt>
      <trkpt lat="59.1681012" lon="17.850999">
        <ele>69.6</ele>
        <time>2013-03-09T10:46:22Z</time>
      </trkpt>
      <trkpt lat="59.1681366" lon="17.8510668">
        <ele>68.8</ele>
        <time>2013-03-09T10:46:23Z</time>
      </trkpt>
      <trkpt lat="59.1682567" lon="17.8512529">
        <ele>67.6</ele>
        <time>2013-03-09T10:46:27Z</time>
      </trkpt>
      <trkpt lat="59.1684005" lon="17.8514733">
        <ele>67</ele>
        <time>2013-03-09T10:46:31Z</time>
      </trkpt>
      <trkpt lat="59.1684395" lon="17.851546">
        <ele>66.8</ele>
        <time>2013-03-09T10:46:32Z</time>
      </trkpt>
      <trkpt lat="59.168481" lon="17.8516058">
        <ele>67.6</ele>
        <time>2013-03-09T10:46:33Z</time>
      </trkpt>
      <trkpt lat="59.1685432" lon="17.8517675">
        <ele>67.8</ele>
        <time>2013-03-09T10:46:35Z</time>
      </trkpt>
      <trkpt lat="59.168642" lon="17.8520644">
        <ele>69.2</ele>
        <time>2013-03-09T10:46:39Z</time>
      </trkpt>
      <trkpt lat="59.1686849" lon="17.852137">
        <ele>70</ele>
        <time>2013-03-09T10:46:40Z</time>
      </trkpt>
      <trkpt lat="59.1687793" lon="17.8523603">
        <ele>69.4</ele>
        <time>2013-03-09T10:46:43Z</time>
      </trkpt>
      <trkpt lat="59.1688663" lon="17.8525592">
        <ele>68</ele>
        <time>2013-03-09T10:46:46Z</time>
      </trkpt>
      <trkpt lat="59.1689069" lon="17.8526033">
        <ele>67.8</ele>
        <time>2013-03-09T10:46:47Z</time>
      </trkpt>
      <trkpt lat="59.1690325" lon="17.8527783">
        <ele>68</ele>
        <time>2013-03-09T10:46:50Z</time>
      </trkpt>
      <trkpt lat="59.1690472" lon="17.8528703">
        <ele>66.4</ele>
        <time>2013-03-09T10:46:51Z</time>
      </trkpt>
      <trkpt lat="59.1690922" lon="17.8530609">
        <ele>65.4</ele>
        <time>2013-03-09T10:46:53Z</time>
      </trkpt>
      <trkpt lat="59.1691376" lon="17.8532166">
        <ele>62.6</ele>
        <time>2013-03-09T10:46:55Z</time>
      </trkpt>
      <trkpt lat="59.1692549" lon="17.8534896">
        <ele>60.6</ele>
        <time>2013-03-09T10:46:59Z</time>
      </trkpt>
      <trkpt lat="59.1692876" lon="17.8535647">
        <ele>60.4</ele>
        <time>2013-03-09T10:47:00Z</time>
      </trkpt>
      <trkpt lat="59.1693212" lon="17.8536347">
        <ele>59.8</ele>
        <time>2013-03-09T10:47:01Z</time>
      </trkpt>
      <trkpt lat="59.1693782" lon="17.8537594">
        <ele>58</ele>
        <time>2013-03-09T10:47:03Z</time>
      </trkpt>
      <trkpt lat="59.1694123" lon="17.8538227">
        <ele>57.2</ele>
        <time>2013-03-09T10:47:04Z</time>
      </trkpt>
      <trkpt lat="59.1694772" lon="17.853934">
        <ele>54.2</ele>
        <time>2013-03-09T10:47:06Z</time>
      </trkpt>
      <trkpt lat="59.1695305" lon="17.8540547">
        <ele>52</ele>
        <time>2013-03-09T10:47:08Z</time>
      </trkpt>
      <trkpt lat="59.1695838" lon="17.8541337">
        <ele>51.6</ele>
        <time>2013-03-09T10:47:10Z</time>
      </trkpt>
      <trkpt lat="59.1696439" lon="17.8542153">
        <ele>52.6</ele>
        <time>2013-03-09T10:47:14Z</time>
      </trkpt>
      <trkpt lat="59.1696947" lon="17.8542458">
        <ele>53.6</ele>
        <time>2013-03-09T10:47:17Z</time>
      </trkpt>
      <trkpt lat="59.1698257" lon="17.8544956">
        <ele>59</ele>
        <time>2013-03-09T10:47:22Z</time>
      </trkpt>
      <trkpt lat="59.1699283" lon="17.8548207">
        <ele>63</ele>
        <time>2013-03-09T10:47:27Z</time>
      </trkpt>
      <trkpt lat="59.1700294" lon="17.8552203">
        <ele>66.8</ele>
        <time>2013-03-09T10:47:32Z</time>
      </trkpt>
      <trkpt lat="59.1700863" lon="17.8553932">
        <ele>67.2</ele>
        <time>2013-03-09T10:47:34Z</time>
      </trkpt>
      <trkpt lat="59.1701426" lon="17.8555616">
        <ele>66.8</ele>
        <time>2013-03-09T10:47:36Z</time>
      </trkpt>
      <trkpt lat="59.1701877" lon="17.8557408">
        <ele>67.2</ele>
        <time>2013-03-09T10:47:38Z</time>
      </trkpt>
      <trkpt lat="59.1702461" lon="17.8559124">
        <ele>67</ele>
        <time>2013-03-09T10:47:40Z</time>
      </trkpt>
      <trkpt lat="59.1703788" lon="17.8562427">
        <ele>65.8</ele>
        <time>2013-03-09T10:47:44Z</time>
      </trkpt>
      <trkpt lat="59.1704046" lon="17.8563268">
        <ele>65.8</ele>
        <time>2013-03-09T10:47:45Z</time>
      </trkpt>
      <trkpt lat="59.170478" lon="17.8565717">
        <ele>64.4</ele>
        <time>2013-03-09T10:47:48Z</time>
      </trkpt>
      <trkpt lat="59.1705533" lon="17.8568291">
        <ele>63.2</ele>
        <time>2013-03-09T10:47:51Z</time>
      </trkpt>
      <trkpt lat="59.1705811" lon="17.8569088">
        <ele>62.6</ele>
        <time>2013-03-09T10:47:52Z</time>
      </trkpt>
      <trkpt lat="59.1706455" lon="17.8570727">
        <ele>61.2</ele>
        <time>2013-03-09T10:47:54Z</time>
      </trkpt>
      <trkpt lat="59.1706963" lon="17.8572596">
        <ele>60.4</ele>
        <time>2013-03-09T10:47:56Z</time>
      </trkpt>
      <trkpt lat="59.1707488" lon="17.8574317">
        <ele>61.2</ele>
        <time>2013-03-09T10:47:58Z</time>
      </trkpt>
      <trkpt lat="59.1707891" lon="17.8576094">
        <ele>64.2</ele>
        <time>2013-03-09T10:48:00Z</time>
      </trkpt>
      <trkpt lat="59.170823" lon="17.8577657">
        <ele>65.2</ele>
        <time>2013-03-09T10:48:02Z</time>
      </trkpt>
      <trkpt lat="59.1708653" lon="17.8580281">
        <ele>67</ele>
        <time>2013-03-09T10:48:05Z</time>
      </trkpt>
      <trkpt lat="59.1708875" lon="17.8582328">
        <ele>68.6</ele>
        <time>2013-03-09T10:48:07Z</time>
      </trkpt>
      <trkpt lat="59.1709059" lon="17.8583329">
        <ele>69</ele>
        <time>2013-03-09T10:48:08Z</time>
      </trkpt>
      <trkpt lat="59.1709258" lon="17.8584475">
        <ele>69</ele>
        <time>2013-03-09T10:48:09Z</time>
      </trkpt>
      <trkpt lat="59.1709778" lon="17.8586691">
        <ele>69</ele>
        <time>2013-03-09T10:48:11Z</time>
      </trkpt>
      <trkpt lat="59.1710569" lon="17.8588312">
        <ele>68.6</ele>
        <time>2013-03-09T10:48:13Z</time>
      </trkpt>
      <trkpt lat="59.1711604" lon="17.8589597">
        <ele>68.4</ele>
        <time>2013-03-09T10:48:15Z</time>
      </trkpt>
      <trkpt lat="59.1712611" lon="17.8590923">
        <ele>71.6</ele>
        <time>2013-03-09T10:48:17Z</time>
      </trkpt>
      <trkpt lat="59.1714134" lon="17.8593424">
        <ele>72.6</ele>
        <time>2013-03-09T10:48:20Z</time>
      </trkpt>
      <trkpt lat="59.1714674" lon="17.8594195">
        <ele>74.4</ele>
        <time>2013-03-09T10:48:21Z</time>
      </trkpt>
      <trkpt lat="59.1715677" lon="17.8595399">
        <ele>73</ele>
        <time>2013-03-09T10:48:23Z</time>
      </trkpt>
      <trkpt lat="59.1717194" lon="17.8597258">
        <ele>76.8</ele>
        <time>2013-03-09T10:48:26Z</time>
      </trkpt>
      <trkpt lat="59.1718367" lon="17.8598879">
        <ele>76.8</ele>
        <time>2013-03-09T10:48:28Z</time>
      </trkpt>
      <trkpt lat="59.1719007" lon="17.8599536">
        <ele>76.8</ele>
        <time>2013-03-09T10:48:29Z</time>
      </trkpt>
      <trkpt lat="59.1720871" lon="17.8601031">
        <ele>74.4</ele>
        <time>2013-03-09T10:48:32Z</time>
      </trkpt>
      <trkpt lat="59.1722634" lon="17.8602387">
        <ele>74.6</ele>
        <time>2013-03-09T10:48:35Z</time>
      </trkpt>
      <trkpt lat="59.1724204" lon="17.8603828">
        <ele>71.8</ele>
        <time>2013-03-09T10:48:38Z</time>
      </trkpt>
      <trkpt lat="59.1724676" lon="17.8604408">
        <ele>71</ele>
        <time>2013-03-09T10:48:39Z</time>
      </trkpt>
      <trkpt lat="59.1726523" lon="17.8606247">
        <ele>68.2</ele>
        <time>2013-03-09T10:48:43Z</time>
      </trkpt>
      <trkpt lat="59.172869" lon="17.8607187">
        <ele>66.6</ele>
        <time>2013-03-09T10:48:47Z</time>
      </trkpt>
      <trkpt lat="59.1729829" lon="17.8607519">
        <ele>65.8</ele>
        <time>2013-03-09T10:48:49Z</time>
      </trkpt>
      <trkpt lat="59.1730648" lon="17.8607627">
        <ele>64.2</ele>
        <time>2013-03-09T10:48:51Z</time>
      </trkpt>
      <trkpt lat="59.1730954" lon="17.8607819">
        <ele>64</ele>
        <time>2013-03-09T10:48:52Z</time>
      </trkpt>
      <trkpt lat="59.1732109" lon="17.860886">
        <ele>59.8</ele>
        <time>2013-03-09T10:48:56Z</time>
      </trkpt>
      <trkpt lat="59.1732413" lon="17.8608944">
        <ele>58.8</ele>
        <time>2013-03-09T10:48:57Z</time>
      </trkpt>
      <trkpt lat="59.1734285" lon="17.8609183">
        <ele>57.8</ele>
        <time>2013-03-09T10:49:01Z</time>
      </trkpt>
      <trkpt lat="59.1735331" lon="17.8608824">
        <ele>56.6</ele>
        <time>2013-03-09T10:49:03Z</time>
      </trkpt>
      <trkpt lat="59.1736231" lon="17.8608069">
        <ele>57</ele>
        <time>2013-03-09T10:49:05Z</time>
      </trkpt>
      <trkpt lat="59.1737891" lon="17.8605161">
        <ele>56</ele>
        <time>2013-03-09T10:49:09Z</time>
      </trkpt>
      <trkpt lat="59.173952" lon="17.8602931">
        <ele>55</ele>
        <time>2013-03-09T10:49:13Z</time>
      </trkpt>
      <trkpt lat="59.174123" lon="17.8600817">
        <ele>52.8</ele>
        <time>2013-03-09T10:49:17Z</time>
      </trkpt>
      <trkpt lat="59.1742806" lon="17.8598748">
        <ele>50.6</ele>
        <time>2013-03-09T10:49:21Z</time>
      </trkpt>
      <trkpt lat="59.1743184" lon="17.8598326">
        <ele>49.8</ele>
        <time>2013-03-09T10:49:22Z</time>
      </trkpt>
      <trkpt lat="59.1744658" lon="17.8596943">
        <ele>46</ele>
        <time>2013-03-09T10:49:26Z</time>
      </trkpt>
      <trkpt lat="59.1745541" lon="17.8594434">
        <ele>44</ele>
        <time>2013-03-09T10:49:30Z</time>
      </trkpt>
      <trkpt lat="59.1745801" lon="17.8593797">
        <ele>43.8</ele>
        <time>2013-03-09T10:49:31Z</time>
      </trkpt>
      <trkpt lat="59.1746659" lon="17.8591949">
        <ele>45</ele>
        <time>2013-03-09T10:49:34Z</time>
      </trkpt>
      <trkpt lat="59.1747393" lon="17.8591048">
        <ele>44.4</ele>
        <time>2013-03-09T10:49:36Z</time>
      </trkpt>
      <trkpt lat="59.1748526" lon="17.8589377">
        <ele>43.6</ele>
        <time>2013-03-09T10:49:40Z</time>
      </trkpt>
      <trkpt lat="59.1748846" lon="17.858884">
        <ele>43.8</ele>
        <time>2013-03-09T10:49:41Z</time>
      </trkpt>
      <trkpt lat="59.1750456" lon="17.8587649">
        <ele>44.4</ele>
        <time>2013-03-09T10:49:45Z</time>
      </trkpt>
      <trkpt lat="59.1750802" lon="17.858748">
        <ele>44.4</ele>
        <time>2013-03-09T10:49:46Z</time>
      </trkpt>
      <trkpt lat="59.1752865" lon="17.8586136">
        <ele>47.2</ele>
        <time>2013-03-09T10:49:52Z</time>
      </trkpt>
      <trkpt lat="59.1753139" lon="17.8585744">
        <ele>48.2</ele>
        <time>2013-03-09T10:49:53Z</time>
      </trkpt>
      <trkpt lat="59.1753822" lon="17.858321">
        <ele>55.2</ele>
        <time>2013-03-09T10:49:58Z</time>
      </trkpt>
      <trkpt lat="59.1754426" lon="17.8579593">
        <ele>64.6</ele>
        <time>2013-03-09T10:50:04Z</time>
      </trkpt>
      <trkpt lat="59.1754944" lon="17.8576061">
        <ele>70.2</ele>
        <time>2013-03-09T10:50:10Z</time>
      </trkpt>
      <trkpt lat="59.1754492" lon="17.8572642">
        <ele>72.2</ele>
        <time>2013-03-09T10:50:15Z</time>
      </trkpt>
      <trkpt lat="59.1754389" lon="17.8568856">
        <ele>73.4</ele>
        <time>2013-03-09T10:50:20Z</time>
      </trkpt>
      <trkpt lat="59.1755001" lon="17.8565244">
        <ele>72.8</ele>
        <time>2013-03-09T10:50:26Z</time>
      </trkpt>
      <trkpt lat="59.1756451" lon="17.8562679">
        <ele>69.2</ele>
        <time>2013-03-09T10:50:32Z</time>
      </trkpt>
      <trkpt lat="59.175806" lon="17.8560595">
        <ele>67.4</ele>
        <time>2013-03-09T10:50:38Z</time>
      </trkpt>
      <trkpt lat="59.1759858" lon="17.8558998">
        <ele>63.8</ele>
        <time>2013-03-09T10:50:44Z</time>
      </trkpt>
      <trkpt lat="59.1761817" lon="17.8558163">
        <ele>61.4</ele>
        <time>2013-03-09T10:50:49Z</time>
      </trkpt>
      <trkpt lat="59.1763629" lon="17.8559061">
        <ele>62.8</ele>
        <time>2013-03-09T10:50:54Z</time>
      </trkpt>
      <trkpt lat="59.1765195" lon="17.8561224">
        <ele>60.8</ele>
        <time>2013-03-09T10:51:01Z</time>
      </trkpt>
      <trkpt lat="59.1766158" lon="17.856146">
        <ele>61</ele>
        <time>2013-03-09T10:51:04Z</time>
      </trkpt>
      <trkpt lat="59.176707" lon="17.8561278">
        <ele>60.6</ele>
        <time>2013-03-09T10:51:06Z</time>
      </trkpt>
      <trkpt lat="59.1768955" lon="17.856069">
        <ele>62.8</ele>
        <time>2013-03-09T10:51:09Z</time>
      </trkpt>
      <trkpt lat="59.1770776" lon="17.855962">
        <ele>67.8</ele>
        <time>2013-03-09T10:51:12Z</time>
      </trkpt>
      <trkpt lat="59.1771344" lon="17.8559133">
        <ele>68.4</ele>
        <time>2013-03-09T10:51:13Z</time>
      </trkpt>
      <trkpt lat="59.1772301" lon="17.8557631">
        <ele>69.6</ele>
        <time>2013-03-09T10:51:15Z</time>
      </trkpt>
      <trkpt lat="59.1773846" lon="17.8554491">
        <ele>76</ele>
        <time>2013-03-09T10:51:20Z</time>
      </trkpt>
      <trkpt lat="59.1774627" lon="17.8552915">
        <ele>78.8</ele>
        <time>2013-03-09T10:51:24Z</time>
      </trkpt>
      <trkpt lat="59.1775081" lon="17.8551347">
        <ele>78.8</ele>
        <time>2013-03-09T10:51:27Z</time>
      </trkpt>
      <trkpt lat="59.1776514" lon="17.8549133">
        <ele>75.6</ele>
        <time>2013-03-09T10:51:31Z</time>
      </trkpt>
      <trkpt lat="59.1778402" lon="17.8548665">
        <ele>70.8</ele>
        <time>2013-03-09T10:51:35Z</time>
      </trkpt>
      <trkpt lat="59.1778859" lon="17.8548695">
        <ele>70.2</ele>
        <time>2013-03-09T10:51:36Z</time>
      </trkpt>
      <trkpt lat="59.1780482" lon="17.8549574">
        <ele>65.6</ele>
        <time>2013-03-09T10:51:40Z</time>
      </trkpt>
      <trkpt lat="59.1781699" lon="17.8550208">
        <ele>63</ele>
        <time>2013-03-09T10:51:43Z</time>
      </trkpt>
      <trkpt lat="59.178217" lon="17.8550155">
        <ele>62.6</ele>
        <time>2013-03-09T10:51:44Z</time>
      </trkpt>
      <trkpt lat="59.178367" lon="17.8549833">
        <ele>62.2</ele>
        <time>2013-03-09T10:51:47Z</time>
      </trkpt>
      <trkpt lat="59.1784293" lon="17.8549613">
        <ele>61.6</ele>
        <time>2013-03-09T10:51:48Z</time>
      </trkpt>
      <trkpt lat="59.178613" lon="17.8548892">
        <ele>60.8</ele>
        <time>2013-03-09T10:51:51Z</time>
      </trkpt>
      <trkpt lat="59.1786716" lon="17.8548639">
        <ele>61</ele>
        <time>2013-03-09T10:51:52Z</time>
      </trkpt>
      <trkpt lat="59.1788194" lon="17.8547648">
        <ele>59.8</ele>
        <time>2013-03-09T10:51:55Z</time>
      </trkpt>
      <trkpt lat="59.1789624" lon="17.8545002">
        <ele>56</ele>
        <time>2013-03-09T10:51:59Z</time>
      </trkpt>
      <trkpt lat="59.1790298" lon="17.8542659">
        <ele>53.8</ele>
        <time>2013-03-09T10:52:02Z</time>
      </trkpt>
      <trkpt lat="59.1790478" lon="17.8541949">
        <ele>53.4</ele>
        <time>2013-03-09T10:52:03Z</time>
      </trkpt>
      <trkpt lat="59.1790691" lon="17.8541184">
        <ele>54.4</ele>
        <time>2013-03-09T10:52:04Z</time>
      </trkpt>
      <trkpt lat="59.1791166" lon="17.8538749">
        <ele>57.6</ele>
        <time>2013-03-09T10:52:07Z</time>
      </trkpt>
      <trkpt lat="59.1791395" lon="17.8537277">
        <ele>58.4</ele>
        <time>2013-03-09T10:52:09Z</time>
      </trkpt>
      <trkpt lat="59.1791419" lon="17.8536544">
        <ele>59</ele>
        <time>2013-03-09T10:52:10Z</time>
      </trkpt>
      <trkpt lat="59.179153" lon="17.8533164">
        <ele>61.8</ele>
        <time>2013-03-09T10:52:14Z</time>
      </trkpt>
      <trkpt lat="59.1791997" lon="17.8530953">
        <ele>65</ele>
        <time>2013-03-09T10:52:17Z</time>
      </trkpt>
      <trkpt lat="59.1792167" lon="17.8529462">
        <ele>65.6</ele>
        <time>2013-03-09T10:52:19Z</time>
      </trkpt>
      <trkpt lat="59.1792842" lon="17.852603">
        <ele>69.2</ele>
        <time>2013-03-09T10:52:23Z</time>
      </trkpt>
      <trkpt lat="59.1794001" lon="17.8522914">
        <ele>73.4</ele>
        <time>2013-03-09T10:52:27Z</time>
      </trkpt>
      <trkpt lat="59.1794379" lon="17.8522274">
        <ele>74.8</ele>
        <time>2013-03-09T10:52:28Z</time>
      </trkpt>
      <trkpt lat="59.1795814" lon="17.8520615">
        <ele>78</ele>
        <time>2013-03-09T10:52:31Z</time>
      </trkpt>
      <trkpt lat="59.1797497" lon="17.8518859">
        <ele>78.8</ele>
        <time>2013-03-09T10:52:35Z</time>
      </trkpt>
      <trkpt lat="59.1798423" lon="17.8517942">
        <ele>78.6</ele>
        <time>2013-03-09T10:52:37Z</time>
      </trkpt>
      <trkpt lat="59.1799303" lon="17.8516807">
        <ele>77.4</ele>
        <time>2013-03-09T10:52:39Z</time>
      </trkpt>
      <trkpt lat="59.1801187" lon="17.85154">
        <ele>74.4</ele>
        <time>2013-03-09T10:52:42Z</time>
      </trkpt>
      <trkpt lat="59.1802827" lon="17.8514256">
        <ele>72.2</ele>
        <time>2013-03-09T10:52:44Z</time>
      </trkpt>
      <trkpt lat="59.1803621" lon="17.8514231">
        <ele>72.6</ele>
        <time>2013-03-09T10:52:45Z</time>
      </trkpt>
      <trkpt lat="59.180564" lon="17.8513743">
        <ele>71.2</ele>
        <time>2013-03-09T10:52:47Z</time>
      </trkpt>
      <trkpt lat="59.1807625" lon="17.8514652">
        <ele>70.8</ele>
        <time>2013-03-09T10:52:49Z</time>
      </trkpt>
      <trkpt lat="59.1807985" lon="17.8519268">
        <ele>68.2</ele>
        <time>2013-03-09T10:52:52Z</time>
      </trkpt>
      <trkpt lat="59.1807556" lon="17.8523048">
        <ele>66.6</ele>
        <time>2013-03-09T10:52:55Z</time>
      </trkpt>
      <trkpt lat="59.1807405" lon="17.8523816">
        <ele>67.8</ele>
        <time>2013-03-09T10:52:56Z</time>
      </trkpt>
      <trkpt lat="59.180777" lon="17.8527208">
        <ele>63.2</ele>
        <time>2013-03-09T10:53:00Z</time>
      </trkpt>
      <trkpt lat="59.1808552" lon="17.8531129">
        <ele>58.6</ele>
        <time>2013-03-09T10:53:04Z</time>
      </trkpt>
      <trkpt lat="59.1809028" lon="17.8535215">
        <ele>54.8</ele>
        <time>2013-03-09T10:53:08Z</time>
      </trkpt>
      <trkpt lat="59.180966" lon="17.8539029">
        <ele>52.2</ele>
        <time>2013-03-09T10:53:12Z</time>
      </trkpt>
      <trkpt lat="59.1810338" lon="17.8541793">
        <ele>51.6</ele>
        <time>2013-03-09T10:53:15Z</time>
      </trkpt>
      <trkpt lat="59.1810572" lon="17.8542676">
        <ele>51.8</ele>
        <time>2013-03-09T10:53:16Z</time>
      </trkpt>
      <trkpt lat="59.1810749" lon="17.8543516">
        <ele>51.4</ele>
        <time>2013-03-09T10:53:17Z</time>
      </trkpt>
      <trkpt lat="59.1811359" lon="17.8546627">
        <ele>50</ele>
        <time>2013-03-09T10:53:21Z</time>
      </trkpt>
      <trkpt lat="59.1811577" lon="17.8547348">
        <ele>49.6</ele>
        <time>2013-03-09T10:53:22Z</time>
      </trkpt>
      <trkpt lat="59.1812852" lon="17.8548794">
        <ele>51.4</ele>
        <time>2013-03-09T10:53:26Z</time>
      </trkpt>
      <trkpt lat="59.1814486" lon="17.8548401">
        <ele>53</ele>
        <time>2013-03-09T10:53:30Z</time>
      </trkpt>
      <trkpt lat="59.1814903" lon="17.8548232">
        <ele>52</ele>
        <time>2013-03-09T10:53:31Z</time>
      </trkpt>
      <trkpt lat="59.1817012" lon="17.8547051">
        <ele>52</ele>
        <time>2013-03-09T10:53:37Z</time>
      </trkpt>
      <trkpt lat="59.1818696" lon="17.854569">
        <ele>52</ele>
        <time>2013-03-09T10:53:42Z</time>
      </trkpt>
      <trkpt lat="59.1820757" lon="17.8544484">
        <ele>52.2</ele>
        <time>2013-03-09T10:53:49Z</time>
      </trkpt>
      <trkpt lat="59.1822506" lon="17.8542774">
        <ele>60.6</ele>
        <time>2013-03-09T10:53:57Z</time>
      </trkpt>
      <trkpt lat="59.1824481" lon="17.8543074">
        <ele>63.2</ele>
        <time>2013-03-09T10:54:03Z</time>
      </trkpt>
      <trkpt lat="59.1826334" lon="17.8543954">
        <ele>61.2</ele>
        <time>2013-03-09T10:54:09Z</time>
      </trkpt>
      <trkpt lat="59.1828139" lon="17.8545302">
        <ele>60.6</ele>
        <time>2013-03-09T10:54:14Z</time>
      </trkpt>
      <trkpt lat="59.1829649" lon="17.8547353">
        <ele>61</ele>
        <time>2013-03-09T10:54:18Z</time>
      </trkpt>
      <trkpt lat="59.1830343" lon="17.8548124">
        <ele>60.2</ele>
        <time>2013-03-09T10:54:20Z</time>
      </trkpt>
      <trkpt lat="59.1831353" lon="17.8548975">
        <ele>60</ele>
        <time>2013-03-09T10:54:23Z</time>
      </trkpt>
      <trkpt lat="59.183329" lon="17.8550025">
        <ele>59.4</ele>
        <time>2013-03-09T10:54:30Z</time>
      </trkpt>
      <trkpt lat="59.1835115" lon="17.855172">
        <ele>61.8</ele>
        <time>2013-03-09T10:54:38Z</time>
      </trkpt>
      <trkpt lat="59.1836856" lon="17.8553837">
        <ele>64.6</ele>
        <time>2013-03-09T10:54:45Z</time>
      </trkpt>
      <trkpt lat="59.1838392" lon="17.8556242">
        <ele>68.2</ele>
        <time>2013-03-09T10:54:51Z</time>
      </trkpt>
      <trkpt lat="59.1839109" lon="17.855806">
        <ele>70.2</ele>
        <time>2013-03-09T10:54:56Z</time>
      </trkpt>
      <trkpt lat="59.1839519" lon="17.8559077">
        <ele>70.4</ele>
        <time>2013-03-09T10:54:59Z</time>
      </trkpt>
      <trkpt lat="59.1840389" lon="17.8562381">
        <ele>70</ele>
        <time>2013-03-09T10:55:04Z</time>
      </trkpt>
      <trkpt lat="59.1841477" lon="17.8565717">
        <ele>69.4</ele>
        <time>2013-03-09T10:55:09Z</time>
      </trkpt>
      <trkpt lat="59.184172" lon="17.8567301">
        <ele>67.8</ele>
        <time>2013-03-09T10:55:11Z</time>
      </trkpt>
      <trkpt lat="59.1841742" lon="17.8569161">
        <ele>66.8</ele>
        <time>2013-03-09T10:55:13Z</time>
      </trkpt>
      <trkpt lat="59.1841804" lon="17.8570923">
        <ele>64.8</ele>
        <time>2013-03-09T10:55:15Z</time>
      </trkpt>
      <trkpt lat="59.1841932" lon="17.857283">
        <ele>64.2</ele>
        <time>2013-03-09T10:55:17Z</time>
      </trkpt>
      <trkpt lat="59.1842352" lon="17.8577476">
        <ele>63</ele>
        <time>2013-03-09T10:55:21Z</time>
      </trkpt>
      <trkpt lat="59.1842718" lon="17.858195">
        <ele>61.8</ele>
        <time>2013-03-09T10:55:24Z</time>
      </trkpt>
      <trkpt lat="59.1843521" lon="17.8586758">
        <ele>61.6</ele>
        <time>2013-03-09T10:55:27Z</time>
      </trkpt>
      <trkpt lat="59.1845417" lon="17.8590258">
        <ele>61.6</ele>
        <time>2013-03-09T10:55:30Z</time>
      </trkpt>
      <trkpt lat="59.1847473" lon="17.8592709">
        <ele>61.6</ele>
        <time>2013-03-09T10:55:33Z</time>
      </trkpt>
      <trkpt lat="59.184864" lon="17.8596549">
        <ele>63.4</ele>
        <time>2013-03-09T10:55:37Z</time>
      </trkpt>
      <trkpt lat="59.1848634" lon="17.859836">
        <ele>65.4</ele>
        <time>2013-03-09T10:55:39Z</time>
      </trkpt>
      <trkpt lat="59.1848594" lon="17.8599144">
        <ele>65.2</ele>
        <time>2013-03-09T10:55:40Z</time>
      </trkpt>
      <trkpt lat="59.1848749" lon="17.8601038">
        <ele>65.6</ele>
        <time>2013-03-09T10:55:42Z</time>
      </trkpt>
      <trkpt lat="59.1848915" lon="17.8601998">
        <ele>65.4</ele>
        <time>2013-03-09T10:55:43Z</time>
      </trkpt>
      <trkpt lat="59.1849463" lon="17.8604885">
        <ele>68.6</ele>
        <time>2013-03-09T10:55:46Z</time>
      </trkpt>
      <trkpt lat="59.1850003" lon="17.8608473">
        <ele>72.2</ele>
        <time>2013-03-09T10:55:49Z</time>
      </trkpt>
      <trkpt lat="59.1850117" lon="17.8609965">
        <ele>72.8</ele>
        <time>2013-03-09T10:55:50Z</time>
      </trkpt>
      <trkpt lat="59.1850064" lon="17.8613198">
        <ele>72.4</ele>
        <time>2013-03-09T10:55:52Z</time>
      </trkpt>
      <trkpt lat="59.1849892" lon="17.8616184">
        <ele>70.8</ele>
        <time>2013-03-09T10:55:54Z</time>
      </trkpt>
      <trkpt lat="59.1849737" lon="17.8617668">
        <ele>70.2</ele>
        <time>2013-03-09T10:55:55Z</time>
      </trkpt>
      <trkpt lat="59.184861" lon="17.8621206">
        <ele>66.6</ele>
        <time>2013-03-09T10:55:58Z</time>
      </trkpt>
      <trkpt lat="59.1847491" lon="17.8622676">
        <ele>66.4</ele>
        <time>2013-03-09T10:56:00Z</time>
      </trkpt>
      <trkpt lat="59.1846924" lon="17.8623387">
        <ele>65.4</ele>
        <time>2013-03-09T10:56:01Z</time>
      </trkpt>
      <trkpt lat="59.1845321" lon="17.8625706">
        <ele>65.4</ele>
        <time>2013-03-09T10:56:04Z</time>
      </trkpt>
      <trkpt lat="59.1843476" lon="17.8628567">
        <ele>63.8</ele>
        <time>2013-03-09T10:56:08Z</time>
      </trkpt>
      <trkpt lat="59.1843045" lon="17.8629193">
        <ele>63.2</ele>
        <time>2013-03-09T10:56:09Z</time>
      </trkpt>
      <trkpt lat="59.1841973" lon="17.8630832">
        <ele>60.8</ele>
        <time>2013-03-09T10:56:12Z</time>
      </trkpt>
      <trkpt lat="59.1841653" lon="17.8631466">
        <ele>60.2</ele>
        <time>2013-03-09T10:56:13Z</time>
      </trkpt>
      <trkpt lat="59.1841176" lon="17.8634783">
        <ele>61</ele>
        <time>2013-03-09T10:56:17Z</time>
      </trkpt>
      <trkpt lat="59.184135" lon="17.8637891">
        <ele>63.4</ele>
        <time>2013-03-09T10:56:20Z</time>
      </trkpt>
      <trkpt lat="59.1841381" lon="17.8639156">
        <ele>64.6</ele>
        <time>2013-03-09T10:56:21Z</time>
      </trkpt>
      <trkpt lat="59.1841378" lon="17.8642564">
        <ele>67</ele>
        <time>2013-03-09T10:56:24Z</time>
      </trkpt>
      <trkpt lat="59.1841342" lon="17.8643676">
        <ele>68.6</ele>
        <time>2013-03-09T10:56:25Z</time>
      </trkpt>
      <trkpt lat="59.1841196" lon="17.8647784">
        <ele>72.4</ele>
        <time>2013-03-09T10:56:29Z</time>
      </trkpt>
      <trkpt lat="59.184102" lon="17.865069">
        <ele>71.4</ele>
        <time>2013-03-09T10:56:32Z</time>
      </trkpt>
      <trkpt lat="59.1841114" lon="17.8651618">
        <ele>70.8</ele>
        <time>2013-03-09T10:56:33Z</time>
      </trkpt>
      <trkpt lat="59.1841845" lon="17.8654866">
        <ele>67.8</ele>
        <time>2013-03-09T10:56:38Z</time>
      </trkpt>
      <trkpt lat="59.1842018" lon="17.8655669">
        <ele>68.2</ele>
        <time>2013-03-09T10:56:39Z</time>
      </trkpt>
      <trkpt lat="59.1842104" lon="17.8656594">
        <ele>67.2</ele>
        <time>2013-03-09T10:56:40Z</time>
      </trkpt>
      <trkpt lat="59.1842151" lon="17.8659414">
        <ele>65.8</ele>
        <time>2013-03-09T10:56:44Z</time>
      </trkpt>
      <trkpt lat="59.1843047" lon="17.8661735">
        <ele>61.8</ele>
        <time>2013-03-09T10:56:48Z</time>
      </trkpt>
      <trkpt lat="59.1843409" lon="17.866234">
        <ele>60.6</ele>
        <time>2013-03-09T10:56:49Z</time>
      </trkpt>
      <trkpt lat="59.1844249" lon="17.8663652">
        <ele>57.8</ele>
        <time>2013-03-09T10:56:51Z</time>
      </trkpt>
      <trkpt lat="59.1845039" lon="17.86648">
        <ele>56</ele>
        <time>2013-03-09T10:56:53Z</time>
      </trkpt>
      <trkpt lat="59.1845391" lon="17.8665351">
        <ele>55</ele>
        <time>2013-03-09T10:56:54Z</time>
      </trkpt>
      <trkpt lat="59.184603" lon="17.8666499">
        <ele>53</ele>
        <time>2013-03-09T10:56:56Z</time>
      </trkpt>
      <trkpt lat="59.1846558" lon="17.866747">
        <ele>50.4</ele>
        <time>2013-03-09T10:56:58Z</time>
      </trkpt>
      <trkpt lat="59.1847071" lon="17.8668447">
        <ele>49.2</ele>
        <time>2013-03-09T10:57:00Z</time>
      </trkpt>
      <trkpt lat="59.1847608" lon="17.867043">
        <ele>45</ele>
        <time>2013-03-09T10:57:04Z</time>
      </trkpt>
      <trkpt lat="59.1848395" lon="17.867384">
        <ele>47.2</ele>
        <time>2013-03-09T10:57:17Z</time>
      </trkpt>
      <trkpt lat="59.1848526" lon="17.8673986">
        <ele>47.8</ele>
        <time>2013-03-09T10:57:18Z</time>
      </trkpt>
      <trkpt lat="59.184919" lon="17.8674832">
        <ele>50.6</ele>
        <time>2013-03-09T10:57:24Z</time>
      </trkpt>
      <trkpt lat="59.1849278" lon="17.86751">
        <ele>50.8</ele>
        <time>2013-03-09T10:57:25Z</time>
      </trkpt>
      <trkpt lat="59.1849759" lon="17.8676245">
        <ele>56.4</ele>
        <time>2013-03-09T10:57:30Z</time>
      </trkpt>
      <trkpt lat="59.1850442" lon="17.8678032">
        <ele>58.8</ele>
        <time>2013-03-09T10:57:38Z</time>
      </trkpt>
      <trkpt lat="59.1851004" lon="17.8679006">
        <ele>62.6</ele>
        <time>2013-03-09T10:57:46Z</time>
      </trkpt>
      <trkpt lat="59.1852223" lon="17.8680793">
        <ele>63</ele>
        <time>2013-03-09T10:57:53Z</time>
      </trkpt>
      <trkpt lat="59.1852469" lon="17.8681306">
        <ele>63</ele>
        <time>2013-03-09T10:57:54Z</time>
      </trkpt>
      <trkpt lat="59.1853562" lon="17.8684505">
        <ele>67.2</ele>
        <time>2013-03-09T10:58:00Z</time>
      </trkpt>
      <trkpt lat="59.1854674" lon="17.8687403">
        <ele>67.2</ele>
        <time>2013-03-09T10:58:05Z</time>
      </trkpt>
      <trkpt lat="59.1856132" lon="17.8690479">
        <ele>64.2</ele>
        <time>2013-03-09T10:58:10Z</time>
      </trkpt>
      <trkpt lat="59.185709" lon="17.8692577">
        <ele>62.8</ele>
        <time>2013-03-09T10:58:13Z</time>
      </trkpt>
      <trkpt lat="59.1857447" lon="17.869338">
        <ele>63.2</ele>
        <time>2013-03-09T10:58:14Z</time>
      </trkpt>
      <trkpt lat="59.1857691" lon="17.8694231">
        <ele>62.4</ele>
        <time>2013-03-09T10:58:15Z</time>
      </trkpt>
      <trkpt lat="59.1858105" lon="17.8696064">
        <ele>61.2</ele>
        <time>2013-03-09T10:58:17Z</time>
      </trkpt>
      <trkpt lat="59.1858254" lon="17.8697085">
        <ele>60.2</ele>
        <time>2013-03-09T10:58:18Z</time>
      </trkpt>
      <trkpt lat="59.1858346" lon="17.8698071">
        <ele>59.2</ele>
        <time>2013-03-09T10:58:19Z</time>
      </trkpt>
      <trkpt lat="59.1858553" lon="17.8701005">
        <ele>58.4</ele>
        <time>2013-03-09T10:58:22Z</time>
      </trkpt>
      <trkpt lat="59.1858613" lon="17.8701881">
        <ele>57.2</ele>
        <time>2013-03-09T10:58:23Z</time>
      </trkpt>
      <trkpt lat="59.1858844" lon="17.8703772">
        <ele>55.4</ele>
        <time>2013-03-09T10:58:25Z</time>
      </trkpt>
      <trkpt lat="59.1859031" lon="17.8704713">
        <ele>54.8</ele>
        <time>2013-03-09T10:58:26Z</time>
      </trkpt>
      <trkpt lat="59.1860454" lon="17.870718">
        <ele>54.8</ele>
        <time>2013-03-09T10:58:30Z</time>
      </trkpt>
      <trkpt lat="59.1861719" lon="17.8708413">
        <ele>54</ele>
        <time>2013-03-09T10:58:33Z</time>
      </trkpt>
      <trkpt lat="59.1862161" lon="17.8709015">
        <ele>53.8</ele>
        <time>2013-03-09T10:58:34Z</time>
      </trkpt>
      <trkpt lat="59.1862962" lon="17.8712163">
        <ele>53.2</ele>
        <time>2013-03-09T10:58:38Z</time>
      </trkpt>
      <trkpt lat="59.1863244" lon="17.8714333">
        <ele>55.6</ele>
        <time>2013-03-09T10:58:41Z</time>
      </trkpt>
      <trkpt lat="59.1863301" lon="17.8714934">
        <ele>55.8</ele>
        <time>2013-03-09T10:58:42Z</time>
      </trkpt>
      <trkpt lat="59.1863584" lon="17.8716248">
        <ele>56.2</ele>
        <time>2013-03-09T10:58:44Z</time>
      </trkpt>
      <trkpt lat="59.1863739" lon="17.8719737">
        <ele>56.4</ele>
        <time>2013-03-09T10:58:48Z</time>
      </trkpt>
      <trkpt lat="59.1863921" lon="17.8723352">
        <ele>59</ele>
        <time>2013-03-09T10:58:52Z</time>
      </trkpt>
      <trkpt lat="59.1864098" lon="17.8724143">
        <ele>59</ele>
        <time>2013-03-09T10:58:53Z</time>
      </trkpt>
      <trkpt lat="59.1864488" lon="17.8725435">
        <ele>58.8</ele>
        <time>2013-03-09T10:58:55Z</time>
      </trkpt>
      <trkpt lat="59.1864992" lon="17.8726515">
        <ele>58.6</ele>
        <time>2013-03-09T10:58:57Z</time>
      </trkpt>
      <trkpt lat="59.1865802" lon="17.8728989">
        <ele>59</ele>
        <time>2013-03-09T10:59:01Z</time>
      </trkpt>
      <trkpt lat="59.1865917" lon="17.8729637">
        <ele>58.6</ele>
        <time>2013-03-09T10:59:02Z</time>
      </trkpt>
      <trkpt lat="59.1866419" lon="17.8733147">
        <ele>60</ele>
        <time>2013-03-09T10:59:07Z</time>
      </trkpt>
      <trkpt lat="59.186642" lon="17.8734128">
        <ele>58</ele>
        <time>2013-03-09T10:59:08Z</time>
      </trkpt>
      <trkpt lat="59.1867035" lon="17.873723">
        <ele>56.6</ele>
        <time>2013-03-09T10:59:12Z</time>
      </trkpt>
      <trkpt lat="59.1867176" lon="17.8738021">
        <ele>56</ele>
        <time>2013-03-09T10:59:13Z</time>
      </trkpt>
      <trkpt lat="59.1867579" lon="17.8740773">
        <ele>55.4</ele>
        <time>2013-03-09T10:59:16Z</time>
      </trkpt>
      <trkpt lat="59.1868023" lon="17.8743083">
        <ele>52.8</ele>
        <time>2013-03-09T10:59:19Z</time>
      </trkpt>
      <trkpt lat="59.1868293" lon="17.8744328">
        <ele>51</ele>
        <time>2013-03-09T10:59:21Z</time>
      </trkpt>
      <trkpt lat="59.1868676" lon="17.8746616">
        <ele>48.4</ele>
        <time>2013-03-09T10:59:24Z</time>
      </trkpt>
      <trkpt lat="59.1869255" lon="17.8747932">
        <ele>47.2</ele>
        <time>2013-03-09T10:59:26Z</time>
      </trkpt>
      <trkpt lat="59.1871168" lon="17.8749916">
        <ele>48.6</ele>
        <time>2013-03-09T10:59:34Z</time>
      </trkpt>
      <trkpt lat="59.1871996" lon="17.8750878">
        <ele>48.6</ele>
        <time>2013-03-09T10:59:38Z</time>
      </trkpt>
      <trkpt lat="59.1872969" lon="17.8750465">
        <ele>47.8</ele>
        <time>2013-03-09T10:59:43Z</time>
      </trkpt>
      <trkpt lat="59.1874516" lon="17.8748004">
        <ele>49.4</ele>
        <time>2013-03-09T10:59:50Z</time>
      </trkpt>
      <trkpt lat="59.1875503" lon="17.8747545">
        <ele>49.8</ele>
        <time>2013-03-09T10:59:53Z</time>
      </trkpt>
      <trkpt lat="59.1876318" lon="17.8747484">
        <ele>49.2</ele>
        <time>2013-03-09T10:59:55Z</time>
      </trkpt>
      <trkpt lat="59.187853" lon="17.8747371">
        <ele>50.8</ele>
        <time>2013-03-09T11:00:00Z</time>
      </trkpt>
      <trkpt lat="59.1879695" lon="17.8747041">
        <ele>51.6</ele>
        <time>2013-03-09T11:00:03Z</time>
      </trkpt>
      <trkpt lat="59.1880544" lon="17.8747047">
        <ele>51.6</ele>
        <time>2013-03-09T11:00:05Z</time>
      </trkpt>
      <trkpt lat="59.188272" lon="17.874744">
        <ele>49</ele>
        <time>2013-03-09T11:00:10Z</time>
      </trkpt>
      <trkpt lat="59.188371" lon="17.8747823">
        <ele>48.2</ele>
        <time>2013-03-09T11:00:12Z</time>
      </trkpt>
      <trkpt lat="59.1884632" lon="17.8748777">
        <ele>47.2</ele>
        <time>2013-03-09T11:00:14Z</time>
      </trkpt>
      <trkpt lat="59.1885115" lon="17.874921">
        <ele>46.6</ele>
        <time>2013-03-09T11:00:15Z</time>
      </trkpt>
      <trkpt lat="59.1886554" lon="17.8750036">
        <ele>47.4</ele>
        <time>2013-03-09T11:00:18Z</time>
      </trkpt>
      <trkpt lat="59.1887424" lon="17.8750356">
        <ele>47.6</ele>
        <time>2013-03-09T11:00:20Z</time>
      </trkpt>
      <trkpt lat="59.1888599" lon="17.8750233">
        <ele>48.4</ele>
        <time>2013-03-09T11:00:23Z</time>
      </trkpt>
      <trkpt lat="59.1889258" lon="17.8749686">
        <ele>50.6</ele>
        <time>2013-03-09T11:00:25Z</time>
      </trkpt>
      <trkpt lat="59.1889546" lon="17.8749213">
        <ele>49.8</ele>
        <time>2013-03-09T11:00:26Z</time>
      </trkpt>
      <trkpt lat="59.1890255" lon="17.8748122">
        <ele>50.4</ele>
        <time>2013-03-09T11:00:28Z</time>
      </trkpt>
      <trkpt lat="59.1890852" lon="17.874718">
        <ele>51.2</ele>
        <time>2013-03-09T11:00:30Z</time>
      </trkpt>
      <trkpt lat="59.189205" lon="17.8747176">
        <ele>54</ele>
        <time>2013-03-09T11:00:33Z</time>
      </trkpt>
      <trkpt lat="59.1892488" lon="17.8747397">
        <ele>55.2</ele>
        <time>2013-03-09T11:00:34Z</time>
      </trkpt>
      <trkpt lat="59.1892914" lon="17.8747736">
        <ele>56.4</ele>
        <time>2013-03-09T11:00:35Z</time>
      </trkpt>
      <trkpt lat="59.1894101" lon="17.8748621">
        <ele>57.4</ele>
        <time>2013-03-09T11:00:38Z</time>
      </trkpt>
      <trkpt lat="59.1895903" lon="17.8750865">
        <ele>61</ele>
        <time>2013-03-09T11:00:44Z</time>
      </trkpt>
      <trkpt lat="59.1896765" lon="17.8752739">
        <ele>62.6</ele>
        <time>2013-03-09T11:00:48Z</time>
      </trkpt>
      <trkpt lat="59.1897178" lon="17.8753563">
        <ele>62.6</ele>
        <time>2013-03-09T11:00:50Z</time>
      </trkpt>
      <trkpt lat="59.1898982" lon="17.8754956">
        <ele>64.8</ele>
        <time>2013-03-09T11:00:58Z</time>
      </trkpt>
      <trkpt lat="59.190064" lon="17.8756924">
        <ele>68.4</ele>
        <time>2013-03-09T11:01:06Z</time>
      </trkpt>
      <trkpt lat="59.1902033" lon="17.8757509">
        <ele>72</ele>
        <time>2013-03-09T11:01:12Z</time>
      </trkpt>
      <trkpt lat="59.1902388" lon="17.8757233">
        <ele>72.2</ele>
        <time>2013-03-09T11:01:14Z</time>
      </trkpt>
      <trkpt lat="59.1903025" lon="17.8756783">
        <ele>73.6</ele>
        <time>2013-03-09T11:01:18Z</time>
      </trkpt>
      <trkpt lat="59.1904074" lon="17.8755644">
        <ele>76.6</ele>
        <time>2013-03-09T11:01:25Z</time>
      </trkpt>
      <trkpt lat="59.1904948" lon="17.8752625">
        <ele>79.8</ele>
        <time>2013-03-09T11:01:35Z</time>
      </trkpt>
      <trkpt lat="59.190499" lon="17.8751522">
        <ele>81.6</ele>
        <time>2013-03-09T11:01:38Z</time>
      </trkpt>
      <trkpt lat="59.1904659" lon="17.8750019">
        <ele>82</ele>
        <time>2013-03-09T11:01:42Z</time>
      </trkpt>
      <trkpt lat="59.1904373" lon="17.8749194">
        <ele>82.4</ele>
        <time>2013-03-09T11:01:44Z</time>
      </trkpt>
      <trkpt lat="59.1903656" lon="17.874557">
        <ele>84.8</ele>
        <time>2013-03-09T11:01:51Z</time>
      </trkpt>
      <trkpt lat="59.190356" lon="17.8741686">
        <ele>85.8</ele>
        <time>2013-03-09T11:01:57Z</time>
      </trkpt>
      <trkpt lat="59.1903658" lon="17.8738137">
        <ele>88.4</ele>
        <time>2013-03-09T11:02:02Z</time>
      </trkpt>
      <trkpt lat="59.190443" lon="17.8734402">
        <ele>90.2</ele>
        <time>2013-03-09T11:02:08Z</time>
      </trkpt>
      <trkpt lat="59.1904679" lon="17.8730786">
        <ele>91.6</ele>
        <time>2013-03-09T11:02:15Z</time>
      </trkpt>
      <trkpt lat="59.1904669" lon="17.87296">
        <ele>92</ele>
        <time>2013-03-09T11:02:17Z</time>
      </trkpt>
      <trkpt lat="59.1904962" lon="17.8727955">
        <ele>93</ele>
        <time>2013-03-09T11:02:20Z</time>
      </trkpt>
      <trkpt lat="59.1905435" lon="17.8727501">
        <ele>93.2</ele>
        <time>2013-03-09T11:02:22Z</time>
      </trkpt>
      <trkpt lat="59.1907015" lon="17.8725037">
        <ele>93</ele>
        <time>2013-03-09T11:02:29Z</time>
      </trkpt>
      <trkpt lat="59.1908529" lon="17.8726">
        <ele>91.4</ele>
        <time>2013-03-09T11:02:34Z</time>
      </trkpt>
      <trkpt lat="59.191036" lon="17.8727538">
        <ele>90.6</ele>
        <time>2013-03-09T11:02:38Z</time>
      </trkpt>
      <trkpt lat="59.1911309" lon="17.8727443">
        <ele>91</ele>
        <time>2013-03-09T11:02:40Z</time>
      </trkpt>
      <trkpt lat="59.1912494" lon="17.8727315">
        <ele>91.8</ele>
        <time>2013-03-09T11:02:42Z</time>
      </trkpt>
      <trkpt lat="59.1914236" lon="17.8726392">
        <ele>92.6</ele>
        <time>2013-03-09T11:02:45Z</time>
      </trkpt>
      <trkpt lat="59.1916047" lon="17.8726274">
        <ele>91.6</ele>
        <time>2013-03-09T11:02:48Z</time>
      </trkpt>
      <trkpt lat="59.1917325" lon="17.8726945">
        <ele>90.8</ele>
        <time>2013-03-09T11:02:50Z</time>
      </trkpt>
      <trkpt lat="59.1917976" lon="17.8727373">
        <ele>90.4</ele>
        <time>2013-03-09T11:02:51Z</time>
      </trkpt>
      <trkpt lat="59.192014" lon="17.872917">
        <ele>90.6</ele>
        <time>2013-03-09T11:02:55Z</time>
      </trkpt>
      <trkpt lat="59.1920678" lon="17.8729677">
        <ele>90.6</ele>
        <time>2013-03-09T11:02:56Z</time>
      </trkpt>
      <trkpt lat="59.1921872" lon="17.8730009">
        <ele>89.2</ele>
        <time>2013-03-09T11:02:58Z</time>
      </trkpt>
      <trkpt lat="59.1923898" lon="17.8729661">
        <ele>89.6</ele>
        <time>2013-03-09T11:03:01Z</time>
      </trkpt>
      <trkpt lat="59.1925669" lon="17.8728782">
        <ele>91.2</ele>
        <time>2013-03-09T11:03:04Z</time>
      </trkpt>
      <trkpt lat="59.1926239" lon="17.8728648">
        <ele>91.4</ele>
        <time>2013-03-09T11:03:05Z</time>
      </trkpt>
      <trkpt lat="59.1927471" lon="17.8728698">
        <ele>92.2</ele>
        <time>2013-03-09T11:03:07Z</time>
      </trkpt>
      <trkpt lat="59.1929035" lon="17.8729614">
        <ele>93</ele>
        <time>2013-03-09T11:03:10Z</time>
      </trkpt>
      <trkpt lat="59.1929493" lon="17.8730113">
        <ele>93.8</ele>
        <time>2013-03-09T11:03:11Z</time>
      </trkpt>
      <trkpt lat="59.1929985" lon="17.8730484">
        <ele>94.6</ele>
        <time>2013-03-09T11:03:12Z</time>
      </trkpt>
      <trkpt lat="59.1931461" lon="17.8730336">
        <ele>95.8</ele>
        <time>2013-03-09T11:03:15Z</time>
      </trkpt>
      <trkpt lat="59.1931942" lon="17.8730066">
        <ele>96</ele>
        <time>2013-03-09T11:03:16Z</time>
      </trkpt>
      <trkpt lat="59.1932403" lon="17.8729967">
        <ele>96.6</ele>
        <time>2013-03-09T11:03:17Z</time>
      </trkpt>
      <trkpt lat="59.1933413" lon="17.8730226">
        <ele>98.2</ele>
        <time>2013-03-09T11:03:21Z</time>
      </trkpt>
      <trkpt lat="59.1933554" lon="17.8730282">
        <ele>98</ele>
        <time>2013-03-09T11:03:22Z</time>
      </trkpt>
      <trkpt lat="59.1934519" lon="17.873149">
        <ele>97.6</ele>
        <time>2013-03-09T11:03:27Z</time>
      </trkpt>
      <trkpt lat="59.193503" lon="17.8732139">
        <ele>97.2</ele>
        <time>2013-03-09T11:03:29Z</time>
      </trkpt>
      <trkpt lat="59.1936479" lon="17.8734826">
        <ele>95</ele>
        <time>2013-03-09T11:03:35Z</time>
      </trkpt>
      <trkpt lat="59.1938163" lon="17.8735995">
        <ele>94.4</ele>
        <time>2013-03-09T11:03:40Z</time>
      </trkpt>
      <trkpt lat="59.1940104" lon="17.8734883">
        <ele>93.4</ele>
        <time>2013-03-09T11:03:45Z</time>
      </trkpt>
      <trkpt lat="59.1942026" lon="17.8733919">
        <ele>92.6</ele>
        <time>2013-03-09T11:03:49Z</time>
      </trkpt>
      <trkpt lat="59.1943684" lon="17.8732377">
        <ele>93.2</ele>
        <time>2013-03-09T11:03:52Z</time>
      </trkpt>
      <trkpt lat="59.1945791" lon="17.8730708">
        <ele>94</ele>
        <time>2013-03-09T11:03:56Z</time>
      </trkpt>
      <trkpt lat="59.1946683" lon="17.8733096">
        <ele>94</ele>
        <time>2013-03-09T11:04:03Z</time>
      </trkpt>
      <trkpt lat="59.1946921" lon="17.8736148">
        <ele>92</ele>
        <time>2013-03-09T11:04:07Z</time>
      </trkpt>
      <trkpt lat="59.1947104" lon="17.8737036">
        <ele>91.6</ele>
        <time>2013-03-09T11:04:08Z</time>
      </trkpt>
      <trkpt lat="59.1947744" lon="17.8741256">
        <ele>89.4</ele>
        <time>2013-03-09T11:04:12Z</time>
      </trkpt>
      <trkpt lat="59.1947524" lon="17.8745144">
        <ele>85.8</ele>
        <time>2013-03-09T11:04:16Z</time>
      </trkpt>
      <trkpt lat="59.1947497" lon="17.8746003">
        <ele>85.8</ele>
        <time>2013-03-09T11:04:17Z</time>
      </trkpt>
      <trkpt lat="59.1947673" lon="17.8749111">
        <ele>83</ele>
        <time>2013-03-09T11:04:21Z</time>
      </trkpt>
      <trkpt lat="59.1947622" lon="17.8751672">
        <ele>76.4</ele>
        <time>2013-03-09T11:04:24Z</time>
      </trkpt>
      <trkpt lat="59.1947658" lon="17.8752755">
        <ele>75.4</ele>
        <time>2013-03-09T11:04:25Z</time>
      </trkpt>
      <trkpt lat="59.194755" lon="17.8756898">
        <ele>69.2</ele>
        <time>2013-03-09T11:04:29Z</time>
      </trkpt>
      <trkpt lat="59.1947252" lon="17.8760193">
        <ele>61.4</ele>
        <time>2013-03-09T11:04:33Z</time>
      </trkpt>
      <trkpt lat="59.1947273" lon="17.876103">
        <ele>59.4</ele>
        <time>2013-03-09T11:04:34Z</time>
      </trkpt>
      <trkpt lat="59.1947782" lon="17.8764358">
        <ele>53.6</ele>
        <time>2013-03-09T11:04:38Z</time>
      </trkpt>
      <trkpt lat="59.1948435" lon="17.876715">
        <ele>49.4</ele>
        <time>2013-03-09T11:04:41Z</time>
      </trkpt>
      <trkpt lat="59.1948683" lon="17.8768031">
        <ele>48.6</ele>
        <time>2013-03-09T11:04:42Z</time>
      </trkpt>
      <trkpt lat="59.1949135" lon="17.8769759">
        <ele>47.8</ele>
        <time>2013-03-09T11:04:44Z</time>
      </trkpt>
      <trkpt lat="59.1949521" lon="17.8771787">
        <ele>53.8</ele>
        <time>2013-03-09T11:04:49Z</time>
      </trkpt>
      <trkpt lat="59.1949875" lon="17.8775257">
        <ele>53.8</ele>
        <time>2013-03-09T11:04:55Z</time>
      </trkpt>
      <trkpt lat="59.1949861" lon="17.8775998">
        <ele>53.6</ele>
        <time>2013-03-09T11:04:56Z</time>
      </trkpt>
      <trkpt lat="59.1950134" lon="17.8778997">
        <ele>52.4</ele>
        <time>2013-03-09T11:04:59Z</time>
      </trkpt>
      <trkpt lat="59.1950611" lon="17.8782707">
        <ele>53.4</ele>
        <time>2013-03-09T11:05:03Z</time>
      </trkpt>
      <trkpt lat="59.1950983" lon="17.8786409">
        <ele>58.2</ele>
        <time>2013-03-09T11:05:07Z</time>
      </trkpt>
      <trkpt lat="59.195143" lon="17.8790285">
        <ele>58.8</ele>
        <time>2013-03-09T11:05:11Z</time>
      </trkpt>
      <trkpt lat="59.1950648" lon="17.8794495">
        <ele>59.4</ele>
        <time>2013-03-09T11:05:15Z</time>
      </trkpt>
      <trkpt lat="59.1949291" lon="17.879698">
        <ele>60.8</ele>
        <time>2013-03-09T11:05:18Z</time>
      </trkpt>
      <trkpt lat="59.1947353" lon="17.8799112">
        <ele>60.8</ele>
        <time>2013-03-09T11:05:22Z</time>
      </trkpt>
      <trkpt lat="59.1946253" lon="17.8799591">
        <ele>59.8</ele>
        <time>2013-03-09T11:05:24Z</time>
      </trkpt>
      <trkpt lat="59.1945737" lon="17.8800211">
        <ele>59.6</ele>
        <time>2013-03-09T11:05:25Z</time>
      </trkpt>
      <trkpt lat="59.1944596" lon="17.8802489">
        <ele>56.8</ele>
        <time>2013-03-09T11:05:28Z</time>
      </trkpt>
      <trkpt lat="59.1944287" lon="17.8803492">
        <ele>56.4</ele>
        <time>2013-03-09T11:05:29Z</time>
      </trkpt>
      <trkpt lat="59.194327" lon="17.8806869">
        <ele>55</ele>
        <time>2013-03-09T11:05:32Z</time>
      </trkpt>
      <trkpt lat="59.1941095" lon="17.8807766">
        <ele>56</ele>
        <time>2013-03-09T11:05:35Z</time>
      </trkpt>
      <trkpt lat="59.1939795" lon="17.8807421">
        <ele>56.6</ele>
        <time>2013-03-09T11:05:37Z</time>
      </trkpt>
      <trkpt lat="59.1939136" lon="17.8807265">
        <ele>57</ele>
        <time>2013-03-09T11:05:38Z</time>
      </trkpt>
      <trkpt lat="59.1937309" lon="17.8806721">
        <ele>56.6</ele>
        <time>2013-03-09T11:05:42Z</time>
      </trkpt>
      <trkpt lat="59.193547" lon="17.880671">
        <ele>57</ele>
        <time>2013-03-09T11:05:46Z</time>
      </trkpt>
      <trkpt lat="59.1934996" lon="17.8806866">
        <ele>56.8</ele>
        <time>2013-03-09T11:05:47Z</time>
      </trkpt>
      <trkpt lat="59.1933461" lon="17.8807683">
        <ele>55.2</ele>
        <time>2013-03-09T11:05:50Z</time>
      </trkpt>
      <trkpt lat="59.1932537" lon="17.8808323">
        <ele>54.8</ele>
        <time>2013-03-09T11:05:52Z</time>
      </trkpt>
      <trkpt lat="59.1931838" lon="17.8808775">
        <ele>55</ele>
        <time>2013-03-09T11:05:54Z</time>
      </trkpt>
      <trkpt lat="59.1931476" lon="17.8809093">
        <ele>55</ele>
        <time>2013-03-09T11:05:55Z</time>
      </trkpt>
      <trkpt lat="59.1930223" lon="17.8810112">
        <ele>54.6</ele>
        <time>2013-03-09T11:05:58Z</time>
      </trkpt>
      <trkpt lat="59.1929766" lon="17.881028">
        <ele>54.6</ele>
        <time>2013-03-09T11:05:59Z</time>
      </trkpt>
      <trkpt lat="59.1927818" lon="17.880886">
        <ele>55.8</ele>
        <time>2013-03-09T11:06:03Z</time>
      </trkpt>
      <trkpt lat="59.192699" lon="17.8807099">
        <ele>57</ele>
        <time>2013-03-09T11:06:05Z</time>
      </trkpt>
      <trkpt lat="59.1926579" lon="17.8806192">
        <ele>57.6</ele>
        <time>2013-03-09T11:06:06Z</time>
      </trkpt>
      <trkpt lat="59.1925468" lon="17.8803488">
        <ele>58.6</ele>
        <time>2013-03-09T11:06:10Z</time>
      </trkpt>
      <trkpt lat="59.1925223" lon="17.8803075">
        <ele>59</ele>
        <time>2013-03-09T11:06:11Z</time>
      </trkpt>
      <trkpt lat="59.1924296" lon="17.8802857">
        <ele>58.8</ele>
        <time>2013-03-09T11:06:14Z</time>
      </trkpt>
      <trkpt lat="59.1923584" lon="17.8802795">
        <ele>60</ele>
        <time>2013-03-09T11:06:16Z</time>
      </trkpt>
      <trkpt lat="59.1923152" lon="17.8802708">
        <ele>60.2</ele>
        <time>2013-03-09T11:06:17Z</time>
      </trkpt>
      <trkpt lat="59.1921917" lon="17.8802632">
        <ele>59.2</ele>
        <time>2013-03-09T11:06:20Z</time>
      </trkpt>
      <trkpt lat="59.1921067" lon="17.8802607">
        <ele>59.2</ele>
        <time>2013-03-09T11:06:22Z</time>
      </trkpt>
      <trkpt lat="59.1919116" lon="17.880196">
        <ele>56.8</ele>
        <time>2013-03-09T11:06:27Z</time>
      </trkpt>
      <trkpt lat="59.1918769" lon="17.8801878">
        <ele>56.6</ele>
        <time>2013-03-09T11:06:28Z</time>
      </trkpt>
      <trkpt lat="59.1917453" lon="17.8802188">
        <ele>55.2</ele>
        <time>2013-03-09T11:06:32Z</time>
      </trkpt>
      <trkpt lat="59.1917138" lon="17.8802248">
        <ele>54.6</ele>
        <time>2013-03-09T11:06:33Z</time>
      </trkpt>
      <trkpt lat="59.1915531" lon="17.8803621">
        <ele>53</ele>
        <time>2013-03-09T11:06:37Z</time>
      </trkpt>
      <trkpt lat="59.1913421" lon="17.8804638">
        <ele>54.8</ele>
        <time>2013-03-09T11:06:43Z</time>
      </trkpt>
      <trkpt lat="59.1912609" lon="17.8805372">
        <ele>53.8</ele>
        <time>2013-03-09T11:06:45Z</time>
      </trkpt>
      <trkpt lat="59.1911579" lon="17.8806597">
        <ele>54.4</ele>
        <time>2013-03-09T11:06:48Z</time>
      </trkpt>
      <trkpt lat="59.1911127" lon="17.8807058">
        <ele>54</ele>
        <time>2013-03-09T11:06:49Z</time>
      </trkpt>
      <trkpt lat="59.1910035" lon="17.8808037">
        <ele>52</ele>
        <time>2013-03-09T11:06:51Z</time>
      </trkpt>
      <trkpt lat="59.1909413" lon="17.880845">
        <ele>51.6</ele>
        <time>2013-03-09T11:06:52Z</time>
      </trkpt>
      <trkpt lat="59.1908077" lon="17.8808284">
        <ele>51.2</ele>
        <time>2013-03-09T11:06:54Z</time>
      </trkpt>
      <trkpt lat="59.1906844" lon="17.880744">
        <ele>51.4</ele>
        <time>2013-03-09T11:06:56Z</time>
      </trkpt>
      <trkpt lat="59.1906216" lon="17.8807051">
        <ele>51.8</ele>
        <time>2013-03-09T11:06:57Z</time>
      </trkpt>
      <trkpt lat="59.1904135" lon="17.8805764">
        <ele>53.4</ele>
        <time>2013-03-09T11:07:01Z</time>
      </trkpt>
      <trkpt lat="59.1902185" lon="17.8804203">
        <ele>55</ele>
        <time>2013-03-09T11:07:05Z</time>
      </trkpt>
      <trkpt lat="59.1901167" lon="17.8803674">
        <ele>55.4</ele>
        <time>2013-03-09T11:07:07Z</time>
      </trkpt>
      <trkpt lat="59.1900088" lon="17.880326">
        <ele>55.4</ele>
        <time>2013-03-09T11:07:09Z</time>
      </trkpt>
      <trkpt lat="59.1899551" lon="17.8803085">
        <ele>54.6</ele>
        <time>2013-03-09T11:07:10Z</time>
      </trkpt>
      <trkpt lat="59.1898131" lon="17.8803169">
        <ele>55.2</ele>
        <time>2013-03-09T11:07:13Z</time>
      </trkpt>
      <trkpt lat="59.189724" lon="17.8802922">
        <ele>56.2</ele>
        <time>2013-03-09T11:07:15Z</time>
      </trkpt>
      <trkpt lat="59.1896831" lon="17.8802839">
        <ele>56.4</ele>
        <time>2013-03-09T11:07:16Z</time>
      </trkpt>
      <trkpt lat="59.1895975" lon="17.8802603">
        <ele>57.4</ele>
        <time>2013-03-09T11:07:18Z</time>
      </trkpt>
      <trkpt lat="59.1895037" lon="17.8802058">
        <ele>57.8</ele>
        <time>2013-03-09T11:07:20Z</time>
      </trkpt>
      <trkpt lat="59.1894205" lon="17.8801516">
        <ele>56.8</ele>
        <time>2013-03-09T11:07:22Z</time>
      </trkpt>
      <trkpt lat="59.1893793" lon="17.8801282">
        <ele>56.8</ele>
        <time>2013-03-09T11:07:23Z</time>
      </trkpt>
      <trkpt lat="59.1892872" lon="17.8800951">
        <ele>56</ele>
        <time>2013-03-09T11:07:25Z</time>
      </trkpt>
      <trkpt lat="59.1892418" lon="17.8800862">
        <ele>56</ele>
        <time>2013-03-09T11:07:26Z</time>
      </trkpt>
      <trkpt lat="59.1891091" lon="17.8800328">
        <ele>54.2</ele>
        <time>2013-03-09T11:07:29Z</time>
      </trkpt>
      <trkpt lat="59.189063" lon="17.8800127">
        <ele>54.4</ele>
        <time>2013-03-09T11:07:30Z</time>
      </trkpt>
      <trkpt lat="59.1890241" lon="17.8799982">
        <ele>54.2</ele>
        <time>2013-03-09T11:07:31Z</time>
      </trkpt>
      <trkpt lat="59.1888533" lon="17.8799636">
        <ele>53.4</ele>
        <time>2013-03-09T11:07:35Z</time>
      </trkpt>
      <trkpt lat="59.1887772" lon="17.8799384">
        <ele>52.4</ele>
        <time>2013-03-09T11:07:37Z</time>
      </trkpt>
      <trkpt lat="59.1886589" lon="17.8799749">
        <ele>52</ele>
        <time>2013-03-09T11:07:40Z</time>
      </trkpt>
      <trkpt lat="59.1884947" lon="17.8801514">
        <ele>51</ele>
        <time>2013-03-09T11:07:45Z</time>
      </trkpt>
      <trkpt lat="59.188472" lon="17.8801938">
        <ele>51.2</ele>
        <time>2013-03-09T11:07:46Z</time>
      </trkpt>
      <trkpt lat="59.1883788" lon="17.8804699">
        <ele>50.8</ele>
        <time>2013-03-09T11:07:50Z</time>
      </trkpt>
      <trkpt lat="59.1883636" lon="17.8805755">
        <ele>52</ele>
        <time>2013-03-09T11:07:51Z</time>
      </trkpt>
      <trkpt lat="59.1883156" lon="17.880828">
        <ele>52.6</ele>
        <time>2013-03-09T11:07:54Z</time>
      </trkpt>
      <trkpt lat="59.1882906" lon="17.8808885">
        <ele>52.2</ele>
        <time>2013-03-09T11:07:55Z</time>
      </trkpt>
      <trkpt lat="59.1881617" lon="17.8810377">
        <ele>52.4</ele>
        <time>2013-03-09T11:07:59Z</time>
      </trkpt>
      <trkpt lat="59.1881327" lon="17.8810809">
        <ele>53.2</ele>
        <time>2013-03-09T11:08:00Z</time>
      </trkpt>
      <trkpt lat="59.188099" lon="17.8811177">
        <ele>54</ele>
        <time>2013-03-09T11:08:01Z</time>
      </trkpt>
      <trkpt lat="59.1880037" lon="17.881228">
        <ele>56.4</ele>
        <time>2013-03-09T11:08:04Z</time>
      </trkpt>
      <trkpt lat="59.1878644" lon="17.8813544">
        <ele>57.2</ele>
        <time>2013-03-09T11:08:07Z</time>
      </trkpt>
      <trkpt lat="59.1878095" lon="17.8813859">
        <ele>57</ele>
        <time>2013-03-09T11:08:08Z</time>
      </trkpt>
      <trkpt lat="59.1876179" lon="17.8814652">
        <ele>56.6</ele>
        <time>2013-03-09T11:08:11Z</time>
      </trkpt>
      <trkpt lat="59.1873842" lon="17.8816107">
        <ele>54.6</ele>
        <time>2013-03-09T11:08:15Z</time>
      </trkpt>
      <trkpt lat="59.1873214" lon="17.8816658">
        <ele>53.2</ele>
        <time>2013-03-09T11:08:16Z</time>
      </trkpt>
      <trkpt lat="59.1872216" lon="17.8818314">
        <ele>50.8</ele>
        <time>2013-03-09T11:08:18Z</time>
      </trkpt>
      <trkpt lat="59.1871496" lon="17.8820812">
        <ele>51</ele>
        <time>2013-03-09T11:08:20Z</time>
      </trkpt>
      <trkpt lat="59.1871335" lon="17.8821987">
        <ele>51.2</ele>
        <time>2013-03-09T11:08:21Z</time>
      </trkpt>
      <trkpt lat="59.187195" lon="17.8825521">
        <ele>50.2</ele>
        <time>2013-03-09T11:08:25Z</time>
      </trkpt>
      <trkpt lat="59.1872143" lon="17.8826234">
        <ele>50.4</ele>
        <time>2013-03-09T11:08:26Z</time>
      </trkpt>
      <trkpt lat="59.1872783" lon="17.882905">
        <ele>49.8</ele>
        <time>2013-03-09T11:08:30Z</time>
      </trkpt>
      <trkpt lat="59.1873107" lon="17.883102">
        <ele>50.2</ele>
        <time>2013-03-09T11:08:33Z</time>
      </trkpt>
      <trkpt lat="59.1873366" lon="17.8832475">
        <ele>52</ele>
        <time>2013-03-09T11:08:35Z</time>
      </trkpt>
      <trkpt lat="59.1873524" lon="17.8833724">
        <ele>53.4</ele>
        <time>2013-03-09T11:08:37Z</time>
      </trkpt>
      <trkpt lat="59.1873826" lon="17.8836476">
        <ele>53.6</ele>
        <time>2013-03-09T11:08:41Z</time>
      </trkpt>
      <trkpt lat="59.1874287" lon="17.8840318">
        <ele>55</ele>
        <time>2013-03-09T11:08:46Z</time>
      </trkpt>
      <trkpt lat="59.1874744" lon="17.8843882">
        <ele>57</ele>
        <time>2013-03-09T11:08:52Z</time>
      </trkpt>
      <trkpt lat="59.1875707" lon="17.8847663">
        <ele>58.2</ele>
        <time>2013-03-09T11:08:57Z</time>
      </trkpt>
      <trkpt lat="59.1876421" lon="17.8850068">
        <ele>58.4</ele>
        <time>2013-03-09T11:09:00Z</time>
      </trkpt>
      <trkpt lat="59.1876535" lon="17.8851002">
        <ele>58.8</ele>
        <time>2013-03-09T11:09:01Z</time>
      </trkpt>
      <trkpt lat="59.1876839" lon="17.8854565">
        <ele>57.2</ele>
        <time>2013-03-09T11:09:05Z</time>
      </trkpt>
      <trkpt lat="59.1877607" lon="17.8856989">
        <ele>59.2</ele>
        <time>2013-03-09T11:09:08Z</time>
      </trkpt>
      <trkpt lat="59.1877888" lon="17.8857704">
        <ele>59.8</ele>
        <time>2013-03-09T11:09:09Z</time>
      </trkpt>
      <trkpt lat="59.1878965" lon="17.8859992">
        <ele>61.8</ele>
        <time>2013-03-09T11:09:12Z</time>
      </trkpt>
      <trkpt lat="59.1879239" lon="17.8860926">
        <ele>62.6</ele>
        <time>2013-03-09T11:09:13Z</time>
      </trkpt>
      <trkpt lat="59.1879253" lon="17.8864612">
        <ele>63</ele>
        <time>2013-03-09T11:09:17Z</time>
      </trkpt>
      <trkpt lat="59.1879015" lon="17.886657">
        <ele>63.2</ele>
        <time>2013-03-09T11:09:19Z</time>
      </trkpt>
      <trkpt lat="59.1878961" lon="17.8867598">
        <ele>63.2</ele>
        <time>2013-03-09T11:09:20Z</time>
      </trkpt>
      <trkpt lat="59.1878975" lon="17.8868554">
        <ele>63.4</ele>
        <time>2013-03-09T11:09:21Z</time>
      </trkpt>
      <trkpt lat="59.187817" lon="17.8871953">
        <ele>62.8</ele>
        <time>2013-03-09T11:09:25Z</time>
      </trkpt>
      <trkpt lat="59.1876493" lon="17.8873853">
        <ele>59.8</ele>
        <time>2013-03-09T11:09:29Z</time>
      </trkpt>
      <trkpt lat="59.187623" lon="17.8874418">
        <ele>59.2</ele>
        <time>2013-03-09T11:09:30Z</time>
      </trkpt>
      <trkpt lat="59.1875622" lon="17.8877749">
        <ele>61.4</ele>
        <time>2013-03-09T11:09:34Z</time>
      </trkpt>
      <trkpt lat="59.187555" lon="17.8878512">
        <ele>60.6</ele>
        <time>2013-03-09T11:09:35Z</time>
      </trkpt>
      <trkpt lat="59.187537" lon="17.8880253">
        <ele>60</ele>
        <time>2013-03-09T11:09:37Z</time>
      </trkpt>
      <trkpt lat="59.1875202" lon="17.8881154">
        <ele>59.6</ele>
        <time>2013-03-09T11:09:38Z</time>
      </trkpt>
      <trkpt lat="59.1874763" lon="17.8882713">
        <ele>58.8</ele>
        <time>2013-03-09T11:09:40Z</time>
      </trkpt>
      <trkpt lat="59.1874443" lon="17.8885026">
        <ele>57.4</ele>
        <time>2013-03-09T11:09:43Z</time>
      </trkpt>
      <trkpt lat="59.1874321" lon="17.8886365">
        <ele>55.8</ele>
        <time>2013-03-09T11:09:45Z</time>
      </trkpt>
      <trkpt lat="59.1874769" lon="17.8888352">
        <ele>53.2</ele>
        <time>2013-03-09T11:09:48Z</time>
      </trkpt>
      <trkpt lat="59.1875624" lon="17.8890452">
        <ele>50.8</ele>
        <time>2013-03-09T11:09:52Z</time>
      </trkpt>
      <trkpt lat="59.1876038" lon="17.8891673">
        <ele>50.4</ele>
        <time>2013-03-09T11:09:54Z</time>
      </trkpt>
      <trkpt lat="59.1877082" lon="17.8895134">
        <ele>51.2</ele>
        <time>2013-03-09T11:10:00Z</time>
      </trkpt>
      <trkpt lat="59.1877686" lon="17.8898361">
        <ele>54.8</ele>
        <time>2013-03-09T11:10:05Z</time>
      </trkpt>
      <trkpt lat="59.1877846" lon="17.8900551">
        <ele>56</ele>
        <time>2013-03-09T11:10:08Z</time>
      </trkpt>
      <trkpt lat="59.1878079" lon="17.8901849">
        <ele>57.2</ele>
        <time>2013-03-09T11:10:10Z</time>
      </trkpt>
      <trkpt lat="59.1878243" lon="17.8902807">
        <ele>57.6</ele>
        <time>2013-03-09T11:10:12Z</time>
      </trkpt>
      <trkpt lat="59.1878986" lon="17.8905374">
        <ele>59</ele>
        <time>2013-03-09T11:10:18Z</time>
      </trkpt>
      <trkpt lat="59.18791" lon="17.8908777">
        <ele>60.4</ele>
        <time>2013-03-09T11:10:25Z</time>
      </trkpt>
      <trkpt lat="59.187813" lon="17.8911882">
        <ele>59.8</ele>
        <time>2013-03-09T11:10:31Z</time>
      </trkpt>
      <trkpt lat="59.1877512" lon="17.891558">
        <ele>60.6</ele>
        <time>2013-03-09T11:10:37Z</time>
      </trkpt>
      <trkpt lat="59.1877328" lon="17.8918409">
        <ele>63.8</ele>
        <time>2013-03-09T11:10:42Z</time>
      </trkpt>
      <trkpt lat="59.1877507" lon="17.8919324">
        <ele>63.8</ele>
        <time>2013-03-09T11:10:44Z</time>
      </trkpt>
      <trkpt lat="59.1878145" lon="17.892318">
        <ele>66.6</ele>
        <time>2013-03-09T11:10:50Z</time>
      </trkpt>
      <trkpt lat="59.187832" lon="17.8926996">
        <ele>67</ele>
        <time>2013-03-09T11:10:54Z</time>
      </trkpt>
      <trkpt lat="59.1878647" lon="17.892894">
        <ele>66</ele>
        <time>2013-03-09T11:10:56Z</time>
      </trkpt>
      <trkpt lat="59.1879162" lon="17.8930727">
        <ele>65.4</ele>
        <time>2013-03-09T11:10:58Z</time>
      </trkpt>
      <trkpt lat="59.1880613" lon="17.8932949">
        <ele>63.6</ele>
        <time>2013-03-09T11:11:02Z</time>
      </trkpt>
      <trkpt lat="59.188098" lon="17.8933338">
        <ele>64</ele>
        <time>2013-03-09T11:11:03Z</time>
      </trkpt>
      <trkpt lat="59.1882232" lon="17.8934634">
        <ele>64.4</ele>
        <time>2013-03-09T11:11:07Z</time>
      </trkpt>
      <trkpt lat="59.1883616" lon="17.8936232">
        <ele>66.8</ele>
        <time>2013-03-09T11:11:11Z</time>
      </trkpt>
      <trkpt lat="59.1884047" lon="17.8936662">
        <ele>68</ele>
        <time>2013-03-09T11:11:12Z</time>
      </trkpt>
      <trkpt lat="59.1886055" lon="17.8938591">
        <ele>67.6</ele>
        <time>2013-03-09T11:11:17Z</time>
      </trkpt>
      <trkpt lat="59.1886837" lon="17.8938964">
        <ele>66.8</ele>
        <time>2013-03-09T11:11:19Z</time>
      </trkpt>
      <trkpt lat="59.1887853" lon="17.8939161">
        <ele>66.2</ele>
        <time>2013-03-09T11:11:21Z</time>
      </trkpt>
      <trkpt lat="59.1889802" lon="17.8939037">
        <ele>65.8</ele>
        <time>2013-03-09T11:11:25Z</time>
      </trkpt>
      <trkpt lat="59.1890304" lon="17.8939258">
        <ele>66.2</ele>
        <time>2013-03-09T11:11:26Z</time>
      </trkpt>
      <trkpt lat="59.1891698" lon="17.8940403">
        <ele>65.8</ele>
        <time>2013-03-09T11:11:29Z</time>
      </trkpt>
      <trkpt lat="59.189376" lon="17.8942261">
        <ele>66.2</ele>
        <time>2013-03-09T11:11:33Z</time>
      </trkpt>
      <trkpt lat="59.1894293" lon="17.8942692">
        <ele>65.6</ele>
        <time>2013-03-09T11:11:34Z</time>
      </trkpt>
      <trkpt lat="59.1895376" lon="17.8943817">
        <ele>64.6</ele>
        <time>2013-03-09T11:11:36Z</time>
      </trkpt>
      <trkpt lat="59.189723" lon="17.8946256">
        <ele>61.6</ele>
        <time>2013-03-09T11:11:40Z</time>
      </trkpt>
      <trkpt lat="59.1897966" lon="17.8947718">
        <ele>60.4</ele>
        <time>2013-03-09T11:11:42Z</time>
      </trkpt>
      <trkpt lat="59.1898518" lon="17.8949348">
        <ele>59</ele>
        <time>2013-03-09T11:11:44Z</time>
      </trkpt>
      <trkpt lat="59.1898836" lon="17.8950153">
        <ele>58.2</ele>
        <time>2013-03-09T11:11:45Z</time>
      </trkpt>
      <trkpt lat="59.1899576" lon="17.8952706">
        <ele>57.6</ele>
        <time>2013-03-09T11:11:48Z</time>
      </trkpt>
      <trkpt lat="59.1900098" lon="17.8954343">
        <ele>57.6</ele>
        <time>2013-03-09T11:11:50Z</time>
      </trkpt>
      <trkpt lat="59.1900653" lon="17.8955872">
        <ele>57.8</ele>
        <time>2013-03-09T11:11:52Z</time>
      </trkpt>
      <trkpt lat="59.1902125" lon="17.8959238">
        <ele>60.8</ele>
        <time>2013-03-09T11:11:57Z</time>
      </trkpt>
      <trkpt lat="59.1902374" lon="17.8959834">
        <ele>61</ele>
        <time>2013-03-09T11:11:58Z</time>
      </trkpt>
      <trkpt lat="59.1903178" lon="17.8961704">
        <ele>63.6</ele>
        <time>2013-03-09T11:12:01Z</time>
      </trkpt>
      <trkpt lat="59.1903498" lon="17.8962177">
        <ele>64.4</ele>
        <time>2013-03-09T11:12:02Z</time>
      </trkpt>
      <trkpt lat="59.1904876" lon="17.8964543">
        <ele>66.4</ele>
        <time>2013-03-09T11:12:06Z</time>
      </trkpt>
      <trkpt lat="59.1905581" lon="17.8965991">
        <ele>67.8</ele>
        <time>2013-03-09T11:12:08Z</time>
      </trkpt>
      <trkpt lat="59.1906098" lon="17.8967574">
        <ele>68.4</ele>
        <time>2013-03-09T11:12:10Z</time>
      </trkpt>
      <trkpt lat="59.1906388" lon="17.8968257">
        <ele>68.4</ele>
        <time>2013-03-09T11:12:11Z</time>
      </trkpt>
      <trkpt lat="59.1907205" lon="17.8970794">
        <ele>67</ele>
        <time>2013-03-09T11:12:14Z</time>
      </trkpt>
      <trkpt lat="59.1907657" lon="17.8972707">
        <ele>66.8</ele>
        <time>2013-03-09T11:12:16Z</time>
      </trkpt>
      <trkpt lat="59.1907969" lon="17.8974675">
        <ele>66.2</ele>
        <time>2013-03-09T11:12:18Z</time>
      </trkpt>
      <trkpt lat="59.1907945" lon="17.897781">
        <ele>65.8</ele>
        <time>2013-03-09T11:12:21Z</time>
      </trkpt>
      <trkpt lat="59.190786" lon="17.8978791">
        <ele>67.2</ele>
        <time>2013-03-09T11:12:22Z</time>
      </trkpt>
      <trkpt lat="59.1907383" lon="17.8981772">
        <ele>68.4</ele>
        <time>2013-03-09T11:12:25Z</time>
      </trkpt>
      <trkpt lat="59.1907299" lon="17.898263">
        <ele>69.2</ele>
        <time>2013-03-09T11:12:26Z</time>
      </trkpt>
      <trkpt lat="59.190722" lon="17.8983506">
        <ele>69.4</ele>
        <time>2013-03-09T11:12:27Z</time>
      </trkpt>
      <trkpt lat="59.1907957" lon="17.8986035">
        <ele>69.8</ele>
        <time>2013-03-09T11:12:31Z</time>
      </trkpt>
      <trkpt lat="59.1908344" lon="17.8986466">
        <ele>70</ele>
        <time>2013-03-09T11:12:32Z</time>
      </trkpt>
      <trkpt lat="59.1909508" lon="17.8988173">
        <ele>70.6</ele>
        <time>2013-03-09T11:12:35Z</time>
      </trkpt>
      <trkpt lat="59.1910109" lon="17.8989465">
        <ele>69.8</ele>
        <time>2013-03-09T11:12:37Z</time>
      </trkpt>
      <trkpt lat="59.1910517" lon="17.8991164">
        <ele>71.4</ele>
        <time>2013-03-09T11:12:39Z</time>
      </trkpt>
      <trkpt lat="59.1910983" lon="17.8993493">
        <ele>71.8</ele>
        <time>2013-03-09T11:12:42Z</time>
      </trkpt>
      <trkpt lat="59.1911407" lon="17.8995069">
        <ele>73</ele>
        <time>2013-03-09T11:12:44Z</time>
      </trkpt>
      <trkpt lat="59.1912287" lon="17.8998721">
        <ele>73.8</ele>
        <time>2013-03-09T11:12:49Z</time>
      </trkpt>
      <trkpt lat="59.1913059" lon="17.9001874">
        <ele>72.6</ele>
        <time>2013-03-09T11:12:53Z</time>
      </trkpt>
      <trkpt lat="59.1913245" lon="17.9003659">
        <ele>71.8</ele>
        <time>2013-03-09T11:12:55Z</time>
      </trkpt>
      <trkpt lat="59.1913335" lon="17.9004579">
        <ele>72</ele>
        <time>2013-03-09T11:12:56Z</time>
      </trkpt>
      <trkpt lat="59.1913371" lon="17.9005523">
        <ele>71</ele>
        <time>2013-03-09T11:12:57Z</time>
      </trkpt>
      <trkpt lat="59.1913443" lon="17.9007316">
        <ele>69.6</ele>
        <time>2013-03-09T11:12:59Z</time>
      </trkpt>
      <trkpt lat="59.1913609" lon="17.9009066">
        <ele>69.6</ele>
        <time>2013-03-09T11:13:01Z</time>
      </trkpt>
      <trkpt lat="59.1913785" lon="17.9010604">
        <ele>68.4</ele>
        <time>2013-03-09T11:13:03Z</time>
      </trkpt>
      <trkpt lat="59.1914048" lon="17.9012236">
        <ele>68.6</ele>
        <time>2013-03-09T11:13:05Z</time>
      </trkpt>
      <trkpt lat="59.1914174" lon="17.9013185">
        <ele>69</ele>
        <time>2013-03-09T11:13:06Z</time>
      </trkpt>
      <trkpt lat="59.1914581" lon="17.9016841">
        <ele>67.8</ele>
        <time>2013-03-09T11:13:10Z</time>
      </trkpt>
      <trkpt lat="59.1914945" lon="17.9019606">
        <ele>66.8</ele>
        <time>2013-03-09T11:13:13Z</time>
      </trkpt>
      <trkpt lat="59.1915044" lon="17.9020649">
        <ele>66.8</ele>
        <time>2013-03-09T11:13:14Z</time>
      </trkpt>
      <trkpt lat="59.1915108" lon="17.9021719">
        <ele>66.4</ele>
        <time>2013-03-09T11:13:15Z</time>
      </trkpt>
      <trkpt lat="59.1915355" lon="17.9025088">
        <ele>67.6</ele>
        <time>2013-03-09T11:13:18Z</time>
      </trkpt>
      <trkpt lat="59.1915719" lon="17.9028469">
        <ele>67.8</ele>
        <time>2013-03-09T11:13:21Z</time>
      </trkpt>
      <trkpt lat="59.1916152" lon="17.9030406">
        <ele>70.8</ele>
        <time>2013-03-09T11:13:23Z</time>
      </trkpt>
      <trkpt lat="59.1915861" lon="17.9031998">
        <ele>71.4</ele>
        <time>2013-03-09T11:13:25Z</time>
      </trkpt>
      <trkpt lat="59.1915738" lon="17.9032899">
        <ele>71.4</ele>
        <time>2013-03-09T11:13:26Z</time>
      </trkpt>
      <trkpt lat="59.1915531" lon="17.9033661">
        <ele>71.2</ele>
        <time>2013-03-09T11:13:27Z</time>
      </trkpt>
      <trkpt lat="59.1914381" lon="17.9035231">
        <ele>71.4</ele>
        <time>2013-03-09T11:13:30Z</time>
      </trkpt>
      <trkpt lat="59.1912571" lon="17.903552">
        <ele>70.8</ele>
        <time>2013-03-09T11:13:34Z</time>
      </trkpt>
      <trkpt lat="59.1911704" lon="17.9035762">
        <ele>70.8</ele>
        <time>2013-03-09T11:13:36Z</time>
      </trkpt>
      <trkpt lat="59.1910745" lon="17.9035909">
        <ele>71.2</ele>
        <time>2013-03-09T11:13:38Z</time>
      </trkpt>
      <trkpt lat="59.1909781" lon="17.9036023">
        <ele>71.4</ele>
        <time>2013-03-09T11:13:40Z</time>
      </trkpt>
      <trkpt lat="59.1908837" lon="17.9035738">
        <ele>70.8</ele>
        <time>2013-03-09T11:13:42Z</time>
      </trkpt>
      <trkpt lat="59.1906992" lon="17.903548">
        <ele>71.8</ele>
        <time>2013-03-09T11:13:47Z</time>
      </trkpt>
      <trkpt lat="59.1906652" lon="17.903534">
        <ele>72.2</ele>
        <time>2013-03-09T11:13:48Z</time>
      </trkpt>
      <trkpt lat="59.1905202" lon="17.9034687">
        <ele>74.2</ele>
        <time>2013-03-09T11:13:52Z</time>
      </trkpt>
      <trkpt lat="59.1903519" lon="17.9031678">
        <ele>86.8</ele>
        <time>2013-03-09T11:18:54Z</time>
      </trkpt>
      <trkpt lat="59.1902719" lon="17.9028056">
        <ele>86.2</ele>
        <time>2013-03-09T11:18:59Z</time>
      </trkpt>
      <trkpt lat="59.1902053" lon="17.9024498">
        <ele>84.6</ele>
        <time>2013-03-09T11:19:04Z</time>
      </trkpt>
      <trkpt lat="59.190146" lon="17.9023136">
        <ele>84</ele>
        <time>2013-03-09T11:19:06Z</time>
      </trkpt>
      <trkpt lat="59.1900926" lon="17.9021562">
        <ele>83.2</ele>
        <time>2013-03-09T11:19:08Z</time>
      </trkpt>
      <trkpt lat="59.1900644" lon="17.9020867">
        <ele>83</ele>
        <time>2013-03-09T11:19:09Z</time>
      </trkpt>
      <trkpt lat="59.1899523" lon="17.9018157">
        <ele>82.4</ele>
        <time>2013-03-09T11:19:13Z</time>
      </trkpt>
      <trkpt lat="59.1899223" lon="17.9017388">
        <ele>83.2</ele>
        <time>2013-03-09T11:19:14Z</time>
      </trkpt>
      <trkpt lat="59.1898349" lon="17.9015841">
        <ele>83.4</ele>
        <time>2013-03-09T11:19:17Z</time>
      </trkpt>
      <trkpt lat="59.1898039" lon="17.901537">
        <ele>83.4</ele>
        <time>2013-03-09T11:19:18Z</time>
      </trkpt>
      <trkpt lat="59.1897432" lon="17.9014245">
        <ele>83</ele>
        <time>2013-03-09T11:19:20Z</time>
      </trkpt>
      <trkpt lat="59.1896418" lon="17.9012666">
        <ele>81</ele>
        <time>2013-03-09T11:19:23Z</time>
      </trkpt>
      <trkpt lat="59.1896013" lon="17.9011941">
        <ele>80</ele>
        <time>2013-03-09T11:19:24Z</time>
      </trkpt>
      <trkpt lat="59.1895006" lon="17.9009921">
        <ele>79</ele>
        <time>2013-03-09T11:19:27Z</time>
      </trkpt>
      <trkpt lat="59.1894148" lon="17.9008238">
        <ele>77</ele>
        <time>2013-03-09T11:19:30Z</time>
      </trkpt>
      <trkpt lat="59.1893481" lon="17.9006937">
        <ele>76.8</ele>
        <time>2013-03-09T11:19:32Z</time>
      </trkpt>
      <trkpt lat="59.1892558" lon="17.9004987">
        <ele>75.6</ele>
        <time>2013-03-09T11:19:35Z</time>
      </trkpt>
      <trkpt lat="59.1892221" lon="17.9004311">
        <ele>75.4</ele>
        <time>2013-03-09T11:19:36Z</time>
      </trkpt>
      <trkpt lat="59.1890975" lon="17.9001519">
        <ele>77</ele>
        <time>2013-03-09T11:19:40Z</time>
      </trkpt>
      <trkpt lat="59.1889636" lon="17.8998396">
        <ele>76.8</ele>
        <time>2013-03-09T11:19:44Z</time>
      </trkpt>
      <trkpt lat="59.1889329" lon="17.8997627">
        <ele>76.6</ele>
        <time>2013-03-09T11:19:45Z</time>
      </trkpt>
      <trkpt lat="59.1888309" lon="17.8994882">
        <ele>75.2</ele>
        <time>2013-03-09T11:19:49Z</time>
      </trkpt>
      <trkpt lat="59.1887879" lon="17.8991356">
        <ele>74.4</ele>
        <time>2013-03-09T11:19:53Z</time>
      </trkpt>
      <trkpt lat="59.1887848" lon="17.899047">
        <ele>74.4</ele>
        <time>2013-03-09T11:19:54Z</time>
      </trkpt>
      <trkpt lat="59.1887945" lon="17.8987874">
        <ele>75.6</ele>
        <time>2013-03-09T11:19:57Z</time>
      </trkpt>
      <trkpt lat="59.188802" lon="17.8987159">
        <ele>75.8</ele>
        <time>2013-03-09T11:19:58Z</time>
      </trkpt>
      <trkpt lat="59.188819" lon="17.8986453">
        <ele>76.6</ele>
        <time>2013-03-09T11:19:59Z</time>
      </trkpt>
      <trkpt lat="59.1888652" lon="17.8983508">
        <ele>77.2</ele>
        <time>2013-03-09T11:20:03Z</time>
      </trkpt>
      <trkpt lat="59.188852" lon="17.8982651">
        <ele>77.6</ele>
        <time>2013-03-09T11:20:04Z</time>
      </trkpt>
      <trkpt lat="59.1887921" lon="17.8980431">
        <ele>79.6</ele>
        <time>2013-03-09T11:20:07Z</time>
      </trkpt>
      <trkpt lat="59.1887671" lon="17.8978856">
        <ele>81</ele>
        <time>2013-03-09T11:20:09Z</time>
      </trkpt>
      <trkpt lat="59.1887736" lon="17.8976417">
        <ele>82.6</ele>
        <time>2013-03-09T11:20:12Z</time>
      </trkpt>
      <trkpt lat="59.1887527" lon="17.8972638">
        <ele>83.2</ele>
        <time>2013-03-09T11:20:17Z</time>
      </trkpt>
      <trkpt lat="59.1887054" lon="17.8970557">
        <ele>83.6</ele>
        <time>2013-03-09T11:20:20Z</time>
      </trkpt>
      <trkpt lat="59.1886759" lon="17.8969345">
        <ele>83</ele>
        <time>2013-03-09T11:20:22Z</time>
      </trkpt>
      <trkpt lat="59.1886398" lon="17.8967941">
        <ele>84</ele>
        <time>2013-03-09T11:20:24Z</time>
      </trkpt>
      <trkpt lat="59.1885726" lon="17.8966012">
        <ele>84.4</ele>
        <time>2013-03-09T11:20:27Z</time>
      </trkpt>
      <trkpt lat="59.1885075" lon="17.8962326">
        <ele>85.6</ele>
        <time>2013-03-09T11:20:32Z</time>
      </trkpt>
      <trkpt lat="59.1883746" lon="17.8959762">
        <ele>84.4</ele>
        <time>2013-03-09T11:20:37Z</time>
      </trkpt>
      <trkpt lat="59.1882454" lon="17.8959523">
        <ele>82.8</ele>
        <time>2013-03-09T11:20:39Z</time>
      </trkpt>
      <trkpt lat="59.1881907" lon="17.8959467">
        <ele>82.6</ele>
        <time>2013-03-09T11:20:40Z</time>
      </trkpt>
      <trkpt lat="59.1880597" lon="17.8960633">
        <ele>85</ele>
        <time>2013-03-09T11:20:44Z</time>
      </trkpt>
      <trkpt lat="59.1880176" lon="17.8960671">
        <ele>84.2</ele>
        <time>2013-03-09T11:20:45Z</time>
      </trkpt>
      <trkpt lat="59.1879638" lon="17.8960594">
        <ele>83.6</ele>
        <time>2013-03-09T11:20:46Z</time>
      </trkpt>
      <trkpt lat="59.1878308" lon="17.8960561">
        <ele>84.4</ele>
        <time>2013-03-09T11:20:49Z</time>
      </trkpt>
      <trkpt lat="59.187671" lon="17.8960604">
        <ele>83.2</ele>
        <time>2013-03-09T11:20:53Z</time>
      </trkpt>
      <trkpt lat="59.1876385" lon="17.8960694">
        <ele>82.6</ele>
        <time>2013-03-09T11:20:54Z</time>
      </trkpt>
      <trkpt lat="59.1876023" lon="17.8960762">
        <ele>82.4</ele>
        <time>2013-03-09T11:20:55Z</time>
      </trkpt>
      <trkpt lat="59.1874545" lon="17.8961295">
        <ele>81.8</ele>
        <time>2013-03-09T11:20:58Z</time>
      </trkpt>
      <trkpt lat="59.1873671" lon="17.8961669">
        <ele>81.4</ele>
        <time>2013-03-09T11:21:00Z</time>
      </trkpt>
      <trkpt lat="59.187246" lon="17.8961767">
        <ele>80.8</ele>
        <time>2013-03-09T11:21:03Z</time>
      </trkpt>
      <trkpt lat="59.1871683" lon="17.8962124">
        <ele>82.6</ele>
        <time>2013-03-09T11:21:05Z</time>
      </trkpt>
      <trkpt lat="59.1870898" lon="17.8962451">
        <ele>82</ele>
        <time>2013-03-09T11:21:07Z</time>
      </trkpt>
      <trkpt lat="59.1870454" lon="17.8962545">
        <ele>82</ele>
        <time>2013-03-09T11:21:08Z</time>
      </trkpt>
      <trkpt lat="59.1869163" lon="17.8961773">
        <ele>81.4</ele>
        <time>2013-03-09T11:21:11Z</time>
      </trkpt>
      <trkpt lat="59.1868737" lon="17.896121">
        <ele>80.8</ele>
        <time>2013-03-09T11:21:12Z</time>
      </trkpt>
      <trkpt lat="59.1867346" lon="17.8957705">
        <ele>78.4</ele>
        <time>2013-03-09T11:21:16Z</time>
      </trkpt>
      <trkpt lat="59.1867059" lon="17.8956904">
        <ele>78</ele>
        <time>2013-03-09T11:21:17Z</time>
      </trkpt>
      <trkpt lat="59.1866511" lon="17.895571">
        <ele>77</ele>
        <time>2013-03-09T11:21:19Z</time>
      </trkpt>
      <trkpt lat="59.1866108" lon="17.8955031">
        <ele>76.2</ele>
        <time>2013-03-09T11:21:20Z</time>
      </trkpt>
      <trkpt lat="59.1864661" lon="17.8952819">
        <ele>74.4</ele>
        <time>2013-03-09T11:21:23Z</time>
      </trkpt>
      <trkpt lat="59.1862922" lon="17.8949971">
        <ele>73.8</ele>
        <time>2013-03-09T11:21:27Z</time>
      </trkpt>
      <trkpt lat="59.1861084" lon="17.894748">
        <ele>72.2</ele>
        <time>2013-03-09T11:21:31Z</time>
      </trkpt>
      <trkpt lat="59.1859975" lon="17.8946017">
        <ele>70.4</ele>
        <time>2013-03-09T11:21:34Z</time>
      </trkpt>
      <trkpt lat="59.1859222" lon="17.8945568">
        <ele>70.8</ele>
        <time>2013-03-09T11:21:36Z</time>
      </trkpt>
      <trkpt lat="59.1857952" lon="17.8946273">
        <ele>73</ele>
        <time>2013-03-09T11:21:40Z</time>
      </trkpt>
      <trkpt lat="59.1857648" lon="17.8946825">
        <ele>74.2</ele>
        <time>2013-03-09T11:21:41Z</time>
      </trkpt>
      <trkpt lat="59.1857339" lon="17.8947427">
        <ele>75.4</ele>
        <time>2013-03-09T11:21:42Z</time>
      </trkpt>
      <trkpt lat="59.1855801" lon="17.8947692">
        <ele>75</ele>
        <time>2013-03-09T11:21:46Z</time>
      </trkpt>
      <trkpt lat="59.1855407" lon="17.8946863">
        <ele>75.8</ele>
        <time>2013-03-09T11:21:48Z</time>
      </trkpt>
      <trkpt lat="59.1855224" lon="17.8946195">
        <ele>77.2</ele>
        <time>2013-03-09T11:21:49Z</time>
      </trkpt>
      <trkpt lat="59.1854411" lon="17.8943704">
        <ele>77.8</ele>
        <time>2013-03-09T11:21:52Z</time>
      </trkpt>
      <trkpt lat="59.1853343" lon="17.8941388">
        <ele>78.6</ele>
        <time>2013-03-09T11:21:55Z</time>
      </trkpt>
      <trkpt lat="59.1852933" lon="17.8940731">
        <ele>78.6</ele>
        <time>2013-03-09T11:21:56Z</time>
      </trkpt>
      <trkpt lat="59.1852309" lon="17.8940143">
        <ele>78</ele>
        <time>2013-03-09T11:21:57Z</time>
      </trkpt>
      <trkpt lat="59.1851447" lon="17.8939596">
        <ele>78.6</ele>
        <time>2013-03-09T11:21:59Z</time>
      </trkpt>
      <trkpt lat="59.1851042" lon="17.8939452">
        <ele>78.2</ele>
        <time>2013-03-09T11:22:00Z</time>
      </trkpt>
      <trkpt lat="59.1850298" lon="17.8939213">
        <ele>77.2</ele>
        <time>2013-03-09T11:22:02Z</time>
      </trkpt>
      <trkpt lat="59.1849216" lon="17.8938808">
        <ele>76.4</ele>
        <time>2013-03-09T11:22:04Z</time>
      </trkpt>
      <trkpt lat="59.184744" lon="17.8937845">
        <ele>75.6</ele>
        <time>2013-03-09T11:22:07Z</time>
      </trkpt>
      <trkpt lat="59.1845719" lon="17.8936548">
        <ele>74.2</ele>
        <time>2013-03-09T11:22:10Z</time>
      </trkpt>
      <trkpt lat="59.1844166" lon="17.8935041">
        <ele>73.6</ele>
        <time>2013-03-09T11:22:13Z</time>
      </trkpt>
      <trkpt lat="59.1843713" lon="17.8934436">
        <ele>74</ele>
        <time>2013-03-09T11:22:14Z</time>
      </trkpt>
      <trkpt lat="59.1842278" lon="17.8932073">
        <ele>74</ele>
        <time>2013-03-09T11:22:18Z</time>
      </trkpt>
      <trkpt lat="59.1841897" lon="17.8931633">
        <ele>74</ele>
        <time>2013-03-09T11:22:19Z</time>
      </trkpt>
      <trkpt lat="59.1841286" lon="17.8930917">
        <ele>74.4</ele>
        <time>2013-03-09T11:22:21Z</time>
      </trkpt>
      <trkpt lat="59.1840526" lon="17.8930365">
        <ele>74.4</ele>
        <time>2013-03-09T11:22:23Z</time>
      </trkpt>
      <trkpt lat="59.1839384" lon="17.8927371">
        <ele>77.4</ele>
        <time>2013-03-09T11:22:27Z</time>
      </trkpt>
      <trkpt lat="59.1839259" lon="17.8926479">
        <ele>78</ele>
        <time>2013-03-09T11:22:28Z</time>
      </trkpt>
      <trkpt lat="59.1838908" lon="17.8924459">
        <ele>78.6</ele>
        <time>2013-03-09T11:22:30Z</time>
      </trkpt>
      <trkpt lat="59.1838731" lon="17.8923509">
        <ele>78.8</ele>
        <time>2013-03-09T11:22:31Z</time>
      </trkpt>
      <trkpt lat="59.183857" lon="17.8922615">
        <ele>77.8</ele>
        <time>2013-03-09T11:22:32Z</time>
      </trkpt>
      <trkpt lat="59.1838435" lon="17.891993">
        <ele>76.4</ele>
        <time>2013-03-09T11:22:35Z</time>
      </trkpt>
      <trkpt lat="59.1838663" lon="17.8916109">
        <ele>74.8</ele>
        <time>2013-03-09T11:22:39Z</time>
      </trkpt>
      <trkpt lat="59.1839009" lon="17.8912095">
        <ele>72.8</ele>
        <time>2013-03-09T11:22:43Z</time>
      </trkpt>
      <trkpt lat="59.1839193" lon="17.8911271">
        <ele>73</ele>
        <time>2013-03-09T11:22:44Z</time>
      </trkpt>
      <trkpt lat="59.1839171" lon="17.8910425">
        <ele>73.2</ele>
        <time>2013-03-09T11:22:45Z</time>
      </trkpt>
      <trkpt lat="59.183884" lon="17.8908216">
        <ele>74</ele>
        <time>2013-03-09T11:22:48Z</time>
      </trkpt>
      <trkpt lat="59.1838533" lon="17.890648">
        <ele>75.4</ele>
        <time>2013-03-09T11:22:51Z</time>
      </trkpt>
      <trkpt lat="59.1838519" lon="17.8906029">
        <ele>76</ele>
        <time>2013-03-09T11:22:52Z</time>
      </trkpt>
      <trkpt lat="59.1838397" lon="17.8904421">
        <ele>77.6</ele>
        <time>2013-03-09T11:22:55Z</time>
      </trkpt>
      <trkpt lat="59.183852" lon="17.8900422">
        <ele>81</ele>
        <time>2013-03-09T11:23:02Z</time>
      </trkpt>
      <trkpt lat="59.1838611" lon="17.8898393">
        <ele>82.4</ele>
        <time>2013-03-09T11:23:05Z</time>
      </trkpt>
      <trkpt lat="59.1838395" lon="17.8896786">
        <ele>83.8</ele>
        <time>2013-03-09T11:23:08Z</time>
      </trkpt>
      <trkpt lat="59.1838084" lon="17.8895227">
        <ele>84.8</ele>
        <time>2013-03-09T11:23:11Z</time>
      </trkpt>
      <trkpt lat="59.1837662" lon="17.8893468">
        <ele>85.6</ele>
        <time>2013-03-09T11:23:14Z</time>
      </trkpt>
      <trkpt lat="59.1837527" lon="17.8892907">
        <ele>85.6</ele>
        <time>2013-03-09T11:23:15Z</time>
      </trkpt>
      <trkpt lat="59.183685" lon="17.8890142">
        <ele>83.4</ele>
        <time>2013-03-09T11:23:20Z</time>
      </trkpt>
      <trkpt lat="59.183602" lon="17.8886979">
        <ele>85.4</ele>
        <time>2013-03-09T11:23:25Z</time>
      </trkpt>
      <trkpt lat="59.1835794" lon="17.8882982">
        <ele>85.2</ele>
        <time>2013-03-09T11:23:30Z</time>
      </trkpt>
      <trkpt lat="59.1836058" lon="17.8879999">
        <ele>85.6</ele>
        <time>2013-03-09T11:23:33Z</time>
      </trkpt>
      <trkpt lat="59.1836103" lon="17.8879035">
        <ele>85</ele>
        <time>2013-03-09T11:23:34Z</time>
      </trkpt>
      <trkpt lat="59.1835753" lon="17.8875503">
        <ele>83.4</ele>
        <time>2013-03-09T11:23:38Z</time>
      </trkpt>
      <trkpt lat="59.1835378" lon="17.8873159">
        <ele>83.4</ele>
        <time>2013-03-09T11:23:40Z</time>
      </trkpt>
      <trkpt lat="59.1835079" lon="17.8871475">
        <ele>83.6</ele>
        <time>2013-03-09T11:23:41Z</time>
      </trkpt>
      <trkpt lat="59.183468" lon="17.8869507">
        <ele>83.4</ele>
        <time>2013-03-09T11:23:42Z</time>
      </trkpt>
      <trkpt lat="59.1834231" lon="17.8867622">
        <ele>82.8</ele>
        <time>2013-03-09T11:23:43Z</time>
      </trkpt>
      <trkpt lat="59.1833376" lon="17.8864018">
        <ele>81.6</ele>
        <time>2013-03-09T11:23:45Z</time>
      </trkpt>
      <trkpt lat="59.1832542" lon="17.8860537">
        <ele>78.8</ele>
        <time>2013-03-09T11:23:47Z</time>
      </trkpt>
      <trkpt lat="59.1831593" lon="17.8856077">
        <ele>76.6</ele>
        <time>2013-03-09T11:23:50Z</time>
      </trkpt>
      <trkpt lat="59.1831395" lon="17.8854586">
        <ele>76</ele>
        <time>2013-03-09T11:23:51Z</time>
      </trkpt>
      <trkpt lat="59.1831246" lon="17.8851643">
        <ele>73.8</ele>
        <time>2013-03-09T11:23:53Z</time>
      </trkpt>
      <trkpt lat="59.183141" lon="17.8847723">
        <ele>72.8</ele>
        <time>2013-03-09T11:23:56Z</time>
      </trkpt>
      <trkpt lat="59.1831407" lon="17.8845321">
        <ele>72.2</ele>
        <time>2013-03-09T11:23:58Z</time>
      </trkpt>
      <trkpt lat="59.1831503" lon="17.8843265">
        <ele>71.8</ele>
        <time>2013-03-09T11:24:00Z</time>
      </trkpt>
      <trkpt lat="59.1832769" lon="17.8839733">
        <ele>68.6</ele>
        <time>2013-03-09T11:24:04Z</time>
      </trkpt>
      <trkpt lat="59.1833172" lon="17.8839014">
        <ele>68.2</ele>
        <time>2013-03-09T11:24:05Z</time>
      </trkpt>
      <trkpt lat="59.1833559" lon="17.8838283">
        <ele>67.4</ele>
        <time>2013-03-09T11:24:06Z</time>
      </trkpt>
      <trkpt lat="59.1834332" lon="17.8836755">
        <ele>66</ele>
        <time>2013-03-09T11:24:08Z</time>
      </trkpt>
      <trkpt lat="59.1834699" lon="17.8835984">
        <ele>65.8</ele>
        <time>2013-03-09T11:24:09Z</time>
      </trkpt>
      <trkpt lat="59.1835628" lon="17.883377">
        <ele>65</ele>
        <time>2013-03-09T11:24:12Z</time>
      </trkpt>
      <trkpt lat="59.1836028" lon="17.883308">
        <ele>65.2</ele>
        <time>2013-03-09T11:24:13Z</time>
      </trkpt>
      <trkpt lat="59.1837173" lon="17.8831187">
        <ele>65.4</ele>
        <time>2013-03-09T11:24:16Z</time>
      </trkpt>
      <trkpt lat="59.1838602" lon="17.8828574">
        <ele>65.4</ele>
        <time>2013-03-09T11:24:20Z</time>
      </trkpt>
      <trkpt lat="59.1838969" lon="17.8827931">
        <ele>65.6</ele>
        <time>2013-03-09T11:24:21Z</time>
      </trkpt>
      <trkpt lat="59.184011" lon="17.8825923">
        <ele>67</ele>
        <time>2013-03-09T11:24:24Z</time>
      </trkpt>
      <trkpt lat="59.1841021" lon="17.882384">
        <ele>69.8</ele>
        <time>2013-03-09T11:24:27Z</time>
      </trkpt>
      <trkpt lat="59.1841242" lon="17.8822416">
        <ele>70.8</ele>
        <time>2013-03-09T11:24:29Z</time>
      </trkpt>
      <trkpt lat="59.1840845" lon="17.8819008">
        <ele>72.4</ele>
        <time>2013-03-09T11:24:34Z</time>
      </trkpt>
      <trkpt lat="59.1840667" lon="17.8818444">
        <ele>72.6</ele>
        <time>2013-03-09T11:24:35Z</time>
      </trkpt>
      <trkpt lat="59.1839704" lon="17.8816098">
        <ele>73.2</ele>
        <time>2013-03-09T11:24:39Z</time>
      </trkpt>
      <trkpt lat="59.1838636" lon="17.8813489">
        <ele>72.2</ele>
        <time>2013-03-09T11:24:42Z</time>
      </trkpt>
      <trkpt lat="59.1837449" lon="17.8810353">
        <ele>72</ele>
        <time>2013-03-09T11:24:45Z</time>
      </trkpt>
      <trkpt lat="59.1836447" lon="17.880729">
        <ele>71.4</ele>
        <time>2013-03-09T11:24:48Z</time>
      </trkpt>
      <trkpt lat="59.1835623" lon="17.8804183">
        <ele>70.6</ele>
        <time>2013-03-09T11:24:51Z</time>
      </trkpt>
      <trkpt lat="59.1834981" lon="17.8802117">
        <ele>70.6</ele>
        <time>2013-03-09T11:24:53Z</time>
      </trkpt>
      <trkpt lat="59.1834463" lon="17.8801525">
        <ele>70</ele>
        <time>2013-03-09T11:24:54Z</time>
      </trkpt>
      <trkpt lat="59.1832494" lon="17.8800338">
        <ele>68</ele>
        <time>2013-03-09T11:24:58Z</time>
      </trkpt>
      <trkpt lat="59.1831114" lon="17.8799629">
        <ele>66</ele>
        <time>2013-03-09T11:25:01Z</time>
      </trkpt>
      <trkpt lat="59.183067" lon="17.8799276">
        <ele>66.2</ele>
        <time>2013-03-09T11:25:02Z</time>
      </trkpt>
      <trkpt lat="59.1828973" lon="17.8798008">
        <ele>63.4</ele>
        <time>2013-03-09T11:25:05Z</time>
      </trkpt>
      <trkpt lat="59.1827312" lon="17.8795879">
        <ele>62.4</ele>
        <time>2013-03-09T11:25:08Z</time>
      </trkpt>
      <trkpt lat="59.182616" lon="17.8792894">
        <ele>60.6</ele>
        <time>2013-03-09T11:25:11Z</time>
      </trkpt>
      <trkpt lat="59.1825566" lon="17.8791059">
        <ele>58.8</ele>
        <time>2013-03-09T11:25:13Z</time>
      </trkpt>
      <trkpt lat="59.182518" lon="17.8789258">
        <ele>60.2</ele>
        <time>2013-03-09T11:25:15Z</time>
      </trkpt>
      <trkpt lat="59.1824774" lon="17.8787507">
        <ele>59.6</ele>
        <time>2013-03-09T11:25:17Z</time>
      </trkpt>
      <trkpt lat="59.1824413" lon="17.8785591">
        <ele>59.2</ele>
        <time>2013-03-09T11:25:19Z</time>
      </trkpt>
      <trkpt lat="59.1823895" lon="17.8782529">
        <ele>59.8</ele>
        <time>2013-03-09T11:25:22Z</time>
      </trkpt>
      <trkpt lat="59.1823864" lon="17.878158">
        <ele>60.2</ele>
        <time>2013-03-09T11:25:23Z</time>
      </trkpt>
      <trkpt lat="59.1823724" lon="17.8777631">
        <ele>61.4</ele>
        <time>2013-03-09T11:25:27Z</time>
      </trkpt>
      <trkpt lat="59.1823589" lon="17.8775723">
        <ele>62.8</ele>
        <time>2013-03-09T11:25:29Z</time>
      </trkpt>
      <trkpt lat="59.1823289" lon="17.8773818">
        <ele>63.2</ele>
        <time>2013-03-09T11:25:31Z</time>
      </trkpt>
      <trkpt lat="59.1822879" lon="17.8770226">
        <ele>64.8</ele>
        <time>2013-03-09T11:25:35Z</time>
      </trkpt>
      <trkpt lat="59.1822906" lon="17.876942">
        <ele>65.2</ele>
        <time>2013-03-09T11:25:36Z</time>
      </trkpt>
      <trkpt lat="59.1822811" lon="17.8768507">
        <ele>65.2</ele>
        <time>2013-03-09T11:25:37Z</time>
      </trkpt>
      <trkpt lat="59.1822491" lon="17.8766697">
        <ele>65</ele>
        <time>2013-03-09T11:25:39Z</time>
      </trkpt>
      <trkpt lat="59.1822163" lon="17.8764468">
        <ele>64.6</ele>
        <time>2013-03-09T11:25:41Z</time>
      </trkpt>
      <trkpt lat="59.1822054" lon="17.8763332">
        <ele>65.4</ele>
        <time>2013-03-09T11:25:42Z</time>
      </trkpt>
      <trkpt lat="59.1821741" lon="17.8759008">
        <ele>67.4</ele>
        <time>2013-03-09T11:25:46Z</time>
      </trkpt>
      <trkpt lat="59.1821922" lon="17.8754545">
        <ele>66.8</ele>
        <time>2013-03-09T11:25:50Z</time>
      </trkpt>
      <trkpt lat="59.1822248" lon="17.8752362">
        <ele>66.6</ele>
        <time>2013-03-09T11:25:52Z</time>
      </trkpt>
      <trkpt lat="59.1822631" lon="17.8750352">
        <ele>66.6</ele>
        <time>2013-03-09T11:25:54Z</time>
      </trkpt>
      <trkpt lat="59.1823181" lon="17.8748398">
        <ele>66.4</ele>
        <time>2013-03-09T11:25:56Z</time>
      </trkpt>
      <trkpt lat="59.1823643" lon="17.8746283">
        <ele>65.2</ele>
        <time>2013-03-09T11:25:58Z</time>
      </trkpt>
      <trkpt lat="59.1824018" lon="17.8744053">
        <ele>64.6</ele>
        <time>2013-03-09T11:26:00Z</time>
      </trkpt>
      <trkpt lat="59.1824097" lon="17.8742804">
        <ele>64.4</ele>
        <time>2013-03-09T11:26:01Z</time>
      </trkpt>
      <trkpt lat="59.1823826" lon="17.8738478">
        <ele>62.6</ele>
        <time>2013-03-09T11:26:04Z</time>
      </trkpt>
      <trkpt lat="59.182351" lon="17.8735138">
        <ele>61</ele>
        <time>2013-03-09T11:26:06Z</time>
      </trkpt>
      <trkpt lat="59.1823207" lon="17.873164">
        <ele>60.4</ele>
        <time>2013-03-09T11:26:08Z</time>
      </trkpt>
      <trkpt lat="59.1822809" lon="17.8728072">
        <ele>59</ele>
        <time>2013-03-09T11:26:10Z</time>
      </trkpt>
      <trkpt lat="59.1822014" lon="17.872314">
        <ele>57.4</ele>
        <time>2013-03-09T11:26:13Z</time>
      </trkpt>
      <trkpt lat="59.1820801" lon="17.8719461">
        <ele>57.8</ele>
        <time>2013-03-09T11:26:16Z</time>
      </trkpt>
      <trkpt lat="59.1820433" lon="17.8718374">
        <ele>57.8</ele>
        <time>2013-03-09T11:26:17Z</time>
      </trkpt>
      <trkpt lat="59.1819674" lon="17.8716267">
        <ele>56.2</ele>
        <time>2013-03-09T11:26:19Z</time>
      </trkpt>
      <trkpt lat="59.1818621" lon="17.8713095">
        <ele>53.4</ele>
        <time>2013-03-09T11:26:22Z</time>
      </trkpt>
      <trkpt lat="59.1817436" lon="17.870995">
        <ele>49.6</ele>
        <time>2013-03-09T11:26:25Z</time>
      </trkpt>
      <trkpt lat="59.1816297" lon="17.8706678">
        <ele>46.8</ele>
        <time>2013-03-09T11:26:28Z</time>
      </trkpt>
      <trkpt lat="59.1815152" lon="17.8703671">
        <ele>43.2</ele>
        <time>2013-03-09T11:26:31Z</time>
      </trkpt>
      <trkpt lat="59.1814419" lon="17.8701595">
        <ele>41.8</ele>
        <time>2013-03-09T11:26:33Z</time>
      </trkpt>
      <trkpt lat="59.1814064" lon="17.8700663">
        <ele>40.8</ele>
        <time>2013-03-09T11:26:34Z</time>
      </trkpt>
      <trkpt lat="59.1813087" lon="17.8697607">
        <ele>39</ele>
        <time>2013-03-09T11:26:37Z</time>
      </trkpt>
      <trkpt lat="59.1812077" lon="17.8694516">
        <ele>38</ele>
        <time>2013-03-09T11:26:40Z</time>
      </trkpt>
      <trkpt lat="59.1811224" lon="17.8691676">
        <ele>37.4</ele>
        <time>2013-03-09T11:26:43Z</time>
      </trkpt>
      <trkpt lat="59.1810879" lon="17.8691076">
        <ele>37.6</ele>
        <time>2013-03-09T11:26:44Z</time>
      </trkpt>
      <trkpt lat="59.1809721" lon="17.8691514">
        <ele>38</ele>
        <time>2013-03-09T11:26:48Z</time>
      </trkpt>
      <trkpt lat="59.1808997" lon="17.869212">
        <ele>38</ele>
        <time>2013-03-09T11:26:50Z</time>
      </trkpt>
      <trkpt lat="59.1808614" lon="17.8692411">
        <ele>38</ele>
        <time>2013-03-09T11:26:51Z</time>
      </trkpt>
      <trkpt lat="59.1807147" lon="17.8693386">
        <ele>38.2</ele>
        <time>2013-03-09T11:26:55Z</time>
      </trkpt>
      <trkpt lat="59.1805528" lon="17.869459">
        <ele>39.2</ele>
        <time>2013-03-09T11:26:59Z</time>
      </trkpt>
      <trkpt lat="59.1803758" lon="17.8696122">
        <ele>39.6</ele>
        <time>2013-03-09T11:27:04Z</time>
      </trkpt>
      <trkpt lat="59.1801885" lon="17.8697381">
        <ele>40.6</ele>
        <time>2013-03-09T11:27:09Z</time>
      </trkpt>
      <trkpt lat="59.1800081" lon="17.8698431">
        <ele>41.2</ele>
        <time>2013-03-09T11:27:14Z</time>
      </trkpt>
      <trkpt lat="59.1798605" lon="17.8697986">
        <ele>43.8</ele>
        <time>2013-03-09T11:27:19Z</time>
      </trkpt>
      <trkpt lat="59.1798347" lon="17.8697581">
        <ele>44</ele>
        <time>2013-03-09T11:27:20Z</time>
      </trkpt>
      <trkpt lat="59.1796726" lon="17.8695736">
        <ele>48</ele>
        <time>2013-03-09T11:27:26Z</time>
      </trkpt>
      <trkpt lat="59.1794867" lon="17.8694635">
        <ele>52.2</ele>
        <time>2013-03-09T11:27:32Z</time>
      </trkpt>
      <trkpt lat="59.1792807" lon="17.8693044">
        <ele>53.6</ele>
        <time>2013-03-09T11:27:38Z</time>
      </trkpt>
      <trkpt lat="59.179092" lon="17.8691324">
        <ele>54</ele>
        <time>2013-03-09T11:27:43Z</time>
      </trkpt>
      <trkpt lat="59.1789192" lon="17.8689631">
        <ele>54.4</ele>
        <time>2013-03-09T11:27:48Z</time>
      </trkpt>
      <trkpt lat="59.1787339" lon="17.8687683">
        <ele>55.2</ele>
        <time>2013-03-09T11:27:54Z</time>
      </trkpt>
      <trkpt lat="59.1785654" lon="17.868618">
        <ele>56.2</ele>
        <time>2013-03-09T11:27:59Z</time>
      </trkpt>
      <trkpt lat="59.1783849" lon="17.8684729">
        <ele>59.2</ele>
        <time>2013-03-09T11:28:04Z</time>
      </trkpt>
      <trkpt lat="59.1781945" lon="17.868317">
        <ele>62.6</ele>
        <time>2013-03-09T11:28:12Z</time>
      </trkpt>
      <trkpt lat="59.1780337" lon="17.8681553">
        <ele>65.6</ele>
        <time>2013-03-09T11:28:18Z</time>
      </trkpt>
      <trkpt lat="59.1779264" lon="17.8681129">
        <ele>67.4</ele>
        <time>2013-03-09T11:28:21Z</time>
      </trkpt>
      <trkpt lat="59.1778472" lon="17.8681619">
        <ele>67.8</ele>
        <time>2013-03-09T11:28:24Z</time>
      </trkpt>
      <trkpt lat="59.1776778" lon="17.8683533">
        <ele>68.4</ele>
        <time>2013-03-09T11:28:31Z</time>
      </trkpt>
      <trkpt lat="59.1775005" lon="17.8685641">
        <ele>67.6</ele>
        <time>2013-03-09T11:28:38Z</time>
      </trkpt>
      <trkpt lat="59.1773472" lon="17.8687558">
        <ele>67.8</ele>
        <time>2013-03-09T11:28:42Z</time>
      </trkpt>
      <trkpt lat="59.1772198" lon="17.8688872">
        <ele>67.4</ele>
        <time>2013-03-09T11:28:45Z</time>
      </trkpt>
      <trkpt lat="59.1771846" lon="17.8689402">
        <ele>67.2</ele>
        <time>2013-03-09T11:28:46Z</time>
      </trkpt>
      <trkpt lat="59.1770053" lon="17.8691136">
        <ele>65.8</ele>
        <time>2013-03-09T11:28:50Z</time>
      </trkpt>
      <trkpt lat="59.1768308" lon="17.8693128">
        <ele>66.2</ele>
        <time>2013-03-09T11:28:57Z</time>
      </trkpt>
      <trkpt lat="59.1768073" lon="17.8693304">
        <ele>66</ele>
        <time>2013-03-09T11:28:58Z</time>
      </trkpt>
      <trkpt lat="59.1766454" lon="17.8694303">
        <ele>65.2</ele>
        <time>2013-03-09T11:29:04Z</time>
      </trkpt>
      <trkpt lat="59.1764557" lon="17.8694754">
        <ele>65.2</ele>
        <time>2013-03-09T11:29:09Z</time>
      </trkpt>
      <trkpt lat="59.1762535" lon="17.8694638">
        <ele>65.6</ele>
        <time>2013-03-09T11:29:14Z</time>
      </trkpt>
      <trkpt lat="59.1760658" lon="17.8694146">
        <ele>66</ele>
        <time>2013-03-09T11:29:19Z</time>
      </trkpt>
      <trkpt lat="59.1759206" lon="17.8693262">
        <ele>66.2</ele>
        <time>2013-03-09T11:29:23Z</time>
      </trkpt>
      <trkpt lat="59.175887" lon="17.8692936">
        <ele>66.4</ele>
        <time>2013-03-09T11:29:24Z</time>
      </trkpt>
      <trkpt lat="59.175675" lon="17.8690876">
        <ele>66.4</ele>
        <time>2013-03-09T11:29:30Z</time>
      </trkpt>
      <trkpt lat="59.1755798" lon="17.8689949">
        <ele>66.4</ele>
        <time>2013-03-09T11:29:32Z</time>
      </trkpt>
      <trkpt lat="59.1754915" lon="17.8688918">
        <ele>65.4</ele>
        <time>2013-03-09T11:29:34Z</time>
      </trkpt>
      <trkpt lat="59.175403" lon="17.868811">
        <ele>64.4</ele>
        <time>2013-03-09T11:29:36Z</time>
      </trkpt>
      <trkpt lat="59.1753186" lon="17.8687806">
        <ele>64.4</ele>
        <time>2013-03-09T11:29:38Z</time>
      </trkpt>
      <trkpt lat="59.1751995" lon="17.8687616">
        <ele>64</ele>
        <time>2013-03-09T11:29:40Z</time>
      </trkpt>
      <trkpt lat="59.1751395" lon="17.8687542">
        <ele>63.8</ele>
        <time>2013-03-09T11:29:41Z</time>
      </trkpt>
      <trkpt lat="59.1750292" lon="17.8687504">
        <ele>63.8</ele>
        <time>2013-03-09T11:29:43Z</time>
      </trkpt>
      <trkpt lat="59.1749352" lon="17.8687428">
        <ele>62.6</ele>
        <time>2013-03-09T11:29:45Z</time>
      </trkpt>
      <trkpt lat="59.1748634" lon="17.8687492">
        <ele>63</ele>
        <time>2013-03-09T11:29:47Z</time>
      </trkpt>
      <trkpt lat="59.1747935" lon="17.8687474">
        <ele>64.4</ele>
        <time>2013-03-09T11:29:49Z</time>
      </trkpt>
      <trkpt lat="59.1747503" lon="17.8687347">
        <ele>64.4</ele>
        <time>2013-03-09T11:29:50Z</time>
      </trkpt>
      <trkpt lat="59.1746204" lon="17.8687189">
        <ele>65.6</ele>
        <time>2013-03-09T11:29:53Z</time>
      </trkpt>
      <trkpt lat="59.1745442" lon="17.8687299">
        <ele>66.2</ele>
        <time>2013-03-09T11:29:55Z</time>
      </trkpt>
      <trkpt lat="59.1744423" lon="17.868763">
        <ele>66.6</ele>
        <time>2013-03-09T11:29:58Z</time>
      </trkpt>
      <trkpt lat="59.1743426" lon="17.8687978">
        <ele>67.6</ele>
        <time>2013-03-09T11:30:01Z</time>
      </trkpt>
      <trkpt lat="59.1741613" lon="17.8689132">
        <ele>69</ele>
        <time>2013-03-09T11:30:06Z</time>
      </trkpt>
      <trkpt lat="59.1739786" lon="17.8690676">
        <ele>70.8</ele>
        <time>2013-03-09T11:30:11Z</time>
      </trkpt>
      <trkpt lat="59.1738175" lon="17.8691757">
        <ele>72</ele>
        <time>2013-03-09T11:30:15Z</time>
      </trkpt>
      <trkpt lat="59.1737937" lon="17.869205">
        <ele>72.4</ele>
        <time>2013-03-09T11:30:16Z</time>
      </trkpt>
      <trkpt lat="59.1736334" lon="17.8693524">
        <ele>72.6</ele>
        <time>2013-03-09T11:30:21Z</time>
      </trkpt>
      <trkpt lat="59.1735852" lon="17.8693788">
        <ele>72.6</ele>
        <time>2013-03-09T11:30:22Z</time>
      </trkpt>
      <trkpt lat="59.1735258" lon="17.8693981">
        <ele>72.8</ele>
        <time>2013-03-09T11:30:23Z</time>
      </trkpt>
      <trkpt lat="59.1734671" lon="17.8694147">
        <ele>72.6</ele>
        <time>2013-03-09T11:30:24Z</time>
      </trkpt>
      <trkpt lat="59.1732726" lon="17.8694728">
        <ele>72</ele>
        <time>2013-03-09T11:30:28Z</time>
      </trkpt>
      <trkpt lat="59.1731207" lon="17.8695925">
        <ele>70.8</ele>
        <time>2013-03-09T11:30:32Z</time>
      </trkpt>
      <trkpt lat="59.1731028" lon="17.8696363">
        <ele>71.2</ele>
        <time>2013-03-09T11:30:33Z</time>
      </trkpt>
      <trkpt lat="59.173059" lon="17.8697923">
        <ele>72</ele>
        <time>2013-03-09T11:30:36Z</time>
      </trkpt>
      <trkpt lat="59.1730001" lon="17.8699482">
        <ele>71.2</ele>
        <time>2013-03-09T11:30:39Z</time>
      </trkpt>
      <trkpt lat="59.1728752" lon="17.8702459">
        <ele>71.2</ele>
        <time>2013-03-09T11:30:45Z</time>
      </trkpt>
      <trkpt lat="59.1727141" lon="17.8704948">
        <ele>71</ele>
        <time>2013-03-09T11:30:53Z</time>
      </trkpt>
      <trkpt lat="59.1725551" lon="17.870717">
        <ele>71.2</ele>
        <time>2013-03-09T11:31:00Z</time>
      </trkpt>
      <trkpt lat="59.1723168" lon="17.8709722">
        <ele>69.6</ele>
        <time>2013-03-09T11:31:04Z</time>
      </trkpt>
      <trkpt lat="59.1721279" lon="17.8711877">
        <ele>67.4</ele>
        <time>2013-03-09T11:31:07Z</time>
      </trkpt>
      <trkpt lat="59.1720305" lon="17.8713532">
        <ele>67.6</ele>
        <time>2013-03-09T11:31:09Z</time>
      </trkpt>
      <trkpt lat="59.1720013" lon="17.8714687">
        <ele>67.4</ele>
        <time>2013-03-09T11:31:10Z</time>
      </trkpt>
      <trkpt lat="59.1718775" lon="17.8717883">
        <ele>65.4</ele>
        <time>2013-03-09T11:31:14Z</time>
      </trkpt>
      <trkpt lat="59.171804" lon="17.87195">
        <ele>64.2</ele>
        <time>2013-03-09T11:31:16Z</time>
      </trkpt>
      <trkpt lat="59.1717078" lon="17.8720712">
        <ele>64</ele>
        <time>2013-03-09T11:31:18Z</time>
      </trkpt>
      <trkpt lat="59.1716499" lon="17.8721244">
        <ele>61.6</ele>
        <time>2013-03-09T11:31:19Z</time>
      </trkpt>
      <trkpt lat="59.1715626" lon="17.872303">
        <ele>60.4</ele>
        <time>2013-03-09T11:31:21Z</time>
      </trkpt>
      <trkpt lat="59.1714806" lon="17.8724874">
        <ele>60.6</ele>
        <time>2013-03-09T11:31:23Z</time>
      </trkpt>
      <trkpt lat="59.1713858" lon="17.8726322">
        <ele>58</ele>
        <time>2013-03-09T11:31:25Z</time>
      </trkpt>
      <trkpt lat="59.1713113" lon="17.872756">
        <ele>59</ele>
        <time>2013-03-09T11:31:27Z</time>
      </trkpt>
      <trkpt lat="59.1712042" lon="17.8729009">
        <ele>58.4</ele>
        <time>2013-03-09T11:31:30Z</time>
      </trkpt>
      <trkpt lat="59.1710265" lon="17.8731578">
        <ele>58.6</ele>
        <time>2013-03-09T11:31:35Z</time>
      </trkpt>
      <trkpt lat="59.1709502" lon="17.8732262">
        <ele>58.4</ele>
        <time>2013-03-09T11:31:37Z</time>
      </trkpt>
      <trkpt lat="59.1708959" lon="17.8732709">
        <ele>58.6</ele>
        <time>2013-03-09T11:31:39Z</time>
      </trkpt>
      <trkpt lat="59.170842" lon="17.8733526">
        <ele>58.2</ele>
        <time>2013-03-09T11:31:42Z</time>
      </trkpt>
      <trkpt lat="59.1707303" lon="17.8736075">
        <ele>58.6</ele>
        <time>2013-03-09T11:31:47Z</time>
      </trkpt>
      <trkpt lat="59.1707025" lon="17.8736558">
        <ele>58.4</ele>
        <time>2013-03-09T11:31:48Z</time>
      </trkpt>
      <trkpt lat="59.170665" lon="17.8736789">
        <ele>58.6</ele>
        <time>2013-03-09T11:31:49Z</time>
      </trkpt>
      <trkpt lat="59.1705168" lon="17.8735467">
        <ele>59.8</ele>
        <time>2013-03-09T11:31:53Z</time>
      </trkpt>
      <trkpt lat="59.1704946" lon="17.8735246">
        <ele>61.2</ele>
        <time>2013-03-09T11:31:54Z</time>
      </trkpt>
      <trkpt lat="59.1703234" lon="17.873397">
        <ele>62.8</ele>
        <time>2013-03-09T11:32:00Z</time>
      </trkpt>
      <trkpt lat="59.1701567" lon="17.8732502">
        <ele>64</ele>
        <time>2013-03-09T11:32:04Z</time>
      </trkpt>
      <trkpt lat="59.1699603" lon="17.8730812">
        <ele>63.6</ele>
        <time>2013-03-09T11:32:10Z</time>
      </trkpt>
      <trkpt lat="59.1697734" lon="17.8728834">
        <ele>62.8</ele>
        <time>2013-03-09T11:32:16Z</time>
      </trkpt>
      <trkpt lat="59.1696045" lon="17.8726559">
        <ele>62.6</ele>
        <time>2013-03-09T11:32:22Z</time>
      </trkpt>
      <trkpt lat="59.169458" lon="17.8725756">
        <ele>65.6</ele>
        <time>2013-03-09T11:32:26Z</time>
      </trkpt>
      <trkpt lat="59.1693994" lon="17.8725871">
        <ele>66.4</ele>
        <time>2013-03-09T11:32:28Z</time>
      </trkpt>
      <trkpt lat="59.1693419" lon="17.8725937">
        <ele>68</ele>
        <time>2013-03-09T11:32:30Z</time>
      </trkpt>
      <trkpt lat="59.1692293" lon="17.8726606">
        <ele>71.4</ele>
        <time>2013-03-09T11:32:35Z</time>
      </trkpt>
      <trkpt lat="59.1690462" lon="17.872692">
        <ele>75.2</ele>
        <time>2013-03-09T11:32:40Z</time>
      </trkpt>
      <trkpt lat="59.1688855" lon="17.8725109">
        <ele>78.4</ele>
        <time>2013-03-09T11:32:47Z</time>
      </trkpt>
      <trkpt lat="59.1686985" lon="17.8723281">
        <ele>78.2</ele>
        <time>2013-03-09T11:32:52Z</time>
      </trkpt>
      <trkpt lat="59.168518" lon="17.872313">
        <ele>77.6</ele>
        <time>2013-03-09T11:32:56Z</time>
      </trkpt>
      <trkpt lat="59.1684526" lon="17.872254">
        <ele>77.4</ele>
        <time>2013-03-09T11:32:58Z</time>
      </trkpt>
      <trkpt lat="59.1683938" lon="17.8721606">
        <ele>77.4</ele>
        <time>2013-03-09T11:33:00Z</time>
      </trkpt>
      <trkpt lat="59.1683691" lon="17.8721004">
        <ele>77.6</ele>
        <time>2013-03-09T11:33:01Z</time>
      </trkpt>
      <trkpt lat="59.1683314" lon="17.8719797">
        <ele>76.8</ele>
        <time>2013-03-09T11:33:03Z</time>
      </trkpt>
      <trkpt lat="59.1682635" lon="17.8717971">
        <ele>78</ele>
        <time>2013-03-09T11:33:06Z</time>
      </trkpt>
      <trkpt lat="59.1680998" lon="17.8716591">
        <ele>79.4</ele>
        <time>2013-03-09T11:33:11Z</time>
      </trkpt>
      <trkpt lat="59.167903" lon="17.8716503">
        <ele>81.4</ele>
        <time>2013-03-09T11:33:17Z</time>
      </trkpt>
      <trkpt lat="59.1677096" lon="17.8717277">
        <ele>86.4</ele>
        <time>2013-03-09T11:33:25Z</time>
      </trkpt>
      <trkpt lat="59.1676464" lon="17.8717766">
        <ele>87.6</ele>
        <time>2013-03-09T11:33:28Z</time>
      </trkpt>
      <trkpt lat="59.1675822" lon="17.8718745">
        <ele>89.8</ele>
        <time>2013-03-09T11:33:32Z</time>
      </trkpt>
      <trkpt lat="59.167538" lon="17.8719134">
        <ele>90</ele>
        <time>2013-03-09T11:33:34Z</time>
      </trkpt>
      <trkpt lat="59.1673864" lon="17.871931">
        <ele>91</ele>
        <time>2013-03-09T11:33:40Z</time>
      </trkpt>
      <trkpt lat="59.1673479" lon="17.8719239">
        <ele>90.4</ele>
        <time>2013-03-09T11:33:42Z</time>
      </trkpt>
      <trkpt lat="59.1671668" lon="17.8718447">
        <ele>89.8</ele>
        <time>2013-03-09T11:33:49Z</time>
      </trkpt>
      <trkpt lat="59.1671287" lon="17.8718329">
        <ele>89.2</ele>
        <time>2013-03-09T11:33:50Z</time>
      </trkpt>
      <trkpt lat="59.1669813" lon="17.8717961">
        <ele>87.6</ele>
        <time>2013-03-09T11:33:55Z</time>
      </trkpt>
      <trkpt lat="59.1667998" lon="17.871768">
        <ele>88.2</ele>
        <time>2013-03-09T11:34:00Z</time>
      </trkpt>
      <trkpt lat="59.1667628" lon="17.8717758">
        <ele>88.6</ele>
        <time>2013-03-09T11:34:01Z</time>
      </trkpt>
      <trkpt lat="59.1666378" lon="17.8719408">
        <ele>89.2</ele>
        <time>2013-03-09T11:34:06Z</time>
      </trkpt>
      <trkpt lat="59.1664714" lon="17.8721766">
        <ele>90.4</ele>
        <time>2013-03-09T11:34:13Z</time>
      </trkpt>
      <trkpt lat="59.1662706" lon="17.8722523">
        <ele>89.8</ele>
        <time>2013-03-09T11:34:20Z</time>
      </trkpt>
      <trkpt lat="59.1660764" lon="17.8723078">
        <ele>90.2</ele>
        <time>2013-03-09T11:34:27Z</time>
      </trkpt>
      <trkpt lat="59.1659511" lon="17.8723845">
        <ele>91.8</ele>
        <time>2013-03-09T11:34:33Z</time>
      </trkpt>
      <trkpt lat="59.1659065" lon="17.8724159">
        <ele>92.4</ele>
        <time>2013-03-09T11:34:35Z</time>
      </trkpt>
      <trkpt lat="59.1657802" lon="17.8725264">
        <ele>93.6</ele>
        <time>2013-03-09T11:34:40Z</time>
      </trkpt>
      <trkpt lat="59.1657475" lon="17.8725184">
        <ele>93.6</ele>
        <time>2013-03-09T11:34:41Z</time>
      </trkpt>
      <trkpt lat="59.1657106" lon="17.8725061">
        <ele>93.6</ele>
        <time>2013-03-09T11:34:42Z</time>
      </trkpt>
      <trkpt lat="59.1655267" lon="17.8725448">
        <ele>93</ele>
        <time>2013-03-09T11:34:48Z</time>
      </trkpt>
      <trkpt lat="59.1653471" lon="17.8725777">
        <ele>94.2</ele>
        <time>2013-03-09T11:34:53Z</time>
      </trkpt>
      <trkpt lat="59.1651608" lon="17.8725747">
        <ele>93.2</ele>
        <time>2013-03-09T11:34:58Z</time>
      </trkpt>
      <trkpt lat="59.1650337" lon="17.8725084">
        <ele>93.2</ele>
        <time>2013-03-09T11:35:00Z</time>
      </trkpt>
      <trkpt lat="59.1649615" lon="17.8724891">
        <ele>93.2</ele>
        <time>2013-03-09T11:35:01Z</time>
      </trkpt>
      <trkpt lat="59.1647583" lon="17.8724604">
        <ele>92.2</ele>
        <time>2013-03-09T11:35:04Z</time>
      </trkpt>
      <trkpt lat="59.1645804" lon="17.8725228">
        <ele>89.6</ele>
        <time>2013-03-09T11:35:07Z</time>
      </trkpt>
      <trkpt lat="59.1645192" lon="17.8725803">
        <ele>89</ele>
        <time>2013-03-09T11:35:08Z</time>
      </trkpt>
      <trkpt lat="59.1644287" lon="17.8727292">
        <ele>86.4</ele>
        <time>2013-03-09T11:35:10Z</time>
      </trkpt>
      <trkpt lat="59.1643416" lon="17.8728781">
        <ele>85.2</ele>
        <time>2013-03-09T11:35:12Z</time>
      </trkpt>
      <trkpt lat="59.1642514" lon="17.8730354">
        <ele>84.6</ele>
        <time>2013-03-09T11:35:14Z</time>
      </trkpt>
      <trkpt lat="59.1642131" lon="17.8731219">
        <ele>83.2</ele>
        <time>2013-03-09T11:35:15Z</time>
      </trkpt>
      <trkpt lat="59.1641134" lon="17.873391">
        <ele>80.6</ele>
        <time>2013-03-09T11:35:18Z</time>
      </trkpt>
      <trkpt lat="59.1640225" lon="17.8737088">
        <ele>80.2</ele>
        <time>2013-03-09T11:35:21Z</time>
      </trkpt>
      <trkpt lat="59.1639535" lon="17.8740952">
        <ele>80.2</ele>
        <time>2013-03-09T11:35:24Z</time>
      </trkpt>
      <trkpt lat="59.1639158" lon="17.8742332">
        <ele>79.8</ele>
        <time>2013-03-09T11:35:25Z</time>
      </trkpt>
      <trkpt lat="59.163825" lon="17.8745273">
        <ele>78.6</ele>
        <time>2013-03-09T11:35:27Z</time>
      </trkpt>
      <trkpt lat="59.1637229" lon="17.8748481">
        <ele>78.6</ele>
        <time>2013-03-09T11:35:29Z</time>
      </trkpt>
      <trkpt lat="59.1636796" lon="17.8750021">
        <ele>79</ele>
        <time>2013-03-09T11:35:30Z</time>
      </trkpt>
      <trkpt lat="59.163635" lon="17.8753013">
        <ele>79.8</ele>
        <time>2013-03-09T11:35:32Z</time>
      </trkpt>
      <trkpt lat="59.1636365" lon="17.8756032">
        <ele>80.4</ele>
        <time>2013-03-09T11:35:34Z</time>
      </trkpt>
      <trkpt lat="59.163636" lon="17.8757285">
        <ele>81.2</ele>
        <time>2013-03-09T11:35:35Z</time>
      </trkpt>
      <trkpt lat="59.1636386" lon="17.8761391">
        <ele>80.2</ele>
        <time>2013-03-09T11:35:39Z</time>
      </trkpt>
      <trkpt lat="59.1636411" lon="17.8764627">
        <ele>79.6</ele>
        <time>2013-03-09T11:35:43Z</time>
      </trkpt>
      <trkpt lat="59.163633" lon="17.8765706">
        <ele>79</ele>
        <time>2013-03-09T11:35:44Z</time>
      </trkpt>
      <trkpt lat="59.1635201" lon="17.8768941">
        <ele>76.4</ele>
        <time>2013-03-09T11:35:48Z</time>
      </trkpt>
      <trkpt lat="59.1633687" lon="17.8767801">
        <ele>75.4</ele>
        <time>2013-03-09T11:35:54Z</time>
      </trkpt>
      <trkpt lat="59.1633507" lon="17.8767255">
        <ele>75.8</ele>
        <time>2013-03-09T11:35:55Z</time>
      </trkpt>
      <trkpt lat="59.1632956" lon="17.8764659">
        <ele>76.8</ele>
        <time>2013-03-09T11:35:59Z</time>
      </trkpt>
      <trkpt lat="59.1633268" lon="17.8760758">
        <ele>76.6</ele>
        <time>2013-03-09T11:36:03Z</time>
      </trkpt>
      <trkpt lat="59.1633312" lon="17.8757225">
        <ele>77.2</ele>
        <time>2013-03-09T11:36:06Z</time>
      </trkpt>
      <trkpt lat="59.1632926" lon="17.8753535">
        <ele>77.6</ele>
        <time>2013-03-09T11:36:09Z</time>
      </trkpt>
      <trkpt lat="59.1632147" lon="17.8749496">
        <ele>78.6</ele>
        <time>2013-03-09T11:36:13Z</time>
      </trkpt>
      <trkpt lat="59.1631978" lon="17.8745808">
        <ele>78.8</ele>
        <time>2013-03-09T11:36:17Z</time>
      </trkpt>
      <trkpt lat="59.1632055" lon="17.874182">
        <ele>78.2</ele>
        <time>2013-03-09T11:36:21Z</time>
      </trkpt>
      <trkpt lat="59.1632065" lon="17.8739116">
        <ele>77.6</ele>
        <time>2013-03-09T11:36:24Z</time>
      </trkpt>
      <trkpt lat="59.1631859" lon="17.8737774">
        <ele>78</ele>
        <time>2013-03-09T11:36:26Z</time>
      </trkpt>
      <trkpt lat="59.1631171" lon="17.8735079">
        <ele>79.6</ele>
        <time>2013-03-09T11:36:30Z</time>
      </trkpt>
      <trkpt lat="59.1631061" lon="17.8734385">
        <ele>79.8</ele>
        <time>2013-03-09T11:36:31Z</time>
      </trkpt>
      <trkpt lat="59.1630947" lon="17.8733594">
        <ele>79.8</ele>
        <time>2013-03-09T11:36:32Z</time>
      </trkpt>
      <trkpt lat="59.1630991" lon="17.8730316">
        <ele>78.2</ele>
        <time>2013-03-09T11:36:36Z</time>
      </trkpt>
      <trkpt lat="59.1631216" lon="17.87265">
        <ele>76.6</ele>
        <time>2013-03-09T11:36:40Z</time>
      </trkpt>
      <trkpt lat="59.1631365" lon="17.8723482">
        <ele>75.6</ele>
        <time>2013-03-09T11:36:43Z</time>
      </trkpt>
      <trkpt lat="59.1631453" lon="17.8722524">
        <ele>75.8</ele>
        <time>2013-03-09T11:36:44Z</time>
      </trkpt>
      <trkpt lat="59.1631816" lon="17.8719937">
        <ele>76.4</ele>
        <time>2013-03-09T11:36:47Z</time>
      </trkpt>
      <trkpt lat="59.1631987" lon="17.8719023">
        <ele>76.6</ele>
        <time>2013-03-09T11:36:48Z</time>
      </trkpt>
      <trkpt lat="59.1632159" lon="17.8718101">
        <ele>76</ele>
        <time>2013-03-09T11:36:49Z</time>
      </trkpt>
      <trkpt lat="59.1632537" lon="17.8716471">
        <ele>75.6</ele>
        <time>2013-03-09T11:36:51Z</time>
      </trkpt>
      <trkpt lat="59.1632765" lon="17.8715699">
        <ele>75.8</ele>
        <time>2013-03-09T11:36:52Z</time>
      </trkpt>
      <trkpt lat="59.1633349" lon="17.8713187">
        <ele>75.2</ele>
        <time>2013-03-09T11:36:55Z</time>
      </trkpt>
      <trkpt lat="59.1633547" lon="17.8712415">
        <ele>75.2</ele>
        <time>2013-03-09T11:36:56Z</time>
      </trkpt>
      <trkpt lat="59.1633868" lon="17.8710957">
        <ele>74.8</ele>
        <time>2013-03-09T11:36:58Z</time>
      </trkpt>
      <trkpt lat="59.1634133" lon="17.87091">
        <ele>74.4</ele>
        <time>2013-03-09T11:37:00Z</time>
      </trkpt>
      <trkpt lat="59.1634421" lon="17.8707481">
        <ele>74.8</ele>
        <time>2013-03-09T11:37:02Z</time>
      </trkpt>
      <trkpt lat="59.1635255" lon="17.8705845">
        <ele>75.6</ele>
        <time>2013-03-09T11:37:05Z</time>
      </trkpt>
      <trkpt lat="59.1636767" lon="17.8703378">
        <ele>76.8</ele>
        <time>2013-03-09T11:37:11Z</time>
      </trkpt>
      <trkpt lat="59.1636736" lon="17.8701669">
        <ele>77.8</ele>
        <time>2013-03-09T11:37:14Z</time>
      </trkpt>
      <trkpt lat="59.1636644" lon="17.8699563">
        <ele>77.4</ele>
        <time>2013-03-09T11:37:17Z</time>
      </trkpt>
      <trkpt lat="59.1636515" lon="17.8696152">
        <ele>78.6</ele>
        <time>2013-03-09T11:37:21Z</time>
      </trkpt>
      <trkpt lat="59.1636603" lon="17.8692211">
        <ele>78.4</ele>
        <time>2013-03-09T11:37:25Z</time>
      </trkpt>
      <trkpt lat="59.1636603" lon="17.8689279">
        <ele>77</ele>
        <time>2013-03-09T11:37:28Z</time>
      </trkpt>
      <trkpt lat="59.1636665" lon="17.86883">
        <ele>78</ele>
        <time>2013-03-09T11:37:29Z</time>
      </trkpt>
      <trkpt lat="59.1636786" lon="17.8686559">
        <ele>78.4</ele>
        <time>2013-03-09T11:37:31Z</time>
      </trkpt>
      <trkpt lat="59.1636847" lon="17.8684056">
        <ele>77.4</ele>
        <time>2013-03-09T11:37:34Z</time>
      </trkpt>
      <trkpt lat="59.1636841" lon="17.8683243">
        <ele>76.8</ele>
        <time>2013-03-09T11:37:35Z</time>
      </trkpt>
      <trkpt lat="59.1637028" lon="17.8679871">
        <ele>76.8</ele>
        <time>2013-03-09T11:37:39Z</time>
      </trkpt>
      <trkpt lat="59.163708" lon="17.8677041">
        <ele>76.6</ele>
        <time>2013-03-09T11:37:42Z</time>
      </trkpt>
      <trkpt lat="59.1637059" lon="17.8676177">
        <ele>76.4</ele>
        <time>2013-03-09T11:37:43Z</time>
      </trkpt>
      <trkpt lat="59.1636998" lon="17.8675328">
        <ele>76.8</ele>
        <time>2013-03-09T11:37:44Z</time>
      </trkpt>
      <trkpt lat="59.1636924" lon="17.8672784">
        <ele>77.8</ele>
        <time>2013-03-09T11:37:47Z</time>
      </trkpt>
      <trkpt lat="59.1636966" lon="17.8671992">
        <ele>78.2</ele>
        <time>2013-03-09T11:37:48Z</time>
      </trkpt>
      <trkpt lat="59.1637297" lon="17.8670029">
        <ele>78.6</ele>
        <time>2013-03-09T11:37:51Z</time>
      </trkpt>
      <trkpt lat="59.1637623" lon="17.8668257">
        <ele>78.2</ele>
        <time>2013-03-09T11:37:54Z</time>
      </trkpt>
      <trkpt lat="59.1638891" lon="17.8665107">
        <ele>77</ele>
        <time>2013-03-09T11:38:01Z</time>
      </trkpt>
      <trkpt lat="59.164034" lon="17.8662569">
        <ele>77.8</ele>
        <time>2013-03-09T11:38:07Z</time>
      </trkpt>
      <trkpt lat="59.1641968" lon="17.866002">
        <ele>78.2</ele>
        <time>2013-03-09T11:38:12Z</time>
      </trkpt>
      <trkpt lat="59.1643503" lon="17.8658213">
        <ele>78.2</ele>
        <time>2013-03-09T11:38:16Z</time>
      </trkpt>
      <trkpt lat="59.1643937" lon="17.865785">
        <ele>78.6</ele>
        <time>2013-03-09T11:38:17Z</time>
      </trkpt>
      <trkpt lat="59.1644296" lon="17.8657436">
        <ele>78.8</ele>
        <time>2013-03-09T11:38:18Z</time>
      </trkpt>
      <trkpt lat="59.164544" lon="17.8655975">
        <ele>79.2</ele>
        <time>2013-03-09T11:38:21Z</time>
      </trkpt>
      <trkpt lat="59.1646327" lon="17.8655132">
        <ele>78.6</ele>
        <time>2013-03-09T11:38:23Z</time>
      </trkpt>
      <trkpt lat="59.1647148" lon="17.8654179">
        <ele>77.8</ele>
        <time>2013-03-09T11:38:25Z</time>
      </trkpt>
      <trkpt lat="59.1647566" lon="17.8653529">
        <ele>78</ele>
        <time>2013-03-09T11:38:26Z</time>
      </trkpt>
      <trkpt lat="59.164877" lon="17.8651794">
        <ele>78.6</ele>
        <time>2013-03-09T11:38:29Z</time>
      </trkpt>
      <trkpt lat="59.1650419" lon="17.8649359">
        <ele>80.8</ele>
        <time>2013-03-09T11:38:33Z</time>
      </trkpt>
      <trkpt lat="59.1651893" lon="17.8646609">
        <ele>78.6</ele>
        <time>2013-03-09T11:38:37Z</time>
      </trkpt>
      <trkpt lat="59.1652253" lon="17.8645864">
        <ele>78.4</ele>
        <time>2013-03-09T11:38:38Z</time>
      </trkpt>
      <trkpt lat="59.1653584" lon="17.8643748">
        <ele>79.6</ele>
        <time>2013-03-09T11:38:41Z</time>
      </trkpt>
      <trkpt lat="59.1653952" lon="17.8643237">
        <ele>78.8</ele>
        <time>2013-03-09T11:38:42Z</time>
      </trkpt>
      <trkpt lat="59.1654331" lon="17.8642698">
        <ele>78.4</ele>
        <time>2013-03-09T11:38:43Z</time>
      </trkpt>
      <trkpt lat="59.1655422" lon="17.8640993">
        <ele>78.2</ele>
        <time>2013-03-09T11:38:46Z</time>
      </trkpt>
      <trkpt lat="59.1656936" lon="17.8638316">
        <ele>77.6</ele>
        <time>2013-03-09T11:38:50Z</time>
      </trkpt>
      <trkpt lat="59.1658272" lon="17.8635327">
        <ele>76.8</ele>
        <time>2013-03-09T11:38:54Z</time>
      </trkpt>
      <trkpt lat="59.1659635" lon="17.8632607">
        <ele>77</ele>
        <time>2013-03-09T11:38:58Z</time>
      </trkpt>
      <trkpt lat="59.1660529" lon="17.8630923">
        <ele>76.6</ele>
        <time>2013-03-09T11:39:01Z</time>
      </trkpt>
      <trkpt lat="59.1660875" lon="17.8630131">
        <ele>77.6</ele>
        <time>2013-03-09T11:39:02Z</time>
      </trkpt>
      <trkpt lat="59.1661731" lon="17.8627992">
        <ele>75.6</ele>
        <time>2013-03-09T11:39:05Z</time>
      </trkpt>
      <trkpt lat="59.1662137" lon="17.8627328">
        <ele>75.4</ele>
        <time>2013-03-09T11:39:06Z</time>
      </trkpt>
      <trkpt lat="59.1663862" lon="17.8625386">
        <ele>75.4</ele>
        <time>2013-03-09T11:39:10Z</time>
      </trkpt>
      <trkpt lat="59.1664649" lon="17.8624376">
        <ele>75.4</ele>
        <time>2013-03-09T11:39:12Z</time>
      </trkpt>
      <trkpt lat="59.166539" lon="17.86232">
        <ele>74.8</ele>
        <time>2013-03-09T11:39:14Z</time>
      </trkpt>
      <trkpt lat="59.1665771" lon="17.8622522">
        <ele>76.2</ele>
        <time>2013-03-09T11:39:15Z</time>
      </trkpt>
      <trkpt lat="59.1666677" lon="17.862031">
        <ele>75.8</ele>
        <time>2013-03-09T11:39:18Z</time>
      </trkpt>
      <trkpt lat="59.166844" lon="17.8618957">
        <ele>75.2</ele>
        <time>2013-03-09T11:39:22Z</time>
      </trkpt>
      <trkpt lat="59.1668849" lon="17.8618571">
        <ele>75.4</ele>
        <time>2013-03-09T11:39:23Z</time>
      </trkpt>
      <trkpt lat="59.1669228" lon="17.8618146">
        <ele>75.4</ele>
        <time>2013-03-09T11:39:24Z</time>
      </trkpt>
      <trkpt lat="59.1669792" lon="17.8616658">
        <ele>75.4</ele>
        <time>2013-03-09T11:39:26Z</time>
      </trkpt>
      <trkpt lat="59.1670377" lon="17.8613947">
        <ele>75.8</ele>
        <time>2013-03-09T11:39:29Z</time>
      </trkpt>
      <trkpt lat="59.1670264" lon="17.8612826">
        <ele>75.6</ele>
        <time>2013-03-09T11:39:30Z</time>
      </trkpt>
      <trkpt lat="59.1669938" lon="17.8609857">
        <ele>77.2</ele>
        <time>2013-03-09T11:39:33Z</time>
      </trkpt>
      <trkpt lat="59.1669842" lon="17.8608878">
        <ele>77.4</ele>
        <time>2013-03-09T11:39:34Z</time>
      </trkpt>
      <trkpt lat="59.1669487" lon="17.8604864">
        <ele>76.2</ele>
        <time>2013-03-09T11:39:38Z</time>
      </trkpt>
      <trkpt lat="59.1668996" lon="17.8601427">
        <ele>76.4</ele>
        <time>2013-03-09T11:39:41Z</time>
      </trkpt>
      <trkpt lat="59.1668879" lon="17.8600162">
        <ele>75.8</ele>
        <time>2013-03-09T11:39:42Z</time>
      </trkpt>
      <trkpt lat="59.1668865" lon="17.8598906">
        <ele>76</ele>
        <time>2013-03-09T11:39:43Z</time>
      </trkpt>
      <trkpt lat="59.1668833" lon="17.8597738">
        <ele>75.8</ele>
        <time>2013-03-09T11:39:44Z</time>
      </trkpt>
      <trkpt lat="59.1668664" lon="17.8593311">
        <ele>76.4</ele>
        <time>2013-03-09T11:39:48Z</time>
      </trkpt>
      <trkpt lat="59.1668591" lon="17.8590041">
        <ele>76.2</ele>
        <time>2013-03-09T11:39:51Z</time>
      </trkpt>
      <trkpt lat="59.1668454" lon="17.8589048">
        <ele>75.6</ele>
        <time>2013-03-09T11:39:52Z</time>
      </trkpt>
      <trkpt lat="59.1668117" lon="17.8585546">
        <ele>75.8</ele>
        <time>2013-03-09T11:39:55Z</time>
      </trkpt>
      <trkpt lat="59.1668791" lon="17.8581385">
        <ele>73.6</ele>
        <time>2013-03-09T11:39:58Z</time>
      </trkpt>
      <trkpt lat="59.166974" lon="17.8578796">
        <ele>73.2</ele>
        <time>2013-03-09T11:40:00Z</time>
      </trkpt>
      <trkpt lat="59.1670234" lon="17.8577621">
        <ele>72.6</ele>
        <time>2013-03-09T11:40:01Z</time>
      </trkpt>
      <trkpt lat="59.1671331" lon="17.8574103">
        <ele>70.8</ele>
        <time>2013-03-09T11:40:04Z</time>
      </trkpt>
      <trkpt lat="59.1671632" lon="17.8570415">
        <ele>70.2</ele>
        <time>2013-03-09T11:40:07Z</time>
      </trkpt>
      <trkpt lat="59.1671641" lon="17.8569151">
        <ele>70.4</ele>
        <time>2013-03-09T11:40:08Z</time>
      </trkpt>
      <trkpt lat="59.1671809" lon="17.8565739">
        <ele>69.6</ele>
        <time>2013-03-09T11:40:11Z</time>
      </trkpt>
      <trkpt lat="59.1672606" lon="17.856265">
        <ele>68.2</ele>
        <time>2013-03-09T11:40:14Z</time>
      </trkpt>
      <trkpt lat="59.1673755" lon="17.8558694">
        <ele>66.2</ele>
        <time>2013-03-09T11:40:18Z</time>
      </trkpt>
      <trkpt lat="59.1674003" lon="17.8557768">
        <ele>65.6</ele>
        <time>2013-03-09T11:40:19Z</time>
      </trkpt>
      <trkpt lat="59.1674594" lon="17.8556092">
        <ele>66.4</ele>
        <time>2013-03-09T11:40:21Z</time>
      </trkpt>
      <trkpt lat="59.167486" lon="17.8555441">
        <ele>65</ele>
        <time>2013-03-09T11:40:22Z</time>
      </trkpt>
      <trkpt lat="59.1676686" lon="17.85537">
        <ele>67</ele>
        <time>2013-03-09T11:40:26Z</time>
      </trkpt>
      <trkpt lat="59.1676791" lon="17.8550849">
        <ele>64.8</ele>
        <time>2013-03-09T11:40:31Z</time>
      </trkpt>
      <trkpt lat="59.167582" lon="17.8547753">
        <ele>64.6</ele>
        <time>2013-03-09T11:40:35Z</time>
      </trkpt>
      <trkpt lat="59.1674853" lon="17.8544163">
        <ele>64.6</ele>
        <time>2013-03-09T11:40:39Z</time>
      </trkpt>
      <trkpt lat="59.1674313" lon="17.8541417">
        <ele>65.4</ele>
        <time>2013-03-09T11:40:42Z</time>
      </trkpt>
      <trkpt lat="59.1674183" lon="17.8540415">
        <ele>65</ele>
        <time>2013-03-09T11:40:43Z</time>
      </trkpt>
      <trkpt lat="59.1673962" lon="17.8539382">
        <ele>65.2</ele>
        <time>2013-03-09T11:40:44Z</time>
      </trkpt>
      <trkpt lat="59.1673489" lon="17.8536463">
        <ele>64.8</ele>
        <time>2013-03-09T11:40:47Z</time>
      </trkpt>
      <trkpt lat="59.167336" lon="17.8535594">
        <ele>64.4</ele>
        <time>2013-03-09T11:40:48Z</time>
      </trkpt>
      <trkpt lat="59.167274" lon="17.8532828">
        <ele>66.6</ele>
        <time>2013-03-09T11:40:52Z</time>
      </trkpt>
      <trkpt lat="59.167246" lon="17.8529276">
        <ele>65.6</ele>
        <time>2013-03-09T11:40:58Z</time>
      </trkpt>
      <trkpt lat="59.1672293" lon="17.852682">
        <ele>69.4</ele>
        <time>2013-03-09T11:41:03Z</time>
      </trkpt>
      <trkpt lat="59.167229" lon="17.8525427">
        <ele>69.6</ele>
        <time>2013-03-09T11:41:06Z</time>
      </trkpt>
      <trkpt lat="59.1673018" lon="17.8521883">
        <ele>69.4</ele>
        <time>2013-03-09T11:41:13Z</time>
      </trkpt>
      <trkpt lat="59.1673189" lon="17.8518059">
        <ele>70</ele>
        <time>2013-03-09T11:41:20Z</time>
      </trkpt>
      <trkpt lat="59.1673464" lon="17.8514636">
        <ele>73</ele>
        <time>2013-03-09T11:41:26Z</time>
      </trkpt>
      <trkpt lat="59.1673997" lon="17.8511331">
        <ele>71.4</ele>
        <time>2013-03-09T11:41:30Z</time>
      </trkpt>
      <trkpt lat="59.1675364" lon="17.8509275">
        <ele>67.8</ele>
        <time>2013-03-09T11:41:33Z</time>
      </trkpt>
      <trkpt lat="59.1677682" lon="17.850828">
        <ele>70</ele>
        <time>2013-03-09T11:41:36Z</time>
      </trkpt>
      <trkpt lat="59.167848" lon="17.8508223">
        <ele>69.6</ele>
        <time>2013-03-09T11:41:37Z</time>
      </trkpt>
      <trkpt lat="59.1679914" lon="17.8508962">
        <ele>69.8</ele>
        <time>2013-03-09T11:41:39Z</time>
      </trkpt>
      <trkpt lat="59.1680923" lon="17.8510719">
        <ele>70.8</ele>
        <time>2013-03-09T11:41:41Z</time>
      </trkpt>
      <trkpt lat="59.1681566" lon="17.8511731">
        <ele>69.4</ele>
        <time>2013-03-09T11:41:43Z</time>
      </trkpt>
      <trkpt lat="59.1681902" lon="17.8512272">
        <ele>70.4</ele>
        <time>2013-03-09T11:41:44Z</time>
      </trkpt>
      <trkpt lat="59.1682753" lon="17.8513771">
        <ele>69.6</ele>
        <time>2013-03-09T11:41:47Z</time>
      </trkpt>
      <trkpt lat="59.1683121" lon="17.8514191">
        <ele>69.6</ele>
        <time>2013-03-09T11:41:48Z</time>
      </trkpt>
      <trkpt lat="59.1684158" lon="17.851568">
        <ele>69.4</ele>
        <time>2013-03-09T11:41:51Z</time>
      </trkpt>
      <trkpt lat="59.1684659" lon="17.8516754">
        <ele>70</ele>
        <time>2013-03-09T11:41:53Z</time>
      </trkpt>
      <trkpt lat="59.168539" lon="17.8519667">
        <ele>67.8</ele>
        <time>2013-03-09T11:41:57Z</time>
      </trkpt>
      <trkpt lat="59.1685705" lon="17.8520579">
        <ele>67.2</ele>
        <time>2013-03-09T11:41:58Z</time>
      </trkpt>
      <trkpt lat="59.1686762" lon="17.8523075">
        <ele>66.6</ele>
        <time>2013-03-09T11:42:01Z</time>
      </trkpt>
      <trkpt lat="59.1688052" lon="17.8525743">
        <ele>66.6</ele>
        <time>2013-03-09T11:42:05Z</time>
      </trkpt>
      <trkpt lat="59.1688406" lon="17.85264">
        <ele>67</ele>
        <time>2013-03-09T11:42:06Z</time>
      </trkpt>
      <trkpt lat="59.1689604" lon="17.8527739">
        <ele>67.2</ele>
        <time>2013-03-09T11:42:09Z</time>
      </trkpt>
      <trkpt lat="59.1689969" lon="17.8528343">
        <ele>67.4</ele>
        <time>2013-03-09T11:42:10Z</time>
      </trkpt>
      <trkpt lat="59.1690545" lon="17.853072">
        <ele>66.6</ele>
        <time>2013-03-09T11:42:13Z</time>
      </trkpt>
      <trkpt lat="59.1691024" lon="17.8532367">
        <ele>66.2</ele>
        <time>2013-03-09T11:42:15Z</time>
      </trkpt>
      <trkpt lat="59.1691641" lon="17.8533828">
        <ele>65</ele>
        <time>2013-03-09T11:42:17Z</time>
      </trkpt>
      <trkpt lat="59.1692169" lon="17.8534958">
        <ele>64</ele>
        <time>2013-03-09T11:42:19Z</time>
      </trkpt>
      <trkpt lat="59.1692979" lon="17.8536777">
        <ele>64.2</ele>
        <time>2013-03-09T11:42:22Z</time>
      </trkpt>
      <trkpt lat="59.1693196" lon="17.8537387">
        <ele>64.2</ele>
        <time>2013-03-09T11:42:23Z</time>
      </trkpt>
      <trkpt lat="59.1693466" lon="17.8537931">
        <ele>64.4</ele>
        <time>2013-03-09T11:42:24Z</time>
      </trkpt>
      <trkpt lat="59.1694349" lon="17.8539687">
        <ele>63.4</ele>
        <time>2013-03-09T11:42:27Z</time>
      </trkpt>
      <trkpt lat="59.1694605" lon="17.8540151">
        <ele>63.6</ele>
        <time>2013-03-09T11:42:28Z</time>
      </trkpt>
      <trkpt lat="59.1695354" lon="17.8541956">
        <ele>64.4</ele>
        <time>2013-03-09T11:42:32Z</time>
      </trkpt>
      <trkpt lat="59.1695687" lon="17.8542164">
        <ele>65.6</ele>
        <time>2013-03-09T11:42:33Z</time>
      </trkpt>
      <trkpt lat="59.1696439" lon="17.8542996">
        <ele>66.2</ele>
        <time>2013-03-09T11:42:37Z</time>
      </trkpt>
      <trkpt lat="59.1696654" lon="17.8543416">
        <ele>64.4</ele>
        <time>2013-03-09T11:42:39Z</time>
      </trkpt>
      <trkpt lat="59.1697188" lon="17.8544536">
        <ele>65.2</ele>
        <time>2013-03-09T11:42:43Z</time>
      </trkpt>
      <trkpt lat="59.1698262" lon="17.8547213">
        <ele>69.4</ele>
        <time>2013-03-09T11:42:48Z</time>
      </trkpt>
      <trkpt lat="59.1699314" lon="17.8550441">
        <ele>70.4</ele>
        <time>2013-03-09T11:42:53Z</time>
      </trkpt>
      <trkpt lat="59.1700049" lon="17.855354">
        <ele>71.6</ele>
        <time>2013-03-09T11:42:57Z</time>
      </trkpt>
      <trkpt lat="59.1700328" lon="17.8554378">
        <ele>71.6</ele>
        <time>2013-03-09T11:42:58Z</time>
      </trkpt>
      <trkpt lat="59.1700864" lon="17.8555833">
        <ele>71.4</ele>
        <time>2013-03-09T11:43:00Z</time>
      </trkpt>
      <trkpt lat="59.1701226" lon="17.8557268">
        <ele>71.4</ele>
        <time>2013-03-09T11:43:02Z</time>
      </trkpt>
      <trkpt lat="59.1701698" lon="17.8558755">
        <ele>71</ele>
        <time>2013-03-09T11:43:04Z</time>
      </trkpt>
      <trkpt lat="59.1702567" lon="17.8560734">
        <ele>69</ele>
        <time>2013-03-09T11:43:07Z</time>
      </trkpt>
      <trkpt lat="59.1703785" lon="17.8563738">
        <ele>67.2</ele>
        <time>2013-03-09T11:43:11Z</time>
      </trkpt>
      <trkpt lat="59.1703954" lon="17.8564593">
        <ele>66.8</ele>
        <time>2013-03-09T11:43:12Z</time>
      </trkpt>
      <trkpt lat="59.1704058" lon="17.8565378">
        <ele>66.6</ele>
        <time>2013-03-09T11:43:13Z</time>
      </trkpt>
      <trkpt lat="59.1704313" lon="17.8566777">
        <ele>64.6</ele>
        <time>2013-03-09T11:43:15Z</time>
      </trkpt>
      <trkpt lat="59.1704587" lon="17.8567492">
        <ele>64.2</ele>
        <time>2013-03-09T11:43:16Z</time>
      </trkpt>
      <trkpt lat="59.1704882" lon="17.856817">
        <ele>64</ele>
        <time>2013-03-09T11:43:17Z</time>
      </trkpt>
      <trkpt lat="59.1705893" lon="17.8570301">
        <ele>62.2</ele>
        <time>2013-03-09T11:43:20Z</time>
      </trkpt>
      <trkpt lat="59.1706536" lon="17.8571753">
        <ele>63</ele>
        <time>2013-03-09T11:43:22Z</time>
      </trkpt>
      <trkpt lat="59.1706927" lon="17.8573414">
        <ele>62.6</ele>
        <time>2013-03-09T11:43:24Z</time>
      </trkpt>
      <trkpt lat="59.1707209" lon="17.8575226">
        <ele>63.6</ele>
        <time>2013-03-09T11:43:26Z</time>
      </trkpt>
      <trkpt lat="59.1707395" lon="17.8576083">
        <ele>64</ele>
        <time>2013-03-09T11:43:27Z</time>
      </trkpt>
      <trkpt lat="59.1707618" lon="17.857689">
        <ele>64.6</ele>
        <time>2013-03-09T11:43:28Z</time>
      </trkpt>
      <trkpt lat="59.1708059" lon="17.8579284">
        <ele>66.2</ele>
        <time>2013-03-09T11:43:31Z</time>
      </trkpt>
      <trkpt lat="59.1708255" lon="17.8580158">
        <ele>66.4</ele>
        <time>2013-03-09T11:43:32Z</time>
      </trkpt>
      <trkpt lat="59.1708447" lon="17.8581076">
        <ele>67.2</ele>
        <time>2013-03-09T11:43:33Z</time>
      </trkpt>
      <trkpt lat="59.1708914" lon="17.8583753">
        <ele>67.2</ele>
        <time>2013-03-09T11:43:36Z</time>
      </trkpt>
      <trkpt lat="59.1709815" lon="17.8586656">
        <ele>67</ele>
        <time>2013-03-09T11:43:39Z</time>
      </trkpt>
      <trkpt lat="59.1710353" lon="17.8587593">
        <ele>67.4</ele>
        <time>2013-03-09T11:43:40Z</time>
      </trkpt>
      <trkpt lat="59.1711568" lon="17.8588959">
        <ele>67.8</ele>
        <time>2013-03-09T11:43:42Z</time>
      </trkpt>
      <trkpt lat="59.1712927" lon="17.8590799">
        <ele>68.2</ele>
        <time>2013-03-09T11:43:45Z</time>
      </trkpt>
      <trkpt lat="59.1713311" lon="17.8591369">
        <ele>67.6</ele>
        <time>2013-03-09T11:43:46Z</time>
      </trkpt>
      <trkpt lat="59.1713823" lon="17.8592191">
        <ele>68</ele>
        <time>2013-03-09T11:43:47Z</time>
      </trkpt>
      <trkpt lat="59.1714831" lon="17.8593783">
        <ele>66</ele>
        <time>2013-03-09T11:43:49Z</time>
      </trkpt>
      <trkpt lat="59.1715329" lon="17.8594435">
        <ele>65.2</ele>
        <time>2013-03-09T11:43:50Z</time>
      </trkpt>
      <trkpt lat="59.1716718" lon="17.859626">
        <ele>62.4</ele>
        <time>2013-03-09T11:43:53Z</time>
      </trkpt>
      <trkpt lat="59.1718325" lon="17.8598238">
        <ele>61.6</ele>
        <time>2013-03-09T11:43:56Z</time>
      </trkpt>
      <trkpt lat="59.1720397" lon="17.8599898">
        <ele>64.4</ele>
        <time>2013-03-09T11:43:59Z</time>
      </trkpt>
      <trkpt lat="59.1722501" lon="17.86014">
        <ele>66</ele>
        <time>2013-03-09T11:44:02Z</time>
      </trkpt>
      <trkpt lat="59.1724484" lon="17.8603488">
        <ele>64.4</ele>
        <time>2013-03-09T11:44:06Z</time>
      </trkpt>
      <trkpt lat="59.1725207" lon="17.860453">
        <ele>62.4</ele>
        <time>2013-03-09T11:44:08Z</time>
      </trkpt>
      <trkpt lat="59.1726043" lon="17.8605334">
        <ele>61</ele>
        <time>2013-03-09T11:44:10Z</time>
      </trkpt>
      <trkpt lat="59.1727497" lon="17.8606407">
        <ele>60.4</ele>
        <time>2013-03-09T11:44:13Z</time>
      </trkpt>
      <trkpt lat="59.1727996" lon="17.8606697">
        <ele>59.6</ele>
        <time>2013-03-09T11:44:14Z</time>
      </trkpt>
      <trkpt lat="59.1728519" lon="17.8606826">
        <ele>58.8</ele>
        <time>2013-03-09T11:44:15Z</time>
      </trkpt>
      <trkpt lat="59.1729654" lon="17.8606985">
        <ele>58.8</ele>
        <time>2013-03-09T11:44:17Z</time>
      </trkpt>
      <trkpt lat="59.1730141" lon="17.8607219">
        <ele>58.8</ele>
        <time>2013-03-09T11:44:18Z</time>
      </trkpt>
      <trkpt lat="59.1731393" lon="17.8607909">
        <ele>61.2</ele>
        <time>2013-03-09T11:44:21Z</time>
      </trkpt>
      <trkpt lat="59.1731964" lon="17.8608604">
        <ele>61.4</ele>
        <time>2013-03-09T11:44:23Z</time>
      </trkpt>
      <trkpt lat="59.1732202" lon="17.8608847">
        <ele>61</ele>
        <time>2013-03-09T11:44:24Z</time>
      </trkpt>
      <trkpt lat="59.1733389" lon="17.8609639">
        <ele>60</ele>
        <time>2013-03-09T11:44:27Z</time>
      </trkpt>
      <trkpt lat="59.1733938" lon="17.860981">
        <ele>59.2</ele>
        <time>2013-03-09T11:44:28Z</time>
      </trkpt>
      <trkpt lat="59.1734425" lon="17.8609756">
        <ele>59.4</ele>
        <time>2013-03-09T11:44:29Z</time>
      </trkpt>
      <trkpt lat="59.1736003" lon="17.8608342">
        <ele>58.4</ele>
        <time>2013-03-09T11:44:33Z</time>
      </trkpt>
      <trkpt lat="59.1736458" lon="17.8607796">
        <ele>57.2</ele>
        <time>2013-03-09T11:44:34Z</time>
      </trkpt>
      <trkpt lat="59.1737186" lon="17.8606635">
        <ele>56</ele>
        <time>2013-03-09T11:44:36Z</time>
      </trkpt>
      <trkpt lat="59.1737533" lon="17.8605974">
        <ele>55.6</ele>
        <time>2013-03-09T11:44:37Z</time>
      </trkpt>
      <trkpt lat="59.1738269" lon="17.8604583">
        <ele>55</ele>
        <time>2013-03-09T11:44:39Z</time>
      </trkpt>
      <trkpt lat="59.1739056" lon="17.8603445">
        <ele>54.8</ele>
        <time>2013-03-09T11:44:41Z</time>
      </trkpt>
      <trkpt lat="59.1740898" lon="17.8601957">
        <ele>54</ele>
        <time>2013-03-09T11:44:45Z</time>
      </trkpt>
      <trkpt lat="59.1741277" lon="17.8601496">
        <ele>53.2</ele>
        <time>2013-03-09T11:44:46Z</time>
      </trkpt>
      <trkpt lat="59.1742447" lon="17.8600349">
        <ele>52.6</ele>
        <time>2013-03-09T11:44:49Z</time>
      </trkpt>
      <trkpt lat="59.1742827" lon="17.8599978">
        <ele>52.4</ele>
        <time>2013-03-09T11:44:50Z</time>
      </trkpt>
      <trkpt lat="59.1743474" lon="17.8599304">
        <ele>50.8</ele>
        <time>2013-03-09T11:44:52Z</time>
      </trkpt>
      <trkpt lat="59.1744615" lon="17.859804">
        <ele>50</ele>
        <time>2013-03-09T11:44:55Z</time>
      </trkpt>
      <trkpt lat="59.1745347" lon="17.8597072">
        <ele>50</ele>
        <time>2013-03-09T11:44:57Z</time>
      </trkpt>
      <trkpt lat="59.1745675" lon="17.8596507">
        <ele>50.2</ele>
        <time>2013-03-09T11:44:58Z</time>
      </trkpt>
      <trkpt lat="59.1746183" lon="17.8595407">
        <ele>49</ele>
        <time>2013-03-09T11:45:00Z</time>
      </trkpt>
      <trkpt lat="59.1746751" lon="17.859412">
        <ele>49.2</ele>
        <time>2013-03-09T11:45:02Z</time>
      </trkpt>
      <trkpt lat="59.174758" lon="17.8592306">
        <ele>47.6</ele>
        <time>2013-03-09T11:45:05Z</time>
      </trkpt>
      <trkpt lat="59.1748245" lon="17.8591286">
        <ele>47</ele>
        <time>2013-03-09T11:45:07Z</time>
      </trkpt>
      <trkpt lat="59.1749255" lon="17.8590178">
        <ele>47.6</ele>
        <time>2013-03-09T11:45:10Z</time>
      </trkpt>
      <trkpt lat="59.1751049" lon="17.8588314">
        <ele>53.4</ele>
        <time>2013-03-09T11:45:15Z</time>
      </trkpt>
      <trkpt lat="59.1752053" lon="17.858748">
        <ele>57.2</ele>
        <time>2013-03-09T11:45:18Z</time>
      </trkpt>
      <trkpt lat="59.1752888" lon="17.8586884">
        <ele>59.2</ele>
        <time>2013-03-09T11:45:21Z</time>
      </trkpt>
      <trkpt lat="59.1754128" lon="17.8584244">
        <ele>58</ele>
        <time>2013-03-09T11:45:28Z</time>
      </trkpt>
      <trkpt lat="59.1754377" lon="17.8580755">
        <ele>62.2</ele>
        <time>2013-03-09T11:45:34Z</time>
      </trkpt>
      <trkpt lat="59.1754969" lon="17.8577025">
        <ele>65.2</ele>
        <time>2013-03-09T11:45:41Z</time>
      </trkpt>
      <trkpt lat="59.175488" lon="17.857315">
        <ele>66.2</ele>
        <time>2013-03-09T11:45:46Z</time>
      </trkpt>
      <trkpt lat="59.1754661" lon="17.8569162">
        <ele>64.4</ele>
        <time>2013-03-09T11:45:51Z</time>
      </trkpt>
      <trkpt lat="59.1754583" lon="17.8568384">
        <ele>63.6</ele>
        <time>2013-03-09T11:45:52Z</time>
      </trkpt>
      <trkpt lat="59.1754762" lon="17.8565906">
        <ele>60.8</ele>
        <time>2013-03-09T11:45:56Z</time>
      </trkpt>
      <trkpt lat="59.1754858" lon="17.8565406">
        <ele>60</ele>
        <time>2013-03-09T11:45:57Z</time>
      </trkpt>
      <trkpt lat="59.1756037" lon="17.856262">
        <ele>60.4</ele>
        <time>2013-03-09T11:46:03Z</time>
      </trkpt>
      <trkpt lat="59.1758034" lon="17.8560682">
        <ele>60.6</ele>
        <time>2013-03-09T11:46:10Z</time>
      </trkpt>
      <trkpt lat="59.1759991" lon="17.8559491">
        <ele>65</ele>
        <time>2013-03-09T11:46:16Z</time>
      </trkpt>
      <trkpt lat="59.1761687" lon="17.8558321">
        <ele>60.2</ele>
        <time>2013-03-09T11:46:22Z</time>
      </trkpt>
      <trkpt lat="59.176334" lon="17.8559685">
        <ele>61.4</ele>
        <time>2013-03-09T11:46:27Z</time>
      </trkpt>
      <trkpt lat="59.1765198" lon="17.856183">
        <ele>65.8</ele>
        <time>2013-03-09T11:46:33Z</time>
      </trkpt>
      <trkpt lat="59.1765799" lon="17.8562301">
        <ele>66.8</ele>
        <time>2013-03-09T11:46:35Z</time>
      </trkpt>
      <trkpt lat="59.1767194" lon="17.8562008">
        <ele>65.8</ele>
        <time>2013-03-09T11:46:41Z</time>
      </trkpt>
      <trkpt lat="59.1769303" lon="17.8560672">
        <ele>61</ele>
        <time>2013-03-09T11:46:46Z</time>
      </trkpt>
      <trkpt lat="59.1770961" lon="17.8559163">
        <ele>61.2</ele>
        <time>2013-03-09T11:46:49Z</time>
      </trkpt>
      <trkpt lat="59.1772562" lon="17.8557048">
        <ele>64</ele>
        <time>2013-03-09T11:46:52Z</time>
      </trkpt>
      <trkpt lat="59.1773084" lon="17.8556481">
        <ele>65</ele>
        <time>2013-03-09T11:46:53Z</time>
      </trkpt>
      <trkpt lat="59.1774377" lon="17.8555196">
        <ele>66.8</ele>
        <time>2013-03-09T11:46:56Z</time>
      </trkpt>
      <trkpt lat="59.177482" lon="17.8554565">
        <ele>67.6</ele>
        <time>2013-03-09T11:46:58Z</time>
      </trkpt>
      <trkpt lat="59.1775803" lon="17.855277">
        <ele>67.8</ele>
        <time>2013-03-09T11:47:03Z</time>
      </trkpt>
      <trkpt lat="59.1775906" lon="17.8552429">
        <ele>67.6</ele>
        <time>2013-03-09T11:47:04Z</time>
      </trkpt>
      <trkpt lat="59.1777246" lon="17.8550143">
        <ele>67.2</ele>
        <time>2013-03-09T11:47:09Z</time>
      </trkpt>
      <trkpt lat="59.1779204" lon="17.8549229">
        <ele>63.8</ele>
        <time>2013-03-09T11:47:14Z</time>
      </trkpt>
      <trkpt lat="59.1780202" lon="17.8549274">
        <ele>65.4</ele>
        <time>2013-03-09T11:47:16Z</time>
      </trkpt>
      <trkpt lat="59.178095" lon="17.8549616">
        <ele>66.8</ele>
        <time>2013-03-09T11:47:18Z</time>
      </trkpt>
      <trkpt lat="59.1781212" lon="17.8549905">
        <ele>66.8</ele>
        <time>2013-03-09T11:47:19Z</time>
      </trkpt>
      <trkpt lat="59.1782905" lon="17.8550312">
        <ele>69.2</ele>
        <time>2013-03-09T11:47:23Z</time>
      </trkpt>
      <trkpt lat="59.1783935" lon="17.855011">
        <ele>68</ele>
        <time>2013-03-09T11:47:25Z</time>
      </trkpt>
      <trkpt lat="59.1785084" lon="17.8549674">
        <ele>67.6</ele>
        <time>2013-03-09T11:47:27Z</time>
      </trkpt>
      <trkpt lat="59.178721" lon="17.854898">
        <ele>67.8</ele>
        <time>2013-03-09T11:47:31Z</time>
      </trkpt>
      <trkpt lat="59.1789324" lon="17.8548434">
        <ele>70.4</ele>
        <time>2013-03-09T11:47:35Z</time>
      </trkpt>
      <trkpt lat="59.1790188" lon="17.8547845">
        <ele>69.8</ele>
        <time>2013-03-09T11:47:37Z</time>
      </trkpt>
      <trkpt lat="59.1790888" lon="17.8546659">
        <ele>69.4</ele>
        <time>2013-03-09T11:47:39Z</time>
      </trkpt>
      <trkpt lat="59.1791692" lon="17.8544194">
        <ele>68</ele>
        <time>2013-03-09T11:47:42Z</time>
      </trkpt>
      <trkpt lat="59.1791808" lon="17.8543458">
        <ele>66.6</ele>
        <time>2013-03-09T11:47:43Z</time>
      </trkpt>
      <trkpt lat="59.1791944" lon="17.854271">
        <ele>65.4</ele>
        <time>2013-03-09T11:47:44Z</time>
      </trkpt>
      <trkpt lat="59.1792167" lon="17.8541337">
        <ele>65</ele>
        <time>2013-03-09T11:47:46Z</time>
      </trkpt>
      <trkpt lat="59.1792359" lon="17.8539013">
        <ele>64.4</ele>
        <time>2013-03-09T11:47:49Z</time>
      </trkpt>
      <trkpt lat="59.1792385" lon="17.853821">
        <ele>63.8</ele>
        <time>2013-03-09T11:47:50Z</time>
      </trkpt>
      <trkpt lat="59.1792338" lon="17.8534699">
        <ele>63.2</ele>
        <time>2013-03-09T11:47:54Z</time>
      </trkpt>
      <trkpt lat="59.1792419" lon="17.8530941">
        <ele>64.8</ele>
        <time>2013-03-09T11:47:59Z</time>
      </trkpt>
      <trkpt lat="59.1792518" lon="17.852762">
        <ele>64.6</ele>
        <time>2013-03-09T11:48:03Z</time>
      </trkpt>
      <trkpt lat="59.179264" lon="17.8525657">
        <ele>65.4</ele>
        <time>2013-03-09T11:48:05Z</time>
      </trkpt>
      <trkpt lat="59.1793201" lon="17.8523759">
        <ele>65.2</ele>
        <time>2013-03-09T11:48:08Z</time>
      </trkpt>
      <trkpt lat="59.1794752" lon="17.8521969">
        <ele>67.4</ele>
        <time>2013-03-09T11:48:13Z</time>
      </trkpt>
      <trkpt lat="59.1795067" lon="17.852156">
        <ele>67.2</ele>
        <time>2013-03-09T11:48:14Z</time>
      </trkpt>
      <trkpt lat="59.1796872" lon="17.8519246">
        <ele>69</ele>
        <time>2013-03-09T11:48:20Z</time>
      </trkpt>
      <trkpt lat="59.1798331" lon="17.8517283">
        <ele>66.6</ele>
        <time>2013-03-09T11:48:25Z</time>
      </trkpt>
      <trkpt lat="59.1800247" lon="17.8516058">
        <ele>61.8</ele>
        <time>2013-03-09T11:48:29Z</time>
      </trkpt>
      <trkpt lat="59.1800822" lon="17.8515765">
        <ele>60.8</ele>
        <time>2013-03-09T11:48:30Z</time>
      </trkpt>
      <trkpt lat="59.1802016" lon="17.8514848">
        <ele>57.6</ele>
        <time>2013-03-09T11:48:32Z</time>
      </trkpt>
      <trkpt lat="59.1803984" lon="17.8513905">
        <ele>53.4</ele>
        <time>2013-03-09T11:48:35Z</time>
      </trkpt>
      <trkpt lat="59.1806147" lon="17.851462">
        <ele>53.8</ele>
        <time>2013-03-09T11:48:38Z</time>
      </trkpt>
      <trkpt lat="59.1807309" lon="17.8518408">
        <ele>51</ele>
        <time>2013-03-09T11:48:41Z</time>
      </trkpt>
      <trkpt lat="59.1807159" lon="17.8523152">
        <ele>55</ele>
        <time>2013-03-09T11:48:46Z</time>
      </trkpt>
      <trkpt lat="59.1807127" lon="17.8523788">
        <ele>55.4</ele>
        <time>2013-03-09T11:48:47Z</time>
      </trkpt>
      <trkpt lat="59.1807344" lon="17.8525198">
        <ele>57</ele>
        <time>2013-03-09T11:48:49Z</time>
      </trkpt>
      <trkpt lat="59.1807645" lon="17.852685">
        <ele>60</ele>
        <time>2013-03-09T11:48:51Z</time>
      </trkpt>
      <trkpt lat="59.1808059" lon="17.8529828">
        <ele>61.6</ele>
        <time>2013-03-09T11:48:54Z</time>
      </trkpt>
      <trkpt lat="59.1808174" lon="17.8530931">
        <ele>61</ele>
        <time>2013-03-09T11:48:55Z</time>
      </trkpt>
      <trkpt lat="59.1808394" lon="17.8533083">
        <ele>60.8</ele>
        <time>2013-03-09T11:48:57Z</time>
      </trkpt>
      <trkpt lat="59.1808581" lon="17.8534735">
        <ele>61.4</ele>
        <time>2013-03-09T11:48:59Z</time>
      </trkpt>
      <trkpt lat="59.1808936" lon="17.8537554">
        <ele>62.6</ele>
        <time>2013-03-09T11:49:02Z</time>
      </trkpt>
      <trkpt lat="59.180899" lon="17.8538459">
        <ele>63</ele>
        <time>2013-03-09T11:49:03Z</time>
      </trkpt>
      <trkpt lat="59.1809524" lon="17.8541437">
        <ele>63.8</ele>
        <time>2013-03-09T11:49:06Z</time>
      </trkpt>
      <trkpt lat="59.1809667" lon="17.8542271">
        <ele>63.2</ele>
        <time>2013-03-09T11:49:07Z</time>
      </trkpt>
      <trkpt lat="59.1810238" lon="17.8544581">
        <ele>62.8</ele>
        <time>2013-03-09T11:49:10Z</time>
      </trkpt>
      <trkpt lat="59.1810525" lon="17.8545996">
        <ele>62.4</ele>
        <time>2013-03-09T11:49:12Z</time>
      </trkpt>
      <trkpt lat="59.1810813" lon="17.8547529">
        <ele>61.4</ele>
        <time>2013-03-09T11:49:14Z</time>
      </trkpt>
      <trkpt lat="59.1811457" lon="17.8549259">
        <ele>60.8</ele>
        <time>2013-03-09T11:49:17Z</time>
      </trkpt>
      <trkpt lat="59.181338" lon="17.8548695">
        <ele>58.8</ele>
        <time>2013-03-09T11:49:22Z</time>
      </trkpt>
      <trkpt lat="59.1815105" lon="17.8547927">
        <ele>57.6</ele>
        <time>2013-03-09T11:49:26Z</time>
      </trkpt>
      <trkpt lat="59.1815399" lon="17.8547732">
        <ele>57.6</ele>
        <time>2013-03-09T11:49:27Z</time>
      </trkpt>
      <trkpt lat="59.1816392" lon="17.8547098">
        <ele>58</ele>
        <time>2013-03-09T11:49:30Z</time>
      </trkpt>
      <trkpt lat="59.1817348" lon="17.8546789">
        <ele>58.2</ele>
        <time>2013-03-09T11:49:33Z</time>
      </trkpt>
      <trkpt lat="59.1819102" lon="17.8545649">
        <ele>61.2</ele>
        <time>2013-03-09T11:49:38Z</time>
      </trkpt>
      <trkpt lat="59.1819435" lon="17.8545306">
        <ele>61.8</ele>
        <time>2013-03-09T11:49:39Z</time>
      </trkpt>
      <trkpt lat="59.1820818" lon="17.8543753">
        <ele>63.4</ele>
        <time>2013-03-09T11:49:45Z</time>
      </trkpt>
      <trkpt lat="59.1822542" lon="17.8542366">
        <ele>62.8</ele>
        <time>2013-03-09T11:49:51Z</time>
      </trkpt>
      <trkpt lat="59.182284" lon="17.854236">
        <ele>61.6</ele>
        <time>2013-03-09T11:49:52Z</time>
      </trkpt>
      <trkpt lat="59.1824471" lon="17.8543074">
        <ele>58.8</ele>
        <time>2013-03-09T11:49:57Z</time>
      </trkpt>
      <trkpt lat="59.182544" lon="17.8543638">
        <ele>56.6</ele>
        <time>2013-03-09T11:50:00Z</time>
      </trkpt>
      <trkpt lat="59.1826268" lon="17.8544198">
        <ele>56</ele>
        <time>2013-03-09T11:50:03Z</time>
      </trkpt>
      <trkpt lat="59.1827946" lon="17.8545614">
        <ele>54.6</ele>
        <time>2013-03-09T11:50:08Z</time>
      </trkpt>
      <trkpt lat="59.1829562" lon="17.8548102">
        <ele>55.4</ele>
        <time>2013-03-09T11:50:13Z</time>
      </trkpt>
      <trkpt lat="59.1831364" lon="17.8549669">
        <ele>59.8</ele>
        <time>2013-03-09T11:50:19Z</time>
      </trkpt>
      <trkpt lat="59.1833271" lon="17.8550722">
        <ele>62.8</ele>
        <time>2013-03-09T11:50:26Z</time>
      </trkpt>
      <trkpt lat="59.1835012" lon="17.8552034">
        <ele>68.2</ele>
        <time>2013-03-09T11:50:34Z</time>
      </trkpt>
      <trkpt lat="59.1836271" lon="17.8553191">
        <ele>70.4</ele>
        <time>2013-03-09T11:50:39Z</time>
      </trkpt>
      <trkpt lat="59.1836771" lon="17.8553839">
        <ele>70.8</ele>
        <time>2013-03-09T11:50:41Z</time>
      </trkpt>
      <trkpt lat="59.1837995" lon="17.8556854">
        <ele>73.2</ele>
        <time>2013-03-09T11:50:48Z</time>
      </trkpt>
      <trkpt lat="59.183901" lon="17.8560542">
        <ele>74.6</ele>
        <time>2013-03-09T11:50:54Z</time>
      </trkpt>
      <trkpt lat="59.1840228" lon="17.8563639">
        <ele>75.8</ele>
        <time>2013-03-09T11:50:59Z</time>
      </trkpt>
      <trkpt lat="59.1840817" lon="17.856736">
        <ele>77.6</ele>
        <time>2013-03-09T11:51:04Z</time>
      </trkpt>
      <trkpt lat="59.1840942" lon="17.8570124">
        <ele>77.8</ele>
        <time>2013-03-09T11:51:07Z</time>
      </trkpt>
      <trkpt lat="59.18409" lon="17.857114">
        <ele>77.6</ele>
        <time>2013-03-09T11:51:08Z</time>
      </trkpt>
      <trkpt lat="59.1840896" lon="17.8573668">
        <ele>77.6</ele>
        <time>2013-03-09T11:51:11Z</time>
      </trkpt>
      <trkpt lat="59.1841118" lon="17.8575441">
        <ele>77.8</ele>
        <time>2013-03-09T11:51:13Z</time>
      </trkpt>
      <trkpt lat="59.1841574" lon="17.8579518">
        <ele>77.4</ele>
        <time>2013-03-09T11:51:17Z</time>
      </trkpt>
      <trkpt lat="59.1842144" lon="17.8583702">
        <ele>75.6</ele>
        <time>2013-03-09T11:51:20Z</time>
      </trkpt>
      <trkpt lat="59.1843337" lon="17.8587768">
        <ele>71.6</ele>
        <time>2013-03-09T11:51:23Z</time>
      </trkpt>
      <trkpt lat="59.1845513" lon="17.8590509">
        <ele>68.2</ele>
        <time>2013-03-09T11:51:26Z</time>
      </trkpt>
      <trkpt lat="59.1846926" lon="17.8592042">
        <ele>67</ele>
        <time>2013-03-09T11:51:28Z</time>
      </trkpt>
      <trkpt lat="59.1847511" lon="17.8592916">
        <ele>66.4</ele>
        <time>2013-03-09T11:51:29Z</time>
      </trkpt>
      <trkpt lat="59.1848408" lon="17.8596948">
        <ele>64.8</ele>
        <time>2013-03-09T11:51:33Z</time>
      </trkpt>
      <trkpt lat="59.1848367" lon="17.8598863">
        <ele>63.8</ele>
        <time>2013-03-09T11:51:35Z</time>
      </trkpt>
      <trkpt lat="59.1848346" lon="17.859945">
        <ele>63.8</ele>
        <time>2013-03-09T11:51:36Z</time>
      </trkpt>
      <trkpt lat="59.1848531" lon="17.8600883">
        <ele>63.8</ele>
        <time>2013-03-09T11:51:38Z</time>
      </trkpt>
      <trkpt lat="59.1848918" lon="17.8604276">
        <ele>62.6</ele>
        <time>2013-03-09T11:51:42Z</time>
      </trkpt>
      <trkpt lat="59.1849149" lon="17.8606185">
        <ele>63</ele>
        <time>2013-03-09T11:51:44Z</time>
      </trkpt>
      <trkpt lat="59.1849329" lon="17.8608644">
        <ele>62</ele>
        <time>2013-03-09T11:51:46Z</time>
      </trkpt>
      <trkpt lat="59.184937" lon="17.8611452">
        <ele>62</ele>
        <time>2013-03-09T11:51:48Z</time>
      </trkpt>
      <trkpt lat="59.1849261" lon="17.8612931">
        <ele>61.8</ele>
        <time>2013-03-09T11:51:49Z</time>
      </trkpt>
      <trkpt lat="59.1848882" lon="17.8617537">
        <ele>61</ele>
        <time>2013-03-09T11:51:52Z</time>
      </trkpt>
      <trkpt lat="59.1848636" lon="17.8619066">
        <ele>59.4</ele>
        <time>2013-03-09T11:51:53Z</time>
      </trkpt>
      <trkpt lat="59.1847946" lon="17.8621621">
        <ele>58.8</ele>
        <time>2013-03-09T11:51:55Z</time>
      </trkpt>
      <trkpt lat="59.1846329" lon="17.8623883">
        <ele>56.6</ele>
        <time>2013-03-09T11:51:58Z</time>
      </trkpt>
      <trkpt lat="59.1844756" lon="17.8626281">
        <ele>55.6</ele>
        <time>2013-03-09T11:52:01Z</time>
      </trkpt>
      <trkpt lat="59.1842844" lon="17.8629081">
        <ele>53.8</ele>
        <time>2013-03-09T11:52:05Z</time>
      </trkpt>
      <trkpt lat="59.184155" lon="17.8630958">
        <ele>52.4</ele>
        <time>2013-03-09T11:52:08Z</time>
      </trkpt>
      <trkpt lat="59.1841254" lon="17.8631581">
        <ele>51.8</ele>
        <time>2013-03-09T11:52:09Z</time>
      </trkpt>
      <trkpt lat="59.1840621" lon="17.8635617">
        <ele>49.4</ele>
        <time>2013-03-09T11:52:14Z</time>
      </trkpt>
      <trkpt lat="59.1841039" lon="17.8638787">
        <ele>49.8</ele>
        <time>2013-03-09T11:52:17Z</time>
      </trkpt>
      <trkpt lat="59.1841243" lon="17.8641124">
        <ele>49.8</ele>
        <time>2013-03-09T11:52:19Z</time>
      </trkpt>
      <trkpt lat="59.1841249" lon="17.8642139">
        <ele>49.4</ele>
        <time>2013-03-09T11:52:20Z</time>
      </trkpt>
      <trkpt lat="59.1841107" lon="17.8643168">
        <ele>49</ele>
        <time>2013-03-09T11:52:21Z</time>
      </trkpt>
      <trkpt lat="59.1839941" lon="17.8647014">
        <ele>48</ele>
        <time>2013-03-09T11:52:25Z</time>
      </trkpt>
      <trkpt lat="59.1838462" lon="17.864924">
        <ele>47</ele>
        <time>2013-03-09T11:52:28Z</time>
      </trkpt>
      <trkpt lat="59.1837089" lon="17.8651523">
        <ele>46.8</ele>
        <time>2013-03-09T11:52:31Z</time>
      </trkpt>
      <trkpt lat="59.1836727" lon="17.8652317">
        <ele>46.2</ele>
        <time>2013-03-09T11:52:32Z</time>
      </trkpt>
      <trkpt lat="59.1835833" lon="17.8655015">
        <ele>45</ele>
        <time>2013-03-09T11:52:35Z</time>
      </trkpt>
      <trkpt lat="59.1835445" lon="17.8655753">
        <ele>44.8</ele>
        <time>2013-03-09T11:52:36Z</time>
      </trkpt>
      <trkpt lat="59.1833976" lon="17.8657235">
        <ele>44.6</ele>
        <time>2013-03-09T11:52:39Z</time>
      </trkpt>
      <trkpt lat="59.1833396" lon="17.8657428">
        <ele>43.4</ele>
        <time>2013-03-09T11:52:40Z</time>
      </trkpt>
      <trkpt lat="59.1831847" lon="17.8658138">
        <ele>43</ele>
        <time>2013-03-09T11:52:43Z</time>
      </trkpt>
      <trkpt lat="59.1831461" lon="17.8658538">
        <ele>43.4</ele>
        <time>2013-03-09T11:52:44Z</time>
      </trkpt>
      <trkpt lat="59.1830433" lon="17.866083">
        <ele>41.4</ele>
        <time>2013-03-09T11:52:48Z</time>
      </trkpt>
      <trkpt lat="59.183028" lon="17.8661474">
        <ele>41.6</ele>
        <time>2013-03-09T11:52:49Z</time>
      </trkpt>
      <trkpt lat="59.1829835" lon="17.866346">
        <ele>40.8</ele>
        <time>2013-03-09T11:52:52Z</time>
      </trkpt>
      <trkpt lat="59.1829375" lon="17.8664874">
        <ele>41.4</ele>
        <time>2013-03-09T11:52:54Z</time>
      </trkpt>
      <trkpt lat="59.1827928" lon="17.8667977">
        <ele>44</ele>
        <time>2013-03-09T11:52:59Z</time>
      </trkpt>
      <trkpt lat="59.1826396" lon="17.8670349">
        <ele>44.8</ele>
        <time>2013-03-09T11:53:04Z</time>
      </trkpt>
      <trkpt lat="59.1826044" lon="17.8670842">
        <ele>45.6</ele>
        <time>2013-03-09T11:53:05Z</time>
      </trkpt>
      <trkpt lat="59.1824777" lon="17.8672668">
        <ele>47</ele>
        <time>2013-03-09T11:53:09Z</time>
      </trkpt>
      <trkpt lat="59.182331" lon="17.8674929">
        <ele>47.8</ele>
        <time>2013-03-09T11:53:13Z</time>
      </trkpt>
      <trkpt lat="59.1822011" lon="17.8677493">
        <ele>49.8</ele>
        <time>2013-03-09T11:53:17Z</time>
      </trkpt>
      <trkpt lat="59.1821647" lon="17.867809">
        <ele>50.6</ele>
        <time>2013-03-09T11:53:18Z</time>
      </trkpt>
      <trkpt lat="59.1820393" lon="17.8679799">
        <ele>52.4</ele>
        <time>2013-03-09T11:53:22Z</time>
      </trkpt>
      <trkpt lat="59.1819756" lon="17.8680475">
        <ele>52.6</ele>
        <time>2013-03-09T11:53:24Z</time>
      </trkpt>
      <trkpt lat="59.1818693" lon="17.8681685">
        <ele>50.4</ele>
        <time>2013-03-09T11:53:27Z</time>
      </trkpt>
      <trkpt lat="59.1818383" lon="17.8682176">
        <ele>50</ele>
        <time>2013-03-09T11:53:28Z</time>
      </trkpt>
      <trkpt lat="59.1817118" lon="17.8684232">
        <ele>49.6</ele>
        <time>2013-03-09T11:53:32Z</time>
      </trkpt>
      <trkpt lat="59.1816679" lon="17.8684687">
        <ele>49.4</ele>
        <time>2013-03-09T11:53:33Z</time>
      </trkpt>
      <trkpt lat="59.1816249" lon="17.8685077">
        <ele>49.2</ele>
        <time>2013-03-09T11:53:34Z</time>
      </trkpt>
      <trkpt lat="59.1815287" lon="17.8685881">
        <ele>49.2</ele>
        <time>2013-03-09T11:53:36Z</time>
      </trkpt>
      <trkpt lat="59.1814897" lon="17.8686262">
        <ele>49</ele>
        <time>2013-03-09T11:53:37Z</time>
      </trkpt>
      <trkpt lat="59.1814222" lon="17.8687033">
        <ele>48.4</ele>
        <time>2013-03-09T11:53:39Z</time>
      </trkpt>
      <trkpt lat="59.1813541" lon="17.8687993">
        <ele>48.4</ele>
        <time>2013-03-09T11:53:41Z</time>
      </trkpt>
      <trkpt lat="59.1813207" lon="17.8688439">
        <ele>48.2</ele>
        <time>2013-03-09T11:53:42Z</time>
      </trkpt>
      <trkpt lat="59.1812705" lon="17.8691304">
        <ele>47.4</ele>
        <time>2013-03-09T11:53:46Z</time>
      </trkpt>
      <trkpt lat="59.1813467" lon="17.86948">
        <ele>46.2</ele>
        <time>2013-03-09T11:53:51Z</time>
      </trkpt>
      <trkpt lat="59.1813912" lon="17.8696168">
        <ele>45</ele>
        <time>2013-03-09T11:53:53Z</time>
      </trkpt>
      <trkpt lat="59.1814365" lon="17.8697722">
        <ele>44.4</ele>
        <time>2013-03-09T11:53:55Z</time>
      </trkpt>
      <trkpt lat="59.1815281" lon="17.8700797">
        <ele>43.2</ele>
        <time>2013-03-09T11:54:00Z</time>
      </trkpt>
      <trkpt lat="59.1815492" lon="17.8701444">
        <ele>43</ele>
        <time>2013-03-09T11:54:01Z</time>
      </trkpt>
      <trkpt lat="59.181656" lon="17.870507">
        <ele>42.2</ele>
        <time>2013-03-09T11:54:06Z</time>
      </trkpt>
      <trkpt lat="59.1816938" lon="17.8706335">
        <ele>41.6</ele>
        <time>2013-03-09T11:54:08Z</time>
      </trkpt>
      <trkpt lat="59.1817378" lon="17.8707839">
        <ele>42</ele>
        <time>2013-03-09T11:54:10Z</time>
      </trkpt>
      <trkpt lat="59.1817564" lon="17.8708597">
        <ele>42.2</ele>
        <time>2013-03-09T11:54:11Z</time>
      </trkpt>
      <trkpt lat="59.1817954" lon="17.8710044">
        <ele>42.2</ele>
        <time>2013-03-09T11:54:13Z</time>
      </trkpt>
      <trkpt lat="59.1818476" lon="17.8711908">
        <ele>43.4</ele>
        <time>2013-03-09T11:54:16Z</time>
      </trkpt>
      <trkpt lat="59.181928" lon="17.8715036">
        <ele>43.4</ele>
        <time>2013-03-09T11:54:21Z</time>
      </trkpt>
      <trkpt lat="59.1820284" lon="17.8718492">
        <ele>41.6</ele>
        <time>2013-03-09T11:54:26Z</time>
      </trkpt>
      <trkpt lat="59.1821435" lon="17.8721622">
        <ele>40.4</ele>
        <time>2013-03-09T11:54:31Z</time>
      </trkpt>
      <trkpt lat="59.182232" lon="17.8724602">
        <ele>40.4</ele>
        <time>2013-03-09T11:54:36Z</time>
      </trkpt>
      <trkpt lat="59.1822693" lon="17.8728481">
        <ele>40</ele>
        <time>2013-03-09T11:54:42Z</time>
      </trkpt>
      <trkpt lat="59.1822926" lon="17.8732568">
        <ele>41.2</ele>
        <time>2013-03-09T11:54:48Z</time>
      </trkpt>
      <trkpt lat="59.1823366" lon="17.8736634">
        <ele>42</ele>
        <time>2013-03-09T11:54:55Z</time>
      </trkpt>
      <trkpt lat="59.1823833" lon="17.8740053">
        <ele>46.2</ele>
        <time>2013-03-09T11:55:02Z</time>
      </trkpt>
      <trkpt lat="59.1823822" lon="17.8741903">
        <ele>49.2</ele>
        <time>2013-03-09T11:55:06Z</time>
      </trkpt>
      <trkpt lat="59.1823849" lon="17.8743704">
        <ele>51.2</ele>
        <time>2013-03-09T11:55:10Z</time>
      </trkpt>
      <trkpt lat="59.1823834" lon="17.8744518">
        <ele>52.2</ele>
        <time>2013-03-09T11:55:12Z</time>
      </trkpt>
      <trkpt lat="59.1823417" lon="17.8746937">
        <ele>53.4</ele>
        <time>2013-03-09T11:55:17Z</time>
      </trkpt>
      <trkpt lat="59.1822417" lon="17.8750118">
        <ele>53.2</ele>
        <time>2013-03-09T11:55:23Z</time>
      </trkpt>
      <trkpt lat="59.182173" lon="17.8753495">
        <ele>54.2</ele>
        <time>2013-03-09T11:55:28Z</time>
      </trkpt>
      <trkpt lat="59.1821678" lon="17.8757672">
        <ele>57</ele>
        <time>2013-03-09T11:55:34Z</time>
      </trkpt>
      <trkpt lat="59.182222" lon="17.8761293">
        <ele>59.8</ele>
        <time>2013-03-09T11:55:40Z</time>
      </trkpt>
      <trkpt lat="59.1822745" lon="17.8764653">
        <ele>60.4</ele>
        <time>2013-03-09T11:55:45Z</time>
      </trkpt>
      <trkpt lat="59.1823225" lon="17.8768093">
        <ele>61.4</ele>
        <time>2013-03-09T11:55:50Z</time>
      </trkpt>
      <trkpt lat="59.1823377" lon="17.8769399">
        <ele>62</ele>
        <time>2013-03-09T11:55:52Z</time>
      </trkpt>
      <trkpt lat="59.1823637" lon="17.8771553">
        <ele>62.2</ele>
        <time>2013-03-09T11:55:55Z</time>
      </trkpt>
      <trkpt lat="59.1823834" lon="17.8772953">
        <ele>61.6</ele>
        <time>2013-03-09T11:55:57Z</time>
      </trkpt>
      <trkpt lat="59.1824031" lon="17.8774972">
        <ele>60.8</ele>
        <time>2013-03-09T11:56:00Z</time>
      </trkpt>
      <trkpt lat="59.1824356" lon="17.8779069">
        <ele>60.4</ele>
        <time>2013-03-09T11:56:06Z</time>
      </trkpt>
      <trkpt lat="59.1824843" lon="17.8783092">
        <ele>57.8</ele>
        <time>2013-03-09T11:56:11Z</time>
      </trkpt>
      <trkpt lat="59.1825266" lon="17.8786294">
        <ele>57</ele>
        <time>2013-03-09T11:56:15Z</time>
      </trkpt>
      <trkpt lat="59.1825351" lon="17.8787183">
        <ele>57.2</ele>
        <time>2013-03-09T11:56:16Z</time>
      </trkpt>
      <trkpt lat="59.1825983" lon="17.8790273">
        <ele>57</ele>
        <time>2013-03-09T11:56:20Z</time>
      </trkpt>
      <trkpt lat="59.1826199" lon="17.8790963">
        <ele>56.6</ele>
        <time>2013-03-09T11:56:21Z</time>
      </trkpt>
      <trkpt lat="59.1826775" lon="17.8792865">
        <ele>54.8</ele>
        <time>2013-03-09T11:56:24Z</time>
      </trkpt>
      <trkpt lat="59.1827169" lon="17.8794364">
        <ele>54.8</ele>
        <time>2013-03-09T11:56:26Z</time>
      </trkpt>
      <trkpt lat="59.1827386" lon="17.8795">
        <ele>53.8</ele>
        <time>2013-03-09T11:56:27Z</time>
      </trkpt>
      <trkpt lat="59.1828526" lon="17.8796962">
        <ele>56.2</ele>
        <time>2013-03-09T11:56:31Z</time>
      </trkpt>
      <trkpt lat="59.183041" lon="17.8798748">
        <ele>56.4</ele>
        <time>2013-03-09T11:56:38Z</time>
      </trkpt>
      <trkpt lat="59.1832313" lon="17.8800167">
        <ele>56.6</ele>
        <time>2013-03-09T11:56:45Z</time>
      </trkpt>
      <trkpt lat="59.1834021" lon="17.8801669">
        <ele>57.6</ele>
        <time>2013-03-09T11:56:50Z</time>
      </trkpt>
      <trkpt lat="59.183582" lon="17.8801655">
        <ele>58.8</ele>
        <time>2013-03-09T11:56:57Z</time>
      </trkpt>
      <trkpt lat="59.1837307" lon="17.879979">
        <ele>59.4</ele>
        <time>2013-03-09T11:57:04Z</time>
      </trkpt>
      <trkpt lat="59.1838519" lon="17.8797236">
        <ele>57.6</ele>
        <time>2013-03-09T11:57:15Z</time>
      </trkpt>
      <trkpt lat="59.1840051" lon="17.879478">
        <ele>59.2</ele>
        <time>2013-03-09T11:57:20Z</time>
      </trkpt>
      <trkpt lat="59.1840363" lon="17.8790865">
        <ele>61.2</ele>
        <time>2013-03-09T11:57:27Z</time>
      </trkpt>
      <trkpt lat="59.1839229" lon="17.8787372">
        <ele>63.4</ele>
        <time>2013-03-09T11:57:35Z</time>
      </trkpt>
      <trkpt lat="59.1838709" lon="17.8783834">
        <ele>64.4</ele>
        <time>2013-03-09T11:57:41Z</time>
      </trkpt>
      <trkpt lat="59.1838507" lon="17.878037">
        <ele>64.6</ele>
        <time>2013-03-09T11:57:48Z</time>
      </trkpt>
      <trkpt lat="59.1839183" lon="17.8776893">
        <ele>64.4</ele>
        <time>2013-03-09T11:57:54Z</time>
      </trkpt>
      <trkpt lat="59.1840538" lon="17.8773991">
        <ele>62.4</ele>
        <time>2013-03-09T11:57:58Z</time>
      </trkpt>
      <trkpt lat="59.1841269" lon="17.8772584">
        <ele>60.8</ele>
        <time>2013-03-09T11:58:00Z</time>
      </trkpt>
      <trkpt lat="59.1842141" lon="17.8772268">
        <ele>61.6</ele>
        <time>2013-03-09T11:58:02Z</time>
      </trkpt>
      <trkpt lat="59.1842829" lon="17.8772041">
        <ele>60.4</ele>
        <time>2013-03-09T11:58:04Z</time>
      </trkpt>
      <trkpt lat="59.1843901" lon="17.8770769">
        <ele>60.8</ele>
        <time>2013-03-09T11:58:08Z</time>
      </trkpt>
      <trkpt lat="59.1844935" lon="17.8768716">
        <ele>60.8</ele>
        <time>2013-03-09T11:58:12Z</time>
      </trkpt>
      <trkpt lat="59.1845387" lon="17.8768">
        <ele>61.2</ele>
        <time>2013-03-09T11:58:13Z</time>
      </trkpt>
      <trkpt lat="59.1847198" lon="17.87659">
        <ele>62.8</ele>
        <time>2013-03-09T11:58:17Z</time>
      </trkpt>
      <trkpt lat="59.184797" lon="17.8765073">
        <ele>62.8</ele>
        <time>2013-03-09T11:58:19Z</time>
      </trkpt>
      <trkpt lat="59.184888" lon="17.8763069">
        <ele>65.2</ele>
        <time>2013-03-09T11:58:21Z</time>
      </trkpt>
      <trkpt lat="59.1848543" lon="17.8759587">
        <ele>66.4</ele>
        <time>2013-03-09T11:58:24Z</time>
      </trkpt>
      <trkpt lat="59.1848889" lon="17.8755722">
        <ele>65</ele>
        <time>2013-03-09T11:58:27Z</time>
      </trkpt>
      <trkpt lat="59.184903" lon="17.8754247">
        <ele>64.4</ele>
        <time>2013-03-09T11:58:28Z</time>
      </trkpt>
      <trkpt lat="59.1849072" lon="17.8751294">
        <ele>63</ele>
        <time>2013-03-09T11:58:30Z</time>
      </trkpt>
      <trkpt lat="59.1849014" lon="17.8746967">
        <ele>60.4</ele>
        <time>2013-03-09T11:58:33Z</time>
      </trkpt>
      <trkpt lat="59.184908" lon="17.8742632">
        <ele>56.2</ele>
        <time>2013-03-09T11:58:36Z</time>
      </trkpt>
      <trkpt lat="59.185024" lon="17.8739281">
        <ele>52.2</ele>
        <time>2013-03-09T11:58:40Z</time>
      </trkpt>
      <trkpt lat="59.1851531" lon="17.8738406">
        <ele>49</ele>
        <time>2013-03-09T11:58:43Z</time>
      </trkpt>
      <trkpt lat="59.1852381" lon="17.8737939">
        <ele>45.4</ele>
        <time>2013-03-09T11:58:45Z</time>
      </trkpt>
      <trkpt lat="59.1853045" lon="17.8737216">
        <ele>36</ele>
        <time>2013-03-09T11:58:47Z</time>
      </trkpt>
      <trkpt lat="59.1854141" lon="17.8736256">
        <ele>27.6</ele>
        <time>2013-03-09T11:58:49Z</time>
      </trkpt>
      <trkpt lat="59.1856064" lon="17.8735157">
        <ele>17.6</ele>
        <time>2013-03-09T11:58:52Z</time>
      </trkpt>
      <trkpt lat="59.1857251" lon="17.8734894">
        <ele>12.2</ele>
        <time>2013-03-09T11:58:54Z</time>
      </trkpt>
      <trkpt lat="59.1858248" lon="17.8735415">
        <ele>9.6</ele>
        <time>2013-03-09T11:58:56Z</time>
      </trkpt>
      <trkpt lat="59.1858948" lon="17.8735812">
        <ele>12</ele>
        <time>2013-03-09T11:58:58Z</time>
      </trkpt>
      <trkpt lat="59.1859208" lon="17.8736194">
        <ele>13.4</ele>
        <time>2013-03-09T11:58:59Z</time>
      </trkpt>
      <trkpt lat="59.1860092" lon="17.8737482">
        <ele>21</ele>
        <time>2013-03-09T11:59:02Z</time>
      </trkpt>
      <trkpt lat="59.1862109" lon="17.8738049">
        <ele>21.2</ele>
        <time>2013-03-09T11:59:07Z</time>
      </trkpt>
      <trkpt lat="59.1862905" lon="17.8737536">
        <ele>18.4</ele>
        <time>2013-03-09T11:59:09Z</time>
      </trkpt>
      <trkpt lat="59.186417" lon="17.8736791">
        <ele>18.4</ele>
        <time>2013-03-09T11:59:13Z</time>
      </trkpt>
      <trkpt lat="59.1864585" lon="17.8736865">
        <ele>20.6</ele>
        <time>2013-03-09T11:59:15Z</time>
      </trkpt>
      <trkpt lat="59.1865068" lon="17.8739343">
        <ele>30</ele>
        <time>2013-03-09T11:59:19Z</time>
      </trkpt>
      <trkpt lat="59.1866316" lon="17.874243">
        <ele>42.4</ele>
        <time>2013-03-09T11:59:23Z</time>
      </trkpt>
      <trkpt lat="59.1867489" lon="17.8744689">
        <ele>46.4</ele>
        <time>2013-03-09T11:59:26Z</time>
      </trkpt>
      <trkpt lat="59.1867753" lon="17.8745508">
        <ele>48.8</ele>
        <time>2013-03-09T11:59:27Z</time>
      </trkpt>
      <trkpt lat="59.1868366" lon="17.8747937">
        <ele>58</ele>
        <time>2013-03-09T11:59:31Z</time>
      </trkpt>
      <trkpt lat="59.1868973" lon="17.8748771">
        <ele>60</ele>
        <time>2013-03-09T11:59:33Z</time>
      </trkpt>
      <trkpt lat="59.1870594" lon="17.8749945">
        <ele>65.4</ele>
        <time>2013-03-09T11:59:37Z</time>
      </trkpt>
      <trkpt lat="59.1870951" lon="17.8750205">
        <ele>67</ele>
        <time>2013-03-09T11:59:38Z</time>
      </trkpt>
      <trkpt lat="59.1872851" lon="17.8751506">
        <ele>71.2</ele>
        <time>2013-03-09T11:59:45Z</time>
      </trkpt>
      <trkpt lat="59.1873929" lon="17.8750277">
        <ele>70</ele>
        <time>2013-03-09T11:59:50Z</time>
      </trkpt>
      <trkpt lat="59.1874415" lon="17.8749367">
        <ele>69</ele>
        <time>2013-03-09T11:59:52Z</time>
      </trkpt>
      <trkpt lat="59.1876194" lon="17.8747568">
        <ele>69.6</ele>
        <time>2013-03-09T11:59:59Z</time>
      </trkpt>
      <trkpt lat="59.187678" lon="17.8747585">
        <ele>69.2</ele>
        <time>2013-03-09T12:00:01Z</time>
      </trkpt>
      <trkpt lat="59.1877876" lon="17.8747538">
        <ele>68.6</ele>
        <time>2013-03-09T12:00:04Z</time>
      </trkpt>
      <trkpt lat="59.1879833" lon="17.8746875">
        <ele>66</ele>
        <time>2013-03-09T12:00:10Z</time>
      </trkpt>
      <trkpt lat="59.1881519" lon="17.874742">
        <ele>62.6</ele>
        <time>2013-03-09T12:00:14Z</time>
      </trkpt>
      <trkpt lat="59.188372" lon="17.8747725">
        <ele>58.8</ele>
        <time>2013-03-09T12:00:19Z</time>
      </trkpt>
      <trkpt lat="59.1885177" lon="17.8749233">
        <ele>57</ele>
        <time>2013-03-09T12:00:23Z</time>
      </trkpt>
      <trkpt lat="59.1885565" lon="17.8749635">
        <ele>57</ele>
        <time>2013-03-09T12:00:24Z</time>
      </trkpt>
      <trkpt lat="59.1886425" lon="17.8750469">
        <ele>57.8</ele>
        <time>2013-03-09T12:00:26Z</time>
      </trkpt>
      <trkpt lat="59.1887349" lon="17.8750502">
        <ele>56.2</ele>
        <time>2013-03-09T12:00:29Z</time>
      </trkpt>
      <trkpt lat="59.1888532" lon="17.8750078">
        <ele>55.4</ele>
        <time>2013-03-09T12:00:32Z</time>
      </trkpt>
      <trkpt lat="59.1889106" lon="17.8749521">
        <ele>55.2</ele>
        <time>2013-03-09T12:00:34Z</time>
      </trkpt>
      <trkpt lat="59.1889813" lon="17.874865">
        <ele>57.4</ele>
        <time>2013-03-09T12:00:36Z</time>
      </trkpt>
      <trkpt lat="59.1890689" lon="17.874747">
        <ele>57</ele>
        <time>2013-03-09T12:00:39Z</time>
      </trkpt>
      <trkpt lat="59.1892434" lon="17.8747914">
        <ele>55.2</ele>
        <time>2013-03-09T12:00:44Z</time>
      </trkpt>
      <trkpt lat="59.189418" lon="17.8749559">
        <ele>59</ele>
        <time>2013-03-09T12:00:49Z</time>
      </trkpt>
      <trkpt lat="59.1895842" lon="17.8751336">
        <ele>62.4</ele>
        <time>2013-03-09T12:00:54Z</time>
      </trkpt>
      <trkpt lat="59.1896162" lon="17.8751662">
        <ele>62.6</ele>
        <time>2013-03-09T12:00:55Z</time>
      </trkpt>
      <trkpt lat="59.1897301" lon="17.8753625">
        <ele>64.6</ele>
        <time>2013-03-09T12:01:00Z</time>
      </trkpt>
      <trkpt lat="59.1898017" lon="17.8754614">
        <ele>66.2</ele>
        <time>2013-03-09T12:01:04Z</time>
      </trkpt>
      <trkpt lat="59.1899031" lon="17.8755485">
        <ele>67.2</ele>
        <time>2013-03-09T12:01:09Z</time>
      </trkpt>
      <trkpt lat="59.1900826" lon="17.8757312">
        <ele>67.4</ele>
        <time>2013-03-09T12:01:19Z</time>
      </trkpt>
      <trkpt lat="59.1902392" lon="17.8756882">
        <ele>67</ele>
        <time>2013-03-09T12:01:29Z</time>
      </trkpt>
      <trkpt lat="59.1902648" lon="17.8756743">
        <ele>67.8</ele>
        <time>2013-03-09T12:01:31Z</time>
      </trkpt>
      <trkpt lat="59.1902897" lon="17.8756645">
        <ele>67.2</ele>
        <time>2013-03-09T12:01:33Z</time>
      </trkpt>
      <trkpt lat="59.190312" lon="17.875638">
        <ele>68.4</ele>
        <time>2013-03-09T12:01:35Z</time>
      </trkpt>
      <trkpt lat="59.1903395" lon="17.8755946">
        <ele>69.4</ele>
        <time>2013-03-09T12:01:37Z</time>
      </trkpt>
      <trkpt lat="59.1904226" lon="17.8755028">
        <ele>73</ele>
        <time>2013-03-09T12:01:43Z</time>
      </trkpt>
      <trkpt lat="59.1905079" lon="17.8752587">
        <ele>77.2</ele>
        <time>2013-03-09T12:01:51Z</time>
      </trkpt>
      <trkpt lat="59.1905062" lon="17.8752268">
        <ele>77.8</ele>
        <time>2013-03-09T12:01:52Z</time>
      </trkpt>
      <trkpt lat="59.190387" lon="17.8749673">
        <ele>81.8</ele>
        <time>2013-03-09T12:01:59Z</time>
      </trkpt>
      <trkpt lat="59.1903487" lon="17.8746832">
        <ele>80.4</ele>
        <time>2013-03-09T12:02:04Z</time>
      </trkpt>
      <trkpt lat="59.1903413" lon="17.8745974">
        <ele>79.6</ele>
        <time>2013-03-09T12:02:06Z</time>
      </trkpt>
      <trkpt lat="59.190358" lon="17.8742053">
        <ele>79.6</ele>
        <time>2013-03-09T12:02:13Z</time>
      </trkpt>
      <trkpt lat="59.1903633" lon="17.8738474">
        <ele>79.2</ele>
        <time>2013-03-09T12:02:18Z</time>
      </trkpt>
      <trkpt lat="59.1904693" lon="17.8735203">
        <ele>78.8</ele>
        <time>2013-03-09T12:02:24Z</time>
      </trkpt>
      <trkpt lat="59.1904875" lon="17.8734648">
        <ele>78.6</ele>
        <time>2013-03-09T12:02:25Z</time>
      </trkpt>
      <trkpt lat="59.1905236" lon="17.8731551">
        <ele>79.6</ele>
        <time>2013-03-09T12:02:31Z</time>
      </trkpt>
      <trkpt lat="59.1905285" lon="17.8730188">
        <ele>79.6</ele>
        <time>2013-03-09T12:02:33Z</time>
      </trkpt>
      <trkpt lat="59.1906046" lon="17.8728228">
        <ele>77.8</ele>
        <time>2013-03-09T12:02:39Z</time>
      </trkpt>
      <trkpt lat="59.1906227" lon="17.8727811">
        <ele>78.4</ele>
        <time>2013-03-09T12:02:40Z</time>
      </trkpt>
      <trkpt lat="59.1907312" lon="17.8725524">
        <ele>80.2</ele>
        <time>2013-03-09T12:02:46Z</time>
      </trkpt>
      <trkpt lat="59.1907536" lon="17.8725335">
        <ele>76.8</ele>
        <time>2013-03-09T12:02:48Z</time>
      </trkpt>
      <trkpt lat="59.1908839" lon="17.8726804">
        <ele>76</ele>
        <time>2013-03-09T12:02:53Z</time>
      </trkpt>
      <trkpt lat="59.1909528" lon="17.8727543">
        <ele>75.6</ele>
        <time>2013-03-09T12:02:56Z</time>
      </trkpt>
      <trkpt lat="59.191062" lon="17.8727173">
        <ele>74.4</ele>
        <time>2013-03-09T12:02:58Z</time>
      </trkpt>
      <trkpt lat="59.1912536" lon="17.872633">
        <ele>69.6</ele>
        <time>2013-03-09T12:03:02Z</time>
      </trkpt>
      <trkpt lat="59.1913314" lon="17.8726008">
        <ele>63.2</ele>
        <time>2013-03-09T12:03:04Z</time>
      </trkpt>
      <trkpt lat="59.1914515" lon="17.8726187">
        <ele>59.4</ele>
        <time>2013-03-09T12:03:06Z</time>
      </trkpt>
      <trkpt lat="59.1916609" lon="17.8726966">
        <ele>58.6</ele>
        <time>2013-03-09T12:03:09Z</time>
      </trkpt>
      <trkpt lat="59.1918676" lon="17.8727875">
        <ele>62</ele>
        <time>2013-03-09T12:03:12Z</time>
      </trkpt>
      <trkpt lat="59.1921022" lon="17.8729232">
        <ele>59</ele>
        <time>2013-03-09T12:03:16Z</time>
      </trkpt>
      <trkpt lat="59.1923033" lon="17.8729387">
        <ele>57</ele>
        <time>2013-03-09T12:03:19Z</time>
      </trkpt>
      <trkpt lat="59.1924213" lon="17.872924">
        <ele>55.2</ele>
        <time>2013-03-09T12:03:21Z</time>
      </trkpt>
      <trkpt lat="59.192515" lon="17.8728549">
        <ele>54.8</ele>
        <time>2013-03-09T12:03:23Z</time>
      </trkpt>
      <trkpt lat="59.1926321" lon="17.8728005">
        <ele>56.2</ele>
        <time>2013-03-09T12:03:25Z</time>
      </trkpt>
      <trkpt lat="59.1926927" lon="17.8727927">
        <ele>57</ele>
        <time>2013-03-09T12:03:26Z</time>
      </trkpt>
      <trkpt lat="59.1928689" lon="17.8728992">
        <ele>58.6</ele>
        <time>2013-03-09T12:03:30Z</time>
      </trkpt>
      <trkpt lat="59.1929088" lon="17.872947">
        <ele>59.2</ele>
        <time>2013-03-09T12:03:31Z</time>
      </trkpt>
      <trkpt lat="59.1929523" lon="17.8729801">
        <ele>59.8</ele>
        <time>2013-03-09T12:03:32Z</time>
      </trkpt>
      <trkpt lat="59.1930762" lon="17.8729703">
        <ele>59</ele>
        <time>2013-03-09T12:03:35Z</time>
      </trkpt>
      <trkpt lat="59.1931171" lon="17.8729386">
        <ele>58</ele>
        <time>2013-03-09T12:03:36Z</time>
      </trkpt>
      <trkpt lat="59.1931553" lon="17.8729159">
        <ele>57.8</ele>
        <time>2013-03-09T12:03:37Z</time>
      </trkpt>
      <trkpt lat="59.1932739" lon="17.8730023">
        <ele>55.8</ele>
        <time>2013-03-09T12:03:45Z</time>
      </trkpt>
      <trkpt lat="59.1932943" lon="17.8730179">
        <ele>58.6</ele>
        <time>2013-03-09T12:03:46Z</time>
      </trkpt>
      <trkpt lat="59.1934147" lon="17.8731965">
        <ele>64</ele>
        <time>2013-03-09T12:03:53Z</time>
      </trkpt>
      <trkpt lat="59.1935215" lon="17.8734304">
        <ele>68.4</ele>
        <time>2013-03-09T12:03:58Z</time>
      </trkpt>
      <trkpt lat="59.1935564" lon="17.8734657">
        <ele>68.4</ele>
        <time>2013-03-09T12:03:59Z</time>
      </trkpt>
      <trkpt lat="59.1937444" lon="17.8735125">
        <ele>69.6</ele>
        <time>2013-03-09T12:04:04Z</time>
      </trkpt>
      <trkpt lat="59.1939276" lon="17.8733884">
        <ele>71</ele>
        <time>2013-03-09T12:04:09Z</time>
      </trkpt>
      <trkpt lat="59.1941038" lon="17.8732571">
        <ele>69.6</ele>
        <time>2013-03-09T12:04:13Z</time>
      </trkpt>
      <trkpt lat="59.1942814" lon="17.873119">
        <ele>70</ele>
        <time>2013-03-09T12:04:16Z</time>
      </trkpt>
      <trkpt lat="59.1944474" lon="17.8729639">
        <ele>66.2</ele>
        <time>2013-03-09T12:04:20Z</time>
      </trkpt>
      <trkpt lat="59.1944939" lon="17.8729491">
        <ele>66.4</ele>
        <time>2013-03-09T12:04:21Z</time>
      </trkpt>
      <trkpt lat="59.1946156" lon="17.8731505">
        <ele>68.4</ele>
        <time>2013-03-09T12:04:26Z</time>
      </trkpt>
      <trkpt lat="59.1946149" lon="17.8733006">
        <ele>69.8</ele>
        <time>2013-03-09T12:04:28Z</time>
      </trkpt>
      <trkpt lat="59.194616" lon="17.8734904">
        <ele>70.8</ele>
        <time>2013-03-09T12:04:30Z</time>
      </trkpt>
      <trkpt lat="59.1946252" lon="17.8735868">
        <ele>71</ele>
        <time>2013-03-09T12:04:31Z</time>
      </trkpt>
      <trkpt lat="59.1946677" lon="17.8738583">
        <ele>71.4</ele>
        <time>2013-03-09T12:04:34Z</time>
      </trkpt>
      <trkpt lat="59.1946923" lon="17.8741672">
        <ele>71.6</ele>
        <time>2013-03-09T12:04:37Z</time>
      </trkpt>
      <trkpt lat="59.1946932" lon="17.8742788">
        <ele>72</ele>
        <time>2013-03-09T12:04:38Z</time>
      </trkpt>
      <trkpt lat="59.1946727" lon="17.8746284">
        <ele>73.4</ele>
        <time>2013-03-09T12:04:42Z</time>
      </trkpt>
      <trkpt lat="59.1946771" lon="17.8747049">
        <ele>74.2</ele>
        <time>2013-03-09T12:04:43Z</time>
      </trkpt>
      <trkpt lat="59.1947068" lon="17.8749235">
        <ele>74</ele>
        <time>2013-03-09T12:04:46Z</time>
      </trkpt>
      <trkpt lat="59.1947057" lon="17.8750401">
        <ele>73.8</ele>
        <time>2013-03-09T12:04:47Z</time>
      </trkpt>
      <trkpt lat="59.1947006" lon="17.8754351">
        <ele>73.2</ele>
        <time>2013-03-09T12:04:50Z</time>
      </trkpt>
      <trkpt lat="59.1947019" lon="17.8758924">
        <ele>71.8</ele>
        <time>2013-03-09T12:04:54Z</time>
      </trkpt>
      <trkpt lat="59.1947232" lon="17.876267">
        <ele>71.2</ele>
        <time>2013-03-09T12:04:58Z</time>
      </trkpt>
      <trkpt lat="59.1947423" lon="17.8763463">
        <ele>71.4</ele>
        <time>2013-03-09T12:04:59Z</time>
      </trkpt>
      <trkpt lat="59.1948091" lon="17.8766078">
        <ele>70.4</ele>
        <time>2013-03-09T12:05:02Z</time>
      </trkpt>
      <trkpt lat="59.1948376" lon="17.8766958">
        <ele>70.8</ele>
        <time>2013-03-09T12:05:03Z</time>
      </trkpt>
      <trkpt lat="59.1948611" lon="17.876774">
        <ele>70.4</ele>
        <time>2013-03-09T12:05:04Z</time>
      </trkpt>
      <trkpt lat="59.1948965" lon="17.8769973">
        <ele>65.4</ele>
        <time>2013-03-09T12:05:07Z</time>
      </trkpt>
      <trkpt lat="59.1949904" lon="17.8773805">
        <ele>73</ele>
        <time>2013-03-09T12:05:16Z</time>
      </trkpt>
      <trkpt lat="59.1950761" lon="17.8777292">
        <ele>75</ele>
        <time>2013-03-09T12:05:21Z</time>
      </trkpt>
      <trkpt lat="59.1951299" lon="17.8781328">
        <ele>77</ele>
        <time>2013-03-09T12:05:26Z</time>
      </trkpt>
      <trkpt lat="59.1951378" lon="17.8782639">
        <ele>77.8</ele>
        <time>2013-03-09T12:05:28Z</time>
      </trkpt>
      <trkpt lat="59.1951527" lon="17.8785152">
        <ele>77.2</ele>
        <time>2013-03-09T12:05:31Z</time>
      </trkpt>
      <trkpt lat="59.1951652" lon="17.8786872">
        <ele>78.2</ele>
        <time>2013-03-09T12:05:33Z</time>
      </trkpt>
      <trkpt lat="59.1951817" lon="17.8789528">
        <ele>77.8</ele>
        <time>2013-03-09T12:05:36Z</time>
      </trkpt>
      <trkpt lat="59.1951534" lon="17.8793127">
        <ele>77.4</ele>
        <time>2013-03-09T12:05:39Z</time>
      </trkpt>
      <trkpt lat="59.1951018" lon="17.8796573">
        <ele>75.8</ele>
        <time>2013-03-09T12:05:42Z</time>
      </trkpt>
      <trkpt lat="59.1950657" lon="17.8797552">
        <ele>74.8</ele>
        <time>2013-03-09T12:05:43Z</time>
      </trkpt>
      <trkpt lat="59.1949014" lon="17.8799348">
        <ele>75.6</ele>
        <time>2013-03-09T12:05:46Z</time>
      </trkpt>
      <trkpt lat="59.1948305" lon="17.8799718">
        <ele>76.6</ele>
        <time>2013-03-09T12:05:47Z</time>
      </trkpt>
      <trkpt lat="59.1947653" lon="17.879998">
        <ele>78</ele>
        <time>2013-03-09T12:05:48Z</time>
      </trkpt>
      <trkpt lat="59.1947115" lon="17.880022">
        <ele>78.4</ele>
        <time>2013-03-09T12:05:49Z</time>
      </trkpt>
      <trkpt lat="59.194533" lon="17.8802456">
        <ele>77.6</ele>
        <time>2013-03-09T12:05:53Z</time>
      </trkpt>
      <trkpt lat="59.1944431" lon="17.8804814">
        <ele>75.8</ele>
        <time>2013-03-09T12:05:56Z</time>
      </trkpt>
      <trkpt lat="59.1943963" lon="17.88057">
        <ele>76.2</ele>
        <time>2013-03-09T12:05:57Z</time>
      </trkpt>
      <trkpt lat="59.194354" lon="17.8806778">
        <ele>76</ele>
        <time>2013-03-09T12:05:58Z</time>
      </trkpt>
      <trkpt lat="59.1942492" lon="17.8808669">
        <ele>75.6</ele>
        <time>2013-03-09T12:06:00Z</time>
      </trkpt>
      <trkpt lat="59.1940554" lon="17.8809454">
        <ele>71.8</ele>
        <time>2013-03-09T12:06:03Z</time>
      </trkpt>
      <trkpt lat="59.1938905" lon="17.8808623">
        <ele>69</ele>
        <time>2013-03-09T12:06:06Z</time>
      </trkpt>
      <trkpt lat="59.193795" lon="17.8808068">
        <ele>67.2</ele>
        <time>2013-03-09T12:06:07Z</time>
      </trkpt>
      <trkpt lat="59.1936065" lon="17.8807094">
        <ele>63</ele>
        <time>2013-03-09T12:06:10Z</time>
      </trkpt>
      <trkpt lat="59.1935491" lon="17.8806994">
        <ele>61.4</ele>
        <time>2013-03-09T12:06:11Z</time>
      </trkpt>
      <trkpt lat="59.1933887" lon="17.8806787">
        <ele>61.6</ele>
        <time>2013-03-09T12:06:14Z</time>
      </trkpt>
      <trkpt lat="59.193275" lon="17.8807647">
        <ele>60.6</ele>
        <time>2013-03-09T12:06:17Z</time>
      </trkpt>
      <trkpt lat="59.1932004" lon="17.8808176">
        <ele>61.6</ele>
        <time>2013-03-09T12:06:19Z</time>
      </trkpt>
      <trkpt lat="59.1930533" lon="17.8810482">
        <ele>62</ele>
        <time>2013-03-09T12:06:24Z</time>
      </trkpt>
      <trkpt lat="59.1930232" lon="17.8810968">
        <ele>62.2</ele>
        <time>2013-03-09T12:06:25Z</time>
      </trkpt>
      <trkpt lat="59.1929339" lon="17.8811611">
        <ele>63.2</ele>
        <time>2013-03-09T12:06:27Z</time>
      </trkpt>
      <trkpt lat="59.1928491" lon="17.8811399">
        <ele>62.6</ele>
        <time>2013-03-09T12:06:28Z</time>
      </trkpt>
      <trkpt lat="59.1926934" lon="17.880899">
        <ele>57.8</ele>
        <time>2013-03-09T12:06:32Z</time>
      </trkpt>
      <trkpt lat="59.1926483" lon="17.8808222">
        <ele>58.2</ele>
        <time>2013-03-09T12:06:33Z</time>
      </trkpt>
      <trkpt lat="59.1925321" lon="17.8806162">
        <ele>60.4</ele>
        <time>2013-03-09T12:06:36Z</time>
      </trkpt>
      <trkpt lat="59.1925064" lon="17.8805618">
        <ele>61.6</ele>
        <time>2013-03-09T12:06:37Z</time>
      </trkpt>
      <trkpt lat="59.192359" lon="17.880393">
        <ele>64.2</ele>
        <time>2013-03-09T12:06:42Z</time>
      </trkpt>
      <trkpt lat="59.1921403" lon="17.8803084">
        <ele>67.6</ele>
        <time>2013-03-09T12:06:46Z</time>
      </trkpt>
      <trkpt lat="59.1920347" lon="17.8802935">
        <ele>69.2</ele>
        <time>2013-03-09T12:06:48Z</time>
      </trkpt>
      <trkpt lat="59.1919453" lon="17.8802984">
        <ele>70.6</ele>
        <time>2013-03-09T12:06:50Z</time>
      </trkpt>
      <trkpt lat="59.1918433" lon="17.8803005">
        <ele>72.2</ele>
        <time>2013-03-09T12:06:52Z</time>
      </trkpt>
      <trkpt lat="59.1917365" lon="17.8802994">
        <ele>72.4</ele>
        <time>2013-03-09T12:06:54Z</time>
      </trkpt>
      <trkpt lat="59.1916307" lon="17.8803582">
        <ele>72.4</ele>
        <time>2013-03-09T12:06:57Z</time>
      </trkpt>
      <trkpt lat="59.1915395" lon="17.8804685">
        <ele>73.4</ele>
        <time>2013-03-09T12:07:00Z</time>
      </trkpt>
      <trkpt lat="59.1915066" lon="17.8805058">
        <ele>73.8</ele>
        <time>2013-03-09T12:07:01Z</time>
      </trkpt>
      <trkpt lat="59.1914364" lon="17.8805678">
        <ele>73.8</ele>
        <time>2013-03-09T12:07:03Z</time>
      </trkpt>
      <trkpt lat="59.191367" lon="17.8806323">
        <ele>74.4</ele>
        <time>2013-03-09T12:07:05Z</time>
      </trkpt>
      <trkpt lat="59.1911839" lon="17.8807327">
        <ele>73.4</ele>
        <time>2013-03-09T12:07:13Z</time>
      </trkpt>
      <trkpt lat="59.1909989" lon="17.8809219">
        <ele>71.8</ele>
        <time>2013-03-09T12:07:18Z</time>
      </trkpt>
      <trkpt lat="59.1908108" lon="17.8809068">
        <ele>69.6</ele>
        <time>2013-03-09T12:07:21Z</time>
      </trkpt>
      <trkpt lat="59.1905922" lon="17.8807193">
        <ele>70.4</ele>
        <time>2013-03-09T12:07:25Z</time>
      </trkpt>
      <trkpt lat="59.1904824" lon="17.880639">
        <ele>70</ele>
        <time>2013-03-09T12:07:27Z</time>
      </trkpt>
      <trkpt lat="59.190381" lon="17.8805944">
        <ele>69.4</ele>
        <time>2013-03-09T12:07:29Z</time>
      </trkpt>
      <trkpt lat="59.1903399" lon="17.8805714">
        <ele>67.8</ele>
        <time>2013-03-09T12:07:30Z</time>
      </trkpt>
      <trkpt lat="59.1902102" lon="17.8804892">
        <ele>67.2</ele>
        <time>2013-03-09T12:07:33Z</time>
      </trkpt>
      <trkpt lat="59.1900683" lon="17.8804271">
        <ele>64.2</ele>
        <time>2013-03-09T12:07:36Z</time>
      </trkpt>
      <trkpt lat="59.1900125" lon="17.8804073">
        <ele>62.2</ele>
        <time>2013-03-09T12:07:37Z</time>
      </trkpt>
      <trkpt lat="59.1898022" lon="17.8803534">
        <ele>56.6</ele>
        <time>2013-03-09T12:07:41Z</time>
      </trkpt>
      <trkpt lat="59.1896562" lon="17.880343">
        <ele>55.4</ele>
        <time>2013-03-09T12:07:44Z</time>
      </trkpt>
      <trkpt lat="59.1895707" lon="17.8803228">
        <ele>55.8</ele>
        <time>2013-03-09T12:07:46Z</time>
      </trkpt>
      <trkpt lat="59.1893892" lon="17.8802787">
        <ele>54.4</ele>
        <time>2013-03-09T12:07:50Z</time>
      </trkpt>
      <trkpt lat="59.1893354" lon="17.8802473">
        <ele>55.8</ele>
        <time>2013-03-09T12:07:51Z</time>
      </trkpt>
      <trkpt lat="59.1891842" lon="17.8801676">
        <ele>58.6</ele>
        <time>2013-03-09T12:07:54Z</time>
      </trkpt>
      <trkpt lat="59.1890302" lon="17.880101">
        <ele>59.6</ele>
        <time>2013-03-09T12:07:57Z</time>
      </trkpt>
      <trkpt lat="59.1889764" lon="17.8800754">
        <ele>60.4</ele>
        <time>2013-03-09T12:07:58Z</time>
      </trkpt>
      <trkpt lat="59.1888872" lon="17.8800582">
        <ele>60</ele>
        <time>2013-03-09T12:08:00Z</time>
      </trkpt>
      <trkpt lat="59.1887765" lon="17.8800293">
        <ele>59.8</ele>
        <time>2013-03-09T12:08:03Z</time>
      </trkpt>
      <trkpt lat="59.1887412" lon="17.8800115">
        <ele>59.8</ele>
        <time>2013-03-09T12:08:04Z</time>
      </trkpt>
      <trkpt lat="59.1886025" lon="17.8799733">
        <ele>62.6</ele>
        <time>2013-03-09T12:08:08Z</time>
      </trkpt>
      <trkpt lat="59.1884496" lon="17.8801981">
        <ele>68.2</ele>
        <time>2013-03-09T12:08:13Z</time>
      </trkpt>
      <trkpt lat="59.1883366" lon="17.8805228">
        <ele>70</ele>
        <time>2013-03-09T12:08:18Z</time>
      </trkpt>
      <trkpt lat="59.1883105" lon="17.8808977">
        <ele>70.4</ele>
        <time>2013-03-09T12:08:23Z</time>
      </trkpt>
      <trkpt lat="59.1881937" lon="17.8811668">
        <ele>71</ele>
        <time>2013-03-09T12:08:28Z</time>
      </trkpt>
      <trkpt lat="59.1880254" lon="17.8813528">
        <ele>69.8</ele>
        <time>2013-03-09T12:08:33Z</time>
      </trkpt>
      <trkpt lat="59.1878638" lon="17.8814745">
        <ele>67.8</ele>
        <time>2013-03-09T12:08:36Z</time>
      </trkpt>
      <trkpt lat="59.1876531" lon="17.8815837">
        <ele>66.2</ele>
        <time>2013-03-09T12:08:39Z</time>
      </trkpt>
      <trkpt lat="59.1874472" lon="17.8817102">
        <ele>62.8</ele>
        <time>2013-03-09T12:08:42Z</time>
      </trkpt>
      <trkpt lat="59.1872892" lon="17.8819105">
        <ele>64.2</ele>
        <time>2013-03-09T12:08:44Z</time>
      </trkpt>
      <trkpt lat="59.1871392" lon="17.8821853">
        <ele>64.6</ele>
        <time>2013-03-09T12:08:46Z</time>
      </trkpt>
      <trkpt lat="59.1871194" lon="17.8823976">
        <ele>64.6</ele>
        <time>2013-03-09T12:08:48Z</time>
      </trkpt>
      <trkpt lat="59.1871592" lon="17.8827182">
        <ele>66.8</ele>
        <time>2013-03-09T12:08:52Z</time>
      </trkpt>
      <trkpt lat="59.1872641" lon="17.8830985">
        <ele>67.8</ele>
        <time>2013-03-09T12:08:57Z</time>
      </trkpt>
      <trkpt lat="59.1872738" lon="17.8831636">
        <ele>67.2</ele>
        <time>2013-03-09T12:08:58Z</time>
      </trkpt>
      <trkpt lat="59.1873268" lon="17.8834725">
        <ele>66.6</ele>
        <time>2013-03-09T12:09:03Z</time>
      </trkpt>
      <trkpt lat="59.187357" lon="17.8836636">
        <ele>66.8</ele>
        <time>2013-03-09T12:09:06Z</time>
      </trkpt>
      <trkpt lat="59.1873729" lon="17.8838227">
        <ele>67</ele>
        <time>2013-03-09T12:09:08Z</time>
      </trkpt>
      <trkpt lat="59.1874406" lon="17.8841522">
        <ele>68</ele>
        <time>2013-03-09T12:09:13Z</time>
      </trkpt>
      <trkpt lat="59.1874785" lon="17.8845472">
        <ele>70.8</ele>
        <time>2013-03-09T12:09:19Z</time>
      </trkpt>
      <trkpt lat="59.1875651" lon="17.884915">
        <ele>73.6</ele>
        <time>2013-03-09T12:09:24Z</time>
      </trkpt>
      <trkpt lat="59.187605" lon="17.8851748">
        <ele>73.2</ele>
        <time>2013-03-09T12:09:27Z</time>
      </trkpt>
      <trkpt lat="59.1876117" lon="17.8852731">
        <ele>72.4</ele>
        <time>2013-03-09T12:09:28Z</time>
      </trkpt>
      <trkpt lat="59.1876489" lon="17.8855632">
        <ele>71.2</ele>
        <time>2013-03-09T12:09:31Z</time>
      </trkpt>
      <trkpt lat="59.1876685" lon="17.8856503">
        <ele>70.4</ele>
        <time>2013-03-09T12:09:32Z</time>
      </trkpt>
      <trkpt lat="59.1876911" lon="17.8857244">
        <ele>69.2</ele>
        <time>2013-03-09T12:09:33Z</time>
      </trkpt>
      <trkpt lat="59.1877509" lon="17.8858516">
        <ele>69.4</ele>
        <time>2013-03-09T12:09:35Z</time>
      </trkpt>
      <trkpt lat="59.1878113" lon="17.8859568">
        <ele>69.2</ele>
        <time>2013-03-09T12:09:37Z</time>
      </trkpt>
      <trkpt lat="59.1878918" lon="17.8863116">
        <ele>69.4</ele>
        <time>2013-03-09T12:09:42Z</time>
      </trkpt>
      <trkpt lat="59.1878908" lon="17.8863836">
        <ele>69.6</ele>
        <time>2013-03-09T12:09:43Z</time>
      </trkpt>
      <trkpt lat="59.1878819" lon="17.886466">
        <ele>69.6</ele>
        <time>2013-03-09T12:09:44Z</time>
      </trkpt>
      <trkpt lat="59.1878639" lon="17.8866359">
        <ele>68.8</ele>
        <time>2013-03-09T12:09:46Z</time>
      </trkpt>
      <trkpt lat="59.187855" lon="17.8867177">
        <ele>69.2</ele>
        <time>2013-03-09T12:09:47Z</time>
      </trkpt>
      <trkpt lat="59.1878483" lon="17.8867958">
        <ele>69.2</ele>
        <time>2013-03-09T12:09:48Z</time>
      </trkpt>
      <trkpt lat="59.1877877" lon="17.8870747">
        <ele>68.4</ele>
        <time>2013-03-09T12:09:52Z</time>
      </trkpt>
      <trkpt lat="59.1877608" lon="17.8871292">
        <ele>68.2</ele>
        <time>2013-03-09T12:09:53Z</time>
      </trkpt>
      <trkpt lat="59.1877327" lon="17.8871814">
        <ele>68.2</ele>
        <time>2013-03-09T12:09:54Z</time>
      </trkpt>
      <trkpt lat="59.1876495" lon="17.8873351">
        <ele>67</ele>
        <time>2013-03-09T12:09:57Z</time>
      </trkpt>
      <trkpt lat="59.1875625" lon="17.887655">
        <ele>67</ele>
        <time>2013-03-09T12:10:02Z</time>
      </trkpt>
      <trkpt lat="59.1874865" lon="17.8880485">
        <ele>66.8</ele>
        <time>2013-03-09T12:10:08Z</time>
      </trkpt>
      <trkpt lat="59.1874223" lon="17.8884764">
        <ele>67.8</ele>
        <time>2013-03-09T12:10:13Z</time>
      </trkpt>
      <trkpt lat="59.1874216" lon="17.8885696">
        <ele>68.2</ele>
        <time>2013-03-09T12:10:14Z</time>
      </trkpt>
      <trkpt lat="59.1874307" lon="17.8887556">
        <ele>69.2</ele>
        <time>2013-03-09T12:10:16Z</time>
      </trkpt>
      <trkpt lat="59.1874461" lon="17.8888314">
        <ele>69.6</ele>
        <time>2013-03-09T12:10:17Z</time>
      </trkpt>
      <trkpt lat="59.1875516" lon="17.889142">
        <ele>69.4</ele>
        <time>2013-03-09T12:10:22Z</time>
      </trkpt>
      <trkpt lat="59.1876497" lon="17.8894005">
        <ele>70</ele>
        <time>2013-03-09T12:10:26Z</time>
      </trkpt>
      <trkpt lat="59.1876699" lon="17.8894627">
        <ele>71</ele>
        <time>2013-03-09T12:10:27Z</time>
      </trkpt>
      <trkpt lat="59.1877696" lon="17.889775">
        <ele>71.8</ele>
        <time>2013-03-09T12:10:32Z</time>
      </trkpt>
      <trkpt lat="59.1878224" lon="17.8901404">
        <ele>74.2</ele>
        <time>2013-03-09T12:10:37Z</time>
      </trkpt>
      <trkpt lat="59.1878312" lon="17.8904911">
        <ele>73.8</ele>
        <time>2013-03-09T12:10:43Z</time>
      </trkpt>
      <trkpt lat="59.1879362" lon="17.8908239">
        <ele>77.6</ele>
        <time>2013-03-09T12:10:50Z</time>
      </trkpt>
      <trkpt lat="59.1879359" lon="17.8909416">
        <ele>78.6</ele>
        <time>2013-03-09T12:10:52Z</time>
      </trkpt>
      <trkpt lat="59.1878798" lon="17.8911727">
        <ele>79.4</ele>
        <time>2013-03-09T12:10:57Z</time>
      </trkpt>
      <trkpt lat="59.1878441" lon="17.8912794">
        <ele>78.8</ele>
        <time>2013-03-09T12:10:59Z</time>
      </trkpt>
      <trkpt lat="59.1877888" lon="17.8914643">
        <ele>79</ele>
        <time>2013-03-09T12:11:02Z</time>
      </trkpt>
      <trkpt lat="59.187764" lon="17.8918175">
        <ele>80.2</ele>
        <time>2013-03-09T12:11:07Z</time>
      </trkpt>
      <trkpt lat="59.1878153" lon="17.8921886">
        <ele>82.4</ele>
        <time>2013-03-09T12:11:14Z</time>
      </trkpt>
      <trkpt lat="59.1878556" lon="17.8925211">
        <ele>81.8</ele>
        <time>2013-03-09T12:11:18Z</time>
      </trkpt>
      <trkpt lat="59.1879111" lon="17.8929541">
        <ele>80.4</ele>
        <time>2013-03-09T12:11:22Z</time>
      </trkpt>
      <trkpt lat="59.1879752" lon="17.8932253">
        <ele>78.8</ele>
        <time>2013-03-09T12:11:25Z</time>
      </trkpt>
      <trkpt lat="59.1880244" lon="17.8933306">
        <ele>78.4</ele>
        <time>2013-03-09T12:11:27Z</time>
      </trkpt>
      <trkpt lat="59.1880793" lon="17.8933891">
        <ele>77.2</ele>
        <time>2013-03-09T12:11:29Z</time>
      </trkpt>
      <trkpt lat="59.1881073" lon="17.893424">
        <ele>76.2</ele>
        <time>2013-03-09T12:11:30Z</time>
      </trkpt>
      <trkpt lat="59.1881825" lon="17.8935113">
        <ele>76</ele>
        <time>2013-03-09T12:11:32Z</time>
      </trkpt>
      <trkpt lat="59.1883573" lon="17.8936721">
        <ele>73.4</ele>
        <time>2013-03-09T12:11:37Z</time>
      </trkpt>
      <trkpt lat="59.1885418" lon="17.8938694">
        <ele>72.6</ele>
        <time>2013-03-09T12:11:42Z</time>
      </trkpt>
      <trkpt lat="59.1885826" lon="17.8938977">
        <ele>72.6</ele>
        <time>2013-03-09T12:11:43Z</time>
      </trkpt>
      <trkpt lat="59.1886756" lon="17.8939353">
        <ele>72</ele>
        <time>2013-03-09T12:11:45Z</time>
      </trkpt>
      <trkpt lat="59.1887258" lon="17.8939426">
        <ele>70.6</ele>
        <time>2013-03-09T12:11:46Z</time>
      </trkpt>
      <trkpt lat="59.1888895" lon="17.8939699">
        <ele>68.4</ele>
        <time>2013-03-09T12:11:49Z</time>
      </trkpt>
      <trkpt lat="59.1891039" lon="17.8940735">
        <ele>69.8</ele>
        <time>2013-03-09T12:11:53Z</time>
      </trkpt>
      <trkpt lat="59.1892395" lon="17.8941743">
        <ele>71.4</ele>
        <time>2013-03-09T12:11:56Z</time>
      </trkpt>
      <trkpt lat="59.1892838" lon="17.8942232">
        <ele>71</ele>
        <time>2013-03-09T12:11:57Z</time>
      </trkpt>
      <trkpt lat="59.1893768" lon="17.8943201">
        <ele>69.8</ele>
        <time>2013-03-09T12:11:59Z</time>
      </trkpt>
      <trkpt lat="59.1894749" lon="17.8944268">
        <ele>70.6</ele>
        <time>2013-03-09T12:12:01Z</time>
      </trkpt>
      <trkpt lat="59.1896127" lon="17.8946076">
        <ele>68.2</ele>
        <time>2013-03-09T12:12:04Z</time>
      </trkpt>
      <trkpt lat="59.189653" lon="17.8946744">
        <ele>68.6</ele>
        <time>2013-03-09T12:12:05Z</time>
      </trkpt>
      <trkpt lat="59.1897655" lon="17.8949737">
        <ele>68.8</ele>
        <time>2013-03-09T12:12:09Z</time>
      </trkpt>
      <trkpt lat="59.189796" lon="17.8950546">
        <ele>69.6</ele>
        <time>2013-03-09T12:12:10Z</time>
      </trkpt>
      <trkpt lat="59.189881" lon="17.8953208">
        <ele>69</ele>
        <time>2013-03-09T12:12:13Z</time>
      </trkpt>
      <trkpt lat="59.1899422" lon="17.8954959">
        <ele>69.4</ele>
        <time>2013-03-09T12:12:15Z</time>
      </trkpt>
      <trkpt lat="59.1900105" lon="17.8956295">
        <ele>69.8</ele>
        <time>2013-03-09T12:12:17Z</time>
      </trkpt>
      <trkpt lat="59.1900441" lon="17.8957015">
        <ele>70.4</ele>
        <time>2013-03-09T12:12:18Z</time>
      </trkpt>
      <trkpt lat="59.1901467" lon="17.8959176">
        <ele>69.8</ele>
        <time>2013-03-09T12:12:21Z</time>
      </trkpt>
      <trkpt lat="59.1902819" lon="17.896171">
        <ele>65.4</ele>
        <time>2013-03-09T12:12:25Z</time>
      </trkpt>
      <trkpt lat="59.190457" lon="17.8964401">
        <ele>63.2</ele>
        <time>2013-03-09T12:12:30Z</time>
      </trkpt>
      <trkpt lat="59.1904926" lon="17.8964976">
        <ele>63</ele>
        <time>2013-03-09T12:12:31Z</time>
      </trkpt>
      <trkpt lat="59.1906075" lon="17.8967009">
        <ele>63.6</ele>
        <time>2013-03-09T12:12:34Z</time>
      </trkpt>
      <trkpt lat="59.1906663" lon="17.8968386">
        <ele>64</ele>
        <time>2013-03-09T12:12:36Z</time>
      </trkpt>
      <trkpt lat="59.1907233" lon="17.8970039">
        <ele>65.4</ele>
        <time>2013-03-09T12:12:38Z</time>
      </trkpt>
      <trkpt lat="59.1908073" lon="17.8973646">
        <ele>69.4</ele>
        <time>2013-03-09T12:12:42Z</time>
      </trkpt>
      <trkpt lat="59.1908094" lon="17.8977949">
        <ele>67.8</ele>
        <time>2013-03-09T12:12:46Z</time>
      </trkpt>
      <trkpt lat="59.190799" lon="17.8979093">
        <ele>68.2</ele>
        <time>2013-03-09T12:12:47Z</time>
      </trkpt>
      <trkpt lat="59.1907849" lon="17.8980178">
        <ele>67.4</ele>
        <time>2013-03-09T12:12:48Z</time>
      </trkpt>
      <trkpt lat="59.1907624" lon="17.8982174">
        <ele>66.2</ele>
        <time>2013-03-09T12:12:50Z</time>
      </trkpt>
      <trkpt lat="59.1908186" lon="17.8986139">
        <ele>66.4</ele>
        <time>2013-03-09T12:12:55Z</time>
      </trkpt>
      <trkpt lat="59.1908491" lon="17.8986647">
        <ele>65.8</ele>
        <time>2013-03-09T12:12:56Z</time>
      </trkpt>
      <trkpt lat="59.1908781" lon="17.8987028">
        <ele>66.2</ele>
        <time>2013-03-09T12:12:57Z</time>
      </trkpt>
      <trkpt lat="59.1909481" lon="17.8988004">
        <ele>66</ele>
        <time>2013-03-09T12:12:59Z</time>
      </trkpt>
      <trkpt lat="59.1909822" lon="17.8988597">
        <ele>65.8</ele>
        <time>2013-03-09T12:13:00Z</time>
      </trkpt>
      <trkpt lat="59.1910081" lon="17.8989191">
        <ele>65.8</ele>
        <time>2013-03-09T12:13:01Z</time>
      </trkpt>
      <trkpt lat="59.1910797" lon="17.8991152">
        <ele>66</ele>
        <time>2013-03-09T12:13:04Z</time>
      </trkpt>
      <trkpt lat="59.1910993" lon="17.8991977">
        <ele>65.6</ele>
        <time>2013-03-09T12:13:05Z</time>
      </trkpt>
      <trkpt lat="59.1911479" lon="17.8995321">
        <ele>66.4</ele>
        <time>2013-03-09T12:13:09Z</time>
      </trkpt>
      <trkpt lat="59.1911915" lon="17.8997912">
        <ele>66.4</ele>
        <time>2013-03-09T12:13:12Z</time>
      </trkpt>
      <trkpt lat="59.1912304" lon="17.899946">
        <ele>67.2</ele>
        <time>2013-03-09T12:13:14Z</time>
      </trkpt>
      <trkpt lat="59.191268" lon="17.9000945">
        <ele>67.8</ele>
        <time>2013-03-09T12:13:16Z</time>
      </trkpt>
      <trkpt lat="59.1912994" lon="17.9002799">
        <ele>66.8</ele>
        <time>2013-03-09T12:13:18Z</time>
      </trkpt>
      <trkpt lat="59.1913183" lon="17.9003574">
        <ele>67.6</ele>
        <time>2013-03-09T12:13:19Z</time>
      </trkpt>
      <trkpt lat="59.1913319" lon="17.9006632">
        <ele>65.2</ele>
        <time>2013-03-09T12:13:22Z</time>
      </trkpt>
      <trkpt lat="59.1913376" lon="17.9010514">
        <ele>66</ele>
        <time>2013-03-09T12:13:26Z</time>
      </trkpt>
      <trkpt lat="59.1913406" lon="17.9011449">
        <ele>66</ele>
        <time>2013-03-09T12:13:27Z</time>
      </trkpt>
      <trkpt lat="59.1913528" lon="17.9013251">
        <ele>66</ele>
        <time>2013-03-09T12:13:29Z</time>
      </trkpt>
      <trkpt lat="59.1913656" lon="17.9014214">
        <ele>66.8</ele>
        <time>2013-03-09T12:13:30Z</time>
      </trkpt>
      <trkpt lat="59.1913831" lon="17.9016076">
        <ele>67.2</ele>
        <time>2013-03-09T12:13:32Z</time>
      </trkpt>
      <trkpt lat="59.1914046" lon="17.9017832">
        <ele>67</ele>
        <time>2013-03-09T12:13:34Z</time>
      </trkpt>
      <trkpt lat="59.1914317" lon="17.902082">
        <ele>66</ele>
        <time>2013-03-09T12:13:37Z</time>
      </trkpt>
      <trkpt lat="59.1914449" lon="17.9021825">
        <ele>66.2</ele>
        <time>2013-03-09T12:13:38Z</time>
      </trkpt>
      <trkpt lat="59.1914643" lon="17.9023988">
        <ele>65.8</ele>
        <time>2013-03-09T12:13:40Z</time>
      </trkpt>
      <trkpt lat="59.1914786" lon="17.9026237">
        <ele>66.8</ele>
        <time>2013-03-09T12:13:42Z</time>
      </trkpt>
      <trkpt lat="59.191493" lon="17.9027997">
        <ele>66.4</ele>
        <time>2013-03-09T12:13:44Z</time>
      </trkpt>
      <trkpt lat="59.1915396" lon="17.9030469">
        <ele>66</ele>
        <time>2013-03-09T12:13:47Z</time>
      </trkpt>
      <trkpt lat="59.1915032" lon="17.9033915">
        <ele>68</ele>
        <time>2013-03-09T12:13:51Z</time>
      </trkpt>
      <trkpt lat="59.1913133" lon="17.9035682">
        <ele>67.6</ele>
        <time>2013-03-09T12:13:55Z</time>
      </trkpt>
      <trkpt lat="59.1911813" lon="17.9035845">
        <ele>67.2</ele>
        <time>2013-03-09T12:13:57Z</time>
      </trkpt>
      <trkpt lat="59.1911259" lon="17.9035872">
        <ele>66.4</ele>
        <time>2013-03-09T12:13:58Z</time>
      </trkpt>
      <trkpt lat="59.1910759" lon="17.9035768">
        <ele>66.4</ele>
        <time>2013-03-09T12:13:59Z</time>
      </trkpt>
      <trkpt lat="59.1909227" lon="17.9035614">
        <ele>63.8</ele>
        <time>2013-03-09T12:14:02Z</time>
      </trkpt>
      <trkpt lat="59.1907241" lon="17.9035288">
        <ele>60.6</ele>
        <time>2013-03-09T12:14:06Z</time>
      </trkpt>
      <trkpt lat="59.1906314" lon="17.9035142">
        <ele>58.8</ele>
        <time>2013-03-09T12:14:08Z</time>
      </trkpt>
      <trkpt lat="59.1905517" lon="17.9034952">
        <ele>54.6</ele>
        <time>2013-03-09T12:14:10Z</time>
      </trkpt>
      <trkpt lat="59.1905082" lon="17.9034945">
        <ele>51.6</ele>
        <time>2013-03-09T12:14:11Z</time>
      </trkpt>
      <trkpt lat="59.1903739" lon="17.9034666">
        <ele>44</ele>
        <time>2013-03-09T12:14:14Z</time>
      </trkpt>
      <trkpt lat="59.1902203" lon="17.9034474">
        <ele>25</ele>
        <time>2013-03-09T12:17:46Z</time>
      </trkpt>
      <trkpt lat="59.1902052" lon="17.9034086">
        <ele>25.4</ele>
        <time>2013-03-09T12:17:49Z</time>
      </trkpt>
      <trkpt lat="59.1901194" lon="17.9032041">
        <ele>24.6</ele>
        <time>2013-03-09T12:17:56Z</time>
      </trkpt>
      <trkpt lat="59.1900602" lon="17.902814">
        <ele>22.2</ele>
        <time>2013-03-09T12:18:02Z</time>
      </trkpt>
      <trkpt lat="59.189965" lon="17.902473">
        <ele>21.4</ele>
        <time>2013-03-09T12:18:07Z</time>
      </trkpt>
      <trkpt lat="59.1898519" lon="17.9021227">
        <ele>21.4</ele>
        <time>2013-03-09T12:18:12Z</time>
      </trkpt>
      <trkpt lat="59.189753" lon="17.9018381">
        <ele>20.2</ele>
        <time>2013-03-09T12:18:16Z</time>
      </trkpt>
      <trkpt lat="59.1897267" lon="17.9017515">
        <ele>24.6</ele>
        <time>2013-03-09T12:18:17Z</time>
      </trkpt>
      <trkpt lat="59.1895649" lon="17.9015298">
        <ele>24</ele>
        <time>2013-03-09T12:18:21Z</time>
      </trkpt>
      <trkpt lat="59.1894337" lon="17.9013966">
        <ele>24.4</ele>
        <time>2013-03-09T12:18:23Z</time>
      </trkpt>
      <trkpt lat="59.1893911" lon="17.9013417">
        <ele>23.6</ele>
        <time>2013-03-09T12:18:25Z</time>
      </trkpt>
      <trkpt lat="59.1893161" lon="17.901237">
        <ele>21.6</ele>
        <time>2013-03-09T12:18:27Z</time>
      </trkpt>
      <trkpt lat="59.1892319" lon="17.901148">
        <ele>20.2</ele>
        <time>2013-03-09T12:18:29Z</time>
      </trkpt>
      <trkpt lat="59.1891978" lon="17.9010919">
        <ele>19.4</ele>
        <time>2013-03-09T12:18:30Z</time>
      </trkpt>
      <trkpt lat="59.1890998" lon="17.900895">
        <ele>14.4</ele>
        <time>2013-03-09T12:18:33Z</time>
      </trkpt>
      <trkpt lat="59.1890377" lon="17.9007553">
        <ele>13</ele>
        <time>2013-03-09T12:18:35Z</time>
      </trkpt>
      <trkpt lat="59.189003" lon="17.9006971">
        <ele>13.2</ele>
        <time>2013-03-09T12:18:36Z</time>
      </trkpt>
      <trkpt lat="59.1889361" lon="17.9005761">
        <ele>12.6</ele>
        <time>2013-03-09T12:18:38Z</time>
      </trkpt>
      <trkpt lat="59.1888231" lon="17.9002928">
        <ele>8.4</ele>
        <time>2013-03-09T12:18:42Z</time>
      </trkpt>
      <trkpt lat="59.1887958" lon="17.9002175">
        <ele>7</ele>
        <time>2013-03-09T12:18:43Z</time>
      </trkpt>
      <trkpt lat="59.1886895" lon="17.899928">
        <ele>4.4</ele>
        <time>2013-03-09T12:18:46Z</time>
      </trkpt>
      <trkpt lat="59.1886895" lon="17.899928">
        <ele>4.2</ele>
        <time>2013-03-09T12:18:47Z</time>
      </trkpt>
      <trkpt lat="59.1886572" lon="17.8997751">
        <ele>3</ele>
        <time>2013-03-09T12:18:49Z</time>
      </trkpt>
      <trkpt lat="59.1886165" lon="17.8995365">
        <ele>2.8</ele>
        <time>2013-03-09T12:18:51Z</time>
      </trkpt>
      <trkpt lat="59.1886165" lon="17.8995365">
        <ele>2.4</ele>
        <time>2013-03-09T12:18:52Z</time>
      </trkpt>
      <trkpt lat="59.1885869" lon="17.8993811">
        <ele>2.2</ele>
        <time>2013-03-09T12:18:54Z</time>
      </trkpt>
      <trkpt lat="59.1885959" lon="17.899211">
        <ele>1.8</ele>
        <time>2013-03-09T12:18:56Z</time>
      </trkpt>
      <trkpt lat="59.1886543" lon="17.89872">
        <ele>2.6</ele>
        <time>2013-03-09T12:19:01Z</time>
      </trkpt>
      <trkpt lat="59.188664" lon="17.898574">
        <ele>3.6</ele>
        <time>2013-03-09T12:19:03Z</time>
      </trkpt>
      <trkpt lat="59.1886543" lon="17.8984932">
        <ele>3.2</ele>
        <time>2013-03-09T12:19:05Z</time>
      </trkpt>
      <trkpt lat="59.1886154" lon="17.8983636">
        <ele>2.8</ele>
        <time>2013-03-09T12:19:06Z</time>
      </trkpt>
      <trkpt lat="59.1885418" lon="17.8980255">
        <ele>4.4</ele>
        <time>2013-03-09T12:19:11Z</time>
      </trkpt>
      <trkpt lat="59.1885653" lon="17.8976706">
        <ele>8</ele>
        <time>2013-03-09T12:19:16Z</time>
      </trkpt>
      <trkpt lat="59.1885486" lon="17.8973805">
        <ele>8.4</ele>
        <time>2013-03-09T12:19:21Z</time>
      </trkpt>
      <trkpt lat="59.1885107" lon="17.8972619">
        <ele>8</ele>
        <time>2013-03-09T12:19:22Z</time>
      </trkpt>
      <trkpt lat="59.1884529" lon="17.8969998">
        <ele>7.8</ele>
        <time>2013-03-09T12:19:26Z</time>
      </trkpt>
      <trkpt lat="59.1883741" lon="17.8966285">
        <ele>12.2</ele>
        <time>2013-03-09T12:19:31Z</time>
      </trkpt>
      <trkpt lat="59.1882198" lon="17.8963277">
        <ele>8.8</ele>
        <time>2013-03-09T12:19:37Z</time>
      </trkpt>
      <trkpt lat="59.1880629" lon="17.8961992">
        <ele>6.2</ele>
        <time>2013-03-09T12:19:42Z</time>
      </trkpt>
      <trkpt lat="59.1878792" lon="17.8961602">
        <ele>7.8</ele>
        <time>2013-03-09T12:19:45Z</time>
      </trkpt>
      <trkpt lat="59.1878342" lon="17.8961635">
        <ele>7.6</ele>
        <time>2013-03-09T12:19:46Z</time>
      </trkpt>
      <trkpt lat="59.1876789" lon="17.8961449">
        <ele>12.2</ele>
        <time>2013-03-09T12:19:50Z</time>
      </trkpt>
      <trkpt lat="59.1875758" lon="17.8961392">
        <ele>15.4</ele>
        <time>2013-03-09T12:19:51Z</time>
      </trkpt>
      <trkpt lat="59.1874625" lon="17.8961021">
        <ele>20.6</ele>
        <time>2013-03-09T12:19:53Z</time>
      </trkpt>
      <trkpt lat="59.1874071" lon="17.8960968">
        <ele>23.4</ele>
        <time>2013-03-09T12:19:54Z</time>
      </trkpt>
      <trkpt lat="59.1873501" lon="17.8961011">
        <ele>27.2</ele>
        <time>2013-03-09T12:19:55Z</time>
      </trkpt>
      <trkpt lat="59.1872434" lon="17.8961507">
        <ele>32.6</ele>
        <time>2013-03-09T12:19:57Z</time>
      </trkpt>
      <trkpt lat="59.1871879" lon="17.8961673">
        <ele>35.2</ele>
        <time>2013-03-09T12:19:58Z</time>
      </trkpt>
      <trkpt lat="59.1870377" lon="17.8961866">
        <ele>40.4</ele>
        <time>2013-03-09T12:20:01Z</time>
      </trkpt>
      <trkpt lat="59.1870377" lon="17.8961866">
        <ele>41.6</ele>
        <time>2013-03-09T12:20:02Z</time>
      </trkpt>
      <trkpt lat="59.1869377" lon="17.896204">
        <ele>42.2</ele>
        <time>2013-03-09T12:20:03Z</time>
      </trkpt>
      <trkpt lat="59.1867874" lon="17.896247">
        <ele>43.6</ele>
        <time>2013-03-09T12:20:06Z</time>
      </trkpt>
      <trkpt lat="59.1866191" lon="17.8962822">
        <ele>45</ele>
        <time>2013-03-09T12:20:10Z</time>
      </trkpt>
      <trkpt lat="59.186578" lon="17.896292">
        <ele>45</ele>
        <time>2013-03-09T12:20:11Z</time>
      </trkpt>
      <trkpt lat="59.1864435" lon="17.8962062">
        <ele>45.2</ele>
        <time>2013-03-09T12:20:14Z</time>
      </trkpt>
      <trkpt lat="59.1864435" lon="17.8962062">
        <ele>45</ele>
        <time>2013-03-09T12:20:15Z</time>
      </trkpt>
      <trkpt lat="59.1863048" lon="17.895895">
        <ele>44</ele>
        <time>2013-03-09T12:20:18Z</time>
      </trkpt>
      <trkpt lat="59.1862886" lon="17.8958099">
        <ele>43</ele>
        <time>2013-03-09T12:20:19Z</time>
      </trkpt>
      <trkpt lat="59.1862301" lon="17.8956476">
        <ele>41.4</ele>
        <time>2013-03-09T12:20:21Z</time>
      </trkpt>
      <trkpt lat="59.1861664" lon="17.8955088">
        <ele>38.2</ele>
        <time>2013-03-09T12:20:23Z</time>
      </trkpt>
      <trkpt lat="59.1860929" lon="17.8953839">
        <ele>33.6</ele>
        <time>2013-03-09T12:20:26Z</time>
      </trkpt>
      <trkpt lat="59.186011" lon="17.8952624">
        <ele>33.6</ele>
        <time>2013-03-09T12:20:27Z</time>
      </trkpt>
      <trkpt lat="59.1859125" lon="17.8950629">
        <ele>29</ele>
        <time>2013-03-09T12:20:30Z</time>
      </trkpt>
      <trkpt lat="59.1858799" lon="17.8950032">
        <ele>27.6</ele>
        <time>2013-03-09T12:20:31Z</time>
      </trkpt>
      <trkpt lat="59.1858043" lon="17.8949068">
        <ele>24</ele>
        <time>2013-03-09T12:20:33Z</time>
      </trkpt>
      <trkpt lat="59.1857285" lon="17.8948101">
        <ele>20.8</ele>
        <time>2013-03-09T12:20:35Z</time>
      </trkpt>
      <trkpt lat="59.1856178" lon="17.8947248">
        <ele>20.8</ele>
        <time>2013-03-09T12:20:38Z</time>
      </trkpt>
      <trkpt lat="59.1855546" lon="17.8947422">
        <ele>21</ele>
        <time>2013-03-09T12:20:40Z</time>
      </trkpt>
      <trkpt lat="59.1853489" lon="17.8948819">
        <ele>17.2</ele>
        <time>2013-03-09T12:20:45Z</time>
      </trkpt>
      <trkpt lat="59.1851677" lon="17.8948278">
        <ele>17.8</ele>
        <time>2013-03-09T12:20:49Z</time>
      </trkpt>
      <trkpt lat="59.1851677" lon="17.8948278">
        <ele>17</ele>
        <time>2013-03-09T12:20:50Z</time>
      </trkpt>
      <trkpt lat="59.1851227" lon="17.8947096">
        <ele>15.4</ele>
        <time>2013-03-09T12:20:51Z</time>
      </trkpt>
      <trkpt lat="59.1850889" lon="17.8945283">
        <ele>12.2</ele>
        <time>2013-03-09T12:20:53Z</time>
      </trkpt>
      <trkpt lat="59.1850758" lon="17.8944382">
        <ele>11.2</ele>
        <time>2013-03-09T12:20:54Z</time>
      </trkpt>
      <trkpt lat="59.1850334" lon="17.8942062">
        <ele>7.4</ele>
        <time>2013-03-09T12:20:57Z</time>
      </trkpt>
      <trkpt lat="59.1849861" lon="17.8940982">
        <ele>6.4</ele>
        <time>2013-03-09T12:20:59Z</time>
      </trkpt>
      <trkpt lat="59.1847984" lon="17.8940367">
        <ele>4.2</ele>
        <time>2013-03-09T12:21:03Z</time>
      </trkpt>
      <trkpt lat="59.18475" lon="17.8940367">
        <ele>4.2</ele>
        <time>2013-03-09T12:21:04Z</time>
      </trkpt>
      <trkpt lat="59.1846423" lon="17.8940233">
        <ele>2.6</ele>
        <time>2013-03-09T12:21:06Z</time>
      </trkpt>
      <trkpt lat="59.1845879" lon="17.8940045">
        <ele>1.6</ele>
        <time>2013-03-09T12:21:07Z</time>
      </trkpt>
      <trkpt lat="59.1843518" lon="17.8938632">
        <ele>0.6</ele>
        <time>2013-03-09T12:21:11Z</time>
      </trkpt>
      <trkpt lat="59.1842911" lon="17.8938041">
        <ele>0.6</ele>
        <time>2013-03-09T12:21:12Z</time>
      </trkpt>
      <trkpt lat="59.1841583" lon="17.8936579">
        <ele>2.2</ele>
        <time>2013-03-09T12:21:15Z</time>
      </trkpt>
      <trkpt lat="59.1839952" lon="17.8934379">
        <ele>2.6</ele>
        <time>2013-03-09T12:21:19Z</time>
      </trkpt>
      <trkpt lat="59.1838321" lon="17.8932871">
        <ele>2.4</ele>
        <time>2013-03-09T12:21:23Z</time>
      </trkpt>
      <trkpt lat="59.1836487" lon="17.8931578">
        <ele>3</ele>
        <time>2013-03-09T12:21:27Z</time>
      </trkpt>
      <trkpt lat="59.1836348" lon="17.8928598">
        <ele>0</ele>
        <time>2013-03-09T12:21:31Z</time>
      </trkpt>
      <trkpt lat="59.1836285" lon="17.8926064">
        <ele>0</ele>
        <time>2013-03-09T12:21:33Z</time>
      </trkpt>
      <trkpt lat="59.1836292" lon="17.8923717">
        <ele>0</ele>
        <time>2013-03-09T12:21:36Z</time>
      </trkpt>
      <trkpt lat="59.1836399" lon="17.8920242">
        <ele>0.2</ele>
        <time>2013-03-09T12:21:40Z</time>
      </trkpt>
      <trkpt lat="59.1836477" lon="17.8919383">
        <ele>1.2</ele>
        <time>2013-03-09T12:21:41Z</time>
      </trkpt>
      <trkpt lat="59.1836616" lon="17.8915822">
        <ele>2.4</ele>
        <time>2013-03-09T12:21:45Z</time>
      </trkpt>
      <trkpt lat="59.18368" lon="17.8914025">
        <ele>3.2</ele>
        <time>2013-03-09T12:21:47Z</time>
      </trkpt>
      <trkpt lat="59.1836877" lon="17.8912157">
        <ele>5.2</ele>
        <time>2013-03-09T12:21:49Z</time>
      </trkpt>
      <trkpt lat="59.1836882" lon="17.8910385">
        <ele>8.6</ele>
        <time>2013-03-09T12:21:51Z</time>
      </trkpt>
      <trkpt lat="59.1836988" lon="17.8908287">
        <ele>13.6</ele>
        <time>2013-03-09T12:21:54Z</time>
      </trkpt>
      <trkpt lat="59.1837265" lon="17.8905322">
        <ele>24.8</ele>
        <time>2013-03-09T12:22:00Z</time>
      </trkpt>
      <trkpt lat="59.1837273" lon="17.8904743">
        <ele>26.8</ele>
        <time>2013-03-09T12:22:01Z</time>
      </trkpt>
      <trkpt lat="59.1837564" lon="17.890354">
        <ele>31.2</ele>
        <time>2013-03-09T12:22:03Z</time>
      </trkpt>
      <trkpt lat="59.1838113" lon="17.8901429">
        <ele>39</ele>
        <time>2013-03-09T12:22:06Z</time>
      </trkpt>
      <trkpt lat="59.1838073" lon="17.8897584">
        <ele>49.2</ele>
        <time>2013-03-09T12:22:13Z</time>
      </trkpt>
      <trkpt lat="59.1837706" lon="17.8894685">
        <ele>54.6</ele>
        <time>2013-03-09T12:22:20Z</time>
      </trkpt>
      <trkpt lat="59.1837406" lon="17.8893632">
        <ele>54.6</ele>
        <time>2013-03-09T12:22:21Z</time>
      </trkpt>
      <trkpt lat="59.1836773" lon="17.8891012">
        <ele>57.6</ele>
        <time>2013-03-09T12:22:26Z</time>
      </trkpt>
      <trkpt lat="59.1835823" lon="17.8887614">
        <ele>59.4</ele>
        <time>2013-03-09T12:22:33Z</time>
      </trkpt>
      <trkpt lat="59.1835722" lon="17.8886974">
        <ele>59.2</ele>
        <time>2013-03-09T12:22:34Z</time>
      </trkpt>
      <trkpt lat="59.1835613" lon="17.888377">
        <ele>58.4</ele>
        <time>2013-03-09T12:22:39Z</time>
      </trkpt>
      <trkpt lat="59.1835623" lon="17.8879403">
        <ele>58.4</ele>
        <time>2013-03-09T12:22:44Z</time>
      </trkpt>
      <trkpt lat="59.1835457" lon="17.8877267">
        <ele>58.2</ele>
        <time>2013-03-09T12:22:46Z</time>
      </trkpt>
      <trkpt lat="59.1834965" lon="17.8875167">
        <ele>58.2</ele>
        <time>2013-03-09T12:22:48Z</time>
      </trkpt>
      <trkpt lat="59.183413" lon="17.8871436">
        <ele>56.8</ele>
        <time>2013-03-09T12:22:51Z</time>
      </trkpt>
      <trkpt lat="59.1833577" lon="17.8868025">
        <ele>53.4</ele>
        <time>2013-03-09T12:22:53Z</time>
      </trkpt>
      <trkpt lat="59.1832932" lon="17.8864608">
        <ele>51.4</ele>
        <time>2013-03-09T12:22:55Z</time>
      </trkpt>
      <trkpt lat="59.1832018" lon="17.8859926">
        <ele>48.6</ele>
        <time>2013-03-09T12:22:58Z</time>
      </trkpt>
      <trkpt lat="59.1831251" lon="17.8855637">
        <ele>45.6</ele>
        <time>2013-03-09T12:23:01Z</time>
      </trkpt>
      <trkpt lat="59.1831116" lon="17.8854305">
        <ele>45</ele>
        <time>2013-03-09T12:23:02Z</time>
      </trkpt>
      <trkpt lat="59.1831138" lon="17.8851706">
        <ele>44</ele>
        <time>2013-03-09T12:23:04Z</time>
      </trkpt>
      <trkpt lat="59.1831306" lon="17.8848031">
        <ele>42.2</ele>
        <time>2013-03-09T12:23:07Z</time>
      </trkpt>
      <trkpt lat="59.1831406" lon="17.8846024">
        <ele>41.6</ele>
        <time>2013-03-09T12:23:09Z</time>
      </trkpt>
      <trkpt lat="59.1831687" lon="17.8843879">
        <ele>42.2</ele>
        <time>2013-03-09T12:23:11Z</time>
      </trkpt>
      <trkpt lat="59.1831904" lon="17.8842878">
        <ele>42.8</ele>
        <time>2013-03-09T12:23:12Z</time>
      </trkpt>
      <trkpt lat="59.1832775" lon="17.884063">
        <ele>42.4</ele>
        <time>2013-03-09T12:23:15Z</time>
      </trkpt>
      <trkpt lat="59.183308" lon="17.8839877">
        <ele>42.6</ele>
        <time>2013-03-09T12:23:16Z</time>
      </trkpt>
      <trkpt lat="59.1833737" lon="17.8838323">
        <ele>42.6</ele>
        <time>2013-03-09T12:23:18Z</time>
      </trkpt>
      <trkpt lat="59.1834053" lon="17.8837729">
        <ele>42</ele>
        <time>2013-03-09T12:23:19Z</time>
      </trkpt>
      <trkpt lat="59.1834942" lon="17.8836044">
        <ele>41.2</ele>
        <time>2013-03-09T12:23:22Z</time>
      </trkpt>
      <trkpt lat="59.1835613" lon="17.8835121">
        <ele>39.4</ele>
        <time>2013-03-09T12:23:24Z</time>
      </trkpt>
      <trkpt lat="59.1836298" lon="17.8834129">
        <ele>39.8</ele>
        <time>2013-03-09T12:23:26Z</time>
      </trkpt>
      <trkpt lat="59.1836979" lon="17.8832298">
        <ele>38.4</ele>
        <time>2013-03-09T12:23:29Z</time>
      </trkpt>
      <trkpt lat="59.1838206" lon="17.8829907">
        <ele>37</ele>
        <time>2013-03-09T12:23:33Z</time>
      </trkpt>
      <trkpt lat="59.1838519" lon="17.882928">
        <ele>36.6</ele>
        <time>2013-03-09T12:23:34Z</time>
      </trkpt>
      <trkpt lat="59.1838861" lon="17.8828699">
        <ele>37</ele>
        <time>2013-03-09T12:23:35Z</time>
      </trkpt>
      <trkpt lat="59.1839912" lon="17.8827083">
        <ele>37.2</ele>
        <time>2013-03-09T12:23:38Z</time>
      </trkpt>
      <trkpt lat="59.1840213" lon="17.8826468">
        <ele>38.4</ele>
        <time>2013-03-09T12:23:39Z</time>
      </trkpt>
      <trkpt lat="59.1840713" lon="17.8825156">
        <ele>40.2</ele>
        <time>2013-03-09T12:23:41Z</time>
      </trkpt>
      <trkpt lat="59.1841177" lon="17.882283">
        <ele>40.4</ele>
        <time>2013-03-09T12:23:44Z</time>
      </trkpt>
      <trkpt lat="59.1841227" lon="17.8822164">
        <ele>40</ele>
        <time>2013-03-09T12:23:45Z</time>
      </trkpt>
      <trkpt lat="59.1840819" lon="17.8819402">
        <ele>37.8</ele>
        <time>2013-03-09T12:23:49Z</time>
      </trkpt>
      <trkpt lat="59.1840587" lon="17.8818703">
        <ele>36.8</ele>
        <time>2013-03-09T12:23:50Z</time>
      </trkpt>
      <trkpt lat="59.1840301" lon="17.8817986">
        <ele>36.4</ele>
        <time>2013-03-09T12:23:51Z</time>
      </trkpt>
      <trkpt lat="59.1839596" lon="17.881676">
        <ele>35.2</ele>
        <time>2013-03-09T12:23:53Z</time>
      </trkpt>
      <trkpt lat="59.18387" lon="17.8815149">
        <ele>33.8</ele>
        <time>2013-03-09T12:23:55Z</time>
      </trkpt>
      <trkpt lat="59.1838197" lon="17.8813963">
        <ele>34.8</ele>
        <time>2013-03-09T12:23:56Z</time>
      </trkpt>
      <trkpt lat="59.1837042" lon="17.8811217">
        <ele>40.8</ele>
        <time>2013-03-09T12:23:58Z</time>
      </trkpt>
      <trkpt lat="59.1835895" lon="17.880766">
        <ele>43.6</ele>
        <time>2013-03-09T12:24:01Z</time>
      </trkpt>
      <trkpt lat="59.1835074" lon="17.8804389">
        <ele>40.8</ele>
        <time>2013-03-09T12:24:04Z</time>
      </trkpt>
      <trkpt lat="59.1834334" lon="17.8802528">
        <ele>41.4</ele>
        <time>2013-03-09T12:24:06Z</time>
      </trkpt>
      <trkpt lat="59.1833448" lon="17.88012">
        <ele>40.2</ele>
        <time>2013-03-09T12:24:08Z</time>
      </trkpt>
      <trkpt lat="59.1832406" lon="17.8800515">
        <ele>40.6</ele>
        <time>2013-03-09T12:24:10Z</time>
      </trkpt>
      <trkpt lat="59.183135" lon="17.8799848">
        <ele>40</ele>
        <time>2013-03-09T12:24:12Z</time>
      </trkpt>
      <trkpt lat="59.1829671" lon="17.8798386">
        <ele>42.8</ele>
        <time>2013-03-09T12:24:15Z</time>
      </trkpt>
      <trkpt lat="59.1827935" lon="17.879675">
        <ele>43.8</ele>
        <time>2013-03-09T12:24:18Z</time>
      </trkpt>
      <trkpt lat="59.182737" lon="17.8796039">
        <ele>44.6</ele>
        <time>2013-03-09T12:24:19Z</time>
      </trkpt>
      <trkpt lat="59.1826459" lon="17.8794567">
        <ele>45</ele>
        <time>2013-03-09T12:24:21Z</time>
      </trkpt>
      <trkpt lat="59.1825236" lon="17.879086">
        <ele>43.8</ele>
        <time>2013-03-09T12:24:25Z</time>
      </trkpt>
      <trkpt lat="59.1825026" lon="17.8789936">
        <ele>43.8</ele>
        <time>2013-03-09T12:24:26Z</time>
      </trkpt>
      <trkpt lat="59.1824833" lon="17.8788905">
        <ele>43.6</ele>
        <time>2013-03-09T12:24:27Z</time>
      </trkpt>
      <trkpt lat="59.1824517" lon="17.8786907">
        <ele>42.8</ele>
        <time>2013-03-09T12:24:29Z</time>
      </trkpt>
      <trkpt lat="59.1824253" lon="17.8784914">
        <ele>41.8</ele>
        <time>2013-03-09T12:24:31Z</time>
      </trkpt>
      <trkpt lat="59.1824028" lon="17.8782876">
        <ele>40.6</ele>
        <time>2013-03-09T12:24:33Z</time>
      </trkpt>
      <trkpt lat="59.1823719" lon="17.8779194">
        <ele>39.4</ele>
        <time>2013-03-09T12:24:37Z</time>
      </trkpt>
      <trkpt lat="59.1823445" lon="17.8775038">
        <ele>37.2</ele>
        <time>2013-03-09T12:24:42Z</time>
      </trkpt>
      <trkpt lat="59.1823342" lon="17.8774186">
        <ele>36.8</ele>
        <time>2013-03-09T12:24:43Z</time>
      </trkpt>
      <trkpt lat="59.1823127" lon="17.8771196">
        <ele>34.2</ele>
        <time>2013-03-09T12:24:46Z</time>
      </trkpt>
      <trkpt lat="59.1823044" lon="17.8769182">
        <ele>32.4</ele>
        <time>2013-03-09T12:24:48Z</time>
      </trkpt>
      <trkpt lat="59.182277" lon="17.8767321">
        <ele>30.8</ele>
        <time>2013-03-09T12:24:50Z</time>
      </trkpt>
      <trkpt lat="59.1822533" lon="17.8765668">
        <ele>31.2</ele>
        <time>2013-03-09T12:24:52Z</time>
      </trkpt>
      <trkpt lat="59.1822216" lon="17.8763721">
        <ele>31.4</ele>
        <time>2013-03-09T12:24:54Z</time>
      </trkpt>
      <trkpt lat="59.1821786" lon="17.8760502">
        <ele>30.4</ele>
        <time>2013-03-09T12:24:57Z</time>
      </trkpt>
      <trkpt lat="59.1821689" lon="17.8759339">
        <ele>30.8</ele>
        <time>2013-03-09T12:24:58Z</time>
      </trkpt>
      <trkpt lat="59.1821653" lon="17.8756801">
        <ele>31</ele>
        <time>2013-03-09T12:25:00Z</time>
      </trkpt>
      <trkpt lat="59.1821704" lon="17.8755628">
        <ele>31</ele>
        <time>2013-03-09T12:25:01Z</time>
      </trkpt>
      <trkpt lat="59.1821725" lon="17.8754598">
        <ele>30.6</ele>
        <time>2013-03-09T12:25:02Z</time>
      </trkpt>
      <trkpt lat="59.1822093" lon="17.8751703">
        <ele>31</ele>
        <time>2013-03-09T12:25:05Z</time>
      </trkpt>
      <trkpt lat="59.1822299" lon="17.8750735">
        <ele>30.4</ele>
        <time>2013-03-09T12:25:06Z</time>
      </trkpt>
      <trkpt lat="59.1822669" lon="17.8748586">
        <ele>33.4</ele>
        <time>2013-03-09T12:25:08Z</time>
      </trkpt>
      <trkpt lat="59.1822807" lon="17.8747554">
        <ele>35</ele>
        <time>2013-03-09T12:25:09Z</time>
      </trkpt>
      <trkpt lat="59.1823331" lon="17.8744156">
        <ele>36.6</ele>
        <time>2013-03-09T12:25:12Z</time>
      </trkpt>
      <trkpt lat="59.1823371" lon="17.8740251">
        <ele>35.4</ele>
        <time>2013-03-09T12:25:15Z</time>
      </trkpt>
      <trkpt lat="59.1823267" lon="17.8738775">
        <ele>34.8</ele>
        <time>2013-03-09T12:25:16Z</time>
      </trkpt>
      <trkpt lat="59.1822998" lon="17.8735553">
        <ele>33.6</ele>
        <time>2013-03-09T12:25:18Z</time>
      </trkpt>
      <trkpt lat="59.1822565" lon="17.8730514">
        <ele>32.8</ele>
        <time>2013-03-09T12:25:21Z</time>
      </trkpt>
      <trkpt lat="59.1822112" lon="17.8725663">
        <ele>31.8</ele>
        <time>2013-03-09T12:25:24Z</time>
      </trkpt>
      <trkpt lat="59.1821907" lon="17.8724234">
        <ele>32</ele>
        <time>2013-03-09T12:25:25Z</time>
      </trkpt>
      <trkpt lat="59.1821179" lon="17.8721616">
        <ele>34</ele>
        <time>2013-03-09T12:25:27Z</time>
      </trkpt>
      <trkpt lat="59.1820047" lon="17.8718466">
        <ele>35.4</ele>
        <time>2013-03-09T12:25:30Z</time>
      </trkpt>
      <trkpt lat="59.1819042" lon="17.8715235">
        <ele>35.8</ele>
        <time>2013-03-09T12:25:33Z</time>
      </trkpt>
      <trkpt lat="59.1818228" lon="17.8712065">
        <ele>34.6</ele>
        <time>2013-03-09T12:25:36Z</time>
      </trkpt>
      <trkpt lat="59.1817245" lon="17.8708853">
        <ele>32.6</ele>
        <time>2013-03-09T12:25:39Z</time>
      </trkpt>
      <trkpt lat="59.1816265" lon="17.8705729">
        <ele>30.8</ele>
        <time>2013-03-09T12:25:42Z</time>
      </trkpt>
      <trkpt lat="59.1814973" lon="17.8701775">
        <ele>28.6</ele>
        <time>2013-03-09T12:25:46Z</time>
      </trkpt>
      <trkpt lat="59.1813811" lon="17.8697901">
        <ele>27.4</ele>
        <time>2013-03-09T12:25:50Z</time>
      </trkpt>
      <trkpt lat="59.1812893" lon="17.8694717">
        <ele>29.2</ele>
        <time>2013-03-09T12:25:53Z</time>
      </trkpt>
      <trkpt lat="59.1811765" lon="17.8691291">
        <ele>30</ele>
        <time>2013-03-09T12:25:57Z</time>
      </trkpt>
      <trkpt lat="59.1809724" lon="17.8691516">
        <ele>32.4</ele>
        <time>2013-03-09T12:26:02Z</time>
      </trkpt>
      <trkpt lat="59.1808873" lon="17.869219">
        <ele>34.4</ele>
        <time>2013-03-09T12:26:04Z</time>
      </trkpt>
      <trkpt lat="59.1808048" lon="17.86929">
        <ele>35.8</ele>
        <time>2013-03-09T12:26:06Z</time>
      </trkpt>
      <trkpt lat="59.1807127" lon="17.869368">
        <ele>37.2</ele>
        <time>2013-03-09T12:26:08Z</time>
      </trkpt>
      <trkpt lat="59.1806221" lon="17.8694278">
        <ele>38.4</ele>
        <time>2013-03-09T12:26:10Z</time>
      </trkpt>
      <trkpt lat="59.18058" lon="17.8694624">
        <ele>38.8</ele>
        <time>2013-03-09T12:26:11Z</time>
      </trkpt>
      <trkpt lat="59.1804487" lon="17.8695578">
        <ele>41.2</ele>
        <time>2013-03-09T12:26:14Z</time>
      </trkpt>
      <trkpt lat="59.1804119" lon="17.8695746">
        <ele>40</ele>
        <time>2013-03-09T12:26:15Z</time>
      </trkpt>
      <trkpt lat="59.1802465" lon="17.8697146">
        <ele>40.2</ele>
        <time>2013-03-09T12:26:19Z</time>
      </trkpt>
      <trkpt lat="59.1801696" lon="17.869769">
        <ele>40.6</ele>
        <time>2013-03-09T12:26:21Z</time>
      </trkpt>
      <trkpt lat="59.1800897" lon="17.8698218">
        <ele>40.4</ele>
        <time>2013-03-09T12:26:23Z</time>
      </trkpt>
      <trkpt lat="59.1800495" lon="17.8698562">
        <ele>40.4</ele>
        <time>2013-03-09T12:26:24Z</time>
      </trkpt>
      <trkpt lat="59.1799642" lon="17.8699083">
        <ele>40.6</ele>
        <time>2013-03-09T12:26:26Z</time>
      </trkpt>
      <trkpt lat="59.1798709" lon="17.8699336">
        <ele>41.8</ele>
        <time>2013-03-09T12:26:28Z</time>
      </trkpt>
      <trkpt lat="59.1797181" lon="17.869812">
        <ele>41.6</ele>
        <time>2013-03-09T12:26:33Z</time>
      </trkpt>
      <trkpt lat="59.1796889" lon="17.8697805">
        <ele>42.4</ele>
        <time>2013-03-09T12:26:34Z</time>
      </trkpt>
      <trkpt lat="59.1795149" lon="17.8695923">
        <ele>45.8</ele>
        <time>2013-03-09T12:26:40Z</time>
      </trkpt>
      <trkpt lat="59.1793162" lon="17.8694752">
        <ele>49.2</ele>
        <time>2013-03-09T12:26:45Z</time>
      </trkpt>
      <trkpt lat="59.1791257" lon="17.8693392">
        <ele>51.4</ele>
        <time>2013-03-09T12:26:50Z</time>
      </trkpt>
      <trkpt lat="59.1790872" lon="17.8693102">
        <ele>52.2</ele>
        <time>2013-03-09T12:26:51Z</time>
      </trkpt>
      <trkpt lat="59.1790181" lon="17.8692513">
        <ele>52.4</ele>
        <time>2013-03-09T12:26:53Z</time>
      </trkpt>
      <trkpt lat="59.178942" lon="17.869185">
        <ele>53.2</ele>
        <time>2013-03-09T12:26:55Z</time>
      </trkpt>
      <trkpt lat="59.1787822" lon="17.8690128">
        <ele>53.8</ele>
        <time>2013-03-09T12:27:00Z</time>
      </trkpt>
      <trkpt lat="59.178591" lon="17.8688382">
        <ele>53.6</ele>
        <time>2013-03-09T12:27:06Z</time>
      </trkpt>
      <trkpt lat="59.178434" lon="17.8686133">
        <ele>46</ele>
        <time>2013-03-09T12:27:12Z</time>
      </trkpt>
      <trkpt lat="59.178245" lon="17.8684698">
        <ele>40</ele>
        <time>2013-03-09T12:27:19Z</time>
      </trkpt>
      <trkpt lat="59.1780858" lon="17.86827">
        <ele>34.4</ele>
        <time>2013-03-09T12:27:26Z</time>
      </trkpt>
      <trkpt lat="59.1779624" lon="17.8681047">
        <ele>31</ele>
        <time>2013-03-09T12:27:32Z</time>
      </trkpt>
      <trkpt lat="59.1779305" lon="17.8680899">
        <ele>33</ele>
        <time>2013-03-09T12:27:33Z</time>
      </trkpt>
      <trkpt lat="59.1777968" lon="17.8681583">
        <ele>35.8</ele>
        <time>2013-03-09T12:27:37Z</time>
      </trkpt>
      <trkpt lat="59.1777374" lon="17.8682269">
        <ele>35.4</ele>
        <time>2013-03-09T12:27:39Z</time>
      </trkpt>
      <trkpt lat="59.1775705" lon="17.8684103">
        <ele>34</ele>
        <time>2013-03-09T12:27:45Z</time>
      </trkpt>
      <trkpt lat="59.1774118" lon="17.8685791">
        <ele>31</ele>
        <time>2013-03-09T12:27:50Z</time>
      </trkpt>
      <trkpt lat="59.1772453" lon="17.8687392">
        <ele>33.6</ele>
        <time>2013-03-09T12:27:54Z</time>
      </trkpt>
      <trkpt lat="59.1771178" lon="17.8689074">
        <ele>32.8</ele>
        <time>2013-03-09T12:27:58Z</time>
      </trkpt>
      <trkpt lat="59.1770794" lon="17.8689421">
        <ele>34</ele>
        <time>2013-03-09T12:27:59Z</time>
      </trkpt>
      <trkpt lat="59.1770049" lon="17.8690328">
        <ele>34.8</ele>
        <time>2013-03-09T12:28:01Z</time>
      </trkpt>
      <trkpt lat="59.1769085" lon="17.8691708">
        <ele>34.8</ele>
        <time>2013-03-09T12:28:04Z</time>
      </trkpt>
      <trkpt lat="59.1767484" lon="17.8693867">
        <ele>36.4</ele>
        <time>2013-03-09T12:28:11Z</time>
      </trkpt>
      <trkpt lat="59.1767204" lon="17.8694363">
        <ele>36.4</ele>
        <time>2013-03-09T12:28:13Z</time>
      </trkpt>
      <trkpt lat="59.1765579" lon="17.8694696">
        <ele>40.4</ele>
        <time>2013-03-09T12:28:19Z</time>
      </trkpt>
      <trkpt lat="59.1763713" lon="17.8694576">
        <ele>41.4</ele>
        <time>2013-03-09T12:28:23Z</time>
      </trkpt>
      <trkpt lat="59.1762216" lon="17.8694484">
        <ele>41.8</ele>
        <time>2013-03-09T12:28:26Z</time>
      </trkpt>
      <trkpt lat="59.1761719" lon="17.869443">
        <ele>42.2</ele>
        <time>2013-03-09T12:28:27Z</time>
      </trkpt>
      <trkpt lat="59.1759812" lon="17.8694163">
        <ele>43.4</ele>
        <time>2013-03-09T12:28:31Z</time>
      </trkpt>
      <trkpt lat="59.1758181" lon="17.8692536">
        <ele>41.6</ele>
        <time>2013-03-09T12:28:36Z</time>
      </trkpt>
      <trkpt lat="59.1757901" lon="17.8692179">
        <ele>40.4</ele>
        <time>2013-03-09T12:28:37Z</time>
      </trkpt>
      <trkpt lat="59.1756419" lon="17.8690947">
        <ele>36.8</ele>
        <time>2013-03-09T12:28:41Z</time>
      </trkpt>
      <trkpt lat="59.175463" lon="17.8688927">
        <ele>33.8</ele>
        <time>2013-03-09T12:28:46Z</time>
      </trkpt>
      <trkpt lat="59.1753188" lon="17.8687818">
        <ele>31.6</ele>
        <time>2013-03-09T12:28:50Z</time>
      </trkpt>
      <trkpt lat="59.1752818" lon="17.8687701">
        <ele>30.8</ele>
        <time>2013-03-09T12:28:51Z</time>
      </trkpt>
      <trkpt lat="59.175069" lon="17.8687776">
        <ele>28</ele>
        <time>2013-03-09T12:28:56Z</time>
      </trkpt>
      <trkpt lat="59.1749896" lon="17.8688209">
        <ele>27.2</ele>
        <time>2013-03-09T12:28:58Z</time>
      </trkpt>
      <trkpt lat="59.1748753" lon="17.8688315">
        <ele>26.6</ele>
        <time>2013-03-09T12:29:01Z</time>
      </trkpt>
      <trkpt lat="59.1747544" lon="17.8688211">
        <ele>28.4</ele>
        <time>2013-03-09T12:29:05Z</time>
      </trkpt>
      <trkpt lat="59.1746813" lon="17.8688402">
        <ele>28</ele>
        <time>2013-03-09T12:29:07Z</time>
      </trkpt>
      <trkpt lat="59.1744732" lon="17.8688981">
        <ele>27.4</ele>
        <time>2013-03-09T12:29:13Z</time>
      </trkpt>
      <trkpt lat="59.1742851" lon="17.8689589">
        <ele>28.2</ele>
        <time>2013-03-09T12:29:18Z</time>
      </trkpt>
      <trkpt lat="59.1740931" lon="17.8689671">
        <ele>33</ele>
        <time>2013-03-09T12:29:23Z</time>
      </trkpt>
      <trkpt lat="59.1739402" lon="17.8690134">
        <ele>35.4</ele>
        <time>2013-03-09T12:29:26Z</time>
      </trkpt>
      <trkpt lat="59.1738921" lon="17.869042">
        <ele>37.6</ele>
        <time>2013-03-09T12:29:27Z</time>
      </trkpt>
      <trkpt lat="59.1737154" lon="17.8692339">
        <ele>42</ele>
        <time>2013-03-09T12:29:33Z</time>
      </trkpt>
      <trkpt lat="59.1736006" lon="17.869336">
        <ele>41</ele>
        <time>2013-03-09T12:29:37Z</time>
      </trkpt>
      <trkpt lat="59.17352" lon="17.8693976">
        <ele>40.2</ele>
        <time>2013-03-09T12:29:39Z</time>
      </trkpt>
      <trkpt lat="59.1733236" lon="17.8694893">
        <ele>44.4</ele>
        <time>2013-03-09T12:29:43Z</time>
      </trkpt>
      <trkpt lat="59.1732768" lon="17.869512">
        <ele>43.8</ele>
        <time>2013-03-09T12:29:44Z</time>
      </trkpt>
      <trkpt lat="59.1731509" lon="17.8696626">
        <ele>45.2</ele>
        <time>2013-03-09T12:29:48Z</time>
      </trkpt>
      <trkpt lat="59.1730936" lon="17.8697706">
        <ele>50.6</ele>
        <time>2013-03-09T12:29:51Z</time>
      </trkpt>
      <trkpt lat="59.1730012" lon="17.8699229">
        <ele>54</ele>
        <time>2013-03-09T12:29:55Z</time>
      </trkpt>
      <trkpt lat="59.1728701" lon="17.8702071">
        <ele>60.6</ele>
        <time>2013-03-09T12:30:03Z</time>
      </trkpt>
      <trkpt lat="59.1727628" lon="17.8703539">
        <ele>61.2</ele>
        <time>2013-03-09T12:30:09Z</time>
      </trkpt>
      <trkpt lat="59.1727158" lon="17.8704498">
        <ele>62.4</ele>
        <time>2013-03-09T12:30:12Z</time>
      </trkpt>
      <trkpt lat="59.1725997" lon="17.870632">
        <ele>63.2</ele>
        <time>2013-03-09T12:30:18Z</time>
      </trkpt>
      <trkpt lat="59.1725436" lon="17.8706969">
        <ele>62.4</ele>
        <time>2013-03-09T12:30:20Z</time>
      </trkpt>
      <trkpt lat="59.1723334" lon="17.8708347">
        <ele>61.2</ele>
        <time>2013-03-09T12:30:23Z</time>
      </trkpt>
      <trkpt lat="59.1721626" lon="17.8710719">
        <ele>60.4</ele>
        <time>2013-03-09T12:30:26Z</time>
      </trkpt>
      <trkpt lat="59.1720195" lon="17.8714216">
        <ele>58.4</ele>
        <time>2013-03-09T12:30:30Z</time>
      </trkpt>
      <trkpt lat="59.1719552" lon="17.8715935">
        <ele>57</ele>
        <time>2013-03-09T12:30:32Z</time>
      </trkpt>
      <trkpt lat="59.1718802" lon="17.8717375">
        <ele>54.6</ele>
        <time>2013-03-09T12:30:34Z</time>
      </trkpt>
      <trkpt lat="59.1717273" lon="17.8719996">
        <ele>49.6</ele>
        <time>2013-03-09T12:30:38Z</time>
      </trkpt>
      <trkpt lat="59.1716884" lon="17.8720786">
        <ele>49</ele>
        <time>2013-03-09T12:30:39Z</time>
      </trkpt>
      <trkpt lat="59.1716424" lon="17.8721617">
        <ele>48.6</ele>
        <time>2013-03-09T12:30:40Z</time>
      </trkpt>
      <trkpt lat="59.1715979" lon="17.8722465">
        <ele>48.2</ele>
        <time>2013-03-09T12:30:41Z</time>
      </trkpt>
      <trkpt lat="59.1714522" lon="17.8724579">
        <ele>46.2</ele>
        <time>2013-03-09T12:30:44Z</time>
      </trkpt>
      <trkpt lat="59.1713626" lon="17.8725937">
        <ele>46.4</ele>
        <time>2013-03-09T12:30:46Z</time>
      </trkpt>
      <trkpt lat="59.171284" lon="17.8727109">
        <ele>47.4</ele>
        <time>2013-03-09T12:30:48Z</time>
      </trkpt>
      <trkpt lat="59.1711332" lon="17.8728988">
        <ele>47.6</ele>
        <time>2013-03-09T12:30:52Z</time>
      </trkpt>
      <trkpt lat="59.1710991" lon="17.8729473">
        <ele>48</ele>
        <time>2013-03-09T12:30:53Z</time>
      </trkpt>
      <trkpt lat="59.1710689" lon="17.8729967">
        <ele>48.2</ele>
        <time>2013-03-09T12:30:54Z</time>
      </trkpt>
      <trkpt lat="59.1709427" lon="17.8731531">
        <ele>48.8</ele>
        <time>2013-03-09T12:30:58Z</time>
      </trkpt>
      <trkpt lat="59.1708114" lon="17.8734365">
        <ele>51.6</ele>
        <time>2013-03-09T12:31:05Z</time>
      </trkpt>
      <trkpt lat="59.1706613" lon="17.8736443">
        <ele>53</ele>
        <time>2013-03-09T12:31:10Z</time>
      </trkpt>
      <trkpt lat="59.1704892" lon="17.8735063">
        <ele>51.4</ele>
        <time>2013-03-09T12:31:16Z</time>
      </trkpt>
      <trkpt lat="59.1703023" lon="17.8733614">
        <ele>54.6</ele>
        <time>2013-03-09T12:31:23Z</time>
      </trkpt>
      <trkpt lat="59.170114" lon="17.8731966">
        <ele>50</ele>
        <time>2013-03-09T12:31:29Z</time>
      </trkpt>
      <trkpt lat="59.1700101" lon="17.8730931">
        <ele>50.6</ele>
        <time>2013-03-09T12:31:32Z</time>
      </trkpt>
      <trkpt lat="59.169949" lon="17.8730336">
        <ele>48.8</ele>
        <time>2013-03-09T12:31:34Z</time>
      </trkpt>
      <trkpt lat="59.1698417" lon="17.872975">
        <ele>47.4</ele>
        <time>2013-03-09T12:31:37Z</time>
      </trkpt>
      <trkpt lat="59.1697637" lon="17.8728812">
        <ele>49.2</ele>
        <time>2013-03-09T12:31:39Z</time>
      </trkpt>
      <trkpt lat="59.1695997" lon="17.8726611">
        <ele>45.4</ele>
        <time>2013-03-09T12:31:44Z</time>
      </trkpt>
      <trkpt lat="59.1695249" lon="17.8725746">
        <ele>45.4</ele>
        <time>2013-03-09T12:31:46Z</time>
      </trkpt>
      <trkpt lat="59.1694257" lon="17.8725186">
        <ele>43.4</ele>
        <time>2013-03-09T12:31:49Z</time>
      </trkpt>
      <trkpt lat="59.169371" lon="17.8725076">
        <ele>46.2</ele>
        <time>2013-03-09T12:31:51Z</time>
      </trkpt>
      <trkpt lat="59.1692387" lon="17.8725191">
        <ele>54.8</ele>
        <time>2013-03-09T12:31:57Z</time>
      </trkpt>
      <trkpt lat="59.1690469" lon="17.8726169">
        <ele>62</ele>
        <time>2013-03-09T12:32:05Z</time>
      </trkpt>
      <trkpt lat="59.1689675" lon="17.872615">
        <ele>64</ele>
        <time>2013-03-09T12:32:08Z</time>
      </trkpt>
      <trkpt lat="59.1688722" lon="17.8725393">
        <ele>64.2</ele>
        <time>2013-03-09T12:32:12Z</time>
      </trkpt>
      <trkpt lat="59.1686971" lon="17.8723156">
        <ele>63.2</ele>
        <time>2013-03-09T12:32:18Z</time>
      </trkpt>
      <trkpt lat="59.1685175" lon="17.8722312">
        <ele>64</ele>
        <time>2013-03-09T12:32:22Z</time>
      </trkpt>
      <trkpt lat="59.168429" lon="17.8722394">
        <ele>63.2</ele>
        <time>2013-03-09T12:32:24Z</time>
      </trkpt>
      <trkpt lat="59.1683199" lon="17.8721361">
        <ele>61.4</ele>
        <time>2013-03-09T12:32:27Z</time>
      </trkpt>
      <trkpt lat="59.1682664" lon="17.8720255">
        <ele>59.4</ele>
        <time>2013-03-09T12:32:29Z</time>
      </trkpt>
      <trkpt lat="59.16821" lon="17.8719157">
        <ele>57.6</ele>
        <time>2013-03-09T12:32:31Z</time>
      </trkpt>
      <trkpt lat="59.1681836" lon="17.871852">
        <ele>58</ele>
        <time>2013-03-09T12:32:32Z</time>
      </trkpt>
      <trkpt lat="59.1680567" lon="17.8715852">
        <ele>56.4</ele>
        <time>2013-03-09T12:32:38Z</time>
      </trkpt>
      <trkpt lat="59.1678759" lon="17.8715287">
        <ele>58.2</ele>
        <time>2013-03-09T12:32:44Z</time>
      </trkpt>
      <trkpt lat="59.1676926" lon="17.8715974">
        <ele>60.4</ele>
        <time>2013-03-09T12:32:52Z</time>
      </trkpt>
      <trkpt lat="59.1676815" lon="17.8716078">
        <ele>60.4</ele>
        <time>2013-03-09T12:32:53Z</time>
      </trkpt>
      <trkpt lat="59.1675163" lon="17.8717766">
        <ele>68.4</ele>
        <time>2013-03-09T12:33:03Z</time>
      </trkpt>
      <trkpt lat="59.1673315" lon="17.8718969">
        <ele>68.2</ele>
        <time>2013-03-09T12:33:11Z</time>
      </trkpt>
      <trkpt lat="59.1672902" lon="17.8719083">
        <ele>67.6</ele>
        <time>2013-03-09T12:33:13Z</time>
      </trkpt>
      <trkpt lat="59.1671409" lon="17.8718515">
        <ele>68.2</ele>
        <time>2013-03-09T12:33:19Z</time>
      </trkpt>
      <trkpt lat="59.1669632" lon="17.8717701">
        <ele>66.8</ele>
        <time>2013-03-09T12:33:25Z</time>
      </trkpt>
      <trkpt lat="59.1667519" lon="17.8717364">
        <ele>67.2</ele>
        <time>2013-03-09T12:33:31Z</time>
      </trkpt>
      <trkpt lat="59.1665944" lon="17.8719294">
        <ele>71.8</ele>
        <time>2013-03-09T12:33:37Z</time>
      </trkpt>
      <trkpt lat="59.1664295" lon="17.8721058">
        <ele>73.6</ele>
        <time>2013-03-09T12:33:44Z</time>
      </trkpt>
      <trkpt lat="59.166236" lon="17.8721835">
        <ele>76</ele>
        <time>2013-03-09T12:33:50Z</time>
      </trkpt>
      <trkpt lat="59.1660405" lon="17.8722959">
        <ele>76</ele>
        <time>2013-03-09T12:33:57Z</time>
      </trkpt>
      <trkpt lat="59.1658354" lon="17.8723824">
        <ele>78</ele>
        <time>2013-03-09T12:34:04Z</time>
      </trkpt>
      <trkpt lat="59.1656325" lon="17.8724875">
        <ele>79.6</ele>
        <time>2013-03-09T12:34:11Z</time>
      </trkpt>
      <trkpt lat="59.1654366" lon="17.8725481">
        <ele>78.6</ele>
        <time>2013-03-09T12:34:17Z</time>
      </trkpt>
      <trkpt lat="59.1652417" lon="17.8725704">
        <ele>79.2</ele>
        <time>2013-03-09T12:34:23Z</time>
      </trkpt>
      <trkpt lat="59.1650292" lon="17.8724887">
        <ele>79</ele>
        <time>2013-03-09T12:34:28Z</time>
      </trkpt>
      <trkpt lat="59.1649118" lon="17.8724435">
        <ele>79</ele>
        <time>2013-03-09T12:34:30Z</time>
      </trkpt>
      <trkpt lat="59.1648482" lon="17.8724319">
        <ele>80.2</ele>
        <time>2013-03-09T12:34:31Z</time>
      </trkpt>
      <trkpt lat="59.1646856" lon="17.8724604">
        <ele>81.8</ele>
        <time>2013-03-09T12:34:34Z</time>
      </trkpt>
      <trkpt lat="59.1646378" lon="17.8724845">
        <ele>81.4</ele>
        <time>2013-03-09T12:34:35Z</time>
      </trkpt>
      <trkpt lat="59.1644579" lon="17.8726518">
        <ele>80.8</ele>
        <time>2013-03-09T12:34:39Z</time>
      </trkpt>
      <trkpt lat="59.1644191" lon="17.8727244">
        <ele>80.4</ele>
        <time>2013-03-09T12:34:40Z</time>
      </trkpt>
      <trkpt lat="59.1643178" lon="17.8729525">
        <ele>78.4</ele>
        <time>2013-03-09T12:34:43Z</time>
      </trkpt>
      <trkpt lat="59.1642504" lon="17.8730999">
        <ele>78.4</ele>
        <time>2013-03-09T12:34:45Z</time>
      </trkpt>
      <trkpt lat="59.1641877" lon="17.8732274">
        <ele>77.2</ele>
        <time>2013-03-09T12:34:47Z</time>
      </trkpt>
      <trkpt lat="59.164138" lon="17.8733823">
        <ele>76.4</ele>
        <time>2013-03-09T12:34:49Z</time>
      </trkpt>
      <trkpt lat="59.164078" lon="17.8735587">
        <ele>75.6</ele>
        <time>2013-03-09T12:34:51Z</time>
      </trkpt>
      <trkpt lat="59.1639706" lon="17.8739816">
        <ele>73.8</ele>
        <time>2013-03-09T12:34:55Z</time>
      </trkpt>
      <trkpt lat="59.1638596" lon="17.8743579">
        <ele>74.2</ele>
        <time>2013-03-09T12:34:58Z</time>
      </trkpt>
      <trkpt lat="59.1637758" lon="17.8746104">
        <ele>72.4</ele>
        <time>2013-03-09T12:35:00Z</time>
      </trkpt>
      <trkpt lat="59.1637187" lon="17.8747584">
        <ele>72</ele>
        <time>2013-03-09T12:35:01Z</time>
      </trkpt>
      <trkpt lat="59.1636692" lon="17.874904">
        <ele>71.8</ele>
        <time>2013-03-09T12:35:02Z</time>
      </trkpt>
      <trkpt lat="59.1636118" lon="17.8752138">
        <ele>70.6</ele>
        <time>2013-03-09T12:35:04Z</time>
      </trkpt>
      <trkpt lat="59.1635811" lon="17.8756228">
        <ele>69</ele>
        <time>2013-03-09T12:35:07Z</time>
      </trkpt>
      <trkpt lat="59.1635743" lon="17.8757329">
        <ele>68.2</ele>
        <time>2013-03-09T12:35:08Z</time>
      </trkpt>
      <trkpt lat="59.1635676" lon="17.8759274">
        <ele>67.2</ele>
        <time>2013-03-09T12:35:10Z</time>
      </trkpt>
      <trkpt lat="59.1635595" lon="17.8760115">
        <ele>66.6</ele>
        <time>2013-03-09T12:35:11Z</time>
      </trkpt>
      <trkpt lat="59.1635531" lon="17.8760906">
        <ele>65.8</ele>
        <time>2013-03-09T12:35:12Z</time>
      </trkpt>
      <trkpt lat="59.1635614" lon="17.8764263">
        <ele>63</ele>
        <time>2013-03-09T12:35:16Z</time>
      </trkpt>
      <trkpt lat="59.1635587" lon="17.8765322">
        <ele>62.2</ele>
        <time>2013-03-09T12:35:17Z</time>
      </trkpt>
      <trkpt lat="59.1635495" lon="17.8766317">
        <ele>61.8</ele>
        <time>2013-03-09T12:35:18Z</time>
      </trkpt>
      <trkpt lat="59.1635029" lon="17.876789">
        <ele>60.8</ele>
        <time>2013-03-09T12:35:20Z</time>
      </trkpt>
      <trkpt lat="59.1633203" lon="17.8767668">
        <ele>61.2</ele>
        <time>2013-03-09T12:35:25Z</time>
      </trkpt>
      <trkpt lat="59.163277" lon="17.8766845">
        <ele>62.4</ele>
        <time>2013-03-09T12:35:27Z</time>
      </trkpt>
      <trkpt lat="59.1632618" lon="17.8766464">
        <ele>62.4</ele>
        <time>2013-03-09T12:35:28Z</time>
      </trkpt>
      <trkpt lat="59.1632056" lon="17.8764845">
        <ele>62.2</ele>
        <time>2013-03-09T12:35:32Z</time>
      </trkpt>
      <trkpt lat="59.1632162" lon="17.8761212">
        <ele>66.4</ele>
        <time>2013-03-09T12:35:38Z</time>
      </trkpt>
      <trkpt lat="59.1632256" lon="17.8757737">
        <ele>68</ele>
        <time>2013-03-09T12:35:42Z</time>
      </trkpt>
      <trkpt lat="59.1631822" lon="17.8753792">
        <ele>68</ele>
        <time>2013-03-09T12:35:46Z</time>
      </trkpt>
      <trkpt lat="59.1631417" lon="17.8750092">
        <ele>66.8</ele>
        <time>2013-03-09T12:35:50Z</time>
      </trkpt>
      <trkpt lat="59.163147" lon="17.8747528">
        <ele>65</ele>
        <time>2013-03-09T12:35:53Z</time>
      </trkpt>
      <trkpt lat="59.1631703" lon="17.8745845">
        <ele>62.6</ele>
        <time>2013-03-09T12:35:55Z</time>
      </trkpt>
      <trkpt lat="59.1631758" lon="17.8745039">
        <ele>61.8</ele>
        <time>2013-03-09T12:35:56Z</time>
      </trkpt>
      <trkpt lat="59.1631898" lon="17.8743321">
        <ele>60.8</ele>
        <time>2013-03-09T12:35:58Z</time>
      </trkpt>
      <trkpt lat="59.1632035" lon="17.8741674">
        <ele>59.2</ele>
        <time>2013-03-09T12:36:00Z</time>
      </trkpt>
      <trkpt lat="59.1631456" lon="17.8737795">
        <ele>54</ele>
        <time>2013-03-09T12:36:06Z</time>
      </trkpt>
      <trkpt lat="59.1631004" lon="17.8734289">
        <ele>51.8</ele>
        <time>2013-03-09T12:36:11Z</time>
      </trkpt>
      <trkpt lat="59.1631185" lon="17.8729921">
        <ele>49.8</ele>
        <time>2013-03-09T12:36:16Z</time>
      </trkpt>
      <trkpt lat="59.1631236" lon="17.8729045">
        <ele>48.6</ele>
        <time>2013-03-09T12:36:17Z</time>
      </trkpt>
      <trkpt lat="59.1631335" lon="17.8726176">
        <ele>46.8</ele>
        <time>2013-03-09T12:36:20Z</time>
      </trkpt>
      <trkpt lat="59.1631392" lon="17.872356">
        <ele>45.8</ele>
        <time>2013-03-09T12:36:23Z</time>
      </trkpt>
      <trkpt lat="59.1631517" lon="17.8722638">
        <ele>45.6</ele>
        <time>2013-03-09T12:36:24Z</time>
      </trkpt>
      <trkpt lat="59.1631838" lon="17.8721035">
        <ele>45.2</ele>
        <time>2013-03-09T12:36:26Z</time>
      </trkpt>
      <trkpt lat="59.1632257" lon="17.8719265">
        <ele>45</ele>
        <time>2013-03-09T12:36:28Z</time>
      </trkpt>
      <trkpt lat="59.1632634" lon="17.8717692">
        <ele>44.2</ele>
        <time>2013-03-09T12:36:30Z</time>
      </trkpt>
      <trkpt lat="59.1633085" lon="17.871606">
        <ele>44.6</ele>
        <time>2013-03-09T12:36:32Z</time>
      </trkpt>
      <trkpt lat="59.1633514" lon="17.8714472">
        <ele>45</ele>
        <time>2013-03-09T12:36:34Z</time>
      </trkpt>
      <trkpt lat="59.1633799" lon="17.8712081">
        <ele>45</ele>
        <time>2013-03-09T12:36:37Z</time>
      </trkpt>
      <trkpt lat="59.1633831" lon="17.8711253">
        <ele>44.6</ele>
        <time>2013-03-09T12:36:38Z</time>
      </trkpt>
      <trkpt lat="59.1633866" lon="17.8710428">
        <ele>45</ele>
        <time>2013-03-09T12:36:39Z</time>
      </trkpt>
      <trkpt lat="59.1634153" lon="17.8708219">
        <ele>44.2</ele>
        <time>2013-03-09T12:36:42Z</time>
      </trkpt>
      <trkpt lat="59.16344" lon="17.8707484">
        <ele>44.8</ele>
        <time>2013-03-09T12:36:43Z</time>
      </trkpt>
      <trkpt lat="59.1635343" lon="17.8705373">
        <ele>50.2</ele>
        <time>2013-03-09T12:36:47Z</time>
      </trkpt>
      <trkpt lat="59.163638" lon="17.8702074">
        <ele>51.2</ele>
        <time>2013-03-09T12:36:53Z</time>
      </trkpt>
      <trkpt lat="59.163592" lon="17.8698482">
        <ele>55</ele>
        <time>2013-03-09T12:36:58Z</time>
      </trkpt>
      <trkpt lat="59.1635708" lon="17.8694405">
        <ele>55</ele>
        <time>2013-03-09T12:37:03Z</time>
      </trkpt>
      <trkpt lat="59.1636132" lon="17.8690433">
        <ele>55</ele>
        <time>2013-03-09T12:37:08Z</time>
      </trkpt>
      <trkpt lat="59.1636624" lon="17.8686807">
        <ele>53</ele>
        <time>2013-03-09T12:37:13Z</time>
      </trkpt>
      <trkpt lat="59.1636829" lon="17.8684148">
        <ele>51.8</ele>
        <time>2013-03-09T12:37:16Z</time>
      </trkpt>
      <trkpt lat="59.1636909" lon="17.8683233">
        <ele>51.2</ele>
        <time>2013-03-09T12:37:17Z</time>
      </trkpt>
      <trkpt lat="59.1636992" lon="17.8679555">
        <ele>49.6</ele>
        <time>2013-03-09T12:37:21Z</time>
      </trkpt>
      <trkpt lat="59.1636965" lon="17.8677633">
        <ele>48.8</ele>
        <time>2013-03-09T12:37:23Z</time>
      </trkpt>
      <trkpt lat="59.1636904" lon="17.8676018">
        <ele>48.6</ele>
        <time>2013-03-09T12:37:25Z</time>
      </trkpt>
      <trkpt lat="59.1636831" lon="17.8673055">
        <ele>48.2</ele>
        <time>2013-03-09T12:37:29Z</time>
      </trkpt>
      <trkpt lat="59.1636905" lon="17.8672338">
        <ele>48.8</ele>
        <time>2013-03-09T12:37:30Z</time>
      </trkpt>
      <trkpt lat="59.1637623" lon="17.8669094">
        <ele>51.6</ele>
        <time>2013-03-09T12:37:36Z</time>
      </trkpt>
      <trkpt lat="59.1639044" lon="17.866633">
        <ele>53.2</ele>
        <time>2013-03-09T12:37:44Z</time>
      </trkpt>
      <trkpt lat="59.1640551" lon="17.8664128">
        <ele>55.8</ele>
        <time>2013-03-09T12:37:51Z</time>
      </trkpt>
      <trkpt lat="59.1642046" lon="17.8661702">
        <ele>59.2</ele>
        <time>2013-03-09T12:37:57Z</time>
      </trkpt>
      <trkpt lat="59.1643612" lon="17.8659184">
        <ele>64.4</ele>
        <time>2013-03-09T12:38:03Z</time>
      </trkpt>
      <trkpt lat="59.1645399" lon="17.8656317">
        <ele>66.6</ele>
        <time>2013-03-09T12:38:08Z</time>
      </trkpt>
      <trkpt lat="59.1646578" lon="17.8654378">
        <ele>67.4</ele>
        <time>2013-03-09T12:38:11Z</time>
      </trkpt>
      <trkpt lat="59.1646895" lon="17.8653737">
        <ele>67.4</ele>
        <time>2013-03-09T12:38:12Z</time>
      </trkpt>
      <trkpt lat="59.1648155" lon="17.8651779">
        <ele>68</ele>
        <time>2013-03-09T12:38:15Z</time>
      </trkpt>
      <trkpt lat="59.1648571" lon="17.8651186">
        <ele>67.4</ele>
        <time>2013-03-09T12:38:16Z</time>
      </trkpt>
      <trkpt lat="59.1650113" lon="17.8648674">
        <ele>66.6</ele>
        <time>2013-03-09T12:38:20Z</time>
      </trkpt>
      <trkpt lat="59.1651554" lon="17.8645719">
        <ele>69.2</ele>
        <time>2013-03-09T12:38:24Z</time>
      </trkpt>
      <trkpt lat="59.165325" lon="17.8643657">
        <ele>69.6</ele>
        <time>2013-03-09T12:38:28Z</time>
      </trkpt>
      <trkpt lat="59.1654462" lon="17.8642179">
        <ele>70.2</ele>
        <time>2013-03-09T12:38:31Z</time>
      </trkpt>
      <trkpt lat="59.1654785" lon="17.8641672">
        <ele>70.6</ele>
        <time>2013-03-09T12:38:32Z</time>
      </trkpt>
      <trkpt lat="59.1655817" lon="17.8639388">
        <ele>70.4</ele>
        <time>2013-03-09T12:38:35Z</time>
      </trkpt>
      <trkpt lat="59.1656134" lon="17.8638632">
        <ele>70.4</ele>
        <time>2013-03-09T12:38:36Z</time>
      </trkpt>
      <trkpt lat="59.1656732" lon="17.8637337">
        <ele>71</ele>
        <time>2013-03-09T12:38:38Z</time>
      </trkpt>
      <trkpt lat="59.1657669" lon="17.8635705">
        <ele>69.4</ele>
        <time>2013-03-09T12:38:41Z</time>
      </trkpt>
      <trkpt lat="59.1658722" lon="17.8633732">
        <ele>68.2</ele>
        <time>2013-03-09T12:38:44Z</time>
      </trkpt>
      <trkpt lat="59.1658962" lon="17.8632975">
        <ele>68.4</ele>
        <time>2013-03-09T12:38:45Z</time>
      </trkpt>
      <trkpt lat="59.1660145" lon="17.8629908">
        <ele>68.8</ele>
        <time>2013-03-09T12:38:49Z</time>
      </trkpt>
      <trkpt lat="59.1661188" lon="17.8627776">
        <ele>68</ele>
        <time>2013-03-09T12:38:52Z</time>
      </trkpt>
      <trkpt lat="59.1661593" lon="17.8627218">
        <ele>67.2</ele>
        <time>2013-03-09T12:38:53Z</time>
      </trkpt>
      <trkpt lat="59.1662784" lon="17.8625682">
        <ele>66</ele>
        <time>2013-03-09T12:38:56Z</time>
      </trkpt>
      <trkpt lat="59.1663194" lon="17.8625253">
        <ele>66</ele>
        <time>2013-03-09T12:38:57Z</time>
      </trkpt>
      <trkpt lat="59.166457" lon="17.8623059">
        <ele>64</ele>
        <time>2013-03-09T12:39:01Z</time>
      </trkpt>
      <trkpt lat="59.1664886" lon="17.8622466">
        <ele>63.8</ele>
        <time>2013-03-09T12:39:02Z</time>
      </trkpt>
      <trkpt lat="59.1665984" lon="17.8620484">
        <ele>61.4</ele>
        <time>2013-03-09T12:39:05Z</time>
      </trkpt>
      <trkpt lat="59.1666425" lon="17.8620065">
        <ele>60.8</ele>
        <time>2013-03-09T12:39:06Z</time>
      </trkpt>
      <trkpt lat="59.1667808" lon="17.861918">
        <ele>60</ele>
        <time>2013-03-09T12:39:09Z</time>
      </trkpt>
      <trkpt lat="59.1668109" lon="17.8618676">
        <ele>60.8</ele>
        <time>2013-03-09T12:39:10Z</time>
      </trkpt>
      <trkpt lat="59.1669022" lon="17.8615083">
        <ele>60.8</ele>
        <time>2013-03-09T12:39:15Z</time>
      </trkpt>
      <trkpt lat="59.1669022" lon="17.8613379">
        <ele>60</ele>
        <time>2013-03-09T12:39:17Z</time>
      </trkpt>
      <trkpt lat="59.1668927" lon="17.8610898">
        <ele>59.2</ele>
        <time>2013-03-09T12:39:20Z</time>
      </trkpt>
      <trkpt lat="59.1668844" lon="17.8608329">
        <ele>57.8</ele>
        <time>2013-03-09T12:39:23Z</time>
      </trkpt>
      <trkpt lat="59.1668773" lon="17.8607323">
        <ele>57.4</ele>
        <time>2013-03-09T12:39:24Z</time>
      </trkpt>
      <trkpt lat="59.1668511" lon="17.8603126">
        <ele>55</ele>
        <time>2013-03-09T12:39:28Z</time>
      </trkpt>
      <trkpt lat="59.1668596" lon="17.8599826">
        <ele>53</ele>
        <time>2013-03-09T12:39:31Z</time>
      </trkpt>
      <trkpt lat="59.1668703" lon="17.8598603">
        <ele>52.8</ele>
        <time>2013-03-09T12:39:32Z</time>
      </trkpt>
      <trkpt lat="59.1669093" lon="17.8595161">
        <ele>51.8</ele>
        <time>2013-03-09T12:39:35Z</time>
      </trkpt>
      <trkpt lat="59.1669155" lon="17.8594078">
        <ele>51.8</ele>
        <time>2013-03-09T12:39:36Z</time>
      </trkpt>
      <trkpt lat="59.1668969" lon="17.8590944">
        <ele>51</ele>
        <time>2013-03-09T12:39:39Z</time>
      </trkpt>
      <trkpt lat="59.1668451" lon="17.8586359">
        <ele>50.6</ele>
        <time>2013-03-09T12:39:43Z</time>
      </trkpt>
      <trkpt lat="59.1668965" lon="17.8582034">
        <ele>52.2</ele>
        <time>2013-03-09T12:39:46Z</time>
      </trkpt>
      <trkpt lat="59.1670191" lon="17.8578174">
        <ele>53.4</ele>
        <time>2013-03-09T12:39:49Z</time>
      </trkpt>
      <trkpt lat="59.1671327" lon="17.8574887">
        <ele>53.8</ele>
        <time>2013-03-09T12:39:52Z</time>
      </trkpt>
      <trkpt lat="59.1671666" lon="17.8571441">
        <ele>51.6</ele>
        <time>2013-03-09T12:39:55Z</time>
      </trkpt>
      <trkpt lat="59.1671688" lon="17.8570239">
        <ele>51</ele>
        <time>2013-03-09T12:39:56Z</time>
      </trkpt>
      <trkpt lat="59.1671978" lon="17.8567065">
        <ele>48.6</ele>
        <time>2013-03-09T12:39:59Z</time>
      </trkpt>
      <trkpt lat="59.1672702" lon="17.856319">
        <ele>46.4</ele>
        <time>2013-03-09T12:40:03Z</time>
      </trkpt>
      <trkpt lat="59.167344" lon="17.8559133">
        <ele>45.8</ele>
        <time>2013-03-09T12:40:07Z</time>
      </trkpt>
      <trkpt lat="59.1674461" lon="17.8555518">
        <ele>45.8</ele>
        <time>2013-03-09T12:40:11Z</time>
      </trkpt>
      <trkpt lat="59.1675718" lon="17.8553399">
        <ele>49.6</ele>
        <time>2013-03-09T12:40:15Z</time>
      </trkpt>
      <trkpt lat="59.1675978" lon="17.855299">
        <ele>49.8</ele>
        <time>2013-03-09T12:40:16Z</time>
      </trkpt>
      <trkpt lat="59.1675667" lon="17.8549737">
        <ele>47.6</ele>
        <time>2013-03-09T12:40:21Z</time>
      </trkpt>
      <trkpt lat="59.1675256" lon="17.8547991">
        <ele>47</ele>
        <time>2013-03-09T12:40:23Z</time>
      </trkpt>
      <trkpt lat="59.1674882" lon="17.8546219">
        <ele>45.6</ele>
        <time>2013-03-09T12:40:25Z</time>
      </trkpt>
      <trkpt lat="59.1674019" lon="17.8542511">
        <ele>44.4</ele>
        <time>2013-03-09T12:40:29Z</time>
      </trkpt>
      <trkpt lat="59.1673899" lon="17.8541567">
        <ele>43.6</ele>
        <time>2013-03-09T12:40:30Z</time>
      </trkpt>
      <trkpt lat="59.1673771" lon="17.8538502">
        <ele>42</ele>
        <time>2013-03-09T12:40:33Z</time>
      </trkpt>
      <trkpt lat="59.167366" lon="17.8535791">
        <ele>41</ele>
        <time>2013-03-09T12:40:36Z</time>
      </trkpt>
      <trkpt lat="59.1673558" lon="17.8534339">
        <ele>40</ele>
        <time>2013-03-09T12:40:38Z</time>
      </trkpt>
      <trkpt lat="59.1672984" lon="17.8531689">
        <ele>44.2</ele>
        <time>2013-03-09T12:40:42Z</time>
      </trkpt>
      <trkpt lat="59.1672792" lon="17.8530983">
        <ele>45</ele>
        <time>2013-03-09T12:40:43Z</time>
      </trkpt>
      <trkpt lat="59.1672186" lon="17.8527341">
        <ele>48.2</ele>
        <time>2013-03-09T12:40:50Z</time>
      </trkpt>
      <trkpt lat="59.1672527" lon="17.8523823">
        <ele>50</ele>
        <time>2013-03-09T12:40:56Z</time>
      </trkpt>
      <trkpt lat="59.1672962" lon="17.8521997">
        <ele>50.6</ele>
        <time>2013-03-09T12:40:59Z</time>
      </trkpt>
      <trkpt lat="59.167314" lon="17.8520417">
        <ele>51.4</ele>
        <time>2013-03-09T12:41:02Z</time>
      </trkpt>
      <trkpt lat="59.1673354" lon="17.8516797">
        <ele>50.4</ele>
        <time>2013-03-09T12:41:08Z</time>
      </trkpt>
      <trkpt lat="59.167389" lon="17.8512438">
        <ele>49.6</ele>
        <time>2013-03-09T12:41:14Z</time>
      </trkpt>
      <trkpt lat="59.1674377" lon="17.8508855">
        <ele>48.8</ele>
        <time>2013-03-09T12:41:18Z</time>
      </trkpt>
      <trkpt lat="59.1674921" lon="17.850857">
        <ele>47.6</ele>
        <time>2013-03-09T12:41:19Z</time>
      </trkpt>
      <trkpt lat="59.1676335" lon="17.8508026">
        <ele>46</ele>
        <time>2013-03-09T12:41:21Z</time>
      </trkpt>
      <trkpt lat="59.1677178" lon="17.8507898">
        <ele>48.4</ele>
        <time>2013-03-09T12:41:22Z</time>
      </trkpt>
      <trkpt lat="59.1678783" lon="17.8508522">
        <ele>50.4</ele>
        <time>2013-03-09T12:41:24Z</time>
      </trkpt>
      <trkpt lat="59.1680447" lon="17.8510502">
        <ele>52.4</ele>
        <time>2013-03-09T12:41:27Z</time>
      </trkpt>
      <trkpt lat="59.1680917" lon="17.8511124">
        <ele>53.6</ele>
        <time>2013-03-09T12:41:28Z</time>
      </trkpt>
      <trkpt lat="59.168205" lon="17.8512881">
        <ele>56.4</ele>
        <time>2013-03-09T12:41:32Z</time>
      </trkpt>
      <trkpt lat="59.1683041" lon="17.8514915">
        <ele>58.8</ele>
        <time>2013-03-09T12:41:35Z</time>
      </trkpt>
      <trkpt lat="59.1683402" lon="17.8515659">
        <ele>59.4</ele>
        <time>2013-03-09T12:41:36Z</time>
      </trkpt>
      <trkpt lat="59.1683748" lon="17.8516242">
        <ele>59.4</ele>
        <time>2013-03-09T12:41:37Z</time>
      </trkpt>
      <trkpt lat="59.1684477" lon="17.851763">
        <ele>59.2</ele>
        <time>2013-03-09T12:41:39Z</time>
      </trkpt>
      <trkpt lat="59.1684768" lon="17.8518531">
        <ele>59.2</ele>
        <time>2013-03-09T12:41:40Z</time>
      </trkpt>
      <trkpt lat="59.1685984" lon="17.8522272">
        <ele>58.8</ele>
        <time>2013-03-09T12:41:45Z</time>
      </trkpt>
      <trkpt lat="59.1686322" lon="17.8523055">
        <ele>59</ele>
        <time>2013-03-09T12:41:46Z</time>
      </trkpt>
      <trkpt lat="59.168725" lon="17.8525043">
        <ele>58.4</ele>
        <time>2013-03-09T12:41:49Z</time>
      </trkpt>
      <trkpt lat="59.1688119" lon="17.8527861">
        <ele>56.6</ele>
        <time>2013-03-09T12:41:53Z</time>
      </trkpt>
      <trkpt lat="59.1688384" lon="17.8528554">
        <ele>56.4</ele>
        <time>2013-03-09T12:41:54Z</time>
      </trkpt>
      <trkpt lat="59.1688706" lon="17.8529056">
        <ele>55.8</ele>
        <time>2013-03-09T12:41:55Z</time>
      </trkpt>
      <trkpt lat="59.1689566" lon="17.8531954">
        <ele>55.4</ele>
        <time>2013-03-09T12:41:59Z</time>
      </trkpt>
      <trkpt lat="59.1689751" lon="17.8532596">
        <ele>54.6</ele>
        <time>2013-03-09T12:42:00Z</time>
      </trkpt>
      <trkpt lat="59.1690901" lon="17.8535236">
        <ele>51.6</ele>
        <time>2013-03-09T12:42:04Z</time>
      </trkpt>
      <trkpt lat="59.1691189" lon="17.8535858">
        <ele>50.8</ele>
        <time>2013-03-09T12:42:05Z</time>
      </trkpt>
      <trkpt lat="59.1692174" lon="17.8537573">
        <ele>48.4</ele>
        <time>2013-03-09T12:42:08Z</time>
      </trkpt>
      <trkpt lat="59.1692584" lon="17.8537992">
        <ele>49</ele>
        <time>2013-03-09T12:42:09Z</time>
      </trkpt>
      <trkpt lat="59.1694127" lon="17.8539961">
        <ele>49.6</ele>
        <time>2013-03-09T12:42:13Z</time>
      </trkpt>
      <trkpt lat="59.169445" lon="17.8540444">
        <ele>49.8</ele>
        <time>2013-03-09T12:42:14Z</time>
      </trkpt>
      <trkpt lat="59.1695408" lon="17.8542399">
        <ele>50.4</ele>
        <time>2013-03-09T12:42:18Z</time>
      </trkpt>
      <trkpt lat="59.1695592" lon="17.8542615">
        <ele>51.2</ele>
        <time>2013-03-09T12:42:19Z</time>
      </trkpt>
      <trkpt lat="59.1696708" lon="17.8544266">
        <ele>57.6</ele>
        <time>2013-03-09T12:42:27Z</time>
      </trkpt>
      <trkpt lat="59.1697173" lon="17.8544937">
        <ele>57.8</ele>
        <time>2013-03-09T12:42:29Z</time>
      </trkpt>
      <trkpt lat="59.1698175" lon="17.8548172">
        <ele>62.4</ele>
        <time>2013-03-09T12:42:35Z</time>
      </trkpt>
      <trkpt lat="59.1699296" lon="17.8551477">
        <ele>67</ele>
        <time>2013-03-09T12:42:40Z</time>
      </trkpt>
      <trkpt lat="59.1700121" lon="17.855465">
        <ele>68.6</ele>
        <time>2013-03-09T12:42:44Z</time>
      </trkpt>
      <trkpt lat="59.1700587" lon="17.8556082">
        <ele>67.4</ele>
        <time>2013-03-09T12:42:46Z</time>
      </trkpt>
      <trkpt lat="59.1701195" lon="17.8558392">
        <ele>67</ele>
        <time>2013-03-09T12:42:49Z</time>
      </trkpt>
      <trkpt lat="59.1701971" lon="17.8560304">
        <ele>68.8</ele>
        <time>2013-03-09T12:42:52Z</time>
      </trkpt>
      <trkpt lat="59.1702653" lon="17.8561832">
        <ele>69.6</ele>
        <time>2013-03-09T12:42:54Z</time>
      </trkpt>
      <trkpt lat="59.170381" lon="17.8564598">
        <ele>68.2</ele>
        <time>2013-03-09T12:42:58Z</time>
      </trkpt>
      <trkpt lat="59.1704074" lon="17.8565385">
        <ele>68.2</ele>
        <time>2013-03-09T12:42:59Z</time>
      </trkpt>
      <trkpt lat="59.1704903" lon="17.8568286">
        <ele>65</ele>
        <time>2013-03-09T12:43:03Z</time>
      </trkpt>
      <trkpt lat="59.1705212" lon="17.8570001">
        <ele>64.2</ele>
        <time>2013-03-09T12:43:05Z</time>
      </trkpt>
      <trkpt lat="59.1705562" lon="17.8571734">
        <ele>62.8</ele>
        <time>2013-03-09T12:43:07Z</time>
      </trkpt>
      <trkpt lat="59.1706456" lon="17.8575171">
        <ele>61.4</ele>
        <time>2013-03-09T12:43:11Z</time>
      </trkpt>
      <trkpt lat="59.1707061" lon="17.8578148">
        <ele>59.6</ele>
        <time>2013-03-09T12:43:15Z</time>
      </trkpt>
      <trkpt lat="59.1707141" lon="17.8578955">
        <ele>58.8</ele>
        <time>2013-03-09T12:43:16Z</time>
      </trkpt>
      <trkpt lat="59.1707653" lon="17.8583006">
        <ele>57.2</ele>
        <time>2013-03-09T12:43:21Z</time>
      </trkpt>
      <trkpt lat="59.1707812" lon="17.8583988">
        <ele>56</ele>
        <time>2013-03-09T12:43:22Z</time>
      </trkpt>
      <trkpt lat="59.1708471" lon="17.8586857">
        <ele>51.8</ele>
        <time>2013-03-09T12:43:25Z</time>
      </trkpt>
      <trkpt lat="59.1708742" lon="17.8587652">
        <ele>50.2</ele>
        <time>2013-03-09T12:43:26Z</time>
      </trkpt>
      <trkpt lat="59.1710306" lon="17.8589633">
        <ele>49.4</ele>
        <time>2013-03-09T12:43:29Z</time>
      </trkpt>
      <trkpt lat="59.1711345" lon="17.8591015">
        <ele>50.2</ele>
        <time>2013-03-09T12:43:31Z</time>
      </trkpt>
      <trkpt lat="59.1711855" lon="17.8591757">
        <ele>50.2</ele>
        <time>2013-03-09T12:43:32Z</time>
      </trkpt>
      <trkpt lat="59.17124" lon="17.859247">
        <ele>50.6</ele>
        <time>2013-03-09T12:43:33Z</time>
      </trkpt>
      <trkpt lat="59.1713346" lon="17.8593926">
        <ele>51.2</ele>
        <time>2013-03-09T12:43:35Z</time>
      </trkpt>
      <trkpt lat="59.1714854" lon="17.8595761">
        <ele>50.8</ele>
        <time>2013-03-09T12:43:38Z</time>
      </trkpt>
      <trkpt lat="59.1715274" lon="17.8596099">
        <ele>49.8</ele>
        <time>2013-03-09T12:43:39Z</time>
      </trkpt>
      <trkpt lat="59.1717035" lon="17.8598603">
        <ele>47.4</ele>
        <time>2013-03-09T12:43:43Z</time>
      </trkpt>
      <trkpt lat="59.1717517" lon="17.8599284">
        <ele>46.8</ele>
        <time>2013-03-09T12:43:44Z</time>
      </trkpt>
      <trkpt lat="59.1718735" lon="17.8600331">
        <ele>45.6</ele>
        <time>2013-03-09T12:43:46Z</time>
      </trkpt>
      <trkpt lat="59.1720939" lon="17.8601538">
        <ele>47.8</ele>
        <time>2013-03-09T12:43:49Z</time>
      </trkpt>
      <trkpt lat="59.1721572" lon="17.8602025">
        <ele>48.4</ele>
        <time>2013-03-09T12:43:50Z</time>
      </trkpt>
      <trkpt lat="59.1722721" lon="17.8602905">
        <ele>49.6</ele>
        <time>2013-03-09T12:43:52Z</time>
      </trkpt>
      <trkpt lat="59.1724102" lon="17.8604401">
        <ele>50.6</ele>
        <time>2013-03-09T12:43:55Z</time>
      </trkpt>
      <trkpt lat="59.1724458" lon="17.8604907">
        <ele>50.6</ele>
        <time>2013-03-09T12:43:56Z</time>
      </trkpt>
      <trkpt lat="59.1725473" lon="17.8606236">
        <ele>51.2</ele>
        <time>2013-03-09T12:43:59Z</time>
      </trkpt>
      <trkpt lat="59.1726248" lon="17.8606888">
        <ele>51.2</ele>
        <time>2013-03-09T12:44:01Z</time>
      </trkpt>
      <trkpt lat="59.1727857" lon="17.8607454">
        <ele>49.2</ele>
        <time>2013-03-09T12:44:04Z</time>
      </trkpt>
      <trkpt lat="59.1728457" lon="17.860763">
        <ele>49.4</ele>
        <time>2013-03-09T12:44:05Z</time>
      </trkpt>
      <trkpt lat="59.1729458" lon="17.8607743">
        <ele>49.4</ele>
        <time>2013-03-09T12:44:07Z</time>
      </trkpt>
      <trkpt lat="59.173014" lon="17.8608003">
        <ele>50</ele>
        <time>2013-03-09T12:44:09Z</time>
      </trkpt>
      <trkpt lat="59.1730426" lon="17.8608259">
        <ele>49.6</ele>
        <time>2013-03-09T12:44:10Z</time>
      </trkpt>
      <trkpt lat="59.1731487" lon="17.8609012">
        <ele>50.8</ele>
        <time>2013-03-09T12:44:14Z</time>
      </trkpt>
      <trkpt lat="59.1732053" lon="17.8609668">
        <ele>50</ele>
        <time>2013-03-09T12:44:16Z</time>
      </trkpt>
      <trkpt lat="59.1733886" lon="17.8609841">
        <ele>48.2</ele>
        <time>2013-03-09T12:44:20Z</time>
      </trkpt>
      <trkpt lat="59.1735414" lon="17.8608997">
        <ele>48</ele>
        <time>2013-03-09T12:44:23Z</time>
      </trkpt>
      <trkpt lat="59.1735835" lon="17.860853">
        <ele>47.8</ele>
        <time>2013-03-09T12:44:24Z</time>
      </trkpt>
      <trkpt lat="59.1737434" lon="17.8606136">
        <ele>47.8</ele>
        <time>2013-03-09T12:44:28Z</time>
      </trkpt>
      <trkpt lat="59.1737847" lon="17.860547">
        <ele>47.8</ele>
        <time>2013-03-09T12:44:29Z</time>
      </trkpt>
      <trkpt lat="59.1738869" lon="17.8604006">
        <ele>46.4</ele>
        <time>2013-03-09T12:44:32Z</time>
      </trkpt>
      <trkpt lat="59.173922" lon="17.8603654">
        <ele>46.4</ele>
        <time>2013-03-09T12:44:33Z</time>
      </trkpt>
      <trkpt lat="59.1739589" lon="17.860335">
        <ele>45.6</ele>
        <time>2013-03-09T12:44:34Z</time>
      </trkpt>
      <trkpt lat="59.1741001" lon="17.8601879">
        <ele>42.8</ele>
        <time>2013-03-09T12:44:38Z</time>
      </trkpt>
      <trkpt lat="59.1742677" lon="17.8599803">
        <ele>43.4</ele>
        <time>2013-03-09T12:44:43Z</time>
      </trkpt>
      <trkpt lat="59.1744396" lon="17.8597901">
        <ele>43</ele>
        <time>2013-03-09T12:44:48Z</time>
      </trkpt>
      <trkpt lat="59.1745669" lon="17.8595097">
        <ele>40.6</ele>
        <time>2013-03-09T12:44:53Z</time>
      </trkpt>
      <trkpt lat="59.1747003" lon="17.8592368">
        <ele>37.8</ele>
        <time>2013-03-09T12:44:58Z</time>
      </trkpt>
      <trkpt lat="59.1748457" lon="17.8589953">
        <ele>42.4</ele>
        <time>2013-03-09T12:45:03Z</time>
      </trkpt>
      <trkpt lat="59.1749087" lon="17.8588908">
        <ele>43</ele>
        <time>2013-03-09T12:45:05Z</time>
      </trkpt>
      <trkpt lat="59.1750203" lon="17.8588093">
        <ele>43.8</ele>
        <time>2013-03-09T12:45:08Z</time>
      </trkpt>
      <trkpt lat="59.1752078" lon="17.8587062">
        <ele>45.4</ele>
        <time>2013-03-09T12:45:13Z</time>
      </trkpt>
      <trkpt lat="59.1753605" lon="17.8585233">
        <ele>48.2</ele>
        <time>2013-03-09T12:45:20Z</time>
      </trkpt>
      <trkpt lat="59.1754188" lon="17.8581858">
        <ele>49.2</ele>
        <time>2013-03-09T12:45:26Z</time>
      </trkpt>
      <trkpt lat="59.1754785" lon="17.8578522">
        <ele>49.4</ele>
        <time>2013-03-09T12:45:33Z</time>
      </trkpt>
      <trkpt lat="59.1754859" lon="17.8577738">
        <ele>49.4</ele>
        <time>2013-03-09T12:45:35Z</time>
      </trkpt>
      <trkpt lat="59.1754802" lon="17.8574942">
        <ele>49.6</ele>
        <time>2013-03-09T12:45:40Z</time>
      </trkpt>
      <trkpt lat="59.175482" lon="17.8571208">
        <ele>49.8</ele>
        <time>2013-03-09T12:45:45Z</time>
      </trkpt>
      <trkpt lat="59.1755193" lon="17.8567524">
        <ele>48.6</ele>
        <time>2013-03-09T12:45:51Z</time>
      </trkpt>
      <trkpt lat="59.1756185" lon="17.8564171">
        <ele>48.2</ele>
        <time>2013-03-09T12:45:59Z</time>
      </trkpt>
      <trkpt lat="59.1757875" lon="17.8562116">
        <ele>51.6</ele>
        <time>2013-03-09T12:46:07Z</time>
      </trkpt>
      <trkpt lat="59.1759769" lon="17.8560495">
        <ele>52</ele>
        <time>2013-03-09T12:46:14Z</time>
      </trkpt>
      <trkpt lat="59.1761454" lon="17.855908">
        <ele>52.8</ele>
        <time>2013-03-09T12:46:20Z</time>
      </trkpt>
      <trkpt lat="59.1763545" lon="17.8559447">
        <ele>54.6</ele>
        <time>2013-03-09T12:46:26Z</time>
      </trkpt>
      <trkpt lat="59.1765035" lon="17.8561614">
        <ele>62.2</ele>
        <time>2013-03-09T12:46:33Z</time>
      </trkpt>
      <trkpt lat="59.1765669" lon="17.8562302">
        <ele>62</ele>
        <time>2013-03-09T12:46:36Z</time>
      </trkpt>
      <trkpt lat="59.1766679" lon="17.8561796">
        <ele>62.4</ele>
        <time>2013-03-09T12:46:40Z</time>
      </trkpt>
      <trkpt lat="59.1766981" lon="17.8561568">
        <ele>62.2</ele>
        <time>2013-03-09T12:46:41Z</time>
      </trkpt>
      <trkpt lat="59.1768618" lon="17.8560966">
        <ele>64</ele>
        <time>2013-03-09T12:46:45Z</time>
      </trkpt>
      <trkpt lat="59.1770749" lon="17.8559148">
        <ele>65.6</ele>
        <time>2013-03-09T12:46:49Z</time>
      </trkpt>
      <trkpt lat="59.1771214" lon="17.8558489">
        <ele>64.2</ele>
        <time>2013-03-09T12:46:50Z</time>
      </trkpt>
      <trkpt lat="59.1772328" lon="17.8556548">
        <ele>64</ele>
        <time>2013-03-09T12:46:53Z</time>
      </trkpt>
      <trkpt lat="59.1772985" lon="17.8555412">
        <ele>64.2</ele>
        <time>2013-03-09T12:46:55Z</time>
      </trkpt>
      <trkpt lat="59.1773984" lon="17.8553946">
        <ele>63</ele>
        <time>2013-03-09T12:46:59Z</time>
      </trkpt>
      <trkpt lat="59.1774229" lon="17.8553647">
        <ele>62.8</ele>
        <time>2013-03-09T12:47:00Z</time>
      </trkpt>
      <trkpt lat="59.1775078" lon="17.8552176">
        <ele>61</ele>
        <time>2013-03-09T12:47:05Z</time>
      </trkpt>
      <trkpt lat="59.177546" lon="17.8550995">
        <ele>61</ele>
        <time>2013-03-09T12:47:07Z</time>
      </trkpt>
      <trkpt lat="59.1777192" lon="17.8549256">
        <ele>58.8</ele>
        <time>2013-03-09T12:47:11Z</time>
      </trkpt>
      <trkpt lat="59.1779181" lon="17.8548834">
        <ele>55.8</ele>
        <time>2013-03-09T12:47:15Z</time>
      </trkpt>
      <trkpt lat="59.1779631" lon="17.8548973">
        <ele>57.2</ele>
        <time>2013-03-09T12:47:16Z</time>
      </trkpt>
      <trkpt lat="59.1780691" lon="17.8549843">
        <ele>58.4</ele>
        <time>2013-03-09T12:47:19Z</time>
      </trkpt>
      <trkpt lat="59.1781017" lon="17.855012">
        <ele>59</ele>
        <time>2013-03-09T12:47:20Z</time>
      </trkpt>
      <trkpt lat="59.1781916" lon="17.8550323">
        <ele>58.2</ele>
        <time>2013-03-09T12:47:23Z</time>
      </trkpt>
      <trkpt lat="59.1782831" lon="17.8550072">
        <ele>58.4</ele>
        <time>2013-03-09T12:47:25Z</time>
      </trkpt>
      <trkpt lat="59.1784467" lon="17.8549414">
        <ele>57.4</ele>
        <time>2013-03-09T12:47:28Z</time>
      </trkpt>
      <trkpt lat="59.1785099" lon="17.8549274">
        <ele>57</ele>
        <time>2013-03-09T12:47:29Z</time>
      </trkpt>
      <trkpt lat="59.1787034" lon="17.8548913">
        <ele>54.2</ele>
        <time>2013-03-09T12:47:32Z</time>
      </trkpt>
      <trkpt lat="59.178852" lon="17.8548396">
        <ele>56.2</ele>
        <time>2013-03-09T12:47:35Z</time>
      </trkpt>
      <trkpt lat="59.1788904" lon="17.8547851">
        <ele>56.4</ele>
        <time>2013-03-09T12:47:36Z</time>
      </trkpt>
      <trkpt lat="59.1790034" lon="17.8545771">
        <ele>56.4</ele>
        <time>2013-03-09T12:47:39Z</time>
      </trkpt>
      <trkpt lat="59.1790348" lon="17.8544945">
        <ele>55.6</ele>
        <time>2013-03-09T12:47:40Z</time>
      </trkpt>
      <trkpt lat="59.1791048" lon="17.8542737">
        <ele>54</ele>
        <time>2013-03-09T12:47:43Z</time>
      </trkpt>
      <trkpt lat="59.1791303" lon="17.8541291">
        <ele>54</ele>
        <time>2013-03-09T12:47:45Z</time>
      </trkpt>
      <trkpt lat="59.1791597" lon="17.8537339">
        <ele>51.8</ele>
        <time>2013-03-09T12:47:50Z</time>
      </trkpt>
      <trkpt lat="59.1791881" lon="17.8533651">
        <ele>51</ele>
        <time>2013-03-09T12:47:55Z</time>
      </trkpt>
      <trkpt lat="59.1792398" lon="17.8529752">
        <ele>49.6</ele>
        <time>2013-03-09T12:48:01Z</time>
      </trkpt>
      <trkpt lat="59.1793015" lon="17.8525706">
        <ele>48</ele>
        <time>2013-03-09T12:48:06Z</time>
      </trkpt>
      <trkpt lat="59.179445" lon="17.8523074">
        <ele>46.4</ele>
        <time>2013-03-09T12:48:12Z</time>
      </trkpt>
      <trkpt lat="59.1795834" lon="17.8520749">
        <ele>50</ele>
        <time>2013-03-09T12:48:18Z</time>
      </trkpt>
      <trkpt lat="59.1797642" lon="17.8518297">
        <ele>51</ele>
        <time>2013-03-09T12:48:24Z</time>
      </trkpt>
      <trkpt lat="59.1799528" lon="17.8516636">
        <ele>49.6</ele>
        <time>2013-03-09T12:48:28Z</time>
      </trkpt>
      <trkpt lat="59.1801325" lon="17.8515295">
        <ele>47.6</ele>
        <time>2013-03-09T12:48:31Z</time>
      </trkpt>
      <trkpt lat="59.1803238" lon="17.8514043">
        <ele>46.4</ele>
        <time>2013-03-09T12:48:34Z</time>
      </trkpt>
      <trkpt lat="59.1803952" lon="17.8513793">
        <ele>46.2</ele>
        <time>2013-03-09T12:48:35Z</time>
      </trkpt>
      <trkpt lat="59.1805227" lon="17.8514376">
        <ele>44.4</ele>
        <time>2013-03-09T12:48:37Z</time>
      </trkpt>
      <trkpt lat="59.1806884" lon="17.8517116">
        <ele>42.6</ele>
        <time>2013-03-09T12:48:40Z</time>
      </trkpt>
      <trkpt lat="59.1807255" lon="17.8521034">
        <ele>40.4</ele>
        <time>2013-03-09T12:48:44Z</time>
      </trkpt>
      <trkpt lat="59.1806973" lon="17.8522645">
        <ele>39.2</ele>
        <time>2013-03-09T12:48:46Z</time>
      </trkpt>
      <trkpt lat="59.1806563" lon="17.8524678">
        <ele>41.8</ele>
        <time>2013-03-09T12:48:49Z</time>
      </trkpt>
      <trkpt lat="59.180681" lon="17.85278">
        <ele>43.2</ele>
        <time>2013-03-09T12:48:53Z</time>
      </trkpt>
      <trkpt lat="59.1806862" lon="17.8528767">
        <ele>43</ele>
        <time>2013-03-09T12:48:54Z</time>
      </trkpt>
      <trkpt lat="59.1807084" lon="17.8532787">
        <ele>42</ele>
        <time>2013-03-09T12:48:58Z</time>
      </trkpt>
      <trkpt lat="59.1807268" lon="17.8536416">
        <ele>39.4</ele>
        <time>2013-03-09T12:49:02Z</time>
      </trkpt>
      <trkpt lat="59.1808115" lon="17.853922">
        <ele>41</ele>
        <time>2013-03-09T12:49:05Z</time>
      </trkpt>
      <trkpt lat="59.180837" lon="17.8540242">
        <ele>41.4</ele>
        <time>2013-03-09T12:49:06Z</time>
      </trkpt>
      <trkpt lat="59.1808713" lon="17.8543138">
        <ele>41.8</ele>
        <time>2013-03-09T12:49:09Z</time>
      </trkpt>
      <trkpt lat="59.1808841" lon="17.8543975">
        <ele>41.4</ele>
        <time>2013-03-09T12:49:10Z</time>
      </trkpt>
      <trkpt lat="59.1809028" lon="17.8544666">
        <ele>40</ele>
        <time>2013-03-09T12:49:11Z</time>
      </trkpt>
      <trkpt lat="59.1809795" lon="17.8547686">
        <ele>36.2</ele>
        <time>2013-03-09T12:49:16Z</time>
      </trkpt>
      <trkpt lat="59.1811779" lon="17.8549211">
        <ele>35.8</ele>
        <time>2013-03-09T12:49:21Z</time>
      </trkpt>
      <trkpt lat="59.1812831" lon="17.8549105">
        <ele>38.6</ele>
        <time>2013-03-09T12:49:23Z</time>
      </trkpt>
      <trkpt lat="59.1813307" lon="17.8549006">
        <ele>39</ele>
        <time>2013-03-09T12:49:24Z</time>
      </trkpt>
      <trkpt lat="59.1813784" lon="17.8548898">
        <ele>40.4</ele>
        <time>2013-03-09T12:49:25Z</time>
      </trkpt>
      <trkpt lat="59.1815002" lon="17.8548533">
        <ele>42</ele>
        <time>2013-03-09T12:49:28Z</time>
      </trkpt>
      <trkpt lat="59.1815768" lon="17.8548237">
        <ele>43.4</ele>
        <time>2013-03-09T12:49:30Z</time>
      </trkpt>
      <trkpt lat="59.181745" lon="17.8546908">
        <ele>43.8</ele>
        <time>2013-03-09T12:49:35Z</time>
      </trkpt>
      <trkpt lat="59.1819421" lon="17.8545427">
        <ele>42.6</ele>
        <time>2013-03-09T12:49:41Z</time>
      </trkpt>
      <trkpt lat="59.1819775" lon="17.8545287">
        <ele>42.6</ele>
        <time>2013-03-09T12:49:42Z</time>
      </trkpt>
      <trkpt lat="59.18212" lon="17.8544436">
        <ele>44.8</ele>
        <time>2013-03-09T12:49:47Z</time>
      </trkpt>
      <trkpt lat="59.1822823" lon="17.8542617">
        <ele>48</ele>
        <time>2013-03-09T12:49:54Z</time>
      </trkpt>
      <trkpt lat="59.1824663" lon="17.8543102">
        <ele>53.4</ele>
        <time>2013-03-09T12:50:00Z</time>
      </trkpt>
      <trkpt lat="59.1826258" lon="17.8544121">
        <ele>57.4</ele>
        <time>2013-03-09T12:50:07Z</time>
      </trkpt>
      <trkpt lat="59.1826465" lon="17.8544316">
        <ele>58.4</ele>
        <time>2013-03-09T12:50:08Z</time>
      </trkpt>
      <trkpt lat="59.1828159" lon="17.8545546">
        <ele>60.8</ele>
        <time>2013-03-09T12:50:14Z</time>
      </trkpt>
      <trkpt lat="59.1829244" lon="17.8546922">
        <ele>61.6</ele>
        <time>2013-03-09T12:50:17Z</time>
      </trkpt>
      <trkpt lat="59.1829873" lon="17.8547852">
        <ele>62.6</ele>
        <time>2013-03-09T12:50:19Z</time>
      </trkpt>
      <trkpt lat="59.1830463" lon="17.8548627">
        <ele>63.2</ele>
        <time>2013-03-09T12:50:21Z</time>
      </trkpt>
      <trkpt lat="59.1831671" lon="17.8549861">
        <ele>62</ele>
        <time>2013-03-09T12:50:26Z</time>
      </trkpt>
      <trkpt lat="59.1831925" lon="17.8550026">
        <ele>62</ele>
        <time>2013-03-09T12:50:27Z</time>
      </trkpt>
      <trkpt lat="59.1833525" lon="17.8550636">
        <ele>61.2</ele>
        <time>2013-03-09T12:50:34Z</time>
      </trkpt>
      <trkpt lat="59.1835364" lon="17.8552222">
        <ele>62.4</ele>
        <time>2013-03-09T12:50:43Z</time>
      </trkpt>
      <trkpt lat="59.1836957" lon="17.8554217">
        <ele>62.6</ele>
        <time>2013-03-09T12:50:50Z</time>
      </trkpt>
      <trkpt lat="59.1838561" lon="17.8556026">
        <ele>62</ele>
        <time>2013-03-09T12:50:55Z</time>
      </trkpt>
      <trkpt lat="59.1839643" lon="17.8559085">
        <ele>62</ele>
        <time>2013-03-09T12:51:01Z</time>
      </trkpt>
      <trkpt lat="59.1840533" lon="17.8562842">
        <ele>60.4</ele>
        <time>2013-03-09T12:51:07Z</time>
      </trkpt>
      <trkpt lat="59.1841213" lon="17.8566292">
        <ele>59.6</ele>
        <time>2013-03-09T12:51:12Z</time>
      </trkpt>
      <trkpt lat="59.184128" lon="17.857051">
        <ele>57.8</ele>
        <time>2013-03-09T12:51:17Z</time>
      </trkpt>
      <trkpt lat="59.1841285" lon="17.8571388">
        <ele>57</ele>
        <time>2013-03-09T12:51:18Z</time>
      </trkpt>
      <trkpt lat="59.1841611" lon="17.8574916">
        <ele>54.8</ele>
        <time>2013-03-09T12:51:22Z</time>
      </trkpt>
      <trkpt lat="59.1841951" lon="17.857904">
        <ele>55.4</ele>
        <time>2013-03-09T12:51:26Z</time>
      </trkpt>
      <trkpt lat="59.1842419" lon="17.8582982">
        <ele>55.4</ele>
        <time>2013-03-09T12:51:29Z</time>
      </trkpt>
      <trkpt lat="59.1842677" lon="17.8584477">
        <ele>55</ele>
        <time>2013-03-09T12:51:30Z</time>
      </trkpt>
      <trkpt lat="59.184344" lon="17.8587364">
        <ele>53.8</ele>
        <time>2013-03-09T12:51:32Z</time>
      </trkpt>
      <trkpt lat="59.1845014" lon="17.858999">
        <ele>55.4</ele>
        <time>2013-03-09T12:51:34Z</time>
      </trkpt>
      <trkpt lat="59.1846626" lon="17.8591389">
        <ele>56.4</ele>
        <time>2013-03-09T12:51:36Z</time>
      </trkpt>
      <trkpt lat="59.1847293" lon="17.8591783">
        <ele>57</ele>
        <time>2013-03-09T12:51:37Z</time>
      </trkpt>
      <trkpt lat="59.1848411" lon="17.8593342">
        <ele>56</ele>
        <time>2013-03-09T12:51:39Z</time>
      </trkpt>
      <trkpt lat="59.1848709" lon="17.8594395">
        <ele>55.6</ele>
        <time>2013-03-09T12:51:40Z</time>
      </trkpt>
      <trkpt lat="59.1848939" lon="17.8597398">
        <ele>51.8</ele>
        <time>2013-03-09T12:51:43Z</time>
      </trkpt>
      <trkpt lat="59.1848765" lon="17.8598073">
        <ele>51.6</ele>
        <time>2013-03-09T12:51:44Z</time>
      </trkpt>
      <trkpt lat="59.1848672" lon="17.8599533">
        <ele>50.2</ele>
        <time>2013-03-09T12:51:46Z</time>
      </trkpt>
      <trkpt lat="59.184898" lon="17.8601848">
        <ele>49.2</ele>
        <time>2013-03-09T12:51:49Z</time>
      </trkpt>
      <trkpt lat="59.1849065" lon="17.8602806">
        <ele>49.2</ele>
        <time>2013-03-09T12:51:50Z</time>
      </trkpt>
      <trkpt lat="59.1849385" lon="17.8606245">
        <ele>47.2</ele>
        <time>2013-03-09T12:51:53Z</time>
      </trkpt>
      <trkpt lat="59.1849666" lon="17.8610524">
        <ele>46.2</ele>
        <time>2013-03-09T12:51:56Z</time>
      </trkpt>
      <trkpt lat="59.1848862" lon="17.8615449">
        <ele>45.6</ele>
        <time>2013-03-09T12:51:59Z</time>
      </trkpt>
      <trkpt lat="59.1848696" lon="17.8616777">
        <ele>45</ele>
        <time>2013-03-09T12:52:00Z</time>
      </trkpt>
      <trkpt lat="59.1848267" lon="17.8619487">
        <ele>43.8</ele>
        <time>2013-03-09T12:52:02Z</time>
      </trkpt>
      <trkpt lat="59.1846888" lon="17.8622309">
        <ele>44.2</ele>
        <time>2013-03-09T12:52:05Z</time>
      </trkpt>
      <trkpt lat="59.1845828" lon="17.8623744">
        <ele>44.8</ele>
        <time>2013-03-09T12:52:07Z</time>
      </trkpt>
      <trkpt lat="59.1845298" lon="17.8624516">
        <ele>45.2</ele>
        <time>2013-03-09T12:52:08Z</time>
      </trkpt>
      <trkpt lat="59.1843694" lon="17.8626942">
        <ele>46.4</ele>
        <time>2013-03-09T12:52:11Z</time>
      </trkpt>
      <trkpt lat="59.1841889" lon="17.8629634">
        <ele>45.2</ele>
        <time>2013-03-09T12:52:15Z</time>
      </trkpt>
      <trkpt lat="59.1840967" lon="17.8631146">
        <ele>45.2</ele>
        <time>2013-03-09T12:52:17Z</time>
      </trkpt>
      <trkpt lat="59.1840591" lon="17.8632037">
        <ele>44.8</ele>
        <time>2013-03-09T12:52:18Z</time>
      </trkpt>
      <trkpt lat="59.1840107" lon="17.8635897">
        <ele>42.8</ele>
        <time>2013-03-09T12:52:22Z</time>
      </trkpt>
      <trkpt lat="59.18402" lon="17.8636768">
        <ele>42</ele>
        <time>2013-03-09T12:52:23Z</time>
      </trkpt>
      <trkpt lat="59.1840378" lon="17.8638911">
        <ele>39.2</ele>
        <time>2013-03-09T12:52:25Z</time>
      </trkpt>
      <trkpt lat="59.1840414" lon="17.8640046">
        <ele>38.2</ele>
        <time>2013-03-09T12:52:26Z</time>
      </trkpt>
      <trkpt lat="59.1839861" lon="17.8643865">
        <ele>37.6</ele>
        <time>2013-03-09T12:52:30Z</time>
      </trkpt>
      <trkpt lat="59.1839693" lon="17.8644696">
        <ele>38</ele>
        <time>2013-03-09T12:52:31Z</time>
      </trkpt>
      <trkpt lat="59.1839461" lon="17.8645569">
        <ele>38.4</ele>
        <time>2013-03-09T12:52:32Z</time>
      </trkpt>
      <trkpt lat="59.183896" lon="17.8647904">
        <ele>37.6</ele>
        <time>2013-03-09T12:52:34Z</time>
      </trkpt>
      <trkpt lat="59.1839397" lon="17.8651867">
        <ele>36.4</ele>
        <time>2013-03-09T12:52:38Z</time>
      </trkpt>
      <trkpt lat="59.1840411" lon="17.865558">
        <ele>36.2</ele>
        <time>2013-03-09T12:52:42Z</time>
      </trkpt>
      <trkpt lat="59.1840708" lon="17.8657932">
        <ele>37.6</ele>
        <time>2013-03-09T12:52:45Z</time>
      </trkpt>
      <trkpt lat="59.1840872" lon="17.8658938">
        <ele>37.2</ele>
        <time>2013-03-09T12:52:47Z</time>
      </trkpt>
      <trkpt lat="59.184099" lon="17.8659372">
        <ele>37</ele>
        <time>2013-03-09T12:52:48Z</time>
      </trkpt>
      <trkpt lat="59.1842377" lon="17.8662497">
        <ele>35</ele>
        <time>2013-03-09T12:52:53Z</time>
      </trkpt>
      <trkpt lat="59.1843257" lon="17.8664013">
        <ele>34.6</ele>
        <time>2013-03-09T12:52:55Z</time>
      </trkpt>
      <trkpt lat="59.1844067" lon="17.8665357">
        <ele>34.6</ele>
        <time>2013-03-09T12:52:57Z</time>
      </trkpt>
      <trkpt lat="59.184473" lon="17.8666325">
        <ele>35</ele>
        <time>2013-03-09T12:52:59Z</time>
      </trkpt>
      <trkpt lat="59.1845526" lon="17.8668221">
        <ele>37</ele>
        <time>2013-03-09T12:53:02Z</time>
      </trkpt>
      <trkpt lat="59.1845798" lon="17.8668674">
        <ele>37</ele>
        <time>2013-03-09T12:53:03Z</time>
      </trkpt>
      <trkpt lat="59.1846092" lon="17.8669085">
        <ele>36.4</ele>
        <time>2013-03-09T12:53:04Z</time>
      </trkpt>
      <trkpt lat="59.1846634" lon="17.8669724">
        <ele>36.8</ele>
        <time>2013-03-09T12:53:06Z</time>
      </trkpt>
      <trkpt lat="59.1847088" lon="17.8670396">
        <ele>37.2</ele>
        <time>2013-03-09T12:53:08Z</time>
      </trkpt>
      <trkpt lat="59.1847314" lon="17.8670816">
        <ele>37.8</ele>
        <time>2013-03-09T12:53:10Z</time>
      </trkpt>
      <trkpt lat="59.1847833" lon="17.8672457">
        <ele>42.6</ele>
        <time>2013-03-09T12:53:17Z</time>
      </trkpt>
      <trkpt lat="59.1848273" lon="17.8673333">
        <ele>43.6</ele>
        <time>2013-03-09T12:53:22Z</time>
      </trkpt>
      <trkpt lat="59.1848372" lon="17.8673485">
        <ele>43.8</ele>
        <time>2013-03-09T12:53:23Z</time>
      </trkpt>
      <trkpt lat="59.1849138" lon="17.8674255">
        <ele>45.8</ele>
        <time>2013-03-09T12:53:29Z</time>
      </trkpt>
      <trkpt lat="59.1849775" lon="17.8675426">
        <ele>47.6</ele>
        <time>2013-03-09T12:53:34Z</time>
      </trkpt>
      <trkpt lat="59.1849991" lon="17.8676786">
        <ele>46.8</ele>
        <time>2013-03-09T12:53:39Z</time>
      </trkpt>
      <trkpt lat="59.1849993" lon="17.8677022">
        <ele>46.8</ele>
        <time>2013-03-09T12:53:40Z</time>
      </trkpt>
      <trkpt lat="59.1850401" lon="17.8678696">
        <ele>47.2</ele>
        <time>2013-03-09T12:53:48Z</time>
      </trkpt>
      <trkpt lat="59.1851935" lon="17.8680789">
        <ele>53.6</ele>
        <time>2013-03-09T12:53:56Z</time>
      </trkpt>
      <trkpt lat="59.1852819" lon="17.868401">
        <ele>55</ele>
        <time>2013-03-09T12:54:03Z</time>
      </trkpt>
      <trkpt lat="59.1853949" lon="17.868715">
        <ele>56.2</ele>
        <time>2013-03-09T12:54:09Z</time>
      </trkpt>
      <trkpt lat="59.1854537" lon="17.8688667">
        <ele>56.6</ele>
        <time>2013-03-09T12:54:11Z</time>
      </trkpt>
      <trkpt lat="59.1855276" lon="17.8689977">
        <ele>56</ele>
        <time>2013-03-09T12:54:13Z</time>
      </trkpt>
      <trkpt lat="59.1856737" lon="17.8692982">
        <ele>53</ele>
        <time>2013-03-09T12:54:18Z</time>
      </trkpt>
      <trkpt lat="59.1857513" lon="17.8696747">
        <ele>47.6</ele>
        <time>2013-03-09T12:54:22Z</time>
      </trkpt>
      <trkpt lat="59.1857679" lon="17.8697844">
        <ele>46.8</ele>
        <time>2013-03-09T12:54:23Z</time>
      </trkpt>
      <trkpt lat="59.1858088" lon="17.8701036">
        <ele>45.2</ele>
        <time>2013-03-09T12:54:26Z</time>
      </trkpt>
      <trkpt lat="59.1858192" lon="17.8702047">
        <ele>44</ele>
        <time>2013-03-09T12:54:27Z</time>
      </trkpt>
      <trkpt lat="59.1858937" lon="17.8705046">
        <ele>42.4</ele>
        <time>2013-03-09T12:54:30Z</time>
      </trkpt>
      <trkpt lat="59.1860679" lon="17.8707958">
        <ele>40.6</ele>
        <time>2013-03-09T12:54:34Z</time>
      </trkpt>
      <trkpt lat="59.1861152" lon="17.8708671">
        <ele>39.8</ele>
        <time>2013-03-09T12:54:35Z</time>
      </trkpt>
      <trkpt lat="59.1861601" lon="17.8709429">
        <ele>39</ele>
        <time>2013-03-09T12:54:36Z</time>
      </trkpt>
      <trkpt lat="59.1862559" lon="17.8710583">
        <ele>40.6</ele>
        <time>2013-03-09T12:54:38Z</time>
      </trkpt>
      <trkpt lat="59.1862994" lon="17.8710988">
        <ele>41.2</ele>
        <time>2013-03-09T12:54:39Z</time>
      </trkpt>
      <trkpt lat="59.1863223" lon="17.8711754">
        <ele>42.8</ele>
        <time>2013-03-09T12:54:48Z</time>
      </trkpt>
      <trkpt lat="59.1863158" lon="17.8713508">
        <ele>43.6</ele>
        <time>2013-03-09T12:54:53Z</time>
      </trkpt>
      <trkpt lat="59.1863326" lon="17.8716909">
        <ele>44</ele>
        <time>2013-03-09T12:54:59Z</time>
      </trkpt>
      <trkpt lat="59.186372" lon="17.8720556">
        <ele>44.6</ele>
        <time>2013-03-09T12:55:03Z</time>
      </trkpt>
      <trkpt lat="59.1864112" lon="17.8723509">
        <ele>45.8</ele>
        <time>2013-03-09T12:55:07Z</time>
      </trkpt>
      <trkpt lat="59.1864325" lon="17.8724041">
        <ele>46.8</ele>
        <time>2013-03-09T12:55:08Z</time>
      </trkpt>
      <trkpt lat="59.1865213" lon="17.8726172">
        <ele>48</ele>
        <time>2013-03-09T12:55:12Z</time>
      </trkpt>
      <trkpt lat="59.1865474" lon="17.8727632">
        <ele>46.8</ele>
        <time>2013-03-09T12:55:14Z</time>
      </trkpt>
      <trkpt lat="59.1865921" lon="17.8731372">
        <ele>46</ele>
        <time>2013-03-09T12:55:18Z</time>
      </trkpt>
      <trkpt lat="59.1866227" lon="17.8734283">
        <ele>46</ele>
        <time>2013-03-09T12:55:21Z</time>
      </trkpt>
      <trkpt lat="59.1866367" lon="17.8735308">
        <ele>46.4</ele>
        <time>2013-03-09T12:55:22Z</time>
      </trkpt>
      <trkpt lat="59.1866914" lon="17.8738727">
        <ele>44.8</ele>
        <time>2013-03-09T12:55:26Z</time>
      </trkpt>
      <trkpt lat="59.1867057" lon="17.8739633">
        <ele>45</ele>
        <time>2013-03-09T12:55:27Z</time>
      </trkpt>
      <trkpt lat="59.1867513" lon="17.8742046">
        <ele>43.8</ele>
        <time>2013-03-09T12:55:30Z</time>
      </trkpt>
      <trkpt lat="59.1868298" lon="17.874428">
        <ele>43.4</ele>
        <time>2013-03-09T12:55:33Z</time>
      </trkpt>
      <trkpt lat="59.1868537" lon="17.8744943">
        <ele>43.6</ele>
        <time>2013-03-09T12:55:34Z</time>
      </trkpt>
      <trkpt lat="59.1869179" lon="17.8747119">
        <ele>44.8</ele>
        <time>2013-03-09T12:55:37Z</time>
      </trkpt>
      <trkpt lat="59.1869642" lon="17.8748554">
        <ele>46.8</ele>
        <time>2013-03-09T12:55:39Z</time>
      </trkpt>
      <trkpt lat="59.1870091" lon="17.8749384">
        <ele>46.8</ele>
        <time>2013-03-09T12:55:41Z</time>
      </trkpt>
      <trkpt lat="59.187033" lon="17.8749632">
        <ele>47.2</ele>
        <time>2013-03-09T12:55:42Z</time>
      </trkpt>
      <trkpt lat="59.1871454" lon="17.8750583">
        <ele>46.8</ele>
        <time>2013-03-09T12:55:46Z</time>
      </trkpt>
      <trkpt lat="59.1873246" lon="17.8750288">
        <ele>48.2</ele>
        <time>2013-03-09T12:55:53Z</time>
      </trkpt>
      <trkpt lat="59.1874727" lon="17.8748206">
        <ele>53</ele>
        <time>2013-03-09T12:56:00Z</time>
      </trkpt>
      <trkpt lat="59.18764" lon="17.874707">
        <ele>51.8</ele>
        <time>2013-03-09T12:56:05Z</time>
      </trkpt>
      <trkpt lat="59.187852" lon="17.8747056">
        <ele>49.6</ele>
        <time>2013-03-09T12:56:11Z</time>
      </trkpt>
      <trkpt lat="59.1880541" lon="17.8746854">
        <ele>49.6</ele>
        <time>2013-03-09T12:56:16Z</time>
      </trkpt>
      <trkpt lat="59.1882315" lon="17.8746952">
        <ele>48.8</ele>
        <time>2013-03-09T12:56:20Z</time>
      </trkpt>
      <trkpt lat="59.1882825" lon="17.8747015">
        <ele>48.2</ele>
        <time>2013-03-09T12:56:21Z</time>
      </trkpt>
      <trkpt lat="59.1884218" lon="17.8747749">
        <ele>47.4</ele>
        <time>2013-03-09T12:56:24Z</time>
      </trkpt>
      <trkpt lat="59.1884616" lon="17.874816">
        <ele>47.2</ele>
        <time>2013-03-09T12:56:25Z</time>
      </trkpt>
      <trkpt lat="59.1886154" lon="17.8750023">
        <ele>47.6</ele>
        <time>2013-03-09T12:56:29Z</time>
      </trkpt>
      <trkpt lat="59.1887254" lon="17.8750573">
        <ele>46.4</ele>
        <time>2013-03-09T12:56:32Z</time>
      </trkpt>
      <trkpt lat="59.1888114" lon="17.8750512">
        <ele>47.4</ele>
        <time>2013-03-09T12:56:34Z</time>
      </trkpt>
      <trkpt lat="59.1888942" lon="17.8750185">
        <ele>48.8</ele>
        <time>2013-03-09T12:56:36Z</time>
      </trkpt>
      <trkpt lat="59.18899" lon="17.8748704">
        <ele>50.6</ele>
        <time>2013-03-09T12:56:40Z</time>
      </trkpt>
      <trkpt lat="59.1891685" lon="17.8747365">
        <ele>50.2</ele>
        <time>2013-03-09T12:56:46Z</time>
      </trkpt>
      <trkpt lat="59.1893485" lon="17.8748848">
        <ele>53.6</ele>
        <time>2013-03-09T12:56:51Z</time>
      </trkpt>
      <trkpt lat="59.189523" lon="17.8750278">
        <ele>55</ele>
        <time>2013-03-09T12:56:56Z</time>
      </trkpt>
      <trkpt lat="59.1896664" lon="17.8752717">
        <ele>56.8</ele>
        <time>2013-03-09T12:57:03Z</time>
      </trkpt>
      <trkpt lat="59.1898236" lon="17.8754765">
        <ele>60.2</ele>
        <time>2013-03-09T12:57:10Z</time>
      </trkpt>
      <trkpt lat="59.1899835" lon="17.8756671">
        <ele>59.2</ele>
        <time>2013-03-09T12:57:19Z</time>
      </trkpt>
      <trkpt lat="59.1901584" lon="17.875781">
        <ele>62.6</ele>
        <time>2013-03-09T12:57:30Z</time>
      </trkpt>
      <trkpt lat="59.1903255" lon="17.8756405">
        <ele>65</ele>
        <time>2013-03-09T12:57:43Z</time>
      </trkpt>
      <trkpt lat="59.1903299" lon="17.8756343">
        <ele>64.8</ele>
        <time>2013-03-09T12:57:44Z</time>
      </trkpt>
      <trkpt lat="59.1903767" lon="17.8755935">
        <ele>64.6</ele>
        <time>2013-03-09T12:57:49Z</time>
      </trkpt>
      <trkpt lat="59.1904563" lon="17.8753786">
        <ele>61.8</ele>
        <time>2013-03-09T12:57:58Z</time>
      </trkpt>
      <trkpt lat="59.1904285" lon="17.8750412">
        <ele>67</ele>
        <time>2013-03-09T12:58:07Z</time>
      </trkpt>
      <trkpt lat="59.1903434" lon="17.8747977">
        <ele>68.2</ele>
        <time>2013-03-09T12:58:13Z</time>
      </trkpt>
      <trkpt lat="59.1903341" lon="17.8747541">
        <ele>68</ele>
        <time>2013-03-09T12:58:14Z</time>
      </trkpt>
      <trkpt lat="59.19033" lon="17.8743789">
        <ele>71</ele>
        <time>2013-03-09T12:58:21Z</time>
      </trkpt>
      <trkpt lat="59.190357" lon="17.8739929">
        <ele>70</ele>
        <time>2013-03-09T12:58:27Z</time>
      </trkpt>
      <trkpt lat="59.190399" lon="17.873611">
        <ele>67.6</ele>
        <time>2013-03-09T12:58:33Z</time>
      </trkpt>
      <trkpt lat="59.1904799" lon="17.8732577">
        <ele>68.6</ele>
        <time>2013-03-09T12:58:41Z</time>
      </trkpt>
      <trkpt lat="59.1905228" lon="17.8729071">
        <ele>71.4</ele>
        <time>2013-03-09T12:58:47Z</time>
      </trkpt>
      <trkpt lat="59.1906419" lon="17.872633">
        <ele>74.6</ele>
        <time>2013-03-09T12:58:54Z</time>
      </trkpt>
      <trkpt lat="59.1906694" lon="17.8725412">
        <ele>76.6</ele>
        <time>2013-03-09T12:58:56Z</time>
      </trkpt>
      <trkpt lat="59.1907396" lon="17.8724794">
        <ele>77.8</ele>
        <time>2013-03-09T12:58:59Z</time>
      </trkpt>
      <trkpt lat="59.1908243" lon="17.8725733">
        <ele>78.4</ele>
        <time>2013-03-09T12:59:01Z</time>
      </trkpt>
      <trkpt lat="59.1909974" lon="17.8727643">
        <ele>79</ele>
        <time>2013-03-09T12:59:05Z</time>
      </trkpt>
      <trkpt lat="59.1910879" lon="17.8727767">
        <ele>78.6</ele>
        <time>2013-03-09T12:59:07Z</time>
      </trkpt>
      <trkpt lat="59.1911817" lon="17.8727548">
        <ele>78.6</ele>
        <time>2013-03-09T12:59:09Z</time>
      </trkpt>
      <trkpt lat="59.1913221" lon="17.8726792">
        <ele>78</ele>
        <time>2013-03-09T12:59:12Z</time>
      </trkpt>
      <trkpt lat="59.1913754" lon="17.8726508">
        <ele>77.8</ele>
        <time>2013-03-09T12:59:13Z</time>
      </trkpt>
      <trkpt lat="59.1914903" lon="17.8726003">
        <ele>76</ele>
        <time>2013-03-09T12:59:15Z</time>
      </trkpt>
      <trkpt lat="59.1915531" lon="17.8726077">
        <ele>75</ele>
        <time>2013-03-09T12:59:16Z</time>
      </trkpt>
      <trkpt lat="59.1917536" lon="17.8727018">
        <ele>74.6</ele>
        <time>2013-03-09T12:59:19Z</time>
      </trkpt>
      <trkpt lat="59.1919689" lon="17.8728453">
        <ele>75</ele>
        <time>2013-03-09T12:59:23Z</time>
      </trkpt>
      <trkpt lat="59.1921721" lon="17.8729126">
        <ele>71.2</ele>
        <time>2013-03-09T12:59:27Z</time>
      </trkpt>
      <trkpt lat="59.192366" lon="17.8728832">
        <ele>71.4</ele>
        <time>2013-03-09T12:59:30Z</time>
      </trkpt>
      <trkpt lat="59.1925415" lon="17.8728106">
        <ele>68.4</ele>
        <time>2013-03-09T12:59:33Z</time>
      </trkpt>
      <trkpt lat="59.1926011" lon="17.8727885">
        <ele>67.8</ele>
        <time>2013-03-09T12:59:34Z</time>
      </trkpt>
      <trkpt lat="59.1927756" lon="17.8728035">
        <ele>67.4</ele>
        <time>2013-03-09T12:59:37Z</time>
      </trkpt>
      <trkpt lat="59.1928361" lon="17.8728336">
        <ele>66.4</ele>
        <time>2013-03-09T12:59:38Z</time>
      </trkpt>
      <trkpt lat="59.1929728" lon="17.8729693">
        <ele>65.8</ele>
        <time>2013-03-09T12:59:41Z</time>
      </trkpt>
      <trkpt lat="59.1930476" lon="17.8730333">
        <ele>64.4</ele>
        <time>2013-03-09T12:59:43Z</time>
      </trkpt>
      <trkpt lat="59.1930812" lon="17.8730517">
        <ele>62</ele>
        <time>2013-03-09T12:59:44Z</time>
      </trkpt>
      <trkpt lat="59.193159" lon="17.8730074">
        <ele>60.2</ele>
        <time>2013-03-09T12:59:46Z</time>
      </trkpt>
      <trkpt lat="59.19325" lon="17.8729769">
        <ele>61.4</ele>
        <time>2013-03-09T12:59:49Z</time>
      </trkpt>
      <trkpt lat="59.1933195" lon="17.8729977">
        <ele>66</ele>
        <time>2013-03-09T12:59:53Z</time>
      </trkpt>
      <trkpt lat="59.1933514" lon="17.8730475">
        <ele>67.6</ele>
        <time>2013-03-09T12:59:55Z</time>
      </trkpt>
      <trkpt lat="59.1934944" lon="17.8732724">
        <ele>72</ele>
        <time>2013-03-09T13:00:02Z</time>
      </trkpt>
      <trkpt lat="59.1936275" lon="17.8735096">
        <ele>73.8</ele>
        <time>2013-03-09T13:00:08Z</time>
      </trkpt>
      <trkpt lat="59.1938142" lon="17.8735038">
        <ele>72</ele>
        <time>2013-03-09T13:00:15Z</time>
      </trkpt>
      <trkpt lat="59.1940345" lon="17.8733827">
        <ele>70.8</ele>
        <time>2013-03-09T13:00:20Z</time>
      </trkpt>
      <trkpt lat="59.19426" lon="17.8731864">
        <ele>68.8</ele>
        <time>2013-03-09T13:00:24Z</time>
      </trkpt>
      <trkpt lat="59.1944437" lon="17.8729973">
        <ele>68.6</ele>
        <time>2013-03-09T13:00:28Z</time>
      </trkpt>
      <trkpt lat="59.1945855" lon="17.8729215">
        <ele>68.6</ele>
        <time>2013-03-09T13:00:31Z</time>
      </trkpt>
      <trkpt lat="59.1946187" lon="17.8729494">
        <ele>69.4</ele>
        <time>2013-03-09T13:00:32Z</time>
      </trkpt>
      <trkpt lat="59.1946494" lon="17.8731174">
        <ele>70</ele>
        <time>2013-03-09T13:00:35Z</time>
      </trkpt>
      <trkpt lat="59.1946462" lon="17.8731791">
        <ele>69.2</ele>
        <time>2013-03-09T13:00:36Z</time>
      </trkpt>
      <trkpt lat="59.1946418" lon="17.873319">
        <ele>68.6</ele>
        <time>2013-03-09T13:00:38Z</time>
      </trkpt>
      <trkpt lat="59.1946507" lon="17.8735671">
        <ele>67.4</ele>
        <time>2013-03-09T13:00:41Z</time>
      </trkpt>
      <trkpt lat="59.1946788" lon="17.8737541">
        <ele>66.8</ele>
        <time>2013-03-09T13:00:43Z</time>
      </trkpt>
      <trkpt lat="59.1947171" lon="17.8741683">
        <ele>64.6</ele>
        <time>2013-03-09T13:00:47Z</time>
      </trkpt>
      <trkpt lat="59.1946892" lon="17.8745384">
        <ele>62.6</ele>
        <time>2013-03-09T13:00:51Z</time>
      </trkpt>
      <trkpt lat="59.1946912" lon="17.8748901">
        <ele>62.4</ele>
        <time>2013-03-09T13:00:56Z</time>
      </trkpt>
      <trkpt lat="59.1947003" lon="17.8752097">
        <ele>61.8</ele>
        <time>2013-03-09T13:00:59Z</time>
      </trkpt>
      <trkpt lat="59.1946968" lon="17.875345">
        <ele>61</ele>
        <time>2013-03-09T13:01:00Z</time>
      </trkpt>
      <trkpt lat="59.1946955" lon="17.8754646">
        <ele>60.8</ele>
        <time>2013-03-09T13:01:01Z</time>
      </trkpt>
      <trkpt lat="59.1946994" lon="17.8757422">
        <ele>60.2</ele>
        <time>2013-03-09T13:01:04Z</time>
      </trkpt>
      <trkpt lat="59.1947207" lon="17.8761001">
        <ele>58.4</ele>
        <time>2013-03-09T13:01:08Z</time>
      </trkpt>
      <trkpt lat="59.1947822" lon="17.8764318">
        <ele>58.2</ele>
        <time>2013-03-09T13:01:12Z</time>
      </trkpt>
      <trkpt lat="59.1948088" lon="17.8765186">
        <ele>58</ele>
        <time>2013-03-09T13:01:13Z</time>
      </trkpt>
      <trkpt lat="59.1948856" lon="17.8767996">
        <ele>57.8</ele>
        <time>2013-03-09T13:01:16Z</time>
      </trkpt>
      <trkpt lat="59.1949683" lon="17.8771015">
        <ele>57.8</ele>
        <time>2013-03-09T13:01:20Z</time>
      </trkpt>
      <trkpt lat="59.1949798" lon="17.8771352">
        <ele>57.8</ele>
        <time>2013-03-09T13:01:21Z</time>
      </trkpt>
      <trkpt lat="59.1950368" lon="17.8774734">
        <ele>65</ele>
        <time>2013-03-09T13:01:30Z</time>
      </trkpt>
      <trkpt lat="59.1950362" lon="17.8777684">
        <ele>64.4</ele>
        <time>2013-03-09T13:01:34Z</time>
      </trkpt>
      <trkpt lat="59.1950356" lon="17.8778586">
        <ele>65</ele>
        <time>2013-03-09T13:01:35Z</time>
      </trkpt>
      <trkpt lat="59.1950461" lon="17.8782483">
        <ele>65.4</ele>
        <time>2013-03-09T13:01:40Z</time>
      </trkpt>
      <trkpt lat="59.195069" lon="17.8785405">
        <ele>66.4</ele>
        <time>2013-03-09T13:01:44Z</time>
      </trkpt>
      <trkpt lat="59.1950824" lon="17.8786238">
        <ele>66.6</ele>
        <time>2013-03-09T13:01:45Z</time>
      </trkpt>
      <trkpt lat="59.1951262" lon="17.8789854">
        <ele>65.6</ele>
        <time>2013-03-09T13:01:49Z</time>
      </trkpt>
      <trkpt lat="59.1951341" lon="17.8792184">
        <ele>64.4</ele>
        <time>2013-03-09T13:01:51Z</time>
      </trkpt>
      <trkpt lat="59.1951261" lon="17.8793346">
        <ele>63</ele>
        <time>2013-03-09T13:01:52Z</time>
      </trkpt>
      <trkpt lat="59.195001" lon="17.8797058">
        <ele>61.4</ele>
        <time>2013-03-09T13:01:56Z</time>
      </trkpt>
      <trkpt lat="59.1949004" lon="17.8798253">
        <ele>61.2</ele>
        <time>2013-03-09T13:01:58Z</time>
      </trkpt>
      <trkpt lat="59.1948569" lon="17.8798697">
        <ele>61.8</ele>
        <time>2013-03-09T13:01:59Z</time>
      </trkpt>
      <trkpt lat="59.1948169" lon="17.8799078">
        <ele>61.6</ele>
        <time>2013-03-09T13:02:00Z</time>
      </trkpt>
      <trkpt lat="59.1946147" lon="17.8800324">
        <ele>62</ele>
        <time>2013-03-09T13:02:05Z</time>
      </trkpt>
      <trkpt lat="59.1945432" lon="17.8802117">
        <ele>61.6</ele>
        <time>2013-03-09T13:02:07Z</time>
      </trkpt>
      <trkpt lat="59.1944518" lon="17.8803728">
        <ele>57.6</ele>
        <time>2013-03-09T13:02:09Z</time>
      </trkpt>
      <trkpt lat="59.194365" lon="17.8804624">
        <ele>55.8</ele>
        <time>2013-03-09T13:02:10Z</time>
      </trkpt>
      <trkpt lat="59.1942793" lon="17.880689">
        <ele>53.6</ele>
        <time>2013-03-09T13:02:12Z</time>
      </trkpt>
      <trkpt lat="59.1940934" lon="17.8809642">
        <ele>51.2</ele>
        <time>2013-03-09T13:02:15Z</time>
      </trkpt>
      <trkpt lat="59.1939133" lon="17.8808856">
        <ele>51</ele>
        <time>2013-03-09T13:02:18Z</time>
      </trkpt>
      <trkpt lat="59.1938602" lon="17.8808684">
        <ele>49.8</ele>
        <time>2013-03-09T13:02:19Z</time>
      </trkpt>
      <trkpt lat="59.1937614" lon="17.8808332">
        <ele>47</ele>
        <time>2013-03-09T13:02:21Z</time>
      </trkpt>
      <trkpt lat="59.1937185" lon="17.8808146">
        <ele>45.6</ele>
        <time>2013-03-09T13:02:22Z</time>
      </trkpt>
      <trkpt lat="59.1936288" lon="17.880783">
        <ele>43.4</ele>
        <time>2013-03-09T13:02:24Z</time>
      </trkpt>
      <trkpt lat="59.1934983" lon="17.880753">
        <ele>43.6</ele>
        <time>2013-03-09T13:02:27Z</time>
      </trkpt>
      <trkpt lat="59.1934607" lon="17.8807489">
        <ele>43.6</ele>
        <time>2013-03-09T13:02:28Z</time>
      </trkpt>
      <trkpt lat="59.1933595" lon="17.8808176">
        <ele>47.8</ele>
        <time>2013-03-09T13:02:32Z</time>
      </trkpt>
      <trkpt lat="59.1933103" lon="17.8808415">
        <ele>48.4</ele>
        <time>2013-03-09T13:02:33Z</time>
      </trkpt>
      <trkpt lat="59.1931475" lon="17.880926">
        <ele>47.2</ele>
        <time>2013-03-09T13:02:36Z</time>
      </trkpt>
      <trkpt lat="59.1930988" lon="17.8809556">
        <ele>46.6</ele>
        <time>2013-03-09T13:02:37Z</time>
      </trkpt>
      <trkpt lat="59.1930294" lon="17.8810195">
        <ele>47.6</ele>
        <time>2013-03-09T13:02:39Z</time>
      </trkpt>
      <trkpt lat="59.1928859" lon="17.8810324">
        <ele>46.4</ele>
        <time>2013-03-09T13:02:42Z</time>
      </trkpt>
      <trkpt lat="59.1927576" lon="17.8808755">
        <ele>46.6</ele>
        <time>2013-03-09T13:02:45Z</time>
      </trkpt>
      <trkpt lat="59.1927193" lon="17.8808156">
        <ele>47</ele>
        <time>2013-03-09T13:02:46Z</time>
      </trkpt>
      <trkpt lat="59.1925441" lon="17.8805726">
        <ele>48.6</ele>
        <time>2013-03-09T13:02:51Z</time>
      </trkpt>
      <trkpt lat="59.192444" lon="17.8804028">
        <ele>47.8</ele>
        <time>2013-03-09T13:02:55Z</time>
      </trkpt>
      <trkpt lat="59.1924109" lon="17.8803867">
        <ele>47</ele>
        <time>2013-03-09T13:02:56Z</time>
      </trkpt>
      <trkpt lat="59.1923709" lon="17.8803862">
        <ele>46.8</ele>
        <time>2013-03-09T13:02:57Z</time>
      </trkpt>
      <trkpt lat="59.1921619" lon="17.8803591">
        <ele>46.8</ele>
        <time>2013-03-09T13:03:02Z</time>
      </trkpt>
      <trkpt lat="59.191967" lon="17.8803775">
        <ele>47.6</ele>
        <time>2013-03-09T13:03:07Z</time>
      </trkpt>
      <trkpt lat="59.1918183" lon="17.8803182">
        <ele>49.8</ele>
        <time>2013-03-09T13:03:10Z</time>
      </trkpt>
      <trkpt lat="59.1917697" lon="17.8803079">
        <ele>49.6</ele>
        <time>2013-03-09T13:03:11Z</time>
      </trkpt>
      <trkpt lat="59.1916256" lon="17.8803673">
        <ele>50.2</ele>
        <time>2013-03-09T13:03:15Z</time>
      </trkpt>
      <trkpt lat="59.1915909" lon="17.8803987">
        <ele>50.4</ele>
        <time>2013-03-09T13:03:16Z</time>
      </trkpt>
      <trkpt lat="59.1915501" lon="17.8804405">
        <ele>51</ele>
        <time>2013-03-09T13:03:17Z</time>
      </trkpt>
      <trkpt lat="59.1914241" lon="17.8805378">
        <ele>51</ele>
        <time>2013-03-09T13:03:20Z</time>
      </trkpt>
      <trkpt lat="59.1912435" lon="17.8806592">
        <ele>59.2</ele>
        <time>2013-03-09T13:03:29Z</time>
      </trkpt>
      <trkpt lat="59.191072" lon="17.8808119">
        <ele>64.8</ele>
        <time>2013-03-09T13:03:34Z</time>
      </trkpt>
      <trkpt lat="59.1908831" lon="17.8808378">
        <ele>64.2</ele>
        <time>2013-03-09T13:03:37Z</time>
      </trkpt>
      <trkpt lat="59.1906699" lon="17.8807342">
        <ele>64.6</ele>
        <time>2013-03-09T13:03:40Z</time>
      </trkpt>
      <trkpt lat="59.1905528" lon="17.880659">
        <ele>62.6</ele>
        <time>2013-03-09T13:03:42Z</time>
      </trkpt>
      <trkpt lat="59.1904948" lon="17.8806354">
        <ele>61</ele>
        <time>2013-03-09T13:03:43Z</time>
      </trkpt>
      <trkpt lat="59.190291" lon="17.8805348">
        <ele>54.2</ele>
        <time>2013-03-09T13:03:47Z</time>
      </trkpt>
      <trkpt lat="59.1901931" lon="17.8804816">
        <ele>51.2</ele>
        <time>2013-03-09T13:03:49Z</time>
      </trkpt>
      <trkpt lat="59.1901114" lon="17.8804411">
        <ele>49.8</ele>
        <time>2013-03-09T13:03:51Z</time>
      </trkpt>
      <trkpt lat="59.1900307" lon="17.8804028">
        <ele>49.8</ele>
        <time>2013-03-09T13:03:53Z</time>
      </trkpt>
      <trkpt lat="59.1899414" lon="17.8803829">
        <ele>50.2</ele>
        <time>2013-03-09T13:03:55Z</time>
      </trkpt>
      <trkpt lat="59.1898925" lon="17.880385">
        <ele>50</ele>
        <time>2013-03-09T13:03:56Z</time>
      </trkpt>
      <trkpt lat="59.1897329" lon="17.8803488">
        <ele>52.2</ele>
        <time>2013-03-09T13:04:00Z</time>
      </trkpt>
      <trkpt lat="59.1896915" lon="17.8803353">
        <ele>52.4</ele>
        <time>2013-03-09T13:04:01Z</time>
      </trkpt>
      <trkpt lat="59.1895665" lon="17.8802679">
        <ele>50.2</ele>
        <time>2013-03-09T13:04:04Z</time>
      </trkpt>
      <trkpt lat="59.1895172" lon="17.8802476">
        <ele>48.8</ele>
        <time>2013-03-09T13:04:05Z</time>
      </trkpt>
      <trkpt lat="59.1893806" lon="17.88018">
        <ele>45.6</ele>
        <time>2013-03-09T13:04:08Z</time>
      </trkpt>
      <trkpt lat="59.1893039" lon="17.8801396">
        <ele>44.8</ele>
        <time>2013-03-09T13:04:10Z</time>
      </trkpt>
      <trkpt lat="59.1890952" lon="17.8800713">
        <ele>48.6</ele>
        <time>2013-03-09T13:04:15Z</time>
      </trkpt>
      <trkpt lat="59.1890516" lon="17.8800555">
        <ele>49.8</ele>
        <time>2013-03-09T13:04:16Z</time>
      </trkpt>
      <trkpt lat="59.1888734" lon="17.8800349">
        <ele>53</ele>
        <time>2013-03-09T13:04:20Z</time>
      </trkpt>
      <trkpt lat="59.1888212" lon="17.8800176">
        <ele>53</ele>
        <time>2013-03-09T13:04:21Z</time>
      </trkpt>
      <trkpt lat="59.1886979" lon="17.8799728">
        <ele>52.2</ele>
        <time>2013-03-09T13:04:24Z</time>
      </trkpt>
      <trkpt lat="59.1886607" lon="17.8799842">
        <ele>51.6</ele>
        <time>2013-03-09T13:04:25Z</time>
      </trkpt>
      <trkpt lat="59.1885457" lon="17.8801261">
        <ele>51.6</ele>
        <time>2013-03-09T13:04:29Z</time>
      </trkpt>
      <trkpt lat="59.1884967" lon="17.8802155">
        <ele>51.8</ele>
        <time>2013-03-09T13:04:31Z</time>
      </trkpt>
      <trkpt lat="59.1884025" lon="17.8805354">
        <ele>53.4</ele>
        <time>2013-03-09T13:04:37Z</time>
      </trkpt>
      <trkpt lat="59.1882985" lon="17.8808833">
        <ele>55.6</ele>
        <time>2013-03-09T13:04:42Z</time>
      </trkpt>
      <trkpt lat="59.1881385" lon="17.8810974">
        <ele>57.6</ele>
        <time>2013-03-09T13:04:48Z</time>
      </trkpt>
      <trkpt lat="59.1879652" lon="17.8813019">
        <ele>59.2</ele>
        <time>2013-03-09T13:04:53Z</time>
      </trkpt>
      <trkpt lat="59.18781" lon="17.88142">
        <ele>61.8</ele>
        <time>2013-03-09T13:04:56Z</time>
      </trkpt>
      <trkpt lat="59.1877472" lon="17.8814492">
        <ele>62.2</ele>
        <time>2013-03-09T13:04:57Z</time>
      </trkpt>
      <trkpt lat="59.1875623" lon="17.8815724">
        <ele>64.4</ele>
        <time>2013-03-09T13:05:00Z</time>
      </trkpt>
      <trkpt lat="59.1873557" lon="17.8817352">
        <ele>61.4</ele>
        <time>2013-03-09T13:05:04Z</time>
      </trkpt>
      <trkpt lat="59.187307" lon="17.8817966">
        <ele>61.8</ele>
        <time>2013-03-09T13:05:05Z</time>
      </trkpt>
      <trkpt lat="59.1872117" lon="17.8819968">
        <ele>59.2</ele>
        <time>2013-03-09T13:05:07Z</time>
      </trkpt>
      <trkpt lat="59.1871656" lon="17.8823374">
        <ele>56.8</ele>
        <time>2013-03-09T13:05:10Z</time>
      </trkpt>
      <trkpt lat="59.1871869" lon="17.8825173">
        <ele>56</ele>
        <time>2013-03-09T13:05:12Z</time>
      </trkpt>
      <trkpt lat="59.1871904" lon="17.8826001">
        <ele>55.8</ele>
        <time>2013-03-09T13:05:13Z</time>
      </trkpt>
      <trkpt lat="59.1872076" lon="17.882741">
        <ele>54.8</ele>
        <time>2013-03-09T13:05:15Z</time>
      </trkpt>
      <trkpt lat="59.1872568" lon="17.8829592">
        <ele>53.8</ele>
        <time>2013-03-09T13:05:18Z</time>
      </trkpt>
      <trkpt lat="59.1872728" lon="17.8831">
        <ele>53.6</ele>
        <time>2013-03-09T13:05:20Z</time>
      </trkpt>
      <trkpt lat="59.1873254" lon="17.8835008">
        <ele>52.8</ele>
        <time>2013-03-09T13:05:26Z</time>
      </trkpt>
      <trkpt lat="59.1873806" lon="17.8838362">
        <ele>52.6</ele>
        <time>2013-03-09T13:05:31Z</time>
      </trkpt>
      <trkpt lat="59.1874311" lon="17.8842055">
        <ele>52.2</ele>
        <time>2013-03-09T13:05:37Z</time>
      </trkpt>
      <trkpt lat="59.1874736" lon="17.8846007">
        <ele>55.6</ele>
        <time>2013-03-09T13:05:43Z</time>
      </trkpt>
      <trkpt lat="59.1875756" lon="17.8849737">
        <ele>56.8</ele>
        <time>2013-03-09T13:05:48Z</time>
      </trkpt>
      <trkpt lat="59.1875928" lon="17.8851525">
        <ele>56.2</ele>
        <time>2013-03-09T13:05:50Z</time>
      </trkpt>
      <trkpt lat="59.187611" lon="17.8853952">
        <ele>55.4</ele>
        <time>2013-03-09T13:05:53Z</time>
      </trkpt>
      <trkpt lat="59.18764" lon="17.8855419">
        <ele>55.4</ele>
        <time>2013-03-09T13:05:55Z</time>
      </trkpt>
      <trkpt lat="59.1876757" lon="17.8856646">
        <ele>55.8</ele>
        <time>2013-03-09T13:05:57Z</time>
      </trkpt>
      <trkpt lat="59.1876964" lon="17.8857143">
        <ele>55.8</ele>
        <time>2013-03-09T13:05:58Z</time>
      </trkpt>
      <trkpt lat="59.1878218" lon="17.8859748">
        <ele>55.6</ele>
        <time>2013-03-09T13:06:03Z</time>
      </trkpt>
      <trkpt lat="59.187883" lon="17.8863588">
        <ele>55</ele>
        <time>2013-03-09T13:06:08Z</time>
      </trkpt>
      <trkpt lat="59.1878347" lon="17.8867515">
        <ele>53</ele>
        <time>2013-03-09T13:06:13Z</time>
      </trkpt>
      <trkpt lat="59.1878217" lon="17.8869184">
        <ele>52.8</ele>
        <time>2013-03-09T13:06:15Z</time>
      </trkpt>
      <trkpt lat="59.1877654" lon="17.8871139">
        <ele>54</ele>
        <time>2013-03-09T13:06:18Z</time>
      </trkpt>
      <trkpt lat="59.1877411" lon="17.8871805">
        <ele>54</ele>
        <time>2013-03-09T13:06:19Z</time>
      </trkpt>
      <trkpt lat="59.1876364" lon="17.8874109">
        <ele>53.8</ele>
        <time>2013-03-09T13:06:23Z</time>
      </trkpt>
      <trkpt lat="59.1875651" lon="17.8875286">
        <ele>49.6</ele>
        <time>2013-03-09T13:06:25Z</time>
      </trkpt>
      <trkpt lat="59.1875269" lon="17.8877201">
        <ele>49.8</ele>
        <time>2013-03-09T13:06:28Z</time>
      </trkpt>
      <trkpt lat="59.1874456" lon="17.8880941">
        <ele>55.2</ele>
        <time>2013-03-09T13:06:33Z</time>
      </trkpt>
      <trkpt lat="59.1874033" lon="17.8882906">
        <ele>52.8</ele>
        <time>2013-03-09T13:06:36Z</time>
      </trkpt>
      <trkpt lat="59.1873689" lon="17.888436">
        <ele>51.4</ele>
        <time>2013-03-09T13:06:38Z</time>
      </trkpt>
      <trkpt lat="59.1873708" lon="17.8888306">
        <ele>54.4</ele>
        <time>2013-03-09T13:06:43Z</time>
      </trkpt>
      <trkpt lat="59.187447" lon="17.8890575">
        <ele>53.6</ele>
        <time>2013-03-09T13:06:47Z</time>
      </trkpt>
      <trkpt lat="59.1874981" lon="17.8891544">
        <ele>53.6</ele>
        <time>2013-03-09T13:06:49Z</time>
      </trkpt>
      <trkpt lat="59.1876198" lon="17.8894508">
        <ele>53.8</ele>
        <time>2013-03-09T13:06:54Z</time>
      </trkpt>
      <trkpt lat="59.1877089" lon="17.8897905">
        <ele>55</ele>
        <time>2013-03-09T13:07:00Z</time>
      </trkpt>
      <trkpt lat="59.1877415" lon="17.8899006">
        <ele>55.4</ele>
        <time>2013-03-09T13:07:02Z</time>
      </trkpt>
      <trkpt lat="59.1877591" lon="17.8901815">
        <ele>55.2</ele>
        <time>2013-03-09T13:07:06Z</time>
      </trkpt>
      <trkpt lat="59.187826" lon="17.8905415">
        <ele>57.2</ele>
        <time>2013-03-09T13:07:13Z</time>
      </trkpt>
      <trkpt lat="59.1879093" lon="17.8908531">
        <ele>60.8</ele>
        <time>2013-03-09T13:07:19Z</time>
      </trkpt>
      <trkpt lat="59.1878334" lon="17.8911819">
        <ele>62</ele>
        <time>2013-03-09T13:07:26Z</time>
      </trkpt>
      <trkpt lat="59.1877219" lon="17.8915271">
        <ele>56.8</ele>
        <time>2013-03-09T13:07:32Z</time>
      </trkpt>
      <trkpt lat="59.1877172" lon="17.8918956">
        <ele>58.4</ele>
        <time>2013-03-09T13:07:39Z</time>
      </trkpt>
      <trkpt lat="59.1877711" lon="17.892258">
        <ele>60</ele>
        <time>2013-03-09T13:07:45Z</time>
      </trkpt>
      <trkpt lat="59.1877856" lon="17.8926759">
        <ele>61.6</ele>
        <time>2013-03-09T13:07:49Z</time>
      </trkpt>
      <trkpt lat="59.1878393" lon="17.8930734">
        <ele>61</ele>
        <time>2013-03-09T13:07:53Z</time>
      </trkpt>
      <trkpt lat="59.1879722" lon="17.8933254">
        <ele>60.4</ele>
        <time>2013-03-09T13:07:57Z</time>
      </trkpt>
      <trkpt lat="59.1880182" lon="17.8933597">
        <ele>61</ele>
        <time>2013-03-09T13:07:58Z</time>
      </trkpt>
      <trkpt lat="59.1880591" lon="17.8933947">
        <ele>61.4</ele>
        <time>2013-03-09T13:07:59Z</time>
      </trkpt>
      <trkpt lat="59.1881678" lon="17.8935088">
        <ele>61.8</ele>
        <time>2013-03-09T13:08:02Z</time>
      </trkpt>
      <trkpt lat="59.1881998" lon="17.8935481">
        <ele>60.8</ele>
        <time>2013-03-09T13:08:03Z</time>
      </trkpt>
      <trkpt lat="59.1883554" lon="17.8937238">
        <ele>60.2</ele>
        <time>2013-03-09T13:08:07Z</time>
      </trkpt>
      <trkpt lat="59.1885443" lon="17.89393">
        <ele>59</ele>
        <time>2013-03-09T13:08:11Z</time>
      </trkpt>
      <trkpt lat="59.1886282" lon="17.893986">
        <ele>57.4</ele>
        <time>2013-03-09T13:08:13Z</time>
      </trkpt>
      <trkpt lat="59.1887258" lon="17.8940005">
        <ele>55.8</ele>
        <time>2013-03-09T13:08:15Z</time>
      </trkpt>
      <trkpt lat="59.1889499" lon="17.8939958">
        <ele>50.8</ele>
        <time>2013-03-09T13:08:20Z</time>
      </trkpt>
      <trkpt lat="59.1891573" lon="17.8941303">
        <ele>51.4</ele>
        <time>2013-03-09T13:08:24Z</time>
      </trkpt>
      <trkpt lat="59.1893525" lon="17.8942885">
        <ele>51.4</ele>
        <time>2013-03-09T13:08:28Z</time>
      </trkpt>
      <trkpt lat="59.1893951" lon="17.8943489">
        <ele>50.6</ele>
        <time>2013-03-09T13:08:29Z</time>
      </trkpt>
      <trkpt lat="59.1895329" lon="17.8944903">
        <ele>51</ele>
        <time>2013-03-09T13:08:32Z</time>
      </trkpt>
      <trkpt lat="59.1895726" lon="17.8945522">
        <ele>51</ele>
        <time>2013-03-09T13:08:33Z</time>
      </trkpt>
      <trkpt lat="59.1896876" lon="17.8947847">
        <ele>51.6</ele>
        <time>2013-03-09T13:08:36Z</time>
      </trkpt>
      <trkpt lat="59.1897259" lon="17.8948583">
        <ele>52.6</ele>
        <time>2013-03-09T13:08:37Z</time>
      </trkpt>
      <trkpt lat="59.1898134" lon="17.895094">
        <ele>52.4</ele>
        <time>2013-03-09T13:08:40Z</time>
      </trkpt>
      <trkpt lat="59.1899065" lon="17.8953937">
        <ele>53.6</ele>
        <time>2013-03-09T13:08:44Z</time>
      </trkpt>
      <trkpt lat="59.1899303" lon="17.8954634">
        <ele>55.2</ele>
        <time>2013-03-09T13:08:45Z</time>
      </trkpt>
      <trkpt lat="59.1899813" lon="17.8955861">
        <ele>54.8</ele>
        <time>2013-03-09T13:08:47Z</time>
      </trkpt>
      <trkpt lat="59.1900674" lon="17.8957755">
        <ele>53.2</ele>
        <time>2013-03-09T13:08:50Z</time>
      </trkpt>
      <trkpt lat="59.1901313" lon="17.8959089">
        <ele>53.6</ele>
        <time>2013-03-09T13:08:52Z</time>
      </trkpt>
      <trkpt lat="59.1901918" lon="17.8960527">
        <ele>53.6</ele>
        <time>2013-03-09T13:08:54Z</time>
      </trkpt>
      <trkpt lat="59.190259" lon="17.8962013">
        <ele>53.8</ele>
        <time>2013-03-09T13:08:56Z</time>
      </trkpt>
      <trkpt lat="59.1903264" lon="17.8963321">
        <ele>53.6</ele>
        <time>2013-03-09T13:08:58Z</time>
      </trkpt>
      <trkpt lat="59.1904719" lon="17.8965435">
        <ele>53.8</ele>
        <time>2013-03-09T13:09:02Z</time>
      </trkpt>
      <trkpt lat="59.1905859" lon="17.8968816">
        <ele>51.4</ele>
        <time>2013-03-09T13:09:07Z</time>
      </trkpt>
      <trkpt lat="59.190679" lon="17.8971671">
        <ele>51.2</ele>
        <time>2013-03-09T13:09:11Z</time>
      </trkpt>
      <trkpt lat="59.1906974" lon="17.8972337">
        <ele>51.8</ele>
        <time>2013-03-09T13:09:12Z</time>
      </trkpt>
      <trkpt lat="59.1907086" lon="17.8973209">
        <ele>51.8</ele>
        <time>2013-03-09T13:09:13Z</time>
      </trkpt>
      <trkpt lat="59.1907345" lon="17.8975927">
        <ele>51.2</ele>
        <time>2013-03-09T13:09:16Z</time>
      </trkpt>
      <trkpt lat="59.1907449" lon="17.8977652">
        <ele>50.8</ele>
        <time>2013-03-09T13:09:18Z</time>
      </trkpt>
      <trkpt lat="59.1907192" lon="17.8980016">
        <ele>51.2</ele>
        <time>2013-03-09T13:09:21Z</time>
      </trkpt>
      <trkpt lat="59.1907025" lon="17.8980881">
        <ele>50</ele>
        <time>2013-03-09T13:09:22Z</time>
      </trkpt>
      <trkpt lat="59.1906949" lon="17.8981752">
        <ele>50.4</ele>
        <time>2013-03-09T13:09:23Z</time>
      </trkpt>
      <trkpt lat="59.1906884" lon="17.8983563">
        <ele>50.4</ele>
        <time>2013-03-09T13:09:25Z</time>
      </trkpt>
      <trkpt lat="59.1907959" lon="17.8986791">
        <ele>51.6</ele>
        <time>2013-03-09T13:09:30Z</time>
      </trkpt>
      <trkpt lat="59.1908331" lon="17.8987236">
        <ele>52.2</ele>
        <time>2013-03-09T13:09:31Z</time>
      </trkpt>
      <trkpt lat="59.1909272" lon="17.8988717">
        <ele>55.2</ele>
        <time>2013-03-09T13:09:34Z</time>
      </trkpt>
      <trkpt lat="59.1909503" lon="17.8989357">
        <ele>55</ele>
        <time>2013-03-09T13:09:35Z</time>
      </trkpt>
      <trkpt lat="59.1910014" lon="17.8991346">
        <ele>57.4</ele>
        <time>2013-03-09T13:09:38Z</time>
      </trkpt>
      <trkpt lat="59.1910257" lon="17.8993019">
        <ele>57</ele>
        <time>2013-03-09T13:09:40Z</time>
      </trkpt>
      <trkpt lat="59.1910454" lon="17.8994483">
        <ele>57</ele>
        <time>2013-03-09T13:09:42Z</time>
      </trkpt>
      <trkpt lat="59.1910698" lon="17.8997168">
        <ele>56.6</ele>
        <time>2013-03-09T13:09:45Z</time>
      </trkpt>
      <trkpt lat="59.1910859" lon="17.8998018">
        <ele>56.2</ele>
        <time>2013-03-09T13:09:46Z</time>
      </trkpt>
      <trkpt lat="59.1911232" lon="17.8999588">
        <ele>56.4</ele>
        <time>2013-03-09T13:09:48Z</time>
      </trkpt>
      <trkpt lat="59.1911499" lon="17.9000392">
        <ele>56</ele>
        <time>2013-03-09T13:09:49Z</time>
      </trkpt>
      <trkpt lat="59.1912033" lon="17.9002025">
        <ele>56</ele>
        <time>2013-03-09T13:09:51Z</time>
      </trkpt>
      <trkpt lat="59.1912361" lon="17.9003742">
        <ele>55.4</ele>
        <time>2013-03-09T13:09:53Z</time>
      </trkpt>
      <trkpt lat="59.1912619" lon="17.9006741">
        <ele>55</ele>
        <time>2013-03-09T13:09:56Z</time>
      </trkpt>
      <trkpt lat="59.1912655" lon="17.900773">
        <ele>55.2</ele>
        <time>2013-03-09T13:09:57Z</time>
      </trkpt>
      <trkpt lat="59.1912702" lon="17.9008741">
        <ele>54.2</ele>
        <time>2013-03-09T13:09:58Z</time>
      </trkpt>
      <trkpt lat="59.1912971" lon="17.9011567">
        <ele>53</ele>
        <time>2013-03-09T13:10:01Z</time>
      </trkpt>
      <trkpt lat="59.1913309" lon="17.9014369">
        <ele>50.6</ele>
        <time>2013-03-09T13:10:04Z</time>
      </trkpt>
      <trkpt lat="59.1913413" lon="17.9015225">
        <ele>49.8</ele>
        <time>2013-03-09T13:10:05Z</time>
      </trkpt>
      <trkpt lat="59.1913525" lon="17.9016105">
        <ele>49.6</ele>
        <time>2013-03-09T13:10:06Z</time>
      </trkpt>
      <trkpt lat="59.1913869" lon="17.9018735">
        <ele>47.8</ele>
        <time>2013-03-09T13:10:09Z</time>
      </trkpt>
      <trkpt lat="59.1914101" lon="17.9021265">
        <ele>47.8</ele>
        <time>2013-03-09T13:10:12Z</time>
      </trkpt>
      <trkpt lat="59.1914486" lon="17.9022399">
        <ele>47.8</ele>
        <time>2013-03-09T13:10:14Z</time>
      </trkpt>
      <trkpt lat="59.1915696" lon="17.9021629">
        <ele>44</ele>
        <time>2013-03-09T13:10:18Z</time>
      </trkpt>
      <trkpt lat="59.191634" lon="17.9020952">
        <ele>42.8</ele>
        <time>2013-03-09T13:10:20Z</time>
      </trkpt>
      <trkpt lat="59.1917865" lon="17.9018762">
        <ele>42.2</ele>
        <time>2013-03-09T13:10:25Z</time>
      </trkpt>
      <trkpt lat="59.191951" lon="17.9017049">
        <ele>40.4</ele>
        <time>2013-03-09T13:10:30Z</time>
      </trkpt>
      <trkpt lat="59.1921137" lon="17.9015377">
        <ele>38</ele>
        <time>2013-03-09T13:10:35Z</time>
      </trkpt>
      <trkpt lat="59.1923022" lon="17.9013568">
        <ele>37</ele>
        <time>2013-03-09T13:10:41Z</time>
      </trkpt>
      <trkpt lat="59.1924912" lon="17.9014319">
        <ele>44</ele>
        <time>2013-03-09T13:10:46Z</time>
      </trkpt>
      <trkpt lat="59.1926231" lon="17.9015288">
        <ele>47.4</ele>
        <time>2013-03-09T13:10:49Z</time>
      </trkpt>
      <trkpt lat="59.1927019" lon="17.9015464">
        <ele>46.2</ele>
        <time>2013-03-09T13:10:51Z</time>
      </trkpt>
      <trkpt lat="59.1927809" lon="17.9015814">
        <ele>46.2</ele>
        <time>2013-03-09T13:10:53Z</time>
      </trkpt>
    </trkseg>
  </trk>
</gpx>